<?xml version="1.0" encoding="UTF-8" standalone="no" ?>
<gpx xmlns="http://www.topografix.com/GPX/1/1" xmlns:xsi="http://www.w3.org/2001/XMLSchema-instance" xsi:schemaLocation="http://www.topografix.com/GPX/1/1 http://www.topografix.com/GPX/1/1/gpx.xsd" version="1.1" creator="VisuGPX - https://www.visugpx.com">
  <metadata>
    <name>Créancey-Saint-Victor-sur-Ouche</name>
    <desc><![CDATA[Chemin de Compostelle 2014-1 : Créancey-Saint-Victor-sur-Ouche]]></desc>
  </metadata>
  <trk>
    <name><![CDATA[16 Créancey Saint-Victor-Sur-Ouche]]></name>
    <trkseg>
      <trkpt lat="47.24789" lon="4.56655">
        <ele>406</ele>
        <time>2014-04-23T07:28:46Z</time>
      </trkpt>
      <trkpt lat="47.24791" lon="4.56648">
        <ele>406</ele>
        <time>2014-04-23T07:28:52Z</time>
      </trkpt>
      <trkpt lat="47.24791" lon="4.56641">
        <ele>406</ele>
        <time>2014-04-23T07:28:58Z</time>
      </trkpt>
      <trkpt lat="47.24792" lon="4.56634">
        <ele>406</ele>
        <time>2014-04-23T07:29:01Z</time>
      </trkpt>
      <trkpt lat="47.24792" lon="4.56625">
        <ele>406</ele>
        <time>2014-04-23T07:29:04Z</time>
      </trkpt>
      <trkpt lat="47.24792" lon="4.56618">
        <ele>406</ele>
        <time>2014-04-23T07:29:09Z</time>
      </trkpt>
      <trkpt lat="47.24793" lon="4.5661">
        <ele>406</ele>
        <time>2014-04-23T07:29:13Z</time>
      </trkpt>
      <trkpt lat="47.24793" lon="4.56601">
        <ele>406</ele>
        <time>2014-04-23T07:29:16Z</time>
      </trkpt>
      <trkpt lat="47.24792" lon="4.56595">
        <ele>406</ele>
        <time>2014-04-23T07:29:22Z</time>
      </trkpt>
      <trkpt lat="47.24792" lon="4.56587">
        <ele>406</ele>
        <time>2014-04-23T07:29:26Z</time>
      </trkpt>
      <trkpt lat="47.24792" lon="4.56578">
        <ele>407</ele>
        <time>2014-04-23T07:29:29Z</time>
      </trkpt>
      <trkpt lat="47.24792" lon="4.5657">
        <ele>408</ele>
        <time>2014-04-23T07:29:33Z</time>
      </trkpt>
      <trkpt lat="47.24796" lon="4.56568">
        <ele>408</ele>
        <time>2014-04-23T07:29:39Z</time>
      </trkpt>
      <trkpt lat="47.24801" lon="4.56567">
        <ele>408</ele>
        <time>2014-04-23T07:29:42Z</time>
      </trkpt>
      <trkpt lat="47.24806" lon="4.56565">
        <ele>408</ele>
        <time>2014-04-23T07:29:46Z</time>
      </trkpt>
      <trkpt lat="47.24812" lon="4.56562">
        <ele>408</ele>
        <time>2014-04-23T07:29:53Z</time>
      </trkpt>
      <trkpt lat="47.24819" lon="4.56561">
        <ele>408</ele>
        <time>2014-04-23T07:29:56Z</time>
      </trkpt>
      <trkpt lat="47.24824" lon="4.5656">
        <ele>408</ele>
        <time>2014-04-23T07:29:59Z</time>
      </trkpt>
      <trkpt lat="47.24828" lon="4.56557">
        <ele>408</ele>
        <time>2014-04-23T07:30:05Z</time>
      </trkpt>
      <trkpt lat="47.24833" lon="4.56559">
        <ele>408</ele>
        <time>2014-04-23T07:30:10Z</time>
      </trkpt>
      <trkpt lat="47.24839" lon="4.56559">
        <ele>408</ele>
        <time>2014-04-23T07:30:14Z</time>
      </trkpt>
      <trkpt lat="47.24844" lon="4.56557">
        <ele>409</ele>
        <time>2014-04-23T07:30:18Z</time>
      </trkpt>
      <trkpt lat="47.24849" lon="4.56554">
        <ele>409</ele>
        <time>2014-04-23T07:30:22Z</time>
      </trkpt>
      <trkpt lat="47.24854" lon="4.56552">
        <ele>409</ele>
        <time>2014-04-23T07:30:26Z</time>
      </trkpt>
      <trkpt lat="47.24859" lon="4.56552">
        <ele>409</ele>
        <time>2014-04-23T07:30:31Z</time>
      </trkpt>
      <trkpt lat="47.24864" lon="4.56552">
        <ele>409</ele>
        <time>2014-04-23T07:30:35Z</time>
      </trkpt>
      <trkpt lat="47.24869" lon="4.56552">
        <ele>409</ele>
        <time>2014-04-23T07:30:39Z</time>
      </trkpt>
      <trkpt lat="47.24875" lon="4.56552">
        <ele>409</ele>
        <time>2014-04-23T07:30:43Z</time>
      </trkpt>
      <trkpt lat="47.24884" lon="4.56548">
        <ele>409</ele>
        <time>2014-04-23T07:30:52Z</time>
      </trkpt>
      <trkpt lat="47.24888" lon="4.56551">
        <ele>409</ele>
        <time>2014-04-23T07:30:55Z</time>
      </trkpt>
      <trkpt lat="47.24893" lon="4.56554">
        <ele>409</ele>
        <time>2014-04-23T07:30:58Z</time>
      </trkpt>
      <trkpt lat="47.24899" lon="4.56555">
        <ele>409</ele>
        <time>2014-04-23T07:31:01Z</time>
      </trkpt>
      <trkpt lat="47.24904" lon="4.56554">
        <ele>409</ele>
        <time>2014-04-23T07:31:05Z</time>
      </trkpt>
      <trkpt lat="47.24909" lon="4.56555">
        <ele>409</ele>
        <time>2014-04-23T07:31:09Z</time>
      </trkpt>
      <trkpt lat="47.24915" lon="4.56556">
        <ele>409</ele>
        <time>2014-04-23T07:31:13Z</time>
      </trkpt>
      <trkpt lat="47.24921" lon="4.56556">
        <ele>410</ele>
        <time>2014-04-23T07:31:17Z</time>
      </trkpt>
      <trkpt lat="47.24925" lon="4.56557">
        <ele>410</ele>
        <time>2014-04-23T07:31:21Z</time>
      </trkpt>
      <trkpt lat="47.2493" lon="4.5656">
        <ele>410</ele>
        <time>2014-04-23T07:31:26Z</time>
      </trkpt>
      <trkpt lat="47.24935" lon="4.56562">
        <ele>410</ele>
        <time>2014-04-23T07:31:30Z</time>
      </trkpt>
      <trkpt lat="47.2494" lon="4.56565">
        <ele>410</ele>
        <time>2014-04-23T07:31:34Z</time>
      </trkpt>
      <trkpt lat="47.24946" lon="4.56565">
        <ele>410</ele>
        <time>2014-04-23T07:31:41Z</time>
      </trkpt>
      <trkpt lat="47.24952" lon="4.56566">
        <ele>410</ele>
        <time>2014-04-23T07:31:45Z</time>
      </trkpt>
      <trkpt lat="47.24957" lon="4.56568">
        <ele>410</ele>
        <time>2014-04-23T07:31:49Z</time>
      </trkpt>
      <trkpt lat="47.24961" lon="4.56568">
        <ele>411</ele>
        <time>2014-04-23T07:31:53Z</time>
      </trkpt>
      <trkpt lat="47.24966" lon="4.56568">
        <ele>411</ele>
        <time>2014-04-23T07:31:57Z</time>
      </trkpt>
      <trkpt lat="47.24971" lon="4.56569">
        <ele>411</ele>
        <time>2014-04-23T07:32:01Z</time>
      </trkpt>
      <trkpt lat="47.24976" lon="4.5657">
        <ele>411</ele>
        <time>2014-04-23T07:32:06Z</time>
      </trkpt>
      <trkpt lat="47.24981" lon="4.56572">
        <ele>411</ele>
        <time>2014-04-23T07:32:10Z</time>
      </trkpt>
      <trkpt lat="47.24985" lon="4.56574">
        <ele>412</ele>
        <time>2014-04-23T07:32:17Z</time>
      </trkpt>
      <trkpt lat="47.2499" lon="4.56574">
        <ele>412</ele>
        <time>2014-04-23T07:32:22Z</time>
      </trkpt>
      <trkpt lat="47.24993" lon="4.56575">
        <ele>412</ele>
        <time>2014-04-23T07:32:30Z</time>
      </trkpt>
      <trkpt lat="47.24998" lon="4.56575">
        <ele>412</ele>
        <time>2014-04-23T07:32:40Z</time>
      </trkpt>
      <trkpt lat="47.25003" lon="4.56576">
        <ele>413</ele>
        <time>2014-04-23T07:32:45Z</time>
      </trkpt>
      <trkpt lat="47.25007" lon="4.56576">
        <ele>412</ele>
        <time>2014-04-23T07:32:49Z</time>
      </trkpt>
      <trkpt lat="47.25013" lon="4.56575">
        <ele>412</ele>
        <time>2014-04-23T07:32:53Z</time>
      </trkpt>
      <trkpt lat="47.25018" lon="4.56576">
        <ele>412</ele>
        <time>2014-04-23T07:32:56Z</time>
      </trkpt>
      <trkpt lat="47.25024" lon="4.56578">
        <ele>412</ele>
        <time>2014-04-23T07:32:59Z</time>
      </trkpt>
      <trkpt lat="47.25029" lon="4.5658">
        <ele>412</ele>
        <time>2014-04-23T07:33:02Z</time>
      </trkpt>
      <trkpt lat="47.25034" lon="4.56579">
        <ele>412</ele>
        <time>2014-04-23T07:33:10Z</time>
      </trkpt>
      <trkpt lat="47.25039" lon="4.56581">
        <ele>412</ele>
        <time>2014-04-23T07:33:13Z</time>
      </trkpt>
      <trkpt lat="47.25045" lon="4.56583">
        <ele>412</ele>
        <time>2014-04-23T07:33:16Z</time>
      </trkpt>
      <trkpt lat="47.2505" lon="4.56585">
        <ele>414</ele>
        <time>2014-04-23T07:33:20Z</time>
      </trkpt>
      <trkpt lat="47.25054" lon="4.56587">
        <ele>414</ele>
        <time>2014-04-23T07:33:27Z</time>
      </trkpt>
      <trkpt lat="47.2506" lon="4.56588">
        <ele>414</ele>
        <time>2014-04-23T07:33:30Z</time>
      </trkpt>
      <trkpt lat="47.25066" lon="4.5659">
        <ele>414</ele>
        <time>2014-04-23T07:33:33Z</time>
      </trkpt>
      <trkpt lat="47.25071" lon="4.56591">
        <ele>414</ele>
        <time>2014-04-23T07:33:36Z</time>
      </trkpt>
      <trkpt lat="47.25076" lon="4.56591">
        <ele>414</ele>
        <time>2014-04-23T07:33:40Z</time>
      </trkpt>
      <trkpt lat="47.25082" lon="4.56592">
        <ele>414</ele>
        <time>2014-04-23T07:33:44Z</time>
      </trkpt>
      <trkpt lat="47.25087" lon="4.56593">
        <ele>414</ele>
        <time>2014-04-23T07:33:48Z</time>
      </trkpt>
      <trkpt lat="47.25091" lon="4.56593">
        <ele>414</ele>
        <time>2014-04-23T07:33:52Z</time>
      </trkpt>
      <trkpt lat="47.25096" lon="4.56593">
        <ele>414</ele>
        <time>2014-04-23T07:33:57Z</time>
      </trkpt>
      <trkpt lat="47.25102" lon="4.56594">
        <ele>414</ele>
        <time>2014-04-23T07:34:01Z</time>
      </trkpt>
      <trkpt lat="47.25106" lon="4.56595">
        <ele>414</ele>
        <time>2014-04-23T07:34:05Z</time>
      </trkpt>
      <trkpt lat="47.25111" lon="4.56596">
        <ele>414</ele>
        <time>2014-04-23T07:34:09Z</time>
      </trkpt>
      <trkpt lat="47.25117" lon="4.56596">
        <ele>414</ele>
        <time>2014-04-23T07:34:13Z</time>
      </trkpt>
      <trkpt lat="47.25122" lon="4.56597">
        <ele>414</ele>
        <time>2014-04-23T07:34:17Z</time>
      </trkpt>
      <trkpt lat="47.25124" lon="4.56605">
        <ele>414</ele>
        <time>2014-04-23T07:34:26Z</time>
      </trkpt>
      <trkpt lat="47.25127" lon="4.5661">
        <ele>414</ele>
        <time>2014-04-23T07:34:30Z</time>
      </trkpt>
      <trkpt lat="47.25129" lon="4.56618">
        <ele>414</ele>
        <time>2014-04-23T07:34:34Z</time>
      </trkpt>
      <trkpt lat="47.25131" lon="4.56625">
        <ele>414</ele>
        <time>2014-04-23T07:34:39Z</time>
      </trkpt>
      <trkpt lat="47.25132" lon="4.56633">
        <ele>414</ele>
        <time>2014-04-23T07:34:44Z</time>
      </trkpt>
      <trkpt lat="47.25135" lon="4.5664">
        <ele>414</ele>
        <time>2014-04-23T07:34:48Z</time>
      </trkpt>
      <trkpt lat="47.25136" lon="4.56646">
        <ele>414</ele>
        <time>2014-04-23T07:34:52Z</time>
      </trkpt>
      <trkpt lat="47.25135" lon="4.56653">
        <ele>414</ele>
        <time>2014-04-23T07:34:58Z</time>
      </trkpt>
      <trkpt lat="47.25134" lon="4.5666">
        <ele>414</ele>
        <time>2014-04-23T07:35:02Z</time>
      </trkpt>
      <trkpt lat="47.25133" lon="4.56668">
        <ele>414</ele>
        <time>2014-04-23T07:35:06Z</time>
      </trkpt>
      <trkpt lat="47.25132" lon="4.56674">
        <ele>414</ele>
        <time>2014-04-23T07:35:09Z</time>
      </trkpt>
      <trkpt lat="47.25131" lon="4.56684">
        <ele>414</ele>
        <time>2014-04-23T07:35:12Z</time>
      </trkpt>
      <trkpt lat="47.25133" lon="4.56692">
        <ele>414</ele>
        <time>2014-04-23T07:35:15Z</time>
      </trkpt>
      <trkpt lat="47.25135" lon="4.56699">
        <ele>414</ele>
        <time>2014-04-23T07:35:18Z</time>
      </trkpt>
      <trkpt lat="47.25134" lon="4.56702">
        <ele>414</ele>
        <time>2014-04-23T07:35:20Z</time>
      </trkpt>
      <trkpt lat="47.25133" lon="4.56707">
        <ele>413</ele>
        <time>2014-04-23T07:35:22Z</time>
      </trkpt>
      <trkpt lat="47.25131" lon="4.56712">
        <ele>413</ele>
        <time>2014-04-23T07:35:24Z</time>
      </trkpt>
      <trkpt lat="47.2513" lon="4.56717">
        <ele>413</ele>
        <time>2014-04-23T07:35:26Z</time>
      </trkpt>
      <trkpt lat="47.25134" lon="4.56724">
        <ele>413</ele>
        <time>2014-04-23T07:35:45Z</time>
      </trkpt>
      <trkpt lat="47.25135" lon="4.56736">
        <ele>413</ele>
        <time>2014-04-23T07:35:49Z</time>
      </trkpt>
      <trkpt lat="47.25136" lon="4.56743">
        <ele>413</ele>
        <time>2014-04-23T07:35:51Z</time>
      </trkpt>
      <trkpt lat="47.25138" lon="4.5675">
        <ele>413</ele>
        <time>2014-04-23T07:35:54Z</time>
      </trkpt>
      <trkpt lat="47.25142" lon="4.56754">
        <ele>413</ele>
        <time>2014-04-23T07:36:00Z</time>
      </trkpt>
      <trkpt lat="47.25143" lon="4.56762">
        <ele>413</ele>
        <time>2014-04-23T07:36:04Z</time>
      </trkpt>
      <trkpt lat="47.25145" lon="4.56769">
        <ele>413</ele>
        <time>2014-04-23T07:36:07Z</time>
      </trkpt>
      <trkpt lat="47.25149" lon="4.56775">
        <ele>413</ele>
        <time>2014-04-23T07:36:12Z</time>
      </trkpt>
      <trkpt lat="47.25152" lon="4.5678">
        <ele>413</ele>
        <time>2014-04-23T07:36:16Z</time>
      </trkpt>
      <trkpt lat="47.25155" lon="4.56786">
        <ele>413</ele>
        <time>2014-04-23T07:36:20Z</time>
      </trkpt>
      <trkpt lat="47.25157" lon="4.56792">
        <ele>413</ele>
        <time>2014-04-23T07:36:25Z</time>
      </trkpt>
      <trkpt lat="47.25161" lon="4.56799">
        <ele>413</ele>
        <time>2014-04-23T07:36:28Z</time>
      </trkpt>
      <trkpt lat="47.25164" lon="4.56805">
        <ele>413</ele>
        <time>2014-04-23T07:36:30Z</time>
      </trkpt>
      <trkpt lat="47.25166" lon="4.56809">
        <ele>413</ele>
        <time>2014-04-23T07:36:32Z</time>
      </trkpt>
      <trkpt lat="47.25168" lon="4.56812">
        <ele>416</ele>
        <time>2014-04-23T07:36:34Z</time>
      </trkpt>
      <trkpt lat="47.25172" lon="4.56819">
        <ele>416</ele>
        <time>2014-04-23T07:36:44Z</time>
      </trkpt>
      <trkpt lat="47.25174" lon="4.56825">
        <ele>415</ele>
        <time>2014-04-23T07:36:47Z</time>
      </trkpt>
      <trkpt lat="47.25177" lon="4.56833">
        <ele>415</ele>
        <time>2014-04-23T07:36:52Z</time>
      </trkpt>
      <trkpt lat="47.2518" lon="4.56841">
        <ele>416</ele>
        <time>2014-04-23T07:36:55Z</time>
      </trkpt>
      <trkpt lat="47.25184" lon="4.56846">
        <ele>417</ele>
        <time>2014-04-23T07:36:58Z</time>
      </trkpt>
      <trkpt lat="47.25188" lon="4.5685">
        <ele>417</ele>
        <time>2014-04-23T07:37:05Z</time>
      </trkpt>
      <trkpt lat="47.25192" lon="4.56856">
        <ele>417</ele>
        <time>2014-04-23T07:37:08Z</time>
      </trkpt>
      <trkpt lat="47.25194" lon="4.56864">
        <ele>417</ele>
        <time>2014-04-23T07:37:11Z</time>
      </trkpt>
      <trkpt lat="47.25193" lon="4.56871">
        <ele>417</ele>
        <time>2014-04-23T07:37:16Z</time>
      </trkpt>
      <trkpt lat="47.25197" lon="4.56877">
        <ele>417</ele>
        <time>2014-04-23T07:37:22Z</time>
      </trkpt>
      <trkpt lat="47.252" lon="4.56883">
        <ele>418</ele>
        <time>2014-04-23T07:37:27Z</time>
      </trkpt>
      <trkpt lat="47.25203" lon="4.56889">
        <ele>418</ele>
        <time>2014-04-23T07:37:30Z</time>
      </trkpt>
      <trkpt lat="47.25205" lon="4.56896">
        <ele>418</ele>
        <time>2014-04-23T07:37:36Z</time>
      </trkpt>
      <trkpt lat="47.25207" lon="4.56904">
        <ele>418</ele>
        <time>2014-04-23T07:37:40Z</time>
      </trkpt>
      <trkpt lat="47.25205" lon="4.56911">
        <ele>418</ele>
        <time>2014-04-23T07:37:44Z</time>
      </trkpt>
      <trkpt lat="47.252" lon="4.56915">
        <ele>418</ele>
        <time>2014-04-23T07:37:49Z</time>
      </trkpt>
      <trkpt lat="47.25197" lon="4.56923">
        <ele>417</ele>
        <time>2014-04-23T07:38:12Z</time>
      </trkpt>
      <trkpt lat="47.25193" lon="4.5693">
        <ele>416</ele>
        <time>2014-04-23T07:38:16Z</time>
      </trkpt>
      <trkpt lat="47.2519" lon="4.56936">
        <ele>416</ele>
        <time>2014-04-23T07:38:23Z</time>
      </trkpt>
      <trkpt lat="47.25186" lon="4.56934">
        <ele>416</ele>
        <time>2014-04-23T07:38:33Z</time>
      </trkpt>
      <trkpt lat="47.25182" lon="4.56939">
        <ele>416</ele>
        <time>2014-04-23T07:38:35Z</time>
      </trkpt>
      <trkpt lat="47.25178" lon="4.56945">
        <ele>416</ele>
        <time>2014-04-23T07:38:40Z</time>
      </trkpt>
      <trkpt lat="47.25175" lon="4.56951">
        <ele>416</ele>
        <time>2014-04-23T07:38:43Z</time>
      </trkpt>
      <trkpt lat="47.25172" lon="4.56956">
        <ele>416</ele>
        <time>2014-04-23T07:38:46Z</time>
      </trkpt>
      <trkpt lat="47.25169" lon="4.56962">
        <ele>415</ele>
        <time>2014-04-23T07:38:49Z</time>
      </trkpt>
      <trkpt lat="47.25165" lon="4.56968">
        <ele>412</ele>
        <time>2014-04-23T07:38:52Z</time>
      </trkpt>
      <trkpt lat="47.25161" lon="4.56971">
        <ele>412</ele>
        <time>2014-04-23T07:38:56Z</time>
      </trkpt>
      <trkpt lat="47.25156" lon="4.56977">
        <ele>412</ele>
        <time>2014-04-23T07:38:59Z</time>
      </trkpt>
      <trkpt lat="47.25153" lon="4.56983">
        <ele>412</ele>
        <time>2014-04-23T07:39:03Z</time>
      </trkpt>
      <trkpt lat="47.25148" lon="4.56987">
        <ele>412</ele>
        <time>2014-04-23T07:39:09Z</time>
      </trkpt>
      <trkpt lat="47.25146" lon="4.56993">
        <ele>412</ele>
        <time>2014-04-23T07:39:13Z</time>
      </trkpt>
      <trkpt lat="47.25142" lon="4.56999">
        <ele>412</ele>
        <time>2014-04-23T07:39:20Z</time>
      </trkpt>
      <trkpt lat="47.25138" lon="4.57003">
        <ele>411</ele>
        <time>2014-04-23T07:39:24Z</time>
      </trkpt>
      <trkpt lat="47.25135" lon="4.57008">
        <ele>411</ele>
        <time>2014-04-23T07:39:27Z</time>
      </trkpt>
      <trkpt lat="47.25131" lon="4.57014">
        <ele>410</ele>
        <time>2014-04-23T07:39:31Z</time>
      </trkpt>
      <trkpt lat="47.25128" lon="4.57019">
        <ele>410</ele>
        <time>2014-04-23T07:39:36Z</time>
      </trkpt>
      <trkpt lat="47.25125" lon="4.57024">
        <ele>410</ele>
        <time>2014-04-23T07:39:39Z</time>
      </trkpt>
      <trkpt lat="47.2512" lon="4.5703">
        <ele>410</ele>
        <time>2014-04-23T07:39:42Z</time>
      </trkpt>
      <trkpt lat="47.25117" lon="4.57035">
        <ele>410</ele>
        <time>2014-04-23T07:39:44Z</time>
      </trkpt>
      <trkpt lat="47.25114" lon="4.57042">
        <ele>410</ele>
        <time>2014-04-23T07:39:48Z</time>
      </trkpt>
      <trkpt lat="47.25109" lon="4.57049">
        <ele>410</ele>
        <time>2014-04-23T07:39:53Z</time>
      </trkpt>
      <trkpt lat="47.25106" lon="4.57054">
        <ele>410</ele>
        <time>2014-04-23T07:39:56Z</time>
      </trkpt>
      <trkpt lat="47.25102" lon="4.57059">
        <ele>410</ele>
        <time>2014-04-23T07:40:02Z</time>
      </trkpt>
      <trkpt lat="47.25099" lon="4.57065">
        <ele>410</ele>
        <time>2014-04-23T07:40:06Z</time>
      </trkpt>
      <trkpt lat="47.25095" lon="4.57073">
        <ele>409</ele>
        <time>2014-04-23T07:40:10Z</time>
      </trkpt>
      <trkpt lat="47.25091" lon="4.57078">
        <ele>409</ele>
        <time>2014-04-23T07:40:14Z</time>
      </trkpt>
      <trkpt lat="47.25087" lon="4.57081">
        <ele>409</ele>
        <time>2014-04-23T07:40:21Z</time>
      </trkpt>
      <trkpt lat="47.25083" lon="4.57087">
        <ele>409</ele>
        <time>2014-04-23T07:40:25Z</time>
      </trkpt>
      <trkpt lat="47.2508" lon="4.57092">
        <ele>408</ele>
        <time>2014-04-23T07:40:28Z</time>
      </trkpt>
      <trkpt lat="47.25074" lon="4.571">
        <ele>407</ele>
        <time>2014-04-23T07:40:35Z</time>
      </trkpt>
      <trkpt lat="47.25069" lon="4.57105">
        <ele>407</ele>
        <time>2014-04-23T07:40:39Z</time>
      </trkpt>
      <trkpt lat="47.25065" lon="4.57109">
        <ele>407</ele>
        <time>2014-04-23T07:40:43Z</time>
      </trkpt>
      <trkpt lat="47.25061" lon="4.57115">
        <ele>406</ele>
        <time>2014-04-23T07:40:47Z</time>
      </trkpt>
      <trkpt lat="47.25058" lon="4.57121">
        <ele>406</ele>
        <time>2014-04-23T07:40:50Z</time>
      </trkpt>
      <trkpt lat="47.25055" lon="4.57126">
        <ele>406</ele>
        <time>2014-04-23T07:40:52Z</time>
      </trkpt>
      <trkpt lat="47.25053" lon="4.57133">
        <ele>406</ele>
        <time>2014-04-23T07:40:55Z</time>
      </trkpt>
      <trkpt lat="47.25047" lon="4.57142">
        <ele>406</ele>
        <time>2014-04-23T07:41:00Z</time>
      </trkpt>
      <trkpt lat="47.25043" lon="4.57145">
        <ele>406</ele>
        <time>2014-04-23T07:41:05Z</time>
      </trkpt>
      <trkpt lat="47.25039" lon="4.57151">
        <ele>406</ele>
        <time>2014-04-23T07:41:11Z</time>
      </trkpt>
      <trkpt lat="47.25037" lon="4.57158">
        <ele>406</ele>
        <time>2014-04-23T07:41:16Z</time>
      </trkpt>
      <trkpt lat="47.25033" lon="4.57162">
        <ele>406</ele>
        <time>2014-04-23T07:41:24Z</time>
      </trkpt>
      <trkpt lat="47.2503" lon="4.57167">
        <ele>406</ele>
        <time>2014-04-23T07:41:28Z</time>
      </trkpt>
      <trkpt lat="47.25026" lon="4.57172">
        <ele>406</ele>
        <time>2014-04-23T07:41:31Z</time>
      </trkpt>
      <trkpt lat="47.25022" lon="4.5718">
        <ele>406</ele>
        <time>2014-04-23T07:41:36Z</time>
      </trkpt>
      <trkpt lat="47.25018" lon="4.57183">
        <ele>406</ele>
        <time>2014-04-23T07:41:41Z</time>
      </trkpt>
      <trkpt lat="47.25012" lon="4.57194">
        <ele>406</ele>
        <time>2014-04-23T07:41:46Z</time>
      </trkpt>
      <trkpt lat="47.25009" lon="4.57202">
        <ele>406</ele>
        <time>2014-04-23T07:41:52Z</time>
      </trkpt>
      <trkpt lat="47.25004" lon="4.57205">
        <ele>406</ele>
        <time>2014-04-23T07:42:01Z</time>
      </trkpt>
      <trkpt lat="47.25" lon="4.57209">
        <ele>406</ele>
        <time>2014-04-23T07:42:08Z</time>
      </trkpt>
      <trkpt lat="47.24996" lon="4.57213">
        <ele>404</ele>
        <time>2014-04-23T07:42:13Z</time>
      </trkpt>
      <trkpt lat="47.24993" lon="4.57218">
        <ele>404</ele>
        <time>2014-04-23T07:42:16Z</time>
      </trkpt>
      <trkpt lat="47.2499" lon="4.57223">
        <ele>404</ele>
        <time>2014-04-23T07:42:20Z</time>
      </trkpt>
      <trkpt lat="47.24986" lon="4.57228">
        <ele>404</ele>
        <time>2014-04-23T07:42:24Z</time>
      </trkpt>
      <trkpt lat="47.24981" lon="4.57235">
        <ele>404</ele>
        <time>2014-04-23T07:42:36Z</time>
      </trkpt>
      <trkpt lat="47.24977" lon="4.5724">
        <ele>404</ele>
        <time>2014-04-23T07:42:39Z</time>
      </trkpt>
      <trkpt lat="47.24972" lon="4.57246">
        <ele>404</ele>
        <time>2014-04-23T07:42:43Z</time>
      </trkpt>
      <trkpt lat="47.24968" lon="4.5725">
        <ele>403</ele>
        <time>2014-04-23T07:42:47Z</time>
      </trkpt>
      <trkpt lat="47.24965" lon="4.57255">
        <ele>404</ele>
        <time>2014-04-23T07:42:51Z</time>
      </trkpt>
      <trkpt lat="47.24961" lon="4.57261">
        <ele>404</ele>
        <time>2014-04-23T07:42:54Z</time>
      </trkpt>
      <trkpt lat="47.24958" lon="4.57266">
        <ele>403</ele>
        <time>2014-04-23T07:42:58Z</time>
      </trkpt>
      <trkpt lat="47.24955" lon="4.57273">
        <ele>403</ele>
        <time>2014-04-23T07:43:02Z</time>
      </trkpt>
      <trkpt lat="47.24951" lon="4.57279">
        <ele>403</ele>
        <time>2014-04-23T07:43:06Z</time>
      </trkpt>
      <trkpt lat="47.24948" lon="4.57284">
        <ele>403</ele>
        <time>2014-04-23T07:43:09Z</time>
      </trkpt>
      <trkpt lat="47.24944" lon="4.57289">
        <ele>403</ele>
        <time>2014-04-23T07:43:15Z</time>
      </trkpt>
      <trkpt lat="47.2494" lon="4.57293">
        <ele>403</ele>
        <time>2014-04-23T07:43:20Z</time>
      </trkpt>
      <trkpt lat="47.24936" lon="4.57298">
        <ele>403</ele>
        <time>2014-04-23T07:43:24Z</time>
      </trkpt>
      <trkpt lat="47.24932" lon="4.57302">
        <ele>403</ele>
        <time>2014-04-23T07:43:27Z</time>
      </trkpt>
      <trkpt lat="47.24928" lon="4.57307">
        <ele>403</ele>
        <time>2014-04-23T07:43:31Z</time>
      </trkpt>
      <trkpt lat="47.24924" lon="4.57312">
        <ele>404</ele>
        <time>2014-04-23T07:43:34Z</time>
      </trkpt>
      <trkpt lat="47.2492" lon="4.57318">
        <ele>404</ele>
        <time>2014-04-23T07:43:38Z</time>
      </trkpt>
      <trkpt lat="47.24917" lon="4.57324">
        <ele>404</ele>
        <time>2014-04-23T07:43:42Z</time>
      </trkpt>
      <trkpt lat="47.24914" lon="4.5733">
        <ele>403</ele>
        <time>2014-04-23T07:43:45Z</time>
      </trkpt>
      <trkpt lat="47.24909" lon="4.5733">
        <ele>403</ele>
        <time>2014-04-23T07:43:55Z</time>
      </trkpt>
      <trkpt lat="47.24906" lon="4.57335">
        <ele>403</ele>
        <time>2014-04-23T07:44:00Z</time>
      </trkpt>
      <trkpt lat="47.24902" lon="4.57341">
        <ele>403</ele>
        <time>2014-04-23T07:44:04Z</time>
      </trkpt>
      <trkpt lat="47.24898" lon="4.57348">
        <ele>403</ele>
        <time>2014-04-23T07:44:07Z</time>
      </trkpt>
      <trkpt lat="47.24895" lon="4.57353">
        <ele>403</ele>
        <time>2014-04-23T07:44:10Z</time>
      </trkpt>
      <trkpt lat="47.24891" lon="4.57359">
        <ele>402</ele>
        <time>2014-04-23T07:44:16Z</time>
      </trkpt>
      <trkpt lat="47.24887" lon="4.57365">
        <ele>402</ele>
        <time>2014-04-23T07:44:19Z</time>
      </trkpt>
      <trkpt lat="47.24884" lon="4.57371">
        <ele>402</ele>
        <time>2014-04-23T07:44:21Z</time>
      </trkpt>
      <trkpt lat="47.2488" lon="4.57375">
        <ele>402</ele>
        <time>2014-04-23T07:44:24Z</time>
      </trkpt>
      <trkpt lat="47.24877" lon="4.57381">
        <ele>402</ele>
        <time>2014-04-23T07:44:27Z</time>
      </trkpt>
      <trkpt lat="47.24874" lon="4.57387">
        <ele>402</ele>
        <time>2014-04-23T07:44:31Z</time>
      </trkpt>
      <trkpt lat="47.24871" lon="4.57393">
        <ele>402</ele>
        <time>2014-04-23T07:44:34Z</time>
      </trkpt>
      <trkpt lat="47.24866" lon="4.57398">
        <ele>402</ele>
        <time>2014-04-23T07:44:41Z</time>
      </trkpt>
      <trkpt lat="47.24863" lon="4.57403">
        <ele>402</ele>
        <time>2014-04-23T07:44:43Z</time>
      </trkpt>
      <trkpt lat="47.24859" lon="4.5741">
        <ele>402</ele>
        <time>2014-04-23T07:44:46Z</time>
      </trkpt>
      <trkpt lat="47.24856" lon="4.57416">
        <ele>403</ele>
        <time>2014-04-23T07:44:50Z</time>
      </trkpt>
      <trkpt lat="47.24852" lon="4.57421">
        <ele>403</ele>
        <time>2014-04-23T07:44:55Z</time>
      </trkpt>
      <trkpt lat="47.24848" lon="4.57424">
        <ele>403</ele>
        <time>2014-04-23T07:45:05Z</time>
      </trkpt>
      <trkpt lat="47.24847" lon="4.57431">
        <ele>402</ele>
        <time>2014-04-23T07:45:22Z</time>
      </trkpt>
      <trkpt lat="47.24842" lon="4.57438">
        <ele>402</ele>
        <time>2014-04-23T07:45:33Z</time>
      </trkpt>
      <trkpt lat="47.24839" lon="4.57444">
        <ele>402</ele>
        <time>2014-04-23T07:45:37Z</time>
      </trkpt>
      <trkpt lat="47.24835" lon="4.57448">
        <ele>402</ele>
        <time>2014-04-23T07:45:42Z</time>
      </trkpt>
      <trkpt lat="47.24833" lon="4.57454">
        <ele>402</ele>
        <time>2014-04-23T07:45:48Z</time>
      </trkpt>
      <trkpt lat="47.24828" lon="4.57456">
        <ele>402</ele>
        <time>2014-04-23T07:45:53Z</time>
      </trkpt>
      <trkpt lat="47.24825" lon="4.5746">
        <ele>401</ele>
        <time>2014-04-23T07:45:57Z</time>
      </trkpt>
      <trkpt lat="47.24821" lon="4.57464">
        <ele>401</ele>
        <time>2014-04-23T07:46:00Z</time>
      </trkpt>
      <trkpt lat="47.24818" lon="4.57469">
        <ele>401</ele>
        <time>2014-04-23T07:46:07Z</time>
      </trkpt>
      <trkpt lat="47.24814" lon="4.57474">
        <ele>401</ele>
        <time>2014-04-23T07:46:11Z</time>
      </trkpt>
      <trkpt lat="47.2481" lon="4.57477">
        <ele>401</ele>
        <time>2014-04-23T07:46:15Z</time>
      </trkpt>
      <trkpt lat="47.24805" lon="4.57482">
        <ele>401</ele>
        <time>2014-04-23T07:46:22Z</time>
      </trkpt>
      <trkpt lat="47.24802" lon="4.57488">
        <ele>401</ele>
        <time>2014-04-23T07:46:26Z</time>
      </trkpt>
      <trkpt lat="47.24798" lon="4.57492">
        <ele>401</ele>
        <time>2014-04-23T07:46:30Z</time>
      </trkpt>
      <trkpt lat="47.24795" lon="4.57498">
        <ele>401</ele>
        <time>2014-04-23T07:46:34Z</time>
      </trkpt>
      <trkpt lat="47.24788" lon="4.57506">
        <ele>401</ele>
        <time>2014-04-23T07:46:40Z</time>
      </trkpt>
      <trkpt lat="47.24785" lon="4.57512">
        <ele>401</ele>
        <time>2014-04-23T07:46:43Z</time>
      </trkpt>
      <trkpt lat="47.24781" lon="4.57516">
        <ele>401</ele>
        <time>2014-04-23T07:46:48Z</time>
      </trkpt>
      <trkpt lat="47.24778" lon="4.57521">
        <ele>401</ele>
        <time>2014-04-23T07:46:53Z</time>
      </trkpt>
      <trkpt lat="47.24775" lon="4.57528">
        <ele>401</ele>
        <time>2014-04-23T07:46:56Z</time>
      </trkpt>
      <trkpt lat="47.24772" lon="4.57534">
        <ele>401</ele>
        <time>2014-04-23T07:47:00Z</time>
      </trkpt>
      <trkpt lat="47.24767" lon="4.57543">
        <ele>401</ele>
        <time>2014-04-23T07:47:09Z</time>
      </trkpt>
      <trkpt lat="47.24765" lon="4.57549">
        <ele>401</ele>
        <time>2014-04-23T07:47:42Z</time>
      </trkpt>
      <trkpt lat="47.24765" lon="4.57556">
        <ele>401</ele>
        <time>2014-04-23T07:47:46Z</time>
      </trkpt>
      <trkpt lat="47.24765" lon="4.57563">
        <ele>401</ele>
        <time>2014-04-23T07:47:53Z</time>
      </trkpt>
      <trkpt lat="47.24762" lon="4.57562">
        <ele>401</ele>
        <time>2014-04-23T07:48:23Z</time>
      </trkpt>
      <trkpt lat="47.24756" lon="4.57564">
        <ele>401</ele>
        <time>2014-04-23T07:48:27Z</time>
      </trkpt>
      <trkpt lat="47.24752" lon="4.57569">
        <ele>401</ele>
        <time>2014-04-23T07:48:30Z</time>
      </trkpt>
      <trkpt lat="47.24749" lon="4.57574">
        <ele>401</ele>
        <time>2014-04-23T07:48:34Z</time>
      </trkpt>
      <trkpt lat="47.24743" lon="4.57577">
        <ele>401</ele>
        <time>2014-04-23T07:48:46Z</time>
      </trkpt>
      <trkpt lat="47.24739" lon="4.5758">
        <ele>401</ele>
        <time>2014-04-23T07:48:51Z</time>
      </trkpt>
      <trkpt lat="47.24737" lon="4.57587">
        <ele>400</ele>
        <time>2014-04-23T07:48:55Z</time>
      </trkpt>
      <trkpt lat="47.24733" lon="4.57593">
        <ele>400</ele>
        <time>2014-04-23T07:49:00Z</time>
      </trkpt>
      <trkpt lat="47.24729" lon="4.57599">
        <ele>400</ele>
        <time>2014-04-23T07:49:04Z</time>
      </trkpt>
      <trkpt lat="47.24726" lon="4.57604">
        <ele>400</ele>
        <time>2014-04-23T07:49:07Z</time>
      </trkpt>
      <trkpt lat="47.24722" lon="4.57611">
        <ele>399</ele>
        <time>2014-04-23T07:49:14Z</time>
      </trkpt>
      <trkpt lat="47.24719" lon="4.57617">
        <ele>399</ele>
        <time>2014-04-23T07:49:17Z</time>
      </trkpt>
      <trkpt lat="47.24715" lon="4.57623">
        <ele>399</ele>
        <time>2014-04-23T07:49:21Z</time>
      </trkpt>
      <trkpt lat="47.24711" lon="4.57626">
        <ele>399</ele>
        <time>2014-04-23T07:49:24Z</time>
      </trkpt>
      <trkpt lat="47.24706" lon="4.5763">
        <ele>399</ele>
        <time>2014-04-23T07:49:27Z</time>
      </trkpt>
      <trkpt lat="47.24704" lon="4.57635">
        <ele>399</ele>
        <time>2014-04-23T07:49:30Z</time>
      </trkpt>
      <trkpt lat="47.24701" lon="4.57641">
        <ele>399</ele>
        <time>2014-04-23T07:49:33Z</time>
      </trkpt>
      <trkpt lat="47.24698" lon="4.57646">
        <ele>399</ele>
        <time>2014-04-23T07:49:38Z</time>
      </trkpt>
      <trkpt lat="47.24693" lon="4.57653">
        <ele>399</ele>
        <time>2014-04-23T07:49:42Z</time>
      </trkpt>
      <trkpt lat="47.2469" lon="4.57659">
        <ele>399</ele>
        <time>2014-04-23T07:49:45Z</time>
      </trkpt>
      <trkpt lat="47.24687" lon="4.57664">
        <ele>399</ele>
        <time>2014-04-23T07:49:51Z</time>
      </trkpt>
      <trkpt lat="47.24683" lon="4.57669">
        <ele>399</ele>
        <time>2014-04-23T07:49:56Z</time>
      </trkpt>
      <trkpt lat="47.2468" lon="4.57676">
        <ele>399</ele>
        <time>2014-04-23T07:49:59Z</time>
      </trkpt>
      <trkpt lat="47.24676" lon="4.57681">
        <ele>399</ele>
        <time>2014-04-23T07:50:04Z</time>
      </trkpt>
      <trkpt lat="47.24672" lon="4.57685">
        <ele>399</ele>
        <time>2014-04-23T07:50:07Z</time>
      </trkpt>
      <trkpt lat="47.24668" lon="4.57691">
        <ele>399</ele>
        <time>2014-04-23T07:50:10Z</time>
      </trkpt>
      <trkpt lat="47.24665" lon="4.57696">
        <ele>399</ele>
        <time>2014-04-23T07:50:12Z</time>
      </trkpt>
      <trkpt lat="47.24662" lon="4.57702">
        <ele>398</ele>
        <time>2014-04-23T07:50:16Z</time>
      </trkpt>
      <trkpt lat="47.24657" lon="4.57706">
        <ele>398</ele>
        <time>2014-04-23T07:50:23Z</time>
      </trkpt>
      <trkpt lat="47.24654" lon="4.5771">
        <ele>398</ele>
        <time>2014-04-23T07:50:28Z</time>
      </trkpt>
      <trkpt lat="47.24649" lon="4.57715">
        <ele>398</ele>
        <time>2014-04-23T07:50:32Z</time>
      </trkpt>
      <trkpt lat="47.24646" lon="4.5772">
        <ele>398</ele>
        <time>2014-04-23T07:50:36Z</time>
      </trkpt>
      <trkpt lat="47.24642" lon="4.57722">
        <ele>398</ele>
        <time>2014-04-23T07:50:42Z</time>
      </trkpt>
      <trkpt lat="47.24639" lon="4.57729">
        <ele>398</ele>
        <time>2014-04-23T07:50:47Z</time>
      </trkpt>
      <trkpt lat="47.24635" lon="4.57733">
        <ele>398</ele>
        <time>2014-04-23T07:50:53Z</time>
      </trkpt>
      <trkpt lat="47.24631" lon="4.57738">
        <ele>398</ele>
        <time>2014-04-23T07:50:58Z</time>
      </trkpt>
      <trkpt lat="47.24627" lon="4.57744">
        <ele>398</ele>
        <time>2014-04-23T07:51:03Z</time>
      </trkpt>
      <trkpt lat="47.24623" lon="4.5775">
        <ele>397</ele>
        <time>2014-04-23T07:51:14Z</time>
      </trkpt>
      <trkpt lat="47.24619" lon="4.57756">
        <ele>397</ele>
        <time>2014-04-23T07:51:19Z</time>
      </trkpt>
      <trkpt lat="47.24616" lon="4.57762">
        <ele>397</ele>
        <time>2014-04-23T07:51:26Z</time>
      </trkpt>
      <trkpt lat="47.24615" lon="4.57771">
        <ele>397</ele>
        <time>2014-04-23T07:51:33Z</time>
      </trkpt>
      <trkpt lat="47.24611" lon="4.57775">
        <ele>397</ele>
        <time>2014-04-23T07:51:44Z</time>
      </trkpt>
      <trkpt lat="47.24606" lon="4.57781">
        <ele>397</ele>
        <time>2014-04-23T07:51:52Z</time>
      </trkpt>
      <trkpt lat="47.24601" lon="4.57786">
        <ele>397</ele>
        <time>2014-04-23T07:51:54Z</time>
      </trkpt>
      <trkpt lat="47.24597" lon="4.5779">
        <ele>397</ele>
        <time>2014-04-23T07:51:57Z</time>
      </trkpt>
      <trkpt lat="47.24593" lon="4.57794">
        <ele>397</ele>
        <time>2014-04-23T07:52:00Z</time>
      </trkpt>
      <trkpt lat="47.24589" lon="4.57798">
        <ele>397</ele>
        <time>2014-04-23T07:52:04Z</time>
      </trkpt>
      <trkpt lat="47.24585" lon="4.57803">
        <ele>397</ele>
        <time>2014-04-23T07:52:10Z</time>
      </trkpt>
      <trkpt lat="47.24582" lon="4.57813">
        <ele>397</ele>
        <time>2014-04-23T07:52:22Z</time>
      </trkpt>
      <trkpt lat="47.2458" lon="4.57817">
        <ele>397</ele>
        <time>2014-04-23T07:52:28Z</time>
      </trkpt>
      <trkpt lat="47.24579" lon="4.57823">
        <ele>397</ele>
        <time>2014-04-23T07:52:32Z</time>
      </trkpt>
      <trkpt lat="47.24579" lon="4.57826">
        <ele>397</ele>
        <time>2014-04-23T07:53:05Z</time>
      </trkpt>
      <trkpt lat="47.24576" lon="4.57829">
        <ele>397</ele>
        <time>2014-04-23T07:53:19Z</time>
      </trkpt>
      <trkpt lat="47.24572" lon="4.57833">
        <ele>397</ele>
        <time>2014-04-23T07:53:23Z</time>
      </trkpt>
      <trkpt lat="47.24567" lon="4.57837">
        <ele>397</ele>
        <time>2014-04-23T07:53:25Z</time>
      </trkpt>
      <trkpt lat="47.24562" lon="4.57843">
        <ele>397</ele>
        <time>2014-04-23T07:53:28Z</time>
      </trkpt>
      <trkpt lat="47.24558" lon="4.57848">
        <ele>397</ele>
        <time>2014-04-23T07:53:32Z</time>
      </trkpt>
      <trkpt lat="47.24554" lon="4.5785">
        <ele>397</ele>
        <time>2014-04-23T07:53:39Z</time>
      </trkpt>
      <trkpt lat="47.24548" lon="4.57853">
        <ele>397</ele>
        <time>2014-04-23T07:53:49Z</time>
      </trkpt>
      <trkpt lat="47.24546" lon="4.57859">
        <ele>397</ele>
        <time>2014-04-23T07:53:54Z</time>
      </trkpt>
      <trkpt lat="47.24542" lon="4.57867">
        <ele>397</ele>
        <time>2014-04-23T07:54:05Z</time>
      </trkpt>
      <trkpt lat="47.24538" lon="4.57871">
        <ele>397</ele>
        <time>2014-04-23T07:54:09Z</time>
      </trkpt>
      <trkpt lat="47.24535" lon="4.57876">
        <ele>397</ele>
        <time>2014-04-23T07:54:13Z</time>
      </trkpt>
      <trkpt lat="47.24532" lon="4.57883">
        <ele>397</ele>
        <time>2014-04-23T07:54:19Z</time>
      </trkpt>
      <trkpt lat="47.24527" lon="4.57887">
        <ele>397</ele>
        <time>2014-04-23T07:54:24Z</time>
      </trkpt>
      <trkpt lat="47.24524" lon="4.57893">
        <ele>397</ele>
        <time>2014-04-23T07:54:28Z</time>
      </trkpt>
      <trkpt lat="47.24522" lon="4.57902">
        <ele>397</ele>
        <time>2014-04-23T07:54:32Z</time>
      </trkpt>
      <trkpt lat="47.24521" lon="4.57909">
        <ele>397</ele>
        <time>2014-04-23T07:54:37Z</time>
      </trkpt>
      <trkpt lat="47.24518" lon="4.57913">
        <ele>397</ele>
        <time>2014-04-23T07:54:43Z</time>
      </trkpt>
      <trkpt lat="47.24519" lon="4.57921">
        <ele>396</ele>
        <time>2014-04-23T07:54:58Z</time>
      </trkpt>
      <trkpt lat="47.24517" lon="4.57925">
        <ele>396</ele>
        <time>2014-04-23T07:55:38Z</time>
      </trkpt>
      <trkpt lat="47.24515" lon="4.57931">
        <ele>396</ele>
        <time>2014-04-23T07:55:41Z</time>
      </trkpt>
      <trkpt lat="47.24511" lon="4.57925">
        <ele>397</ele>
        <time>2014-04-23T07:55:58Z</time>
      </trkpt>
      <trkpt lat="47.24508" lon="4.57919">
        <ele>397</ele>
        <time>2014-04-23T07:56:04Z</time>
      </trkpt>
      <trkpt lat="47.24503" lon="4.57922">
        <ele>397</ele>
        <time>2014-04-23T07:56:09Z</time>
      </trkpt>
      <trkpt lat="47.24499" lon="4.57929">
        <ele>396</ele>
        <time>2014-04-23T07:56:12Z</time>
      </trkpt>
      <trkpt lat="47.24496" lon="4.57934">
        <ele>396</ele>
        <time>2014-04-23T07:56:19Z</time>
      </trkpt>
      <trkpt lat="47.24493" lon="4.57938">
        <ele>396</ele>
        <time>2014-04-23T07:56:22Z</time>
      </trkpt>
      <trkpt lat="47.24489" lon="4.57943">
        <ele>396</ele>
        <time>2014-04-23T07:56:30Z</time>
      </trkpt>
      <trkpt lat="47.24487" lon="4.57946">
        <ele>396</ele>
        <time>2014-04-23T07:56:37Z</time>
      </trkpt>
      <trkpt lat="47.24483" lon="4.57949">
        <ele>396</ele>
        <time>2014-04-23T07:56:42Z</time>
      </trkpt>
      <trkpt lat="47.24479" lon="4.57954">
        <ele>396</ele>
        <time>2014-04-23T07:56:46Z</time>
      </trkpt>
      <trkpt lat="47.24476" lon="4.5796">
        <ele>396</ele>
        <time>2014-04-23T07:56:50Z</time>
      </trkpt>
      <trkpt lat="47.24472" lon="4.57965">
        <ele>396</ele>
        <time>2014-04-23T07:56:53Z</time>
      </trkpt>
      <trkpt lat="47.24468" lon="4.5797">
        <ele>396</ele>
        <time>2014-04-23T07:56:56Z</time>
      </trkpt>
      <trkpt lat="47.24466" lon="4.57976">
        <ele>396</ele>
        <time>2014-04-23T07:56:59Z</time>
      </trkpt>
      <trkpt lat="47.24462" lon="4.57983">
        <ele>396</ele>
        <time>2014-04-23T07:57:02Z</time>
      </trkpt>
      <trkpt lat="47.24459" lon="4.57988">
        <ele>396</ele>
        <time>2014-04-23T07:57:06Z</time>
      </trkpt>
      <trkpt lat="47.24455" lon="4.57993">
        <ele>396</ele>
        <time>2014-04-23T07:57:13Z</time>
      </trkpt>
      <trkpt lat="47.24452" lon="4.57998">
        <ele>396</ele>
        <time>2014-04-23T07:57:20Z</time>
      </trkpt>
      <trkpt lat="47.24448" lon="4.58003">
        <ele>395</ele>
        <time>2014-04-23T07:57:23Z</time>
      </trkpt>
      <trkpt lat="47.24444" lon="4.58008">
        <ele>395</ele>
        <time>2014-04-23T07:57:27Z</time>
      </trkpt>
      <trkpt lat="47.2444" lon="4.58014">
        <ele>395</ele>
        <time>2014-04-23T07:57:31Z</time>
      </trkpt>
      <trkpt lat="47.24436" lon="4.5802">
        <ele>395</ele>
        <time>2014-04-23T07:57:34Z</time>
      </trkpt>
      <trkpt lat="47.24433" lon="4.58026">
        <ele>395</ele>
        <time>2014-04-23T07:57:36Z</time>
      </trkpt>
      <trkpt lat="47.2443" lon="4.58031">
        <ele>395</ele>
        <time>2014-04-23T07:57:40Z</time>
      </trkpt>
      <trkpt lat="47.24428" lon="4.58038">
        <ele>395</ele>
        <time>2014-04-23T07:57:46Z</time>
      </trkpt>
      <trkpt lat="47.24425" lon="4.58043">
        <ele>395</ele>
        <time>2014-04-23T07:57:51Z</time>
      </trkpt>
      <trkpt lat="47.24421" lon="4.58049">
        <ele>395</ele>
        <time>2014-04-23T07:57:55Z</time>
      </trkpt>
      <trkpt lat="47.24418" lon="4.58055">
        <ele>395</ele>
        <time>2014-04-23T07:57:57Z</time>
      </trkpt>
      <trkpt lat="47.24414" lon="4.58059">
        <ele>395</ele>
        <time>2014-04-23T07:58:01Z</time>
      </trkpt>
      <trkpt lat="47.24411" lon="4.58064">
        <ele>395</ele>
        <time>2014-04-23T07:58:05Z</time>
      </trkpt>
      <trkpt lat="47.24407" lon="4.58069">
        <ele>395</ele>
        <time>2014-04-23T07:58:08Z</time>
      </trkpt>
      <trkpt lat="47.24403" lon="4.58075">
        <ele>395</ele>
        <time>2014-04-23T07:58:11Z</time>
      </trkpt>
      <trkpt lat="47.24399" lon="4.58081">
        <ele>395</ele>
        <time>2014-04-23T07:58:15Z</time>
      </trkpt>
      <trkpt lat="47.24397" lon="4.58087">
        <ele>395</ele>
        <time>2014-04-23T07:58:21Z</time>
      </trkpt>
      <trkpt lat="47.24393" lon="4.58093">
        <ele>395</ele>
        <time>2014-04-23T07:58:24Z</time>
      </trkpt>
      <trkpt lat="47.24389" lon="4.58097">
        <ele>395</ele>
        <time>2014-04-23T07:58:28Z</time>
      </trkpt>
      <trkpt lat="47.24385" lon="4.58102">
        <ele>394</ele>
        <time>2014-04-23T07:58:35Z</time>
      </trkpt>
      <trkpt lat="47.24381" lon="4.58104">
        <ele>394</ele>
        <time>2014-04-23T07:58:39Z</time>
      </trkpt>
      <trkpt lat="47.24376" lon="4.58108">
        <ele>394</ele>
        <time>2014-04-23T07:58:43Z</time>
      </trkpt>
      <trkpt lat="47.24373" lon="4.58114">
        <ele>394</ele>
        <time>2014-04-23T07:58:46Z</time>
      </trkpt>
      <trkpt lat="47.2437" lon="4.58119">
        <ele>394</ele>
        <time>2014-04-23T07:58:50Z</time>
      </trkpt>
      <trkpt lat="47.24368" lon="4.58124">
        <ele>394</ele>
        <time>2014-04-23T07:58:56Z</time>
      </trkpt>
      <trkpt lat="47.24365" lon="4.5813">
        <ele>394</ele>
        <time>2014-04-23T07:59:00Z</time>
      </trkpt>
      <trkpt lat="47.24361" lon="4.58135">
        <ele>394</ele>
        <time>2014-04-23T07:59:04Z</time>
      </trkpt>
      <trkpt lat="47.24357" lon="4.58141">
        <ele>394</ele>
        <time>2014-04-23T07:59:11Z</time>
      </trkpt>
      <trkpt lat="47.24353" lon="4.58145">
        <ele>394</ele>
        <time>2014-04-23T07:59:14Z</time>
      </trkpt>
      <trkpt lat="47.24348" lon="4.58143">
        <ele>394</ele>
        <time>2014-04-23T07:59:20Z</time>
      </trkpt>
      <trkpt lat="47.24346" lon="4.58141">
        <ele>394</ele>
        <time>2014-04-23T08:03:12Z</time>
      </trkpt>
      <trkpt lat="47.24345" lon="4.58144">
        <ele>394</ele>
        <time>2014-04-23T08:04:30Z</time>
      </trkpt>
      <trkpt lat="47.24342" lon="4.5815">
        <ele>394</ele>
        <time>2014-04-23T08:04:35Z</time>
      </trkpt>
      <trkpt lat="47.2434" lon="4.58156">
        <ele>395</ele>
        <time>2014-04-23T08:04:40Z</time>
      </trkpt>
      <trkpt lat="47.24337" lon="4.58161">
        <ele>395</ele>
        <time>2014-04-23T08:04:46Z</time>
      </trkpt>
      <trkpt lat="47.24333" lon="4.58169">
        <ele>395</ele>
        <time>2014-04-23T08:04:50Z</time>
      </trkpt>
      <trkpt lat="47.24329" lon="4.58177">
        <ele>394</ele>
        <time>2014-04-23T08:04:53Z</time>
      </trkpt>
      <trkpt lat="47.24325" lon="4.58182">
        <ele>394</ele>
        <time>2014-04-23T08:04:56Z</time>
      </trkpt>
      <trkpt lat="47.24322" lon="4.58187">
        <ele>394</ele>
        <time>2014-04-23T08:05:01Z</time>
      </trkpt>
      <trkpt lat="47.24319" lon="4.58193">
        <ele>394</ele>
        <time>2014-04-23T08:05:06Z</time>
      </trkpt>
      <trkpt lat="47.24316" lon="4.58198">
        <ele>393</ele>
        <time>2014-04-23T08:05:11Z</time>
      </trkpt>
      <trkpt lat="47.24313" lon="4.58204">
        <ele>393</ele>
        <time>2014-04-23T08:05:14Z</time>
      </trkpt>
      <trkpt lat="47.2431" lon="4.58209">
        <ele>393</ele>
        <time>2014-04-23T08:05:16Z</time>
      </trkpt>
      <trkpt lat="47.24306" lon="4.58216">
        <ele>393</ele>
        <time>2014-04-23T08:05:19Z</time>
      </trkpt>
      <trkpt lat="47.24302" lon="4.58221">
        <ele>393</ele>
        <time>2014-04-23T08:05:23Z</time>
      </trkpt>
      <trkpt lat="47.24299" lon="4.58228">
        <ele>393</ele>
        <time>2014-04-23T08:05:30Z</time>
      </trkpt>
      <trkpt lat="47.24296" lon="4.58234">
        <ele>393</ele>
        <time>2014-04-23T08:05:34Z</time>
      </trkpt>
      <trkpt lat="47.24292" lon="4.58239">
        <ele>393</ele>
        <time>2014-04-23T08:05:38Z</time>
      </trkpt>
      <trkpt lat="47.24289" lon="4.58243">
        <ele>393</ele>
        <time>2014-04-23T08:05:43Z</time>
      </trkpt>
      <trkpt lat="47.24285" lon="4.58247">
        <ele>393</ele>
        <time>2014-04-23T08:05:48Z</time>
      </trkpt>
      <trkpt lat="47.2428" lon="4.58251">
        <ele>393</ele>
        <time>2014-04-23T08:05:52Z</time>
      </trkpt>
      <trkpt lat="47.24275" lon="4.58254">
        <ele>393</ele>
        <time>2014-04-23T08:06:01Z</time>
      </trkpt>
      <trkpt lat="47.24271" lon="4.58259">
        <ele>393</ele>
        <time>2014-04-23T08:06:04Z</time>
      </trkpt>
      <trkpt lat="47.24268" lon="4.58264">
        <ele>393</ele>
        <time>2014-04-23T08:06:08Z</time>
      </trkpt>
      <trkpt lat="47.24265" lon="4.58271">
        <ele>393</ele>
        <time>2014-04-23T08:06:12Z</time>
      </trkpt>
      <trkpt lat="47.24262" lon="4.58276">
        <ele>393</ele>
        <time>2014-04-23T08:06:19Z</time>
      </trkpt>
      <trkpt lat="47.24257" lon="4.58281">
        <ele>392</ele>
        <time>2014-04-23T08:06:27Z</time>
      </trkpt>
      <trkpt lat="47.24254" lon="4.58285">
        <ele>392</ele>
        <time>2014-04-23T08:06:33Z</time>
      </trkpt>
      <trkpt lat="47.2425" lon="4.58292">
        <ele>392</ele>
        <time>2014-04-23T08:06:37Z</time>
      </trkpt>
      <trkpt lat="47.24246" lon="4.58298">
        <ele>392</ele>
        <time>2014-04-23T08:06:41Z</time>
      </trkpt>
      <trkpt lat="47.24242" lon="4.58304">
        <ele>392</ele>
        <time>2014-04-23T08:06:45Z</time>
      </trkpt>
      <trkpt lat="47.24237" lon="4.58309">
        <ele>392</ele>
        <time>2014-04-23T08:06:49Z</time>
      </trkpt>
      <trkpt lat="47.24235" lon="4.58314">
        <ele>392</ele>
        <time>2014-04-23T08:06:53Z</time>
      </trkpt>
      <trkpt lat="47.24232" lon="4.58319">
        <ele>392</ele>
        <time>2014-04-23T08:06:57Z</time>
      </trkpt>
      <trkpt lat="47.24229" lon="4.58326">
        <ele>392</ele>
        <time>2014-04-23T08:07:01Z</time>
      </trkpt>
      <trkpt lat="47.24225" lon="4.58331">
        <ele>392</ele>
        <time>2014-04-23T08:07:04Z</time>
      </trkpt>
      <trkpt lat="47.24221" lon="4.58336">
        <ele>391</ele>
        <time>2014-04-23T08:07:09Z</time>
      </trkpt>
      <trkpt lat="47.24218" lon="4.58343">
        <ele>391</ele>
        <time>2014-04-23T08:07:12Z</time>
      </trkpt>
      <trkpt lat="47.24217" lon="4.5835">
        <ele>390</ele>
        <time>2014-04-23T08:07:15Z</time>
      </trkpt>
      <trkpt lat="47.24215" lon="4.58358">
        <ele>390</ele>
        <time>2014-04-23T08:07:18Z</time>
      </trkpt>
      <trkpt lat="47.24214" lon="4.58364">
        <ele>390</ele>
        <time>2014-04-23T08:07:22Z</time>
      </trkpt>
      <trkpt lat="47.2421" lon="4.58369">
        <ele>390</ele>
        <time>2014-04-23T08:07:28Z</time>
      </trkpt>
      <trkpt lat="47.24207" lon="4.58374">
        <ele>390</ele>
        <time>2014-04-23T08:07:32Z</time>
      </trkpt>
      <trkpt lat="47.24203" lon="4.58379">
        <ele>390</ele>
        <time>2014-04-23T08:07:35Z</time>
      </trkpt>
      <trkpt lat="47.24198" lon="4.58384">
        <ele>390</ele>
        <time>2014-04-23T08:07:39Z</time>
      </trkpt>
      <trkpt lat="47.24195" lon="4.58389">
        <ele>390</ele>
        <time>2014-04-23T08:07:42Z</time>
      </trkpt>
      <trkpt lat="47.24192" lon="4.58394">
        <ele>390</ele>
        <time>2014-04-23T08:07:45Z</time>
      </trkpt>
      <trkpt lat="47.24189" lon="4.584">
        <ele>390</ele>
        <time>2014-04-23T08:07:49Z</time>
      </trkpt>
      <trkpt lat="47.24186" lon="4.58406">
        <ele>390</ele>
        <time>2014-04-23T08:07:54Z</time>
      </trkpt>
      <trkpt lat="47.24183" lon="4.58411">
        <ele>389</ele>
        <time>2014-04-23T08:07:57Z</time>
      </trkpt>
      <trkpt lat="47.2418" lon="4.58418">
        <ele>389</ele>
        <time>2014-04-23T08:08:02Z</time>
      </trkpt>
      <trkpt lat="47.24177" lon="4.58424">
        <ele>389</ele>
        <time>2014-04-23T08:08:06Z</time>
      </trkpt>
      <trkpt lat="47.24174" lon="4.58429">
        <ele>389</ele>
        <time>2014-04-23T08:08:11Z</time>
      </trkpt>
      <trkpt lat="47.24172" lon="4.58435">
        <ele>389</ele>
        <time>2014-04-23T08:08:15Z</time>
      </trkpt>
      <trkpt lat="47.24169" lon="4.58441">
        <ele>389</ele>
        <time>2014-04-23T08:08:22Z</time>
      </trkpt>
      <trkpt lat="47.24165" lon="4.58447">
        <ele>390</ele>
        <time>2014-04-23T08:08:28Z</time>
      </trkpt>
      <trkpt lat="47.24161" lon="4.58452">
        <ele>390</ele>
        <time>2014-04-23T08:08:32Z</time>
      </trkpt>
      <trkpt lat="47.24157" lon="4.58456">
        <ele>390</ele>
        <time>2014-04-23T08:08:37Z</time>
      </trkpt>
      <trkpt lat="47.24153" lon="4.58461">
        <ele>390</ele>
        <time>2014-04-23T08:08:42Z</time>
      </trkpt>
      <trkpt lat="47.2415" lon="4.58462">
        <ele>390</ele>
        <time>2014-04-23T08:08:50Z</time>
      </trkpt>
      <trkpt lat="47.24146" lon="4.58468">
        <ele>390</ele>
        <time>2014-04-23T08:08:59Z</time>
      </trkpt>
      <trkpt lat="47.24143" lon="4.58474">
        <ele>390</ele>
        <time>2014-04-23T08:09:02Z</time>
      </trkpt>
      <trkpt lat="47.2414" lon="4.58476">
        <ele>390</ele>
        <time>2014-04-23T08:09:11Z</time>
      </trkpt>
      <trkpt lat="47.24137" lon="4.58481">
        <ele>390</ele>
        <time>2014-04-23T08:09:17Z</time>
      </trkpt>
      <trkpt lat="47.24133" lon="4.58486">
        <ele>390</ele>
        <time>2014-04-23T08:09:22Z</time>
      </trkpt>
      <trkpt lat="47.24131" lon="4.58489">
        <ele>390</ele>
        <time>2014-04-23T08:09:29Z</time>
      </trkpt>
      <trkpt lat="47.24129" lon="4.58496">
        <ele>390</ele>
        <time>2014-04-23T08:10:55Z</time>
      </trkpt>
      <trkpt lat="47.24125" lon="4.58499">
        <ele>390</ele>
        <time>2014-04-23T08:11:02Z</time>
      </trkpt>
      <trkpt lat="47.24124" lon="4.58503">
        <ele>390</ele>
        <time>2014-04-23T08:11:14Z</time>
      </trkpt>
      <trkpt lat="47.24118" lon="4.58508">
        <ele>390</ele>
        <time>2014-04-23T08:11:27Z</time>
      </trkpt>
      <trkpt lat="47.24114" lon="4.58513">
        <ele>390</ele>
        <time>2014-04-23T08:11:33Z</time>
      </trkpt>
      <trkpt lat="47.24112" lon="4.58514">
        <ele>390</ele>
        <time>2014-04-23T08:11:44Z</time>
      </trkpt>
      <trkpt lat="47.24108" lon="4.58518">
        <ele>390</ele>
        <time>2014-04-23T08:11:58Z</time>
      </trkpt>
      <trkpt lat="47.24106" lon="4.58525">
        <ele>390</ele>
        <time>2014-04-23T08:12:04Z</time>
      </trkpt>
      <trkpt lat="47.24103" lon="4.5853">
        <ele>390</ele>
        <time>2014-04-23T08:12:08Z</time>
      </trkpt>
      <trkpt lat="47.241" lon="4.58537">
        <ele>390</ele>
        <time>2014-04-23T08:12:12Z</time>
      </trkpt>
      <trkpt lat="47.24096" lon="4.58543">
        <ele>390</ele>
        <time>2014-04-23T08:12:16Z</time>
      </trkpt>
      <trkpt lat="47.24093" lon="4.5855">
        <ele>390</ele>
        <time>2014-04-23T08:12:20Z</time>
      </trkpt>
      <trkpt lat="47.24088" lon="4.58552">
        <ele>390</ele>
        <time>2014-04-23T08:12:24Z</time>
      </trkpt>
      <trkpt lat="47.24083" lon="4.58557">
        <ele>390</ele>
        <time>2014-04-23T08:12:29Z</time>
      </trkpt>
      <trkpt lat="47.24078" lon="4.58562">
        <ele>390</ele>
        <time>2014-04-23T08:12:33Z</time>
      </trkpt>
      <trkpt lat="47.24074" lon="4.58565">
        <ele>390</ele>
        <time>2014-04-23T08:12:40Z</time>
      </trkpt>
      <trkpt lat="47.24069" lon="4.58568">
        <ele>390</ele>
        <time>2014-04-23T08:12:46Z</time>
      </trkpt>
      <trkpt lat="47.24066" lon="4.58573">
        <ele>390</ele>
        <time>2014-04-23T08:12:52Z</time>
      </trkpt>
      <trkpt lat="47.24063" lon="4.58579">
        <ele>390</ele>
        <time>2014-04-23T08:12:57Z</time>
      </trkpt>
      <trkpt lat="47.2406" lon="4.58583">
        <ele>389</ele>
        <time>2014-04-23T08:13:00Z</time>
      </trkpt>
      <trkpt lat="47.24057" lon="4.58589">
        <ele>389</ele>
        <time>2014-04-23T08:13:03Z</time>
      </trkpt>
      <trkpt lat="47.24049" lon="4.58598">
        <ele>388</ele>
        <time>2014-04-23T08:13:10Z</time>
      </trkpt>
      <trkpt lat="47.24044" lon="4.586">
        <ele>388</ele>
        <time>2014-04-23T08:13:34Z</time>
      </trkpt>
      <trkpt lat="47.24039" lon="4.58603">
        <ele>388</ele>
        <time>2014-04-23T08:13:41Z</time>
      </trkpt>
      <trkpt lat="47.24035" lon="4.58607">
        <ele>388</ele>
        <time>2014-04-23T08:13:45Z</time>
      </trkpt>
      <trkpt lat="47.24031" lon="4.58611">
        <ele>388</ele>
        <time>2014-04-23T08:13:49Z</time>
      </trkpt>
      <trkpt lat="47.24026" lon="4.58613">
        <ele>388</ele>
        <time>2014-04-23T08:13:55Z</time>
      </trkpt>
      <trkpt lat="47.24021" lon="4.58613">
        <ele>388</ele>
        <time>2014-04-23T08:14:00Z</time>
      </trkpt>
      <trkpt lat="47.24017" lon="4.58618">
        <ele>388</ele>
        <time>2014-04-23T08:14:05Z</time>
      </trkpt>
      <trkpt lat="47.24013" lon="4.58621">
        <ele>388</ele>
        <time>2014-04-23T08:14:09Z</time>
      </trkpt>
      <trkpt lat="47.24011" lon="4.58628">
        <ele>388</ele>
        <time>2014-04-23T08:14:16Z</time>
      </trkpt>
      <trkpt lat="47.24006" lon="4.58631">
        <ele>387</ele>
        <time>2014-04-23T08:14:19Z</time>
      </trkpt>
      <trkpt lat="47.24001" lon="4.58635">
        <ele>387</ele>
        <time>2014-04-23T08:14:22Z</time>
      </trkpt>
      <trkpt lat="47.23996" lon="4.58637">
        <ele>388</ele>
        <time>2014-04-23T08:14:27Z</time>
      </trkpt>
      <trkpt lat="47.23991" lon="4.5864">
        <ele>388</ele>
        <time>2014-04-23T08:14:32Z</time>
      </trkpt>
      <trkpt lat="47.23987" lon="4.58645">
        <ele>388</ele>
        <time>2014-04-23T08:14:35Z</time>
      </trkpt>
      <trkpt lat="47.23983" lon="4.58651">
        <ele>388</ele>
        <time>2014-04-23T08:14:38Z</time>
      </trkpt>
      <trkpt lat="47.2398" lon="4.58656">
        <ele>388</ele>
        <time>2014-04-23T08:14:43Z</time>
      </trkpt>
      <trkpt lat="47.23975" lon="4.58655">
        <ele>388</ele>
        <time>2014-04-23T08:14:47Z</time>
      </trkpt>
      <trkpt lat="47.2397" lon="4.58658">
        <ele>388</ele>
        <time>2014-04-23T08:14:51Z</time>
      </trkpt>
      <trkpt lat="47.23965" lon="4.58665">
        <ele>388</ele>
        <time>2014-04-23T08:14:54Z</time>
      </trkpt>
      <trkpt lat="47.23961" lon="4.58671">
        <ele>386</ele>
        <time>2014-04-23T08:14:57Z</time>
      </trkpt>
      <trkpt lat="47.23956" lon="4.58675">
        <ele>386</ele>
        <time>2014-04-23T08:15:01Z</time>
      </trkpt>
      <trkpt lat="47.23952" lon="4.58677">
        <ele>387</ele>
        <time>2014-04-23T08:15:07Z</time>
      </trkpt>
      <trkpt lat="47.23948" lon="4.58673">
        <ele>387</ele>
        <time>2014-04-23T08:15:13Z</time>
      </trkpt>
      <trkpt lat="47.23944" lon="4.58677">
        <ele>387</ele>
        <time>2014-04-23T08:15:16Z</time>
      </trkpt>
      <trkpt lat="47.2394" lon="4.58682">
        <ele>387</ele>
        <time>2014-04-23T08:15:19Z</time>
      </trkpt>
      <trkpt lat="47.23935" lon="4.58687">
        <ele>387</ele>
        <time>2014-04-23T08:15:23Z</time>
      </trkpt>
      <trkpt lat="47.2393" lon="4.58693">
        <ele>387</ele>
        <time>2014-04-23T08:15:27Z</time>
      </trkpt>
      <trkpt lat="47.23926" lon="4.58698">
        <ele>387</ele>
        <time>2014-04-23T08:15:31Z</time>
      </trkpt>
      <trkpt lat="47.23922" lon="4.58701">
        <ele>386</ele>
        <time>2014-04-23T08:15:36Z</time>
      </trkpt>
      <trkpt lat="47.23918" lon="4.58701">
        <ele>387</ele>
        <time>2014-04-23T08:15:40Z</time>
      </trkpt>
      <trkpt lat="47.23913" lon="4.587">
        <ele>387</ele>
        <time>2014-04-23T08:15:45Z</time>
      </trkpt>
      <trkpt lat="47.23908" lon="4.58701">
        <ele>387</ele>
        <time>2014-04-23T08:15:48Z</time>
      </trkpt>
      <trkpt lat="47.23902" lon="4.58705">
        <ele>387</ele>
        <time>2014-04-23T08:16:05Z</time>
      </trkpt>
      <trkpt lat="47.23898" lon="4.5871">
        <ele>387</ele>
        <time>2014-04-23T08:16:11Z</time>
      </trkpt>
      <trkpt lat="47.23892" lon="4.58712">
        <ele>387</ele>
        <time>2014-04-23T08:16:15Z</time>
      </trkpt>
      <trkpt lat="47.23888" lon="4.58715">
        <ele>387</ele>
        <time>2014-04-23T08:16:18Z</time>
      </trkpt>
      <trkpt lat="47.23883" lon="4.58718">
        <ele>387</ele>
        <time>2014-04-23T08:16:21Z</time>
      </trkpt>
      <trkpt lat="47.23878" lon="4.58718">
        <ele>387</ele>
        <time>2014-04-23T08:16:24Z</time>
      </trkpt>
      <trkpt lat="47.23874" lon="4.58721">
        <ele>387</ele>
        <time>2014-04-23T08:16:28Z</time>
      </trkpt>
      <trkpt lat="47.2387" lon="4.58724">
        <ele>387</ele>
        <time>2014-04-23T08:16:32Z</time>
      </trkpt>
      <trkpt lat="47.23866" lon="4.58728">
        <ele>386</ele>
        <time>2014-04-23T08:16:35Z</time>
      </trkpt>
      <trkpt lat="47.23861" lon="4.58727">
        <ele>386</ele>
        <time>2014-04-23T08:16:40Z</time>
      </trkpt>
      <trkpt lat="47.23856" lon="4.58727">
        <ele>386</ele>
        <time>2014-04-23T08:16:44Z</time>
      </trkpt>
      <trkpt lat="47.23851" lon="4.58727">
        <ele>386</ele>
        <time>2014-04-23T08:16:49Z</time>
      </trkpt>
      <trkpt lat="47.23846" lon="4.58727">
        <ele>386</ele>
        <time>2014-04-23T08:16:54Z</time>
      </trkpt>
      <trkpt lat="47.23841" lon="4.58729">
        <ele>386</ele>
        <time>2014-04-23T08:16:59Z</time>
      </trkpt>
      <trkpt lat="47.23837" lon="4.58736">
        <ele>386</ele>
        <time>2014-04-23T08:17:02Z</time>
      </trkpt>
      <trkpt lat="47.23833" lon="4.58743">
        <ele>386</ele>
        <time>2014-04-23T08:17:04Z</time>
      </trkpt>
      <trkpt lat="47.23828" lon="4.58747">
        <ele>386</ele>
        <time>2014-04-23T08:17:07Z</time>
      </trkpt>
      <trkpt lat="47.23823" lon="4.58748">
        <ele>386</ele>
        <time>2014-04-23T08:17:11Z</time>
      </trkpt>
      <trkpt lat="47.23818" lon="4.58749">
        <ele>386</ele>
        <time>2014-04-23T08:17:17Z</time>
      </trkpt>
      <trkpt lat="47.23814" lon="4.58751">
        <ele>385</ele>
        <time>2014-04-23T08:17:22Z</time>
      </trkpt>
      <trkpt lat="47.23808" lon="4.58755">
        <ele>384</ele>
        <time>2014-04-23T08:17:25Z</time>
      </trkpt>
      <trkpt lat="47.23802" lon="4.58758">
        <ele>384</ele>
        <time>2014-04-23T08:17:28Z</time>
      </trkpt>
      <trkpt lat="47.23798" lon="4.58758">
        <ele>384</ele>
        <time>2014-04-23T08:17:31Z</time>
      </trkpt>
      <trkpt lat="47.23793" lon="4.58755">
        <ele>384</ele>
        <time>2014-04-23T08:17:35Z</time>
      </trkpt>
      <trkpt lat="47.23789" lon="4.58756">
        <ele>384</ele>
        <time>2014-04-23T08:17:40Z</time>
      </trkpt>
      <trkpt lat="47.23783" lon="4.58761">
        <ele>384</ele>
        <time>2014-04-23T08:17:44Z</time>
      </trkpt>
      <trkpt lat="47.23784" lon="4.58757">
        <ele>384</ele>
        <time>2014-04-23T08:18:05Z</time>
      </trkpt>
      <trkpt lat="47.23786" lon="4.58751">
        <ele>384</ele>
        <time>2014-04-23T08:18:21Z</time>
      </trkpt>
      <trkpt lat="47.23782" lon="4.5875">
        <ele>384</ele>
        <time>2014-04-23T08:18:28Z</time>
      </trkpt>
      <trkpt lat="47.23776" lon="4.58752">
        <ele>384</ele>
        <time>2014-04-23T08:18:32Z</time>
      </trkpt>
      <trkpt lat="47.2377" lon="4.58754">
        <ele>384</ele>
        <time>2014-04-23T08:18:37Z</time>
      </trkpt>
      <trkpt lat="47.23765" lon="4.58755">
        <ele>384</ele>
        <time>2014-04-23T08:18:44Z</time>
      </trkpt>
      <trkpt lat="47.23761" lon="4.58758">
        <ele>384</ele>
        <time>2014-04-23T08:18:48Z</time>
      </trkpt>
      <trkpt lat="47.23756" lon="4.58762">
        <ele>384</ele>
        <time>2014-04-23T08:18:51Z</time>
      </trkpt>
      <trkpt lat="47.23751" lon="4.58763">
        <ele>384</ele>
        <time>2014-04-23T08:18:56Z</time>
      </trkpt>
      <trkpt lat="47.23747" lon="4.58766">
        <ele>383</ele>
        <time>2014-04-23T08:19:01Z</time>
      </trkpt>
      <trkpt lat="47.23736" lon="4.58769">
        <ele>383</ele>
        <time>2014-04-23T08:19:13Z</time>
      </trkpt>
      <trkpt lat="47.23732" lon="4.58772">
        <ele>383</ele>
        <time>2014-04-23T08:19:15Z</time>
      </trkpt>
      <trkpt lat="47.23727" lon="4.58772">
        <ele>383</ele>
        <time>2014-04-23T08:19:19Z</time>
      </trkpt>
      <trkpt lat="47.23724" lon="4.58767">
        <ele>383</ele>
        <time>2014-04-23T08:19:23Z</time>
      </trkpt>
      <trkpt lat="47.23719" lon="4.58767">
        <ele>383</ele>
        <time>2014-04-23T08:19:26Z</time>
      </trkpt>
      <trkpt lat="47.23714" lon="4.58769">
        <ele>383</ele>
        <time>2014-04-23T08:19:31Z</time>
      </trkpt>
      <trkpt lat="47.2371" lon="4.58775">
        <ele>383</ele>
        <time>2014-04-23T08:19:35Z</time>
      </trkpt>
      <trkpt lat="47.23705" lon="4.58781">
        <ele>383</ele>
        <time>2014-04-23T08:19:38Z</time>
      </trkpt>
      <trkpt lat="47.237" lon="4.58786">
        <ele>383</ele>
        <time>2014-04-23T08:19:41Z</time>
      </trkpt>
      <trkpt lat="47.23695" lon="4.58789">
        <ele>383</ele>
        <time>2014-04-23T08:19:46Z</time>
      </trkpt>
      <trkpt lat="47.23691" lon="4.58786">
        <ele>383</ele>
        <time>2014-04-23T08:19:54Z</time>
      </trkpt>
      <trkpt lat="47.23685" lon="4.58789">
        <ele>383</ele>
        <time>2014-04-23T08:19:58Z</time>
      </trkpt>
      <trkpt lat="47.23681" lon="4.58788">
        <ele>383</ele>
        <time>2014-04-23T08:20:02Z</time>
      </trkpt>
      <trkpt lat="47.23676" lon="4.58787">
        <ele>383</ele>
        <time>2014-04-23T08:20:05Z</time>
      </trkpt>
      <trkpt lat="47.23669" lon="4.5879">
        <ele>383</ele>
        <time>2014-04-23T08:20:08Z</time>
      </trkpt>
      <trkpt lat="47.23664" lon="4.58794">
        <ele>383</ele>
        <time>2014-04-23T08:20:11Z</time>
      </trkpt>
      <trkpt lat="47.23659" lon="4.58796">
        <ele>383</ele>
        <time>2014-04-23T08:20:15Z</time>
      </trkpt>
      <trkpt lat="47.23655" lon="4.588">
        <ele>382</ele>
        <time>2014-04-23T08:20:20Z</time>
      </trkpt>
      <trkpt lat="47.23649" lon="4.58801">
        <ele>382</ele>
        <time>2014-04-23T08:20:25Z</time>
      </trkpt>
      <trkpt lat="47.23645" lon="4.58804">
        <ele>382</ele>
        <time>2014-04-23T08:20:28Z</time>
      </trkpt>
      <trkpt lat="47.2364" lon="4.58805">
        <ele>382</ele>
        <time>2014-04-23T08:20:34Z</time>
      </trkpt>
      <trkpt lat="47.23635" lon="4.58805">
        <ele>383</ele>
        <time>2014-04-23T08:20:39Z</time>
      </trkpt>
      <trkpt lat="47.23631" lon="4.58808">
        <ele>382</ele>
        <time>2014-04-23T08:20:42Z</time>
      </trkpt>
      <trkpt lat="47.23627" lon="4.58811">
        <ele>382</ele>
        <time>2014-04-23T08:20:45Z</time>
      </trkpt>
      <trkpt lat="47.23622" lon="4.5881">
        <ele>383</ele>
        <time>2014-04-23T08:20:49Z</time>
      </trkpt>
      <trkpt lat="47.23617" lon="4.5881">
        <ele>383</ele>
        <time>2014-04-23T08:20:54Z</time>
      </trkpt>
      <trkpt lat="47.23611" lon="4.58812">
        <ele>383</ele>
        <time>2014-04-23T08:20:58Z</time>
      </trkpt>
      <trkpt lat="47.23606" lon="4.58813">
        <ele>382</ele>
        <time>2014-04-23T08:21:03Z</time>
      </trkpt>
      <trkpt lat="47.23601" lon="4.58816">
        <ele>382</ele>
        <time>2014-04-23T08:21:08Z</time>
      </trkpt>
      <trkpt lat="47.23596" lon="4.5882">
        <ele>382</ele>
        <time>2014-04-23T08:21:11Z</time>
      </trkpt>
      <trkpt lat="47.23591" lon="4.58822">
        <ele>382</ele>
        <time>2014-04-23T08:21:15Z</time>
      </trkpt>
      <trkpt lat="47.23586" lon="4.58824">
        <ele>382</ele>
        <time>2014-04-23T08:21:18Z</time>
      </trkpt>
      <trkpt lat="47.23581" lon="4.58827">
        <ele>382</ele>
        <time>2014-04-23T08:21:22Z</time>
      </trkpt>
      <trkpt lat="47.23576" lon="4.58827">
        <ele>382</ele>
        <time>2014-04-23T08:21:26Z</time>
      </trkpt>
      <trkpt lat="47.23573" lon="4.5882">
        <ele>382</ele>
        <time>2014-04-23T08:21:30Z</time>
      </trkpt>
      <trkpt lat="47.23572" lon="4.58813">
        <ele>382</ele>
        <time>2014-04-23T08:21:34Z</time>
      </trkpt>
      <trkpt lat="47.23574" lon="4.58813">
        <ele>382</ele>
        <time>2014-04-23T08:22:48Z</time>
      </trkpt>
      <trkpt lat="47.23572" lon="4.5882">
        <ele>382</ele>
        <time>2014-04-23T08:22:53Z</time>
      </trkpt>
      <trkpt lat="47.23565" lon="4.58823">
        <ele>382</ele>
        <time>2014-04-23T08:23:04Z</time>
      </trkpt>
      <trkpt lat="47.23559" lon="4.58824">
        <ele>382</ele>
        <time>2014-04-23T08:23:07Z</time>
      </trkpt>
      <trkpt lat="47.23554" lon="4.58826">
        <ele>382</ele>
        <time>2014-04-23T08:23:10Z</time>
      </trkpt>
      <trkpt lat="47.2355" lon="4.58828">
        <ele>381</ele>
        <time>2014-04-23T08:23:13Z</time>
      </trkpt>
      <trkpt lat="47.23545" lon="4.58832">
        <ele>381</ele>
        <time>2014-04-23T08:23:17Z</time>
      </trkpt>
      <trkpt lat="47.23541" lon="4.58834">
        <ele>381</ele>
        <time>2014-04-23T08:23:21Z</time>
      </trkpt>
      <trkpt lat="47.23536" lon="4.58836">
        <ele>380</ele>
        <time>2014-04-23T08:23:24Z</time>
      </trkpt>
      <trkpt lat="47.2353" lon="4.58836">
        <ele>380</ele>
        <time>2014-04-23T08:23:28Z</time>
      </trkpt>
      <trkpt lat="47.23524" lon="4.58838">
        <ele>380</ele>
        <time>2014-04-23T08:23:32Z</time>
      </trkpt>
      <trkpt lat="47.23519" lon="4.5884">
        <ele>380</ele>
        <time>2014-04-23T08:23:36Z</time>
      </trkpt>
      <trkpt lat="47.23514" lon="4.58841">
        <ele>380</ele>
        <time>2014-04-23T08:23:41Z</time>
      </trkpt>
      <trkpt lat="47.23509" lon="4.58841">
        <ele>380</ele>
        <time>2014-04-23T08:23:45Z</time>
      </trkpt>
      <trkpt lat="47.23504" lon="4.58842">
        <ele>380</ele>
        <time>2014-04-23T08:23:49Z</time>
      </trkpt>
      <trkpt lat="47.235" lon="4.58845">
        <ele>380</ele>
        <time>2014-04-23T08:23:53Z</time>
      </trkpt>
      <trkpt lat="47.23495" lon="4.58848">
        <ele>380</ele>
        <time>2014-04-23T08:23:58Z</time>
      </trkpt>
      <trkpt lat="47.23491" lon="4.5885">
        <ele>380</ele>
        <time>2014-04-23T08:24:02Z</time>
      </trkpt>
      <trkpt lat="47.23486" lon="4.58852">
        <ele>380</ele>
        <time>2014-04-23T08:24:05Z</time>
      </trkpt>
      <trkpt lat="47.2348" lon="4.58852">
        <ele>380</ele>
        <time>2014-04-23T08:24:09Z</time>
      </trkpt>
      <trkpt lat="47.23475" lon="4.58852">
        <ele>379</ele>
        <time>2014-04-23T08:24:14Z</time>
      </trkpt>
      <trkpt lat="47.2347" lon="4.58855">
        <ele>379</ele>
        <time>2014-04-23T08:24:19Z</time>
      </trkpt>
      <trkpt lat="47.23464" lon="4.58857">
        <ele>379</ele>
        <time>2014-04-23T08:24:23Z</time>
      </trkpt>
      <trkpt lat="47.23459" lon="4.58858">
        <ele>379</ele>
        <time>2014-04-23T08:24:27Z</time>
      </trkpt>
      <trkpt lat="47.23454" lon="4.58861">
        <ele>379</ele>
        <time>2014-04-23T08:24:31Z</time>
      </trkpt>
      <trkpt lat="47.23449" lon="4.58863">
        <ele>379</ele>
        <time>2014-04-23T08:24:36Z</time>
      </trkpt>
      <trkpt lat="47.23444" lon="4.58863">
        <ele>379</ele>
        <time>2014-04-23T08:24:41Z</time>
      </trkpt>
      <trkpt lat="47.23438" lon="4.58865">
        <ele>379</ele>
        <time>2014-04-23T08:24:46Z</time>
      </trkpt>
      <trkpt lat="47.23433" lon="4.58868">
        <ele>379</ele>
        <time>2014-04-23T08:24:49Z</time>
      </trkpt>
      <trkpt lat="47.23428" lon="4.5887">
        <ele>379</ele>
        <time>2014-04-23T08:24:52Z</time>
      </trkpt>
      <trkpt lat="47.23424" lon="4.58872">
        <ele>379</ele>
        <time>2014-04-23T08:24:56Z</time>
      </trkpt>
      <trkpt lat="47.23419" lon="4.58874">
        <ele>379</ele>
        <time>2014-04-23T08:25:00Z</time>
      </trkpt>
      <trkpt lat="47.23414" lon="4.58876">
        <ele>379</ele>
        <time>2014-04-23T08:25:04Z</time>
      </trkpt>
      <trkpt lat="47.23409" lon="4.58879">
        <ele>379</ele>
        <time>2014-04-23T08:25:10Z</time>
      </trkpt>
      <trkpt lat="47.23403" lon="4.58881">
        <ele>379</ele>
        <time>2014-04-23T08:25:14Z</time>
      </trkpt>
      <trkpt lat="47.23398" lon="4.58884">
        <ele>379</ele>
        <time>2014-04-23T08:25:17Z</time>
      </trkpt>
      <trkpt lat="47.23393" lon="4.58886">
        <ele>379</ele>
        <time>2014-04-23T08:25:20Z</time>
      </trkpt>
      <trkpt lat="47.23388" lon="4.58888">
        <ele>379</ele>
        <time>2014-04-23T08:25:25Z</time>
      </trkpt>
      <trkpt lat="47.23383" lon="4.5889">
        <ele>379</ele>
        <time>2014-04-23T08:25:29Z</time>
      </trkpt>
      <trkpt lat="47.23378" lon="4.58894">
        <ele>379</ele>
        <time>2014-04-23T08:25:33Z</time>
      </trkpt>
      <trkpt lat="47.23373" lon="4.58897">
        <ele>379</ele>
        <time>2014-04-23T08:25:37Z</time>
      </trkpt>
      <trkpt lat="47.23368" lon="4.589">
        <ele>379</ele>
        <time>2014-04-23T08:25:42Z</time>
      </trkpt>
      <trkpt lat="47.23363" lon="4.58902">
        <ele>379</ele>
        <time>2014-04-23T08:25:46Z</time>
      </trkpt>
      <trkpt lat="47.23358" lon="4.58902">
        <ele>379</ele>
        <time>2014-04-23T08:25:50Z</time>
      </trkpt>
      <trkpt lat="47.23353" lon="4.58904">
        <ele>379</ele>
        <time>2014-04-23T08:25:54Z</time>
      </trkpt>
      <trkpt lat="47.23348" lon="4.58906">
        <ele>379</ele>
        <time>2014-04-23T08:25:58Z</time>
      </trkpt>
      <trkpt lat="47.23343" lon="4.5891">
        <ele>379</ele>
        <time>2014-04-23T08:26:02Z</time>
      </trkpt>
      <trkpt lat="47.23339" lon="4.58913">
        <ele>379</ele>
        <time>2014-04-23T08:26:06Z</time>
      </trkpt>
      <trkpt lat="47.23334" lon="4.58916">
        <ele>379</ele>
        <time>2014-04-23T08:26:12Z</time>
      </trkpt>
      <trkpt lat="47.2333" lon="4.58918">
        <ele>379</ele>
        <time>2014-04-23T08:26:15Z</time>
      </trkpt>
      <trkpt lat="47.23325" lon="4.58918">
        <ele>379</ele>
        <time>2014-04-23T08:26:19Z</time>
      </trkpt>
      <trkpt lat="47.2332" lon="4.5892">
        <ele>379</ele>
        <time>2014-04-23T08:26:22Z</time>
      </trkpt>
      <trkpt lat="47.23316" lon="4.58923">
        <ele>379</ele>
        <time>2014-04-23T08:26:25Z</time>
      </trkpt>
      <trkpt lat="47.2331" lon="4.58924">
        <ele>379</ele>
        <time>2014-04-23T08:26:30Z</time>
      </trkpt>
      <trkpt lat="47.23305" lon="4.58923">
        <ele>379</ele>
        <time>2014-04-23T08:26:34Z</time>
      </trkpt>
      <trkpt lat="47.233" lon="4.58927">
        <ele>379</ele>
        <time>2014-04-23T08:26:39Z</time>
      </trkpt>
      <trkpt lat="47.23294" lon="4.58928">
        <ele>379</ele>
        <time>2014-04-23T08:26:44Z</time>
      </trkpt>
      <trkpt lat="47.23288" lon="4.58928">
        <ele>378</ele>
        <time>2014-04-23T08:26:48Z</time>
      </trkpt>
      <trkpt lat="47.23283" lon="4.58929">
        <ele>378</ele>
        <time>2014-04-23T08:26:54Z</time>
      </trkpt>
      <trkpt lat="47.23279" lon="4.58932">
        <ele>378</ele>
        <time>2014-04-23T08:26:58Z</time>
      </trkpt>
      <trkpt lat="47.23274" lon="4.58929">
        <ele>378</ele>
        <time>2014-04-23T08:27:03Z</time>
      </trkpt>
      <trkpt lat="47.23269" lon="4.58929">
        <ele>378</ele>
        <time>2014-04-23T08:27:09Z</time>
      </trkpt>
      <trkpt lat="47.23264" lon="4.58931">
        <ele>378</ele>
        <time>2014-04-23T08:27:13Z</time>
      </trkpt>
      <trkpt lat="47.23259" lon="4.58933">
        <ele>378</ele>
        <time>2014-04-23T08:27:17Z</time>
      </trkpt>
      <trkpt lat="47.23254" lon="4.58934">
        <ele>378</ele>
        <time>2014-04-23T08:27:20Z</time>
      </trkpt>
      <trkpt lat="47.23249" lon="4.58933">
        <ele>379</ele>
        <time>2014-04-23T08:27:27Z</time>
      </trkpt>
      <trkpt lat="47.23244" lon="4.58933">
        <ele>379</ele>
        <time>2014-04-23T08:27:31Z</time>
      </trkpt>
      <trkpt lat="47.23238" lon="4.58934">
        <ele>379</ele>
        <time>2014-04-23T08:27:35Z</time>
      </trkpt>
      <trkpt lat="47.23233" lon="4.58934">
        <ele>379</ele>
        <time>2014-04-23T08:27:39Z</time>
      </trkpt>
      <trkpt lat="47.23228" lon="4.58935">
        <ele>379</ele>
        <time>2014-04-23T08:27:43Z</time>
      </trkpt>
      <trkpt lat="47.23223" lon="4.58938">
        <ele>379</ele>
        <time>2014-04-23T08:27:48Z</time>
      </trkpt>
      <trkpt lat="47.23219" lon="4.58938">
        <ele>379</ele>
        <time>2014-04-23T08:27:53Z</time>
      </trkpt>
      <trkpt lat="47.23214" lon="4.58936">
        <ele>379</ele>
        <time>2014-04-23T08:28:00Z</time>
      </trkpt>
      <trkpt lat="47.23209" lon="4.58942">
        <ele>380</ele>
        <time>2014-04-23T08:28:03Z</time>
      </trkpt>
      <trkpt lat="47.23204" lon="4.58948">
        <ele>380</ele>
        <time>2014-04-23T08:28:05Z</time>
      </trkpt>
      <trkpt lat="47.23199" lon="4.58949">
        <ele>380</ele>
        <time>2014-04-23T08:28:10Z</time>
      </trkpt>
      <trkpt lat="47.23194" lon="4.58951">
        <ele>380</ele>
        <time>2014-04-23T08:28:13Z</time>
      </trkpt>
      <trkpt lat="47.23189" lon="4.58953">
        <ele>380</ele>
        <time>2014-04-23T08:28:17Z</time>
      </trkpt>
      <trkpt lat="47.23184" lon="4.58954">
        <ele>380</ele>
        <time>2014-04-23T08:28:20Z</time>
      </trkpt>
      <trkpt lat="47.23178" lon="4.58954">
        <ele>380</ele>
        <time>2014-04-23T08:28:23Z</time>
      </trkpt>
      <trkpt lat="47.23174" lon="4.58957">
        <ele>380</ele>
        <time>2014-04-23T08:28:26Z</time>
      </trkpt>
      <trkpt lat="47.23171" lon="4.58962">
        <ele>380</ele>
        <time>2014-04-23T08:28:30Z</time>
      </trkpt>
      <trkpt lat="47.23166" lon="4.58966">
        <ele>378</ele>
        <time>2014-04-23T08:28:34Z</time>
      </trkpt>
      <trkpt lat="47.23161" lon="4.58969">
        <ele>378</ele>
        <time>2014-04-23T08:28:38Z</time>
      </trkpt>
      <trkpt lat="47.23156" lon="4.58973">
        <ele>378</ele>
        <time>2014-04-23T08:28:41Z</time>
      </trkpt>
      <trkpt lat="47.23152" lon="4.58977">
        <ele>378</ele>
        <time>2014-04-23T08:28:44Z</time>
      </trkpt>
      <trkpt lat="47.23148" lon="4.58981">
        <ele>378</ele>
        <time>2014-04-23T08:28:47Z</time>
      </trkpt>
      <trkpt lat="47.23143" lon="4.58983">
        <ele>378</ele>
        <time>2014-04-23T08:28:52Z</time>
      </trkpt>
      <trkpt lat="47.23138" lon="4.58984">
        <ele>378</ele>
        <time>2014-04-23T08:28:57Z</time>
      </trkpt>
      <trkpt lat="47.23133" lon="4.58987">
        <ele>377</ele>
        <time>2014-04-23T08:29:01Z</time>
      </trkpt>
      <trkpt lat="47.23129" lon="4.58989">
        <ele>377</ele>
        <time>2014-04-23T08:29:04Z</time>
      </trkpt>
      <trkpt lat="47.23124" lon="4.58991">
        <ele>377</ele>
        <time>2014-04-23T08:29:08Z</time>
      </trkpt>
      <trkpt lat="47.23119" lon="4.58992">
        <ele>377</ele>
        <time>2014-04-23T08:29:14Z</time>
      </trkpt>
      <trkpt lat="47.23114" lon="4.58996">
        <ele>377</ele>
        <time>2014-04-23T08:29:21Z</time>
      </trkpt>
      <trkpt lat="47.2311" lon="4.59">
        <ele>377</ele>
        <time>2014-04-23T08:29:23Z</time>
      </trkpt>
      <trkpt lat="47.23107" lon="4.59004">
        <ele>377</ele>
        <time>2014-04-23T08:29:26Z</time>
      </trkpt>
      <trkpt lat="47.23105" lon="4.5901">
        <ele>377</ele>
        <time>2014-04-23T08:29:30Z</time>
      </trkpt>
      <trkpt lat="47.231" lon="4.59015">
        <ele>377</ele>
        <time>2014-04-23T08:29:33Z</time>
      </trkpt>
      <trkpt lat="47.23096" lon="4.59019">
        <ele>377</ele>
        <time>2014-04-23T08:29:36Z</time>
      </trkpt>
      <trkpt lat="47.23091" lon="4.59022">
        <ele>377</ele>
        <time>2014-04-23T08:29:39Z</time>
      </trkpt>
      <trkpt lat="47.23087" lon="4.59027">
        <ele>377</ele>
        <time>2014-04-23T08:29:42Z</time>
      </trkpt>
      <trkpt lat="47.2308" lon="4.59034">
        <ele>375</ele>
        <time>2014-04-23T08:29:43Z</time>
      </trkpt>
      <trkpt lat="47.23075" lon="4.59039">
        <ele>375</ele>
        <time>2014-04-23T08:29:50Z</time>
      </trkpt>
      <trkpt lat="47.23072" lon="4.59043">
        <ele>375</ele>
        <time>2014-04-23T08:29:53Z</time>
      </trkpt>
      <trkpt lat="47.23068" lon="4.59048">
        <ele>376</ele>
        <time>2014-04-23T08:29:59Z</time>
      </trkpt>
      <trkpt lat="47.23064" lon="4.59056">
        <ele>376</ele>
        <time>2014-04-23T08:30:11Z</time>
      </trkpt>
      <trkpt lat="47.2306" lon="4.59062">
        <ele>376</ele>
        <time>2014-04-23T08:30:14Z</time>
      </trkpt>
      <trkpt lat="47.23056" lon="4.59067">
        <ele>376</ele>
        <time>2014-04-23T08:30:17Z</time>
      </trkpt>
      <trkpt lat="47.23053" lon="4.59072">
        <ele>376</ele>
        <time>2014-04-23T08:30:22Z</time>
      </trkpt>
      <trkpt lat="47.23049" lon="4.59075">
        <ele>375</ele>
        <time>2014-04-23T08:30:27Z</time>
      </trkpt>
      <trkpt lat="47.23044" lon="4.59081">
        <ele>375</ele>
        <time>2014-04-23T08:30:30Z</time>
      </trkpt>
      <trkpt lat="47.23041" lon="4.59087">
        <ele>376</ele>
        <time>2014-04-23T08:30:33Z</time>
      </trkpt>
      <trkpt lat="47.23037" lon="4.59091">
        <ele>376</ele>
        <time>2014-04-23T08:30:37Z</time>
      </trkpt>
      <trkpt lat="47.23033" lon="4.59095">
        <ele>376</ele>
        <time>2014-04-23T08:30:42Z</time>
      </trkpt>
      <trkpt lat="47.2303" lon="4.59101">
        <ele>376</ele>
        <time>2014-04-23T08:30:45Z</time>
      </trkpt>
      <trkpt lat="47.23027" lon="4.59107">
        <ele>376</ele>
        <time>2014-04-23T08:30:49Z</time>
      </trkpt>
      <trkpt lat="47.23023" lon="4.59112">
        <ele>376</ele>
        <time>2014-04-23T08:30:53Z</time>
      </trkpt>
      <trkpt lat="47.2302" lon="4.59117">
        <ele>376</ele>
        <time>2014-04-23T08:30:56Z</time>
      </trkpt>
      <trkpt lat="47.23015" lon="4.59121">
        <ele>376</ele>
        <time>2014-04-23T08:31:00Z</time>
      </trkpt>
      <trkpt lat="47.23011" lon="4.59126">
        <ele>376</ele>
        <time>2014-04-23T08:31:04Z</time>
      </trkpt>
      <trkpt lat="47.23007" lon="4.5913">
        <ele>376</ele>
        <time>2014-04-23T08:31:08Z</time>
      </trkpt>
      <trkpt lat="47.23004" lon="4.59135">
        <ele>376</ele>
        <time>2014-04-23T08:31:12Z</time>
      </trkpt>
      <trkpt lat="47.23" lon="4.59141">
        <ele>374</ele>
        <time>2014-04-23T08:31:16Z</time>
      </trkpt>
      <trkpt lat="47.22997" lon="4.59147">
        <ele>374</ele>
        <time>2014-04-23T08:31:19Z</time>
      </trkpt>
      <trkpt lat="47.22993" lon="4.59152">
        <ele>375</ele>
        <time>2014-04-23T08:31:23Z</time>
      </trkpt>
      <trkpt lat="47.2299" lon="4.59159">
        <ele>375</ele>
        <time>2014-04-23T08:31:27Z</time>
      </trkpt>
      <trkpt lat="47.22987" lon="4.59165">
        <ele>375</ele>
        <time>2014-04-23T08:31:30Z</time>
      </trkpt>
      <trkpt lat="47.22984" lon="4.59172">
        <ele>375</ele>
        <time>2014-04-23T08:31:33Z</time>
      </trkpt>
      <trkpt lat="47.22981" lon="4.59178">
        <ele>375</ele>
        <time>2014-04-23T08:31:37Z</time>
      </trkpt>
      <trkpt lat="47.22979" lon="4.59184">
        <ele>375</ele>
        <time>2014-04-23T08:31:41Z</time>
      </trkpt>
      <trkpt lat="47.22976" lon="4.5919">
        <ele>375</ele>
        <time>2014-04-23T08:31:45Z</time>
      </trkpt>
      <trkpt lat="47.22974" lon="4.59197">
        <ele>375</ele>
        <time>2014-04-23T08:31:49Z</time>
      </trkpt>
      <trkpt lat="47.22972" lon="4.59204">
        <ele>375</ele>
        <time>2014-04-23T08:31:53Z</time>
      </trkpt>
      <trkpt lat="47.2297" lon="4.59211">
        <ele>375</ele>
        <time>2014-04-23T08:31:58Z</time>
      </trkpt>
      <trkpt lat="47.2297" lon="4.59219">
        <ele>376</ele>
        <time>2014-04-23T08:32:02Z</time>
      </trkpt>
      <trkpt lat="47.22968" lon="4.59226">
        <ele>376</ele>
        <time>2014-04-23T08:32:06Z</time>
      </trkpt>
      <trkpt lat="47.22968" lon="4.59233">
        <ele>376</ele>
        <time>2014-04-23T08:32:10Z</time>
      </trkpt>
      <trkpt lat="47.22966" lon="4.5924">
        <ele>376</ele>
        <time>2014-04-23T08:32:14Z</time>
      </trkpt>
      <trkpt lat="47.22965" lon="4.59248">
        <ele>376</ele>
        <time>2014-04-23T08:32:18Z</time>
      </trkpt>
      <trkpt lat="47.22964" lon="4.59255">
        <ele>377</ele>
        <time>2014-04-23T08:32:22Z</time>
      </trkpt>
      <trkpt lat="47.22962" lon="4.59263">
        <ele>377</ele>
        <time>2014-04-23T08:32:27Z</time>
      </trkpt>
      <trkpt lat="47.22961" lon="4.5927">
        <ele>377</ele>
        <time>2014-04-23T08:32:31Z</time>
      </trkpt>
      <trkpt lat="47.2296" lon="4.59277">
        <ele>377</ele>
        <time>2014-04-23T08:32:37Z</time>
      </trkpt>
      <trkpt lat="47.22956" lon="4.59283">
        <ele>377</ele>
        <time>2014-04-23T08:32:43Z</time>
      </trkpt>
      <trkpt lat="47.22956" lon="4.5929">
        <ele>377</ele>
        <time>2014-04-23T08:32:51Z</time>
      </trkpt>
      <trkpt lat="47.22955" lon="4.59298">
        <ele>377</ele>
        <time>2014-04-23T08:32:56Z</time>
      </trkpt>
      <trkpt lat="47.22953" lon="4.59305">
        <ele>377</ele>
        <time>2014-04-23T08:33:01Z</time>
      </trkpt>
      <trkpt lat="47.22951" lon="4.59313">
        <ele>377</ele>
        <time>2014-04-23T08:33:05Z</time>
      </trkpt>
      <trkpt lat="47.22948" lon="4.5932">
        <ele>377</ele>
        <time>2014-04-23T08:33:09Z</time>
      </trkpt>
      <trkpt lat="47.22946" lon="4.59327">
        <ele>377</ele>
        <time>2014-04-23T08:33:12Z</time>
      </trkpt>
      <trkpt lat="47.22944" lon="4.59333">
        <ele>377</ele>
        <time>2014-04-23T08:33:16Z</time>
      </trkpt>
      <trkpt lat="47.22943" lon="4.5934">
        <ele>377</ele>
        <time>2014-04-23T08:33:20Z</time>
      </trkpt>
      <trkpt lat="47.22942" lon="4.59347">
        <ele>377</ele>
        <time>2014-04-23T08:33:24Z</time>
      </trkpt>
      <trkpt lat="47.22941" lon="4.59354">
        <ele>377</ele>
        <time>2014-04-23T08:33:28Z</time>
      </trkpt>
      <trkpt lat="47.22939" lon="4.59361">
        <ele>377</ele>
        <time>2014-04-23T08:33:32Z</time>
      </trkpt>
      <trkpt lat="47.22937" lon="4.59374">
        <ele>377</ele>
        <time>2014-04-23T08:33:44Z</time>
      </trkpt>
      <trkpt lat="47.22934" lon="4.5938">
        <ele>377</ele>
        <time>2014-04-23T08:33:47Z</time>
      </trkpt>
      <trkpt lat="47.2293" lon="4.59393">
        <ele>376</ele>
        <time>2014-04-23T08:33:53Z</time>
      </trkpt>
      <trkpt lat="47.22929" lon="4.59399">
        <ele>376</ele>
        <time>2014-04-23T08:33:55Z</time>
      </trkpt>
      <trkpt lat="47.22925" lon="4.59412">
        <ele>376</ele>
        <time>2014-04-23T08:34:00Z</time>
      </trkpt>
      <trkpt lat="47.22925" lon="4.59419">
        <ele>376</ele>
        <time>2014-04-23T08:34:05Z</time>
      </trkpt>
      <trkpt lat="47.22926" lon="4.59426">
        <ele>376</ele>
        <time>2014-04-23T08:34:09Z</time>
      </trkpt>
      <trkpt lat="47.22923" lon="4.59438">
        <ele>376</ele>
        <time>2014-04-23T08:34:19Z</time>
      </trkpt>
      <trkpt lat="47.22923" lon="4.59448">
        <ele>376</ele>
        <time>2014-04-23T08:34:23Z</time>
      </trkpt>
      <trkpt lat="47.22919" lon="4.59455">
        <ele>377</ele>
        <time>2014-04-23T08:34:26Z</time>
      </trkpt>
      <trkpt lat="47.22915" lon="4.5946">
        <ele>374</ele>
        <time>2014-04-23T08:34:29Z</time>
      </trkpt>
      <trkpt lat="47.22911" lon="4.59466">
        <ele>374</ele>
        <time>2014-04-23T08:34:33Z</time>
      </trkpt>
      <trkpt lat="47.22907" lon="4.59474">
        <ele>374</ele>
        <time>2014-04-23T08:34:36Z</time>
      </trkpt>
      <trkpt lat="47.22905" lon="4.59482">
        <ele>374</ele>
        <time>2014-04-23T08:34:39Z</time>
      </trkpt>
      <trkpt lat="47.22902" lon="4.5949">
        <ele>374</ele>
        <time>2014-04-23T08:34:43Z</time>
      </trkpt>
      <trkpt lat="47.229" lon="4.59497">
        <ele>375</ele>
        <time>2014-04-23T08:34:49Z</time>
      </trkpt>
      <trkpt lat="47.22902" lon="4.59503">
        <ele>375</ele>
        <time>2014-04-23T08:34:55Z</time>
      </trkpt>
      <trkpt lat="47.22901" lon="4.59511">
        <ele>375</ele>
        <time>2014-04-23T08:34:58Z</time>
      </trkpt>
      <trkpt lat="47.22899" lon="4.59519">
        <ele>374</ele>
        <time>2014-04-23T08:35:01Z</time>
      </trkpt>
      <trkpt lat="47.229" lon="4.59526">
        <ele>374</ele>
        <time>2014-04-23T08:35:05Z</time>
      </trkpt>
      <trkpt lat="47.22901" lon="4.59532">
        <ele>374</ele>
        <time>2014-04-23T08:35:10Z</time>
      </trkpt>
      <trkpt lat="47.229" lon="4.59539">
        <ele>374</ele>
        <time>2014-04-23T08:35:17Z</time>
      </trkpt>
      <trkpt lat="47.22899" lon="4.59549">
        <ele>374</ele>
        <time>2014-04-23T08:35:22Z</time>
      </trkpt>
      <trkpt lat="47.22895" lon="4.59555">
        <ele>374</ele>
        <time>2014-04-23T08:35:26Z</time>
      </trkpt>
      <trkpt lat="47.22893" lon="4.59562">
        <ele>374</ele>
        <time>2014-04-23T08:35:30Z</time>
      </trkpt>
      <trkpt lat="47.22891" lon="4.5957">
        <ele>374</ele>
        <time>2014-04-23T08:35:34Z</time>
      </trkpt>
      <trkpt lat="47.2289" lon="4.59577">
        <ele>374</ele>
        <time>2014-04-23T08:35:37Z</time>
      </trkpt>
      <trkpt lat="47.22888" lon="4.59585">
        <ele>375</ele>
        <time>2014-04-23T08:35:40Z</time>
      </trkpt>
      <trkpt lat="47.22886" lon="4.59591">
        <ele>375</ele>
        <time>2014-04-23T08:35:43Z</time>
      </trkpt>
      <trkpt lat="47.22885" lon="4.59599">
        <ele>375</ele>
        <time>2014-04-23T08:35:48Z</time>
      </trkpt>
      <trkpt lat="47.22883" lon="4.59606">
        <ele>375</ele>
        <time>2014-04-23T08:35:54Z</time>
      </trkpt>
      <trkpt lat="47.22881" lon="4.59614">
        <ele>375</ele>
        <time>2014-04-23T08:35:59Z</time>
      </trkpt>
      <trkpt lat="47.22878" lon="4.59619">
        <ele>375</ele>
        <time>2014-04-23T08:36:02Z</time>
      </trkpt>
      <trkpt lat="47.22875" lon="4.59625">
        <ele>374</ele>
        <time>2014-04-23T08:36:05Z</time>
      </trkpt>
      <trkpt lat="47.2287" lon="4.59629">
        <ele>374</ele>
        <time>2014-04-23T08:36:08Z</time>
      </trkpt>
      <trkpt lat="47.22871" lon="4.59635">
        <ele>374</ele>
        <time>2014-04-23T08:36:12Z</time>
      </trkpt>
      <trkpt lat="47.22872" lon="4.59643">
        <ele>375</ele>
        <time>2014-04-23T08:36:17Z</time>
      </trkpt>
      <trkpt lat="47.22873" lon="4.59651">
        <ele>375</ele>
        <time>2014-04-23T08:36:21Z</time>
      </trkpt>
      <trkpt lat="47.22872" lon="4.59659">
        <ele>375</ele>
        <time>2014-04-23T08:36:25Z</time>
      </trkpt>
      <trkpt lat="47.22872" lon="4.59666">
        <ele>375</ele>
        <time>2014-04-23T08:36:28Z</time>
      </trkpt>
      <trkpt lat="47.22872" lon="4.59673">
        <ele>375</ele>
        <time>2014-04-23T08:36:32Z</time>
      </trkpt>
      <trkpt lat="47.22873" lon="4.5968">
        <ele>375</ele>
        <time>2014-04-23T08:36:37Z</time>
      </trkpt>
      <trkpt lat="47.22873" lon="4.59687">
        <ele>375</ele>
        <time>2014-04-23T08:36:40Z</time>
      </trkpt>
      <trkpt lat="47.22871" lon="4.59694">
        <ele>374</ele>
        <time>2014-04-23T08:36:43Z</time>
      </trkpt>
      <trkpt lat="47.22871" lon="4.59701">
        <ele>374</ele>
        <time>2014-04-23T08:36:47Z</time>
      </trkpt>
      <trkpt lat="47.22871" lon="4.59709">
        <ele>374</ele>
        <time>2014-04-23T08:36:52Z</time>
      </trkpt>
      <trkpt lat="47.22871" lon="4.59715">
        <ele>374</ele>
        <time>2014-04-23T08:36:57Z</time>
      </trkpt>
      <trkpt lat="47.22872" lon="4.59722">
        <ele>374</ele>
        <time>2014-04-23T08:37:00Z</time>
      </trkpt>
      <trkpt lat="47.22873" lon="4.59729">
        <ele>374</ele>
        <time>2014-04-23T08:37:04Z</time>
      </trkpt>
      <trkpt lat="47.22871" lon="4.59738">
        <ele>374</ele>
        <time>2014-04-23T08:37:14Z</time>
      </trkpt>
      <trkpt lat="47.22873" lon="4.59746">
        <ele>374</ele>
        <time>2014-04-23T08:37:17Z</time>
      </trkpt>
      <trkpt lat="47.22873" lon="4.59753">
        <ele>374</ele>
        <time>2014-04-23T08:37:20Z</time>
      </trkpt>
      <trkpt lat="47.22873" lon="4.5976">
        <ele>374</ele>
        <time>2014-04-23T08:37:24Z</time>
      </trkpt>
      <trkpt lat="47.2287" lon="4.59767">
        <ele>374</ele>
        <time>2014-04-23T08:37:28Z</time>
      </trkpt>
      <trkpt lat="47.22869" lon="4.59773">
        <ele>374</ele>
        <time>2014-04-23T08:37:32Z</time>
      </trkpt>
      <trkpt lat="47.22867" lon="4.59781">
        <ele>374</ele>
        <time>2014-04-23T08:37:36Z</time>
      </trkpt>
      <trkpt lat="47.22866" lon="4.59787">
        <ele>374</ele>
        <time>2014-04-23T08:37:39Z</time>
      </trkpt>
      <trkpt lat="47.22864" lon="4.59794">
        <ele>374</ele>
        <time>2014-04-23T08:37:42Z</time>
      </trkpt>
      <trkpt lat="47.22861" lon="4.59799">
        <ele>373</ele>
        <time>2014-04-23T08:37:46Z</time>
      </trkpt>
      <trkpt lat="47.22864" lon="4.59805">
        <ele>374</ele>
        <time>2014-04-23T08:37:52Z</time>
      </trkpt>
      <trkpt lat="47.22865" lon="4.59812">
        <ele>374</ele>
        <time>2014-04-23T08:37:56Z</time>
      </trkpt>
      <trkpt lat="47.22863" lon="4.59819">
        <ele>373</ele>
        <time>2014-04-23T08:38:00Z</time>
      </trkpt>
      <trkpt lat="47.22862" lon="4.59827">
        <ele>373</ele>
        <time>2014-04-23T08:38:04Z</time>
      </trkpt>
      <trkpt lat="47.22862" lon="4.59835">
        <ele>374</ele>
        <time>2014-04-23T08:38:08Z</time>
      </trkpt>
      <trkpt lat="47.22862" lon="4.59842">
        <ele>374</ele>
        <time>2014-04-23T08:38:12Z</time>
      </trkpt>
      <trkpt lat="47.22863" lon="4.59849">
        <ele>374</ele>
        <time>2014-04-23T08:38:18Z</time>
      </trkpt>
      <trkpt lat="47.22862" lon="4.59857">
        <ele>374</ele>
        <time>2014-04-23T08:38:22Z</time>
      </trkpt>
      <trkpt lat="47.22863" lon="4.59865">
        <ele>374</ele>
        <time>2014-04-23T08:38:27Z</time>
      </trkpt>
      <trkpt lat="47.22861" lon="4.59873">
        <ele>374</ele>
        <time>2014-04-23T08:38:31Z</time>
      </trkpt>
      <trkpt lat="47.22857" lon="4.59877">
        <ele>374</ele>
        <time>2014-04-23T08:38:35Z</time>
      </trkpt>
      <trkpt lat="47.22853" lon="4.59884">
        <ele>374</ele>
        <time>2014-04-23T08:38:39Z</time>
      </trkpt>
      <trkpt lat="47.22851" lon="4.59891">
        <ele>374</ele>
        <time>2014-04-23T08:38:43Z</time>
      </trkpt>
      <trkpt lat="47.22851" lon="4.59898">
        <ele>374</ele>
        <time>2014-04-23T08:38:46Z</time>
      </trkpt>
      <trkpt lat="47.2285" lon="4.59906">
        <ele>374</ele>
        <time>2014-04-23T08:38:50Z</time>
      </trkpt>
      <trkpt lat="47.22848" lon="4.59915">
        <ele>373</ele>
        <time>2014-04-23T08:38:54Z</time>
      </trkpt>
      <trkpt lat="47.22848" lon="4.59922">
        <ele>373</ele>
        <time>2014-04-23T08:38:57Z</time>
      </trkpt>
      <trkpt lat="47.22849" lon="4.59929">
        <ele>374</ele>
        <time>2014-04-23T08:39:00Z</time>
      </trkpt>
      <trkpt lat="47.22849" lon="4.59936">
        <ele>374</ele>
        <time>2014-04-23T08:39:04Z</time>
      </trkpt>
      <trkpt lat="47.22848" lon="4.59942">
        <ele>374</ele>
        <time>2014-04-23T08:39:08Z</time>
      </trkpt>
      <trkpt lat="47.22847" lon="4.59949">
        <ele>374</ele>
        <time>2014-04-23T08:39:14Z</time>
      </trkpt>
      <trkpt lat="47.22847" lon="4.59956">
        <ele>374</ele>
        <time>2014-04-23T08:39:18Z</time>
      </trkpt>
      <trkpt lat="47.22849" lon="4.59963">
        <ele>374</ele>
        <time>2014-04-23T08:39:21Z</time>
      </trkpt>
      <trkpt lat="47.2285" lon="4.59971">
        <ele>373</ele>
        <time>2014-04-23T08:39:24Z</time>
      </trkpt>
      <trkpt lat="47.22852" lon="4.59978">
        <ele>373</ele>
        <time>2014-04-23T08:39:27Z</time>
      </trkpt>
      <trkpt lat="47.22852" lon="4.59986">
        <ele>373</ele>
        <time>2014-04-23T08:39:31Z</time>
      </trkpt>
      <trkpt lat="47.22852" lon="4.59994">
        <ele>373</ele>
        <time>2014-04-23T08:39:35Z</time>
      </trkpt>
      <trkpt lat="47.22852" lon="4.6">
        <ele>372</ele>
        <time>2014-04-23T08:39:39Z</time>
      </trkpt>
      <trkpt lat="47.22852" lon="4.60008">
        <ele>372</ele>
        <time>2014-04-23T08:39:45Z</time>
      </trkpt>
      <trkpt lat="47.22851" lon="4.60015">
        <ele>372</ele>
        <time>2014-04-23T08:39:49Z</time>
      </trkpt>
      <trkpt lat="47.2285" lon="4.60021">
        <ele>372</ele>
        <time>2014-04-23T08:39:52Z</time>
      </trkpt>
      <trkpt lat="47.22848" lon="4.60028">
        <ele>373</ele>
        <time>2014-04-23T08:39:56Z</time>
      </trkpt>
      <trkpt lat="47.22847" lon="4.60036">
        <ele>373</ele>
        <time>2014-04-23T08:40:00Z</time>
      </trkpt>
      <trkpt lat="47.22846" lon="4.60044">
        <ele>373</ele>
        <time>2014-04-23T08:40:04Z</time>
      </trkpt>
      <trkpt lat="47.22846" lon="4.60051">
        <ele>373</ele>
        <time>2014-04-23T08:40:08Z</time>
      </trkpt>
      <trkpt lat="47.22844" lon="4.60059">
        <ele>372</ele>
        <time>2014-04-23T08:40:12Z</time>
      </trkpt>
      <trkpt lat="47.22842" lon="4.60065">
        <ele>372</ele>
        <time>2014-04-23T08:40:15Z</time>
      </trkpt>
      <trkpt lat="47.2284" lon="4.60072">
        <ele>371</ele>
        <time>2014-04-23T08:40:19Z</time>
      </trkpt>
      <trkpt lat="47.22846" lon="4.60077">
        <ele>372</ele>
        <time>2014-04-23T08:40:24Z</time>
      </trkpt>
      <trkpt lat="47.22842" lon="4.60082">
        <ele>371</ele>
        <time>2014-04-23T08:40:33Z</time>
      </trkpt>
      <trkpt lat="47.22841" lon="4.60089">
        <ele>371</ele>
        <time>2014-04-23T08:40:39Z</time>
      </trkpt>
      <trkpt lat="47.22839" lon="4.60095">
        <ele>371</ele>
        <time>2014-04-23T08:40:43Z</time>
      </trkpt>
      <trkpt lat="47.22837" lon="4.60102">
        <ele>371</ele>
        <time>2014-04-23T08:40:47Z</time>
      </trkpt>
      <trkpt lat="47.22836" lon="4.60109">
        <ele>371</ele>
        <time>2014-04-23T08:40:51Z</time>
      </trkpt>
      <trkpt lat="47.22834" lon="4.60123">
        <ele>371</ele>
        <time>2014-04-23T08:40:58Z</time>
      </trkpt>
      <trkpt lat="47.2283" lon="4.6013">
        <ele>371</ele>
        <time>2014-04-23T08:41:03Z</time>
      </trkpt>
      <trkpt lat="47.2283" lon="4.60137">
        <ele>371</ele>
        <time>2014-04-23T08:41:08Z</time>
      </trkpt>
      <trkpt lat="47.22832" lon="4.60142">
        <ele>371</ele>
        <time>2014-04-23T08:41:11Z</time>
      </trkpt>
      <trkpt lat="47.22832" lon="4.6015">
        <ele>371</ele>
        <time>2014-04-23T08:41:17Z</time>
      </trkpt>
      <trkpt lat="47.22829" lon="4.60156">
        <ele>370</ele>
        <time>2014-04-23T08:41:21Z</time>
      </trkpt>
      <trkpt lat="47.22827" lon="4.60164">
        <ele>370</ele>
        <time>2014-04-23T08:41:24Z</time>
      </trkpt>
      <trkpt lat="47.22824" lon="4.60171">
        <ele>369</ele>
        <time>2014-04-23T08:41:27Z</time>
      </trkpt>
      <trkpt lat="47.22822" lon="4.60179">
        <ele>370</ele>
        <time>2014-04-23T08:41:30Z</time>
      </trkpt>
      <trkpt lat="47.2282" lon="4.60187">
        <ele>370</ele>
        <time>2014-04-23T08:41:34Z</time>
      </trkpt>
      <trkpt lat="47.22819" lon="4.60194">
        <ele>370</ele>
        <time>2014-04-23T08:41:39Z</time>
      </trkpt>
      <trkpt lat="47.22816" lon="4.602">
        <ele>370</ele>
        <time>2014-04-23T08:41:43Z</time>
      </trkpt>
      <trkpt lat="47.22813" lon="4.60206">
        <ele>370</ele>
        <time>2014-04-23T08:41:47Z</time>
      </trkpt>
      <trkpt lat="47.2281" lon="4.60212">
        <ele>370</ele>
        <time>2014-04-23T08:41:52Z</time>
      </trkpt>
      <trkpt lat="47.22808" lon="4.60219">
        <ele>370</ele>
        <time>2014-04-23T08:41:57Z</time>
      </trkpt>
      <trkpt lat="47.22804" lon="4.60222">
        <ele>370</ele>
        <time>2014-04-23T08:42:00Z</time>
      </trkpt>
      <trkpt lat="47.228" lon="4.60227">
        <ele>370</ele>
        <time>2014-04-23T08:42:04Z</time>
      </trkpt>
      <trkpt lat="47.22798" lon="4.60235">
        <ele>369</ele>
        <time>2014-04-23T08:42:11Z</time>
      </trkpt>
      <trkpt lat="47.22794" lon="4.6024">
        <ele>369</ele>
        <time>2014-04-23T08:42:14Z</time>
      </trkpt>
      <trkpt lat="47.22789" lon="4.60245">
        <ele>369</ele>
        <time>2014-04-23T08:42:17Z</time>
      </trkpt>
      <trkpt lat="47.22786" lon="4.60251">
        <ele>368</ele>
        <time>2014-04-23T08:42:22Z</time>
      </trkpt>
      <trkpt lat="47.22782" lon="4.60256">
        <ele>368</ele>
        <time>2014-04-23T08:42:26Z</time>
      </trkpt>
      <trkpt lat="47.22778" lon="4.6026">
        <ele>368</ele>
        <time>2014-04-23T08:42:29Z</time>
      </trkpt>
      <trkpt lat="47.22774" lon="4.60263">
        <ele>368</ele>
        <time>2014-04-23T08:42:33Z</time>
      </trkpt>
      <trkpt lat="47.2277" lon="4.60268">
        <ele>368</ele>
        <time>2014-04-23T08:42:38Z</time>
      </trkpt>
      <trkpt lat="47.22766" lon="4.60272">
        <ele>368</ele>
        <time>2014-04-23T08:42:41Z</time>
      </trkpt>
      <trkpt lat="47.22763" lon="4.60277">
        <ele>368</ele>
        <time>2014-04-23T08:42:44Z</time>
      </trkpt>
      <trkpt lat="47.22759" lon="4.60282">
        <ele>368</ele>
        <time>2014-04-23T08:42:48Z</time>
      </trkpt>
      <trkpt lat="47.22755" lon="4.60285">
        <ele>368</ele>
        <time>2014-04-23T08:42:53Z</time>
      </trkpt>
      <trkpt lat="47.22751" lon="4.60289">
        <ele>368</ele>
        <time>2014-04-23T08:42:56Z</time>
      </trkpt>
      <trkpt lat="47.22747" lon="4.60294">
        <ele>366</ele>
        <time>2014-04-23T08:42:59Z</time>
      </trkpt>
      <trkpt lat="47.22744" lon="4.60299">
        <ele>366</ele>
        <time>2014-04-23T08:43:04Z</time>
      </trkpt>
      <trkpt lat="47.22738" lon="4.60303">
        <ele>366</ele>
        <time>2014-04-23T08:43:08Z</time>
      </trkpt>
      <trkpt lat="47.22734" lon="4.60305">
        <ele>366</ele>
        <time>2014-04-23T08:43:11Z</time>
      </trkpt>
      <trkpt lat="47.22731" lon="4.60311">
        <ele>366</ele>
        <time>2014-04-23T08:43:17Z</time>
      </trkpt>
      <trkpt lat="47.22726" lon="4.60315">
        <ele>366</ele>
        <time>2014-04-23T08:43:21Z</time>
      </trkpt>
      <trkpt lat="47.22722" lon="4.60319">
        <ele>366</ele>
        <time>2014-04-23T08:43:23Z</time>
      </trkpt>
      <trkpt lat="47.22718" lon="4.60326">
        <ele>366</ele>
        <time>2014-04-23T08:43:26Z</time>
      </trkpt>
      <trkpt lat="47.22714" lon="4.60331">
        <ele>366</ele>
        <time>2014-04-23T08:43:30Z</time>
      </trkpt>
      <trkpt lat="47.2271" lon="4.60334">
        <ele>367</ele>
        <time>2014-04-23T08:43:36Z</time>
      </trkpt>
      <trkpt lat="47.22705" lon="4.60338">
        <ele>367</ele>
        <time>2014-04-23T08:43:43Z</time>
      </trkpt>
      <trkpt lat="47.22701" lon="4.60342">
        <ele>367</ele>
        <time>2014-04-23T08:43:47Z</time>
      </trkpt>
      <trkpt lat="47.22705" lon="4.60345">
        <ele>367</ele>
        <time>2014-04-23T08:43:54Z</time>
      </trkpt>
      <trkpt lat="47.22699" lon="4.60348">
        <ele>367</ele>
        <time>2014-04-23T08:44:10Z</time>
      </trkpt>
      <trkpt lat="47.22694" lon="4.60353">
        <ele>367</ele>
        <time>2014-04-23T08:44:14Z</time>
      </trkpt>
      <trkpt lat="47.2269" lon="4.60354">
        <ele>367</ele>
        <time>2014-04-23T08:44:18Z</time>
      </trkpt>
      <trkpt lat="47.22686" lon="4.60359">
        <ele>367</ele>
        <time>2014-04-23T08:44:22Z</time>
      </trkpt>
      <trkpt lat="47.22682" lon="4.60364">
        <ele>367</ele>
        <time>2014-04-23T08:44:26Z</time>
      </trkpt>
      <trkpt lat="47.22677" lon="4.60368">
        <ele>367</ele>
        <time>2014-04-23T08:44:31Z</time>
      </trkpt>
      <trkpt lat="47.22673" lon="4.60372">
        <ele>367</ele>
        <time>2014-04-23T08:44:34Z</time>
      </trkpt>
      <trkpt lat="47.22669" lon="4.60376">
        <ele>367</ele>
        <time>2014-04-23T08:44:37Z</time>
      </trkpt>
      <trkpt lat="47.22663" lon="4.60382">
        <ele>367</ele>
        <time>2014-04-23T08:44:50Z</time>
      </trkpt>
      <trkpt lat="47.22659" lon="4.60386">
        <ele>367</ele>
        <time>2014-04-23T08:44:53Z</time>
      </trkpt>
      <trkpt lat="47.22655" lon="4.6039">
        <ele>367</ele>
        <time>2014-04-23T08:44:57Z</time>
      </trkpt>
      <trkpt lat="47.22651" lon="4.60395">
        <ele>367</ele>
        <time>2014-04-23T08:45:01Z</time>
      </trkpt>
      <trkpt lat="47.22647" lon="4.60401">
        <ele>367</ele>
        <time>2014-04-23T08:45:06Z</time>
      </trkpt>
      <trkpt lat="47.22642" lon="4.60406">
        <ele>367</ele>
        <time>2014-04-23T08:45:10Z</time>
      </trkpt>
      <trkpt lat="47.22639" lon="4.60411">
        <ele>367</ele>
        <time>2014-04-23T08:45:14Z</time>
      </trkpt>
      <trkpt lat="47.22636" lon="4.60417">
        <ele>368</ele>
        <time>2014-04-23T08:45:21Z</time>
      </trkpt>
      <trkpt lat="47.22632" lon="4.60422">
        <ele>368</ele>
        <time>2014-04-23T08:45:25Z</time>
      </trkpt>
      <trkpt lat="47.22628" lon="4.60427">
        <ele>369</ele>
        <time>2014-04-23T08:45:29Z</time>
      </trkpt>
      <trkpt lat="47.22625" lon="4.60432">
        <ele>369</ele>
        <time>2014-04-23T08:45:33Z</time>
      </trkpt>
      <trkpt lat="47.22622" lon="4.60439">
        <ele>369</ele>
        <time>2014-04-23T08:45:37Z</time>
      </trkpt>
      <trkpt lat="47.22619" lon="4.60445">
        <ele>369</ele>
        <time>2014-04-23T08:45:40Z</time>
      </trkpt>
      <trkpt lat="47.22616" lon="4.60449">
        <ele>369</ele>
        <time>2014-04-23T08:45:43Z</time>
      </trkpt>
      <trkpt lat="47.22612" lon="4.60453">
        <ele>369</ele>
        <time>2014-04-23T08:45:46Z</time>
      </trkpt>
      <trkpt lat="47.22608" lon="4.60459">
        <ele>369</ele>
        <time>2014-04-23T08:45:49Z</time>
      </trkpt>
      <trkpt lat="47.22604" lon="4.60463">
        <ele>369</ele>
        <time>2014-04-23T08:45:52Z</time>
      </trkpt>
      <trkpt lat="47.226" lon="4.60467">
        <ele>369</ele>
        <time>2014-04-23T08:45:56Z</time>
      </trkpt>
      <trkpt lat="47.22597" lon="4.60472">
        <ele>368</ele>
        <time>2014-04-23T08:46:00Z</time>
      </trkpt>
      <trkpt lat="47.22592" lon="4.60477">
        <ele>368</ele>
        <time>2014-04-23T08:46:03Z</time>
      </trkpt>
      <trkpt lat="47.22588" lon="4.60483">
        <ele>368</ele>
        <time>2014-04-23T08:46:07Z</time>
      </trkpt>
      <trkpt lat="47.22586" lon="4.60491">
        <ele>368</ele>
        <time>2014-04-23T08:46:12Z</time>
      </trkpt>
      <trkpt lat="47.22582" lon="4.60497">
        <ele>367</ele>
        <time>2014-04-23T08:46:17Z</time>
      </trkpt>
      <trkpt lat="47.22578" lon="4.60502">
        <ele>367</ele>
        <time>2014-04-23T08:46:21Z</time>
      </trkpt>
      <trkpt lat="47.22574" lon="4.60506">
        <ele>367</ele>
        <time>2014-04-23T08:46:25Z</time>
      </trkpt>
      <trkpt lat="47.22569" lon="4.60511">
        <ele>367</ele>
        <time>2014-04-23T08:46:28Z</time>
      </trkpt>
      <trkpt lat="47.22565" lon="4.60516">
        <ele>367</ele>
        <time>2014-04-23T08:46:31Z</time>
      </trkpt>
      <trkpt lat="47.22562" lon="4.6052">
        <ele>367</ele>
        <time>2014-04-23T08:46:33Z</time>
      </trkpt>
      <trkpt lat="47.22559" lon="4.60524">
        <ele>366</ele>
        <time>2014-04-23T08:46:38Z</time>
      </trkpt>
      <trkpt lat="47.22554" lon="4.60527">
        <ele>366</ele>
        <time>2014-04-23T08:46:42Z</time>
      </trkpt>
      <trkpt lat="47.2255" lon="4.60528">
        <ele>366</ele>
        <time>2014-04-23T08:46:45Z</time>
      </trkpt>
      <trkpt lat="47.22547" lon="4.60529">
        <ele>366</ele>
        <time>2014-04-23T08:46:52Z</time>
      </trkpt>
      <trkpt lat="47.22541" lon="4.60533">
        <ele>366</ele>
        <time>2014-04-23T08:46:57Z</time>
      </trkpt>
      <trkpt lat="47.22536" lon="4.60538">
        <ele>366</ele>
        <time>2014-04-23T08:46:59Z</time>
      </trkpt>
      <trkpt lat="47.22531" lon="4.60544">
        <ele>366</ele>
        <time>2014-04-23T08:47:01Z</time>
      </trkpt>
      <trkpt lat="47.22528" lon="4.60544">
        <ele>366</ele>
        <time>2014-04-23T08:47:03Z</time>
      </trkpt>
      <trkpt lat="47.22526" lon="4.60545">
        <ele>366</ele>
        <time>2014-04-23T08:47:06Z</time>
      </trkpt>
      <trkpt lat="47.22522" lon="4.60549">
        <ele>366</ele>
        <time>2014-04-23T08:47:11Z</time>
      </trkpt>
      <trkpt lat="47.22518" lon="4.60554">
        <ele>366</ele>
        <time>2014-04-23T08:47:17Z</time>
      </trkpt>
      <trkpt lat="47.22513" lon="4.60559">
        <ele>366</ele>
        <time>2014-04-23T08:47:21Z</time>
      </trkpt>
      <trkpt lat="47.22508" lon="4.60562">
        <ele>365</ele>
        <time>2014-04-23T08:47:26Z</time>
      </trkpt>
      <trkpt lat="47.22503" lon="4.60565">
        <ele>365</ele>
        <time>2014-04-23T08:47:30Z</time>
      </trkpt>
      <trkpt lat="47.22498" lon="4.60568">
        <ele>364</ele>
        <time>2014-04-23T08:47:36Z</time>
      </trkpt>
      <trkpt lat="47.22494" lon="4.60571">
        <ele>364</ele>
        <time>2014-04-23T08:47:44Z</time>
      </trkpt>
      <trkpt lat="47.22489" lon="4.60575">
        <ele>364</ele>
        <time>2014-04-23T08:47:47Z</time>
      </trkpt>
      <trkpt lat="47.22485" lon="4.60578">
        <ele>364</ele>
        <time>2014-04-23T08:47:50Z</time>
      </trkpt>
      <trkpt lat="47.22479" lon="4.60581">
        <ele>364</ele>
        <time>2014-04-23T08:47:54Z</time>
      </trkpt>
      <trkpt lat="47.22474" lon="4.60584">
        <ele>365</ele>
        <time>2014-04-23T08:47:59Z</time>
      </trkpt>
      <trkpt lat="47.22472" lon="4.60591">
        <ele>365</ele>
        <time>2014-04-23T08:48:04Z</time>
      </trkpt>
      <trkpt lat="47.2247" lon="4.60596">
        <ele>365</ele>
        <time>2014-04-23T08:48:09Z</time>
      </trkpt>
      <trkpt lat="47.22465" lon="4.60598">
        <ele>365</ele>
        <time>2014-04-23T08:48:15Z</time>
      </trkpt>
      <trkpt lat="47.22461" lon="4.60601">
        <ele>365</ele>
        <time>2014-04-23T08:48:18Z</time>
      </trkpt>
      <trkpt lat="47.22455" lon="4.60603">
        <ele>365</ele>
        <time>2014-04-23T08:48:22Z</time>
      </trkpt>
      <trkpt lat="47.22451" lon="4.60607">
        <ele>365</ele>
        <time>2014-04-23T08:48:26Z</time>
      </trkpt>
      <trkpt lat="47.22447" lon="4.6061">
        <ele>365</ele>
        <time>2014-04-23T08:48:30Z</time>
      </trkpt>
      <trkpt lat="47.22445" lon="4.60612">
        <ele>365</ele>
        <time>2014-04-23T08:48:36Z</time>
      </trkpt>
      <trkpt lat="47.2244" lon="4.60616">
        <ele>365</ele>
        <time>2014-04-23T08:48:42Z</time>
      </trkpt>
      <trkpt lat="47.22434" lon="4.60619">
        <ele>365</ele>
        <time>2014-04-23T08:48:46Z</time>
      </trkpt>
      <trkpt lat="47.22426" lon="4.60627">
        <ele>365</ele>
        <time>2014-04-23T08:48:52Z</time>
      </trkpt>
      <trkpt lat="47.22422" lon="4.6063">
        <ele>365</ele>
        <time>2014-04-23T08:48:56Z</time>
      </trkpt>
      <trkpt lat="47.22418" lon="4.60634">
        <ele>365</ele>
        <time>2014-04-23T08:48:59Z</time>
      </trkpt>
      <trkpt lat="47.22414" lon="4.60638">
        <ele>364</ele>
        <time>2014-04-23T08:49:02Z</time>
      </trkpt>
      <trkpt lat="47.22411" lon="4.60644">
        <ele>364</ele>
        <time>2014-04-23T08:49:05Z</time>
      </trkpt>
      <trkpt lat="47.22407" lon="4.60651">
        <ele>364</ele>
        <time>2014-04-23T08:49:08Z</time>
      </trkpt>
      <trkpt lat="47.22403" lon="4.60657">
        <ele>364</ele>
        <time>2014-04-23T08:49:11Z</time>
      </trkpt>
      <trkpt lat="47.22398" lon="4.60662">
        <ele>364</ele>
        <time>2014-04-23T08:49:15Z</time>
      </trkpt>
      <trkpt lat="47.22394" lon="4.60667">
        <ele>366</ele>
        <time>2014-04-23T08:49:25Z</time>
      </trkpt>
      <trkpt lat="47.22391" lon="4.60673">
        <ele>366</ele>
        <time>2014-04-23T08:49:30Z</time>
      </trkpt>
      <trkpt lat="47.22389" lon="4.6068">
        <ele>366</ele>
        <time>2014-04-23T08:49:36Z</time>
      </trkpt>
      <trkpt lat="47.22385" lon="4.60686">
        <ele>366</ele>
        <time>2014-04-23T08:49:39Z</time>
      </trkpt>
      <trkpt lat="47.2238" lon="4.60691">
        <ele>367</ele>
        <time>2014-04-23T08:49:42Z</time>
      </trkpt>
      <trkpt lat="47.22375" lon="4.60697">
        <ele>367</ele>
        <time>2014-04-23T08:49:45Z</time>
      </trkpt>
      <trkpt lat="47.22372" lon="4.60702">
        <ele>367</ele>
        <time>2014-04-23T08:49:48Z</time>
      </trkpt>
      <trkpt lat="47.2237" lon="4.60709">
        <ele>367</ele>
        <time>2014-04-23T08:49:54Z</time>
      </trkpt>
      <trkpt lat="47.22366" lon="4.60715">
        <ele>367</ele>
        <time>2014-04-23T08:49:59Z</time>
      </trkpt>
      <trkpt lat="47.22362" lon="4.60718">
        <ele>367</ele>
        <time>2014-04-23T08:50:04Z</time>
      </trkpt>
      <trkpt lat="47.22363" lon="4.60721">
        <ele>367</ele>
        <time>2014-04-23T08:50:20Z</time>
      </trkpt>
      <trkpt lat="47.22359" lon="4.60728">
        <ele>367</ele>
        <time>2014-04-23T08:50:24Z</time>
      </trkpt>
      <trkpt lat="47.22356" lon="4.60734">
        <ele>367</ele>
        <time>2014-04-23T08:50:27Z</time>
      </trkpt>
      <trkpt lat="47.22354" lon="4.6074">
        <ele>367</ele>
        <time>2014-04-23T08:50:30Z</time>
      </trkpt>
      <trkpt lat="47.22351" lon="4.60746">
        <ele>367</ele>
        <time>2014-04-23T08:50:33Z</time>
      </trkpt>
      <trkpt lat="47.22348" lon="4.60753">
        <ele>369</ele>
        <time>2014-04-23T08:50:37Z</time>
      </trkpt>
      <trkpt lat="47.22345" lon="4.6076">
        <ele>369</ele>
        <time>2014-04-23T08:50:41Z</time>
      </trkpt>
      <trkpt lat="47.22343" lon="4.60767">
        <ele>369</ele>
        <time>2014-04-23T08:50:45Z</time>
      </trkpt>
      <trkpt lat="47.2234" lon="4.60773">
        <ele>369</ele>
        <time>2014-04-23T08:50:51Z</time>
      </trkpt>
      <trkpt lat="47.22336" lon="4.6078">
        <ele>370</ele>
        <time>2014-04-23T08:51:06Z</time>
      </trkpt>
      <trkpt lat="47.22332" lon="4.60784">
        <ele>366</ele>
        <time>2014-04-23T08:51:09Z</time>
      </trkpt>
      <trkpt lat="47.22328" lon="4.60788">
        <ele>366</ele>
        <time>2014-04-23T08:51:15Z</time>
      </trkpt>
      <trkpt lat="47.22324" lon="4.60792">
        <ele>366</ele>
        <time>2014-04-23T08:51:18Z</time>
      </trkpt>
      <trkpt lat="47.22317" lon="4.60801">
        <ele>366</ele>
        <time>2014-04-23T08:51:30Z</time>
      </trkpt>
      <trkpt lat="47.22313" lon="4.60805">
        <ele>366</ele>
        <time>2014-04-23T08:51:34Z</time>
      </trkpt>
      <trkpt lat="47.22307" lon="4.60813">
        <ele>366</ele>
        <time>2014-04-23T08:51:43Z</time>
      </trkpt>
      <trkpt lat="47.22303" lon="4.60816">
        <ele>366</ele>
        <time>2014-04-23T08:51:47Z</time>
      </trkpt>
      <trkpt lat="47.22298" lon="4.60818">
        <ele>366</ele>
        <time>2014-04-23T08:51:50Z</time>
      </trkpt>
      <trkpt lat="47.22294" lon="4.6082">
        <ele>366</ele>
        <time>2014-04-23T08:51:56Z</time>
      </trkpt>
      <trkpt lat="47.22289" lon="4.60823">
        <ele>365</ele>
        <time>2014-04-23T08:52:00Z</time>
      </trkpt>
      <trkpt lat="47.22284" lon="4.60826">
        <ele>365</ele>
        <time>2014-04-23T08:52:05Z</time>
      </trkpt>
      <trkpt lat="47.22279" lon="4.6083">
        <ele>365</ele>
        <time>2014-04-23T08:52:09Z</time>
      </trkpt>
      <trkpt lat="47.22274" lon="4.60833">
        <ele>364</ele>
        <time>2014-04-23T08:52:12Z</time>
      </trkpt>
      <trkpt lat="47.22269" lon="4.60835">
        <ele>365</ele>
        <time>2014-04-23T08:52:16Z</time>
      </trkpt>
      <trkpt lat="47.22265" lon="4.60836">
        <ele>365</ele>
        <time>2014-04-23T08:52:20Z</time>
      </trkpt>
      <trkpt lat="47.22259" lon="4.60838">
        <ele>364</ele>
        <time>2014-04-23T08:52:26Z</time>
      </trkpt>
      <trkpt lat="47.22254" lon="4.6084">
        <ele>364</ele>
        <time>2014-04-23T08:52:31Z</time>
      </trkpt>
      <trkpt lat="47.22247" lon="4.60843">
        <ele>363</ele>
        <time>2014-04-23T08:52:49Z</time>
      </trkpt>
      <trkpt lat="47.22242" lon="4.60844">
        <ele>363</ele>
        <time>2014-04-23T08:52:53Z</time>
      </trkpt>
      <trkpt lat="47.22237" lon="4.60848">
        <ele>363</ele>
        <time>2014-04-23T08:52:57Z</time>
      </trkpt>
      <trkpt lat="47.22234" lon="4.60844">
        <ele>363</ele>
        <time>2014-04-23T08:53:05Z</time>
      </trkpt>
      <trkpt lat="47.22228" lon="4.60845">
        <ele>363</ele>
        <time>2014-04-23T08:53:09Z</time>
      </trkpt>
      <trkpt lat="47.22223" lon="4.60848">
        <ele>363</ele>
        <time>2014-04-23T08:53:12Z</time>
      </trkpt>
      <trkpt lat="47.22217" lon="4.6085">
        <ele>363</ele>
        <time>2014-04-23T08:53:15Z</time>
      </trkpt>
      <trkpt lat="47.2221" lon="4.6085">
        <ele>363</ele>
        <time>2014-04-23T08:53:19Z</time>
      </trkpt>
      <trkpt lat="47.22204" lon="4.60855">
        <ele>363</ele>
        <time>2014-04-23T08:53:22Z</time>
      </trkpt>
      <trkpt lat="47.22199" lon="4.60859">
        <ele>363</ele>
        <time>2014-04-23T08:53:25Z</time>
      </trkpt>
      <trkpt lat="47.22194" lon="4.60863">
        <ele>364</ele>
        <time>2014-04-23T08:53:28Z</time>
      </trkpt>
      <trkpt lat="47.22189" lon="4.60864">
        <ele>363</ele>
        <time>2014-04-23T08:53:32Z</time>
      </trkpt>
      <trkpt lat="47.22184" lon="4.60867">
        <ele>364</ele>
        <time>2014-04-23T08:53:37Z</time>
      </trkpt>
      <trkpt lat="47.22179" lon="4.60871">
        <ele>364</ele>
        <time>2014-04-23T08:53:41Z</time>
      </trkpt>
      <trkpt lat="47.22174" lon="4.60872">
        <ele>364</ele>
        <time>2014-04-23T08:53:46Z</time>
      </trkpt>
      <trkpt lat="47.22164" lon="4.60886">
        <ele>363</ele>
        <time>2014-04-23T08:53:49Z</time>
      </trkpt>
      <trkpt lat="47.22161" lon="4.60886">
        <ele>363</ele>
        <time>2014-04-23T08:53:51Z</time>
      </trkpt>
      <trkpt lat="47.22154" lon="4.60892">
        <ele>363</ele>
        <time>2014-04-23T08:53:55Z</time>
      </trkpt>
      <trkpt lat="47.22152" lon="4.60893">
        <ele>363</ele>
        <time>2014-04-23T08:53:58Z</time>
      </trkpt>
      <trkpt lat="47.22149" lon="4.60895">
        <ele>363</ele>
        <time>2014-04-23T08:54:00Z</time>
      </trkpt>
      <trkpt lat="47.22146" lon="4.60898">
        <ele>363</ele>
        <time>2014-04-23T08:54:02Z</time>
      </trkpt>
      <trkpt lat="47.22144" lon="4.609">
        <ele>363</ele>
        <time>2014-04-23T08:54:04Z</time>
      </trkpt>
      <trkpt lat="47.22138" lon="4.609">
        <ele>363</ele>
        <time>2014-04-23T08:54:10Z</time>
      </trkpt>
      <trkpt lat="47.22133" lon="4.60902">
        <ele>363</ele>
        <time>2014-04-23T08:54:14Z</time>
      </trkpt>
      <trkpt lat="47.22129" lon="4.60907">
        <ele>363</ele>
        <time>2014-04-23T08:54:17Z</time>
      </trkpt>
      <trkpt lat="47.22125" lon="4.6091">
        <ele>363</ele>
        <time>2014-04-23T08:54:20Z</time>
      </trkpt>
      <trkpt lat="47.22122" lon="4.60905">
        <ele>362</ele>
        <time>2014-04-23T08:54:28Z</time>
      </trkpt>
      <trkpt lat="47.22118" lon="4.60903">
        <ele>362</ele>
        <time>2014-04-23T08:54:35Z</time>
      </trkpt>
      <trkpt lat="47.22114" lon="4.60907">
        <ele>362</ele>
        <time>2014-04-23T08:54:40Z</time>
      </trkpt>
      <trkpt lat="47.2211" lon="4.60911">
        <ele>362</ele>
        <time>2014-04-23T08:54:44Z</time>
      </trkpt>
      <trkpt lat="47.22105" lon="4.6091">
        <ele>362</ele>
        <time>2014-04-23T08:54:51Z</time>
      </trkpt>
      <trkpt lat="47.221" lon="4.60913">
        <ele>362</ele>
        <time>2014-04-23T08:54:55Z</time>
      </trkpt>
      <trkpt lat="47.22096" lon="4.60917">
        <ele>363</ele>
        <time>2014-04-23T08:54:58Z</time>
      </trkpt>
      <trkpt lat="47.22091" lon="4.60921">
        <ele>362</ele>
        <time>2014-04-23T08:55:01Z</time>
      </trkpt>
      <trkpt lat="47.22086" lon="4.60923">
        <ele>362</ele>
        <time>2014-04-23T08:55:07Z</time>
      </trkpt>
      <trkpt lat="47.22082" lon="4.60928">
        <ele>362</ele>
        <time>2014-04-23T08:55:10Z</time>
      </trkpt>
      <trkpt lat="47.22078" lon="4.60933">
        <ele>362</ele>
        <time>2014-04-23T08:55:14Z</time>
      </trkpt>
      <trkpt lat="47.22074" lon="4.6094">
        <ele>362</ele>
        <time>2014-04-23T08:55:19Z</time>
      </trkpt>
      <trkpt lat="47.2207" lon="4.60944">
        <ele>362</ele>
        <time>2014-04-23T08:55:35Z</time>
      </trkpt>
      <trkpt lat="47.22068" lon="4.60947">
        <ele>362</ele>
        <time>2014-04-23T08:55:42Z</time>
      </trkpt>
      <trkpt lat="47.22064" lon="4.60948">
        <ele>362</ele>
        <time>2014-04-23T08:55:54Z</time>
      </trkpt>
      <trkpt lat="47.22061" lon="4.60953">
        <ele>362</ele>
        <time>2014-04-23T08:55:58Z</time>
      </trkpt>
      <trkpt lat="47.22059" lon="4.60959">
        <ele>363</ele>
        <time>2014-04-23T08:56:02Z</time>
      </trkpt>
      <trkpt lat="47.22056" lon="4.60966">
        <ele>363</ele>
        <time>2014-04-23T08:56:05Z</time>
      </trkpt>
      <trkpt lat="47.22053" lon="4.60972">
        <ele>363</ele>
        <time>2014-04-23T08:56:08Z</time>
      </trkpt>
      <trkpt lat="47.2205" lon="4.60977">
        <ele>363</ele>
        <time>2014-04-23T08:56:12Z</time>
      </trkpt>
      <trkpt lat="47.22048" lon="4.60983">
        <ele>363</ele>
        <time>2014-04-23T08:56:17Z</time>
      </trkpt>
      <trkpt lat="47.22046" lon="4.6099">
        <ele>363</ele>
        <time>2014-04-23T08:56:21Z</time>
      </trkpt>
      <trkpt lat="47.22045" lon="4.60997">
        <ele>363</ele>
        <time>2014-04-23T08:56:26Z</time>
      </trkpt>
      <trkpt lat="47.22044" lon="4.61004">
        <ele>364</ele>
        <time>2014-04-23T08:56:31Z</time>
      </trkpt>
      <trkpt lat="47.22044" lon="4.61016">
        <ele>364</ele>
        <time>2014-04-23T08:56:41Z</time>
      </trkpt>
      <trkpt lat="47.22044" lon="4.61023">
        <ele>364</ele>
        <time>2014-04-23T08:56:44Z</time>
      </trkpt>
      <trkpt lat="47.22043" lon="4.6103">
        <ele>364</ele>
        <time>2014-04-23T08:56:49Z</time>
      </trkpt>
      <trkpt lat="47.22041" lon="4.61036">
        <ele>363</ele>
        <time>2014-04-23T08:56:53Z</time>
      </trkpt>
      <trkpt lat="47.22039" lon="4.61044">
        <ele>363</ele>
        <time>2014-04-23T08:56:56Z</time>
      </trkpt>
      <trkpt lat="47.2204" lon="4.61051">
        <ele>363</ele>
        <time>2014-04-23T08:56:59Z</time>
      </trkpt>
      <trkpt lat="47.22039" lon="4.61059">
        <ele>363</ele>
        <time>2014-04-23T08:57:03Z</time>
      </trkpt>
      <trkpt lat="47.22039" lon="4.61067">
        <ele>363</ele>
        <time>2014-04-23T08:57:07Z</time>
      </trkpt>
      <trkpt lat="47.22039" lon="4.61075">
        <ele>363</ele>
        <time>2014-04-23T08:57:11Z</time>
      </trkpt>
      <trkpt lat="47.22038" lon="4.61083">
        <ele>363</ele>
        <time>2014-04-23T08:57:16Z</time>
      </trkpt>
      <trkpt lat="47.22038" lon="4.6109">
        <ele>363</ele>
        <time>2014-04-23T08:57:20Z</time>
      </trkpt>
      <trkpt lat="47.22039" lon="4.61098">
        <ele>363</ele>
        <time>2014-04-23T08:57:24Z</time>
      </trkpt>
      <trkpt lat="47.2204" lon="4.61106">
        <ele>363</ele>
        <time>2014-04-23T08:57:28Z</time>
      </trkpt>
      <trkpt lat="47.22041" lon="4.61114">
        <ele>363</ele>
        <time>2014-04-23T08:57:33Z</time>
      </trkpt>
      <trkpt lat="47.22041" lon="4.61121">
        <ele>363</ele>
        <time>2014-04-23T08:57:37Z</time>
      </trkpt>
      <trkpt lat="47.2204" lon="4.6113">
        <ele>363</ele>
        <time>2014-04-23T08:57:42Z</time>
      </trkpt>
      <trkpt lat="47.22041" lon="4.61137">
        <ele>363</ele>
        <time>2014-04-23T08:57:46Z</time>
      </trkpt>
      <trkpt lat="47.22041" lon="4.61144">
        <ele>363</ele>
        <time>2014-04-23T08:57:52Z</time>
      </trkpt>
      <trkpt lat="47.2204" lon="4.61147">
        <ele>363</ele>
        <time>2014-04-23T08:57:58Z</time>
      </trkpt>
      <trkpt lat="47.22038" lon="4.61155">
        <ele>363</ele>
        <time>2014-04-23T08:58:06Z</time>
      </trkpt>
      <trkpt lat="47.22038" lon="4.61162">
        <ele>363</ele>
        <time>2014-04-23T08:58:10Z</time>
      </trkpt>
      <trkpt lat="47.22038" lon="4.61169">
        <ele>362</ele>
        <time>2014-04-23T08:58:14Z</time>
      </trkpt>
      <trkpt lat="47.22039" lon="4.61177">
        <ele>362</ele>
        <time>2014-04-23T08:58:19Z</time>
      </trkpt>
      <trkpt lat="47.22041" lon="4.61184">
        <ele>362</ele>
        <time>2014-04-23T08:58:23Z</time>
      </trkpt>
      <trkpt lat="47.22042" lon="4.61191">
        <ele>362</ele>
        <time>2014-04-23T08:58:27Z</time>
      </trkpt>
      <trkpt lat="47.22043" lon="4.61197">
        <ele>362</ele>
        <time>2014-04-23T08:58:30Z</time>
      </trkpt>
      <trkpt lat="47.22041" lon="4.61205">
        <ele>362</ele>
        <time>2014-04-23T08:58:33Z</time>
      </trkpt>
      <trkpt lat="47.2204" lon="4.61212">
        <ele>362</ele>
        <time>2014-04-23T08:58:37Z</time>
      </trkpt>
      <trkpt lat="47.22038" lon="4.6122">
        <ele>362</ele>
        <time>2014-04-23T08:58:41Z</time>
      </trkpt>
      <trkpt lat="47.22038" lon="4.61228">
        <ele>362</ele>
        <time>2014-04-23T08:58:45Z</time>
      </trkpt>
      <trkpt lat="47.22038" lon="4.61235">
        <ele>362</ele>
        <time>2014-04-23T08:58:48Z</time>
      </trkpt>
      <trkpt lat="47.22038" lon="4.61242">
        <ele>361</ele>
        <time>2014-04-23T08:58:51Z</time>
      </trkpt>
      <trkpt lat="47.22038" lon="4.6125">
        <ele>361</ele>
        <time>2014-04-23T08:58:55Z</time>
      </trkpt>
      <trkpt lat="47.22037" lon="4.61259">
        <ele>361</ele>
        <time>2014-04-23T08:58:59Z</time>
      </trkpt>
      <trkpt lat="47.22036" lon="4.61265">
        <ele>360</ele>
        <time>2014-04-23T08:59:04Z</time>
      </trkpt>
      <trkpt lat="47.22033" lon="4.61272">
        <ele>360</ele>
        <time>2014-04-23T08:59:09Z</time>
      </trkpt>
      <trkpt lat="47.22031" lon="4.61278">
        <ele>360</ele>
        <time>2014-04-23T08:59:14Z</time>
      </trkpt>
      <trkpt lat="47.22032" lon="4.61286">
        <ele>360</ele>
        <time>2014-04-23T08:59:22Z</time>
      </trkpt>
      <trkpt lat="47.22036" lon="4.61293">
        <ele>360</ele>
        <time>2014-04-23T08:59:25Z</time>
      </trkpt>
      <trkpt lat="47.22036" lon="4.61302">
        <ele>360</ele>
        <time>2014-04-23T08:59:29Z</time>
      </trkpt>
      <trkpt lat="47.22039" lon="4.61307">
        <ele>360</ele>
        <time>2014-04-23T08:59:32Z</time>
      </trkpt>
      <trkpt lat="47.22044" lon="4.6131">
        <ele>360</ele>
        <time>2014-04-23T08:59:35Z</time>
      </trkpt>
      <trkpt lat="47.22046" lon="4.61317">
        <ele>360</ele>
        <time>2014-04-23T08:59:40Z</time>
      </trkpt>
      <trkpt lat="47.22043" lon="4.61323">
        <ele>360</ele>
        <time>2014-04-23T08:59:44Z</time>
      </trkpt>
      <trkpt lat="47.22041" lon="4.6133">
        <ele>360</ele>
        <time>2014-04-23T08:59:48Z</time>
      </trkpt>
      <trkpt lat="47.2204" lon="4.61338">
        <ele>359</ele>
        <time>2014-04-23T08:59:52Z</time>
      </trkpt>
      <trkpt lat="47.22038" lon="4.61346">
        <ele>359</ele>
        <time>2014-04-23T08:59:56Z</time>
      </trkpt>
      <trkpt lat="47.22037" lon="4.61353">
        <ele>359</ele>
        <time>2014-04-23T08:59:59Z</time>
      </trkpt>
      <trkpt lat="47.22034" lon="4.61353">
        <ele>359</ele>
        <time>2014-04-23T09:00:05Z</time>
      </trkpt>
      <trkpt lat="47.2203" lon="4.61354">
        <ele>359</ele>
        <time>2014-04-23T09:00:07Z</time>
      </trkpt>
      <trkpt lat="47.22026" lon="4.61359">
        <ele>359</ele>
        <time>2014-04-23T09:00:29Z</time>
      </trkpt>
      <trkpt lat="47.22025" lon="4.61368">
        <ele>359</ele>
        <time>2014-04-23T09:00:48Z</time>
      </trkpt>
      <trkpt lat="47.22025" lon="4.61375">
        <ele>359</ele>
        <time>2014-04-23T09:00:52Z</time>
      </trkpt>
      <trkpt lat="47.22024" lon="4.61382">
        <ele>359</ele>
        <time>2014-04-23T09:00:55Z</time>
      </trkpt>
      <trkpt lat="47.22024" lon="4.61388">
        <ele>359</ele>
        <time>2014-04-23T09:00:59Z</time>
      </trkpt>
      <trkpt lat="47.22024" lon="4.61396">
        <ele>359</ele>
        <time>2014-04-23T09:01:03Z</time>
      </trkpt>
      <trkpt lat="47.22023" lon="4.61404">
        <ele>359</ele>
        <time>2014-04-23T09:01:07Z</time>
      </trkpt>
      <trkpt lat="47.22023" lon="4.61411">
        <ele>359</ele>
        <time>2014-04-23T09:01:13Z</time>
      </trkpt>
      <trkpt lat="47.22025" lon="4.61412">
        <ele>359</ele>
        <time>2014-04-23T09:01:25Z</time>
      </trkpt>
      <trkpt lat="47.22024" lon="4.61423">
        <ele>358</ele>
        <time>2014-04-23T09:01:30Z</time>
      </trkpt>
      <trkpt lat="47.22024" lon="4.61431">
        <ele>358</ele>
        <time>2014-04-23T09:01:34Z</time>
      </trkpt>
      <trkpt lat="47.22023" lon="4.61439">
        <ele>358</ele>
        <time>2014-04-23T09:01:39Z</time>
      </trkpt>
      <trkpt lat="47.22021" lon="4.61447">
        <ele>358</ele>
        <time>2014-04-23T09:01:42Z</time>
      </trkpt>
      <trkpt lat="47.2202" lon="4.61451">
        <ele>358</ele>
        <time>2014-04-23T09:01:56Z</time>
      </trkpt>
      <trkpt lat="47.22021" lon="4.61459">
        <ele>358</ele>
        <time>2014-04-23T09:01:58Z</time>
      </trkpt>
      <trkpt lat="47.22022" lon="4.61466">
        <ele>358</ele>
        <time>2014-04-23T09:02:01Z</time>
      </trkpt>
      <trkpt lat="47.2202" lon="4.61474">
        <ele>358</ele>
        <time>2014-04-23T09:02:04Z</time>
      </trkpt>
      <trkpt lat="47.22018" lon="4.61481">
        <ele>358</ele>
        <time>2014-04-23T09:02:07Z</time>
      </trkpt>
      <trkpt lat="47.22016" lon="4.61487">
        <ele>358</ele>
        <time>2014-04-23T09:02:10Z</time>
      </trkpt>
      <trkpt lat="47.22015" lon="4.61495">
        <ele>357</ele>
        <time>2014-04-23T09:02:13Z</time>
      </trkpt>
      <trkpt lat="47.22015" lon="4.61502">
        <ele>357</ele>
        <time>2014-04-23T09:02:19Z</time>
      </trkpt>
      <trkpt lat="47.22013" lon="4.61509">
        <ele>357</ele>
        <time>2014-04-23T09:02:24Z</time>
      </trkpt>
      <trkpt lat="47.22011" lon="4.61516">
        <ele>357</ele>
        <time>2014-04-23T09:02:28Z</time>
      </trkpt>
      <trkpt lat="47.2201" lon="4.61525">
        <ele>357</ele>
        <time>2014-04-23T09:02:33Z</time>
      </trkpt>
      <trkpt lat="47.22009" lon="4.61532">
        <ele>357</ele>
        <time>2014-04-23T09:02:36Z</time>
      </trkpt>
      <trkpt lat="47.22013" lon="4.61537">
        <ele>357</ele>
        <time>2014-04-23T09:02:43Z</time>
      </trkpt>
      <trkpt lat="47.22012" lon="4.61546">
        <ele>356</ele>
        <time>2014-04-23T09:02:47Z</time>
      </trkpt>
      <trkpt lat="47.22011" lon="4.61553">
        <ele>356</ele>
        <time>2014-04-23T09:02:50Z</time>
      </trkpt>
      <trkpt lat="47.22009" lon="4.61557">
        <ele>356</ele>
        <time>2014-04-23T09:03:06Z</time>
      </trkpt>
      <trkpt lat="47.22006" lon="4.61563">
        <ele>356</ele>
        <time>2014-04-23T09:03:15Z</time>
      </trkpt>
      <trkpt lat="47.22007" lon="4.6157">
        <ele>356</ele>
        <time>2014-04-23T09:03:18Z</time>
      </trkpt>
      <trkpt lat="47.22009" lon="4.61577">
        <ele>356</ele>
        <time>2014-04-23T09:03:22Z</time>
      </trkpt>
      <trkpt lat="47.22006" lon="4.61583">
        <ele>355</ele>
        <time>2014-04-23T09:03:29Z</time>
      </trkpt>
      <trkpt lat="47.22001" lon="4.61586">
        <ele>355</ele>
        <time>2014-04-23T09:03:34Z</time>
      </trkpt>
      <trkpt lat="47.21997" lon="4.61587">
        <ele>355</ele>
        <time>2014-04-23T09:03:44Z</time>
      </trkpt>
      <trkpt lat="47.21995" lon="4.61579">
        <ele>356</ele>
        <time>2014-04-23T09:03:50Z</time>
      </trkpt>
      <trkpt lat="47.2199" lon="4.61577">
        <ele>356</ele>
        <time>2014-04-23T09:03:55Z</time>
      </trkpt>
      <trkpt lat="47.21987" lon="4.61572">
        <ele>357</ele>
        <time>2014-04-23T09:03:59Z</time>
      </trkpt>
      <trkpt lat="47.21983" lon="4.61569">
        <ele>357</ele>
        <time>2014-04-23T09:04:04Z</time>
      </trkpt>
      <trkpt lat="47.21978" lon="4.61565">
        <ele>357</ele>
        <time>2014-04-23T09:04:07Z</time>
      </trkpt>
      <trkpt lat="47.21973" lon="4.61562">
        <ele>358</ele>
        <time>2014-04-23T09:04:10Z</time>
      </trkpt>
      <trkpt lat="47.21969" lon="4.61556">
        <ele>358</ele>
        <time>2014-04-23T09:04:15Z</time>
      </trkpt>
      <trkpt lat="47.21968" lon="4.61549">
        <ele>358</ele>
        <time>2014-04-23T09:04:21Z</time>
      </trkpt>
      <trkpt lat="47.21968" lon="4.61541">
        <ele>358</ele>
        <time>2014-04-23T09:04:26Z</time>
      </trkpt>
      <trkpt lat="47.21966" lon="4.61535">
        <ele>358</ele>
        <time>2014-04-23T09:04:34Z</time>
      </trkpt>
      <trkpt lat="47.21962" lon="4.61533">
        <ele>358</ele>
        <time>2014-04-23T09:04:39Z</time>
      </trkpt>
      <trkpt lat="47.21958" lon="4.61524">
        <ele>359</ele>
        <time>2014-04-23T09:04:56Z</time>
      </trkpt>
      <trkpt lat="47.21974" lon="4.6157">
        <ele>358</ele>
        <time>2014-04-23T09:06:17Z</time>
      </trkpt>
      <trkpt lat="47.21976" lon="4.61576">
        <ele>357</ele>
        <time>2014-04-23T09:06:35Z</time>
      </trkpt>
      <trkpt lat="47.21973" lon="4.61578">
        <ele>358</ele>
        <time>2014-04-23T09:06:47Z</time>
      </trkpt>
      <trkpt lat="47.21968" lon="4.61584">
        <ele>357</ele>
        <time>2014-04-23T09:06:54Z</time>
      </trkpt>
      <trkpt lat="47.21964" lon="4.61582">
        <ele>358</ele>
        <time>2014-04-23T09:07:02Z</time>
      </trkpt>
      <trkpt lat="47.21959" lon="4.61581">
        <ele>358</ele>
        <time>2014-04-23T09:07:07Z</time>
      </trkpt>
      <trkpt lat="47.21956" lon="4.61576">
        <ele>358</ele>
        <time>2014-04-23T09:07:12Z</time>
      </trkpt>
      <trkpt lat="47.21952" lon="4.61582">
        <ele>359</ele>
        <time>2014-04-23T09:07:16Z</time>
      </trkpt>
      <trkpt lat="47.21949" lon="4.6159">
        <ele>358</ele>
        <time>2014-04-23T09:07:19Z</time>
      </trkpt>
      <trkpt lat="47.21947" lon="4.61596">
        <ele>358</ele>
        <time>2014-04-23T09:07:22Z</time>
      </trkpt>
      <trkpt lat="47.21943" lon="4.616">
        <ele>359</ele>
        <time>2014-04-23T09:07:26Z</time>
      </trkpt>
      <trkpt lat="47.21938" lon="4.61603">
        <ele>359</ele>
        <time>2014-04-23T09:07:30Z</time>
      </trkpt>
      <trkpt lat="47.21935" lon="4.61607">
        <ele>359</ele>
        <time>2014-04-23T09:07:33Z</time>
      </trkpt>
      <trkpt lat="47.21931" lon="4.61613">
        <ele>359</ele>
        <time>2014-04-23T09:07:37Z</time>
      </trkpt>
      <trkpt lat="47.21927" lon="4.61616">
        <ele>359</ele>
        <time>2014-04-23T09:07:42Z</time>
      </trkpt>
      <trkpt lat="47.21922" lon="4.61619">
        <ele>359</ele>
        <time>2014-04-23T09:07:49Z</time>
      </trkpt>
      <trkpt lat="47.21917" lon="4.61626">
        <ele>359</ele>
        <time>2014-04-23T09:07:53Z</time>
      </trkpt>
      <trkpt lat="47.21912" lon="4.61636">
        <ele>361</ele>
        <time>2014-04-23T09:07:55Z</time>
      </trkpt>
      <trkpt lat="47.21908" lon="4.61644">
        <ele>361</ele>
        <time>2014-04-23T09:07:57Z</time>
      </trkpt>
      <trkpt lat="47.21906" lon="4.61647">
        <ele>361</ele>
        <time>2014-04-23T09:07:58Z</time>
      </trkpt>
      <trkpt lat="47.21903" lon="4.61651">
        <ele>361</ele>
        <time>2014-04-23T09:08:00Z</time>
      </trkpt>
      <trkpt lat="47.21902" lon="4.61654">
        <ele>361</ele>
        <time>2014-04-23T09:08:01Z</time>
      </trkpt>
      <trkpt lat="47.219" lon="4.61657">
        <ele>361</ele>
        <time>2014-04-23T09:08:02Z</time>
      </trkpt>
      <trkpt lat="47.21898" lon="4.61661">
        <ele>361</ele>
        <time>2014-04-23T09:08:03Z</time>
      </trkpt>
      <trkpt lat="47.21895" lon="4.61665">
        <ele>361</ele>
        <time>2014-04-23T09:08:04Z</time>
      </trkpt>
      <trkpt lat="47.21893" lon="4.61669">
        <ele>360</ele>
        <time>2014-04-23T09:08:05Z</time>
      </trkpt>
      <trkpt lat="47.2189" lon="4.61673">
        <ele>360</ele>
        <time>2014-04-23T09:08:06Z</time>
      </trkpt>
      <trkpt lat="47.21887" lon="4.61676">
        <ele>360</ele>
        <time>2014-04-23T09:08:07Z</time>
      </trkpt>
      <trkpt lat="47.21883" lon="4.61679">
        <ele>360</ele>
        <time>2014-04-23T09:08:08Z</time>
      </trkpt>
      <trkpt lat="47.21875" lon="4.61676">
        <ele>360</ele>
        <time>2014-04-23T09:08:09Z</time>
      </trkpt>
      <trkpt lat="47.21876" lon="4.61673">
        <ele>360</ele>
        <time>2014-04-23T09:08:19Z</time>
      </trkpt>
      <trkpt lat="47.21868" lon="4.61665">
        <ele>362</ele>
        <time>2014-04-23T09:08:30Z</time>
      </trkpt>
      <trkpt lat="47.21865" lon="4.61659">
        <ele>362</ele>
        <time>2014-04-23T09:08:34Z</time>
      </trkpt>
      <trkpt lat="47.21862" lon="4.61655">
        <ele>362</ele>
        <time>2014-04-23T09:08:37Z</time>
      </trkpt>
      <trkpt lat="47.21861" lon="4.61651">
        <ele>362</ele>
        <time>2014-04-23T09:08:49Z</time>
      </trkpt>
      <trkpt lat="47.21862" lon="4.61646">
        <ele>362</ele>
        <time>2014-04-23T09:09:08Z</time>
      </trkpt>
      <trkpt lat="47.2186" lon="4.61639">
        <ele>362</ele>
        <time>2014-04-23T09:09:13Z</time>
      </trkpt>
      <trkpt lat="47.21858" lon="4.61632">
        <ele>362</ele>
        <time>2014-04-23T09:09:16Z</time>
      </trkpt>
      <trkpt lat="47.21856" lon="4.61625">
        <ele>362</ele>
        <time>2014-04-23T09:09:20Z</time>
      </trkpt>
      <trkpt lat="47.21854" lon="4.61617">
        <ele>363</ele>
        <time>2014-04-23T09:09:24Z</time>
      </trkpt>
      <trkpt lat="47.21851" lon="4.61611">
        <ele>363</ele>
        <time>2014-04-23T09:09:28Z</time>
      </trkpt>
      <trkpt lat="47.21849" lon="4.61604">
        <ele>363</ele>
        <time>2014-04-23T09:09:33Z</time>
      </trkpt>
      <trkpt lat="47.21849" lon="4.61596">
        <ele>363</ele>
        <time>2014-04-23T09:09:39Z</time>
      </trkpt>
      <trkpt lat="47.21848" lon="4.61589">
        <ele>364</ele>
        <time>2014-04-23T09:09:44Z</time>
      </trkpt>
      <trkpt lat="47.21847" lon="4.61582">
        <ele>364</ele>
        <time>2014-04-23T09:09:50Z</time>
      </trkpt>
      <trkpt lat="47.21849" lon="4.61576">
        <ele>364</ele>
        <time>2014-04-23T09:09:54Z</time>
      </trkpt>
      <trkpt lat="47.21851" lon="4.61569">
        <ele>364</ele>
        <time>2014-04-23T09:09:59Z</time>
      </trkpt>
      <trkpt lat="47.21851" lon="4.61561">
        <ele>364</ele>
        <time>2014-04-23T09:10:03Z</time>
      </trkpt>
      <trkpt lat="47.21851" lon="4.61555">
        <ele>364</ele>
        <time>2014-04-23T09:10:07Z</time>
      </trkpt>
      <trkpt lat="47.21853" lon="4.61547">
        <ele>364</ele>
        <time>2014-04-23T09:10:12Z</time>
      </trkpt>
      <trkpt lat="47.21856" lon="4.61543">
        <ele>364</ele>
        <time>2014-04-23T09:10:29Z</time>
      </trkpt>
      <trkpt lat="47.21859" lon="4.61549">
        <ele>364</ele>
        <time>2014-04-23T09:10:32Z</time>
      </trkpt>
      <trkpt lat="47.21862" lon="4.61556">
        <ele>364</ele>
        <time>2014-04-23T09:10:35Z</time>
      </trkpt>
      <trkpt lat="47.21867" lon="4.61561">
        <ele>363</ele>
        <time>2014-04-23T09:10:38Z</time>
      </trkpt>
      <trkpt lat="47.21871" lon="4.61561">
        <ele>363</ele>
        <time>2014-04-23T09:10:41Z</time>
      </trkpt>
      <trkpt lat="47.21876" lon="4.61562">
        <ele>363</ele>
        <time>2014-04-23T09:10:44Z</time>
      </trkpt>
      <trkpt lat="47.21881" lon="4.61563">
        <ele>363</ele>
        <time>2014-04-23T09:10:47Z</time>
      </trkpt>
      <trkpt lat="47.21887" lon="4.61562">
        <ele>363</ele>
        <time>2014-04-23T09:10:50Z</time>
      </trkpt>
      <trkpt lat="47.21892" lon="4.61566">
        <ele>363</ele>
        <time>2014-04-23T09:10:55Z</time>
      </trkpt>
      <trkpt lat="47.21897" lon="4.61568">
        <ele>362</ele>
        <time>2014-04-23T09:11:00Z</time>
      </trkpt>
      <trkpt lat="47.21902" lon="4.61568">
        <ele>362</ele>
        <time>2014-04-23T09:11:04Z</time>
      </trkpt>
      <trkpt lat="47.21906" lon="4.61573">
        <ele>362</ele>
        <time>2014-04-23T09:11:08Z</time>
      </trkpt>
      <trkpt lat="47.21911" lon="4.61572">
        <ele>362</ele>
        <time>2014-04-23T09:11:12Z</time>
      </trkpt>
      <trkpt lat="47.21916" lon="4.61573">
        <ele>362</ele>
        <time>2014-04-23T09:11:16Z</time>
      </trkpt>
      <trkpt lat="47.21917" lon="4.61579">
        <ele>361</ele>
        <time>2014-04-23T09:11:24Z</time>
      </trkpt>
      <trkpt lat="47.21916" lon="4.61582">
        <ele>361</ele>
        <time>2014-04-23T09:11:31Z</time>
      </trkpt>
      <trkpt lat="47.21915" lon="4.61589">
        <ele>361</ele>
        <time>2014-04-23T09:11:46Z</time>
      </trkpt>
      <trkpt lat="47.21907" lon="4.61596">
        <ele>361</ele>
        <time>2014-04-23T09:11:58Z</time>
      </trkpt>
      <trkpt lat="47.21902" lon="4.61608">
        <ele>362</ele>
        <time>2014-04-23T09:12:01Z</time>
      </trkpt>
      <trkpt lat="47.21893" lon="4.61613">
        <ele>362</ele>
        <time>2014-04-23T09:12:05Z</time>
      </trkpt>
      <trkpt lat="47.21892" lon="4.61606">
        <ele>362</ele>
        <time>2014-04-23T09:17:57Z</time>
      </trkpt>
      <trkpt lat="47.2189" lon="4.61598">
        <ele>362</ele>
        <time>2014-04-23T09:18:03Z</time>
      </trkpt>
      <trkpt lat="47.21895" lon="4.61594">
        <ele>362</ele>
        <time>2014-04-23T09:18:07Z</time>
      </trkpt>
      <trkpt lat="47.21901" lon="4.61594">
        <ele>362</ele>
        <time>2014-04-23T09:18:10Z</time>
      </trkpt>
      <trkpt lat="47.21905" lon="4.61594">
        <ele>361</ele>
        <time>2014-04-23T09:18:14Z</time>
      </trkpt>
      <trkpt lat="47.2191" lon="4.61592">
        <ele>361</ele>
        <time>2014-04-23T09:18:19Z</time>
      </trkpt>
      <trkpt lat="47.21915" lon="4.61591">
        <ele>361</ele>
        <time>2014-04-23T09:18:24Z</time>
      </trkpt>
      <trkpt lat="47.21917" lon="4.61585">
        <ele>361</ele>
        <time>2014-04-23T09:18:29Z</time>
      </trkpt>
      <trkpt lat="47.21922" lon="4.61585">
        <ele>360</ele>
        <time>2014-04-23T09:18:34Z</time>
      </trkpt>
      <trkpt lat="47.21925" lon="4.6159">
        <ele>360</ele>
        <time>2014-04-23T09:18:39Z</time>
      </trkpt>
      <trkpt lat="47.2193" lon="4.6159">
        <ele>359</ele>
        <time>2014-04-23T09:18:44Z</time>
      </trkpt>
      <trkpt lat="47.21932" lon="4.61584">
        <ele>359</ele>
        <time>2014-04-23T09:18:54Z</time>
      </trkpt>
      <trkpt lat="47.21938" lon="4.61582">
        <ele>359</ele>
        <time>2014-04-23T09:18:58Z</time>
      </trkpt>
      <trkpt lat="47.21943" lon="4.61581">
        <ele>359</ele>
        <time>2014-04-23T09:19:01Z</time>
      </trkpt>
      <trkpt lat="47.21947" lon="4.61576">
        <ele>359</ele>
        <time>2014-04-23T09:19:03Z</time>
      </trkpt>
      <trkpt lat="47.21952" lon="4.61558">
        <ele>359</ele>
        <time>2014-04-23T09:19:06Z</time>
      </trkpt>
      <trkpt lat="47.21953" lon="4.61546">
        <ele>359</ele>
        <time>2014-04-23T09:19:08Z</time>
      </trkpt>
      <trkpt lat="47.21957" lon="4.61545">
        <ele>359</ele>
        <time>2014-04-23T09:19:12Z</time>
      </trkpt>
      <trkpt lat="47.2196" lon="4.6155">
        <ele>358</ele>
        <time>2014-04-23T09:19:14Z</time>
      </trkpt>
      <trkpt lat="47.21964" lon="4.61557">
        <ele>358</ele>
        <time>2014-04-23T09:19:17Z</time>
      </trkpt>
      <trkpt lat="47.21966" lon="4.61562">
        <ele>358</ele>
        <time>2014-04-23T09:19:20Z</time>
      </trkpt>
      <trkpt lat="47.21971" lon="4.61565">
        <ele>358</ele>
        <time>2014-04-23T09:19:24Z</time>
      </trkpt>
      <trkpt lat="47.21976" lon="4.61569">
        <ele>357</ele>
        <time>2014-04-23T09:19:28Z</time>
      </trkpt>
      <trkpt lat="47.21981" lon="4.61572">
        <ele>357</ele>
        <time>2014-04-23T09:19:30Z</time>
      </trkpt>
      <trkpt lat="47.21986" lon="4.61575">
        <ele>357</ele>
        <time>2014-04-23T09:19:33Z</time>
      </trkpt>
      <trkpt lat="47.2199" lon="4.61576">
        <ele>356</ele>
        <time>2014-04-23T09:19:38Z</time>
      </trkpt>
      <trkpt lat="47.21995" lon="4.61573">
        <ele>356</ele>
        <time>2014-04-23T09:19:42Z</time>
      </trkpt>
      <trkpt lat="47.22" lon="4.61574">
        <ele>356</ele>
        <time>2014-04-23T09:19:45Z</time>
      </trkpt>
      <trkpt lat="47.22004" lon="4.61577">
        <ele>355</ele>
        <time>2014-04-23T09:19:48Z</time>
      </trkpt>
      <trkpt lat="47.22007" lon="4.61584">
        <ele>355</ele>
        <time>2014-04-23T09:19:52Z</time>
      </trkpt>
      <trkpt lat="47.22009" lon="4.61591">
        <ele>355</ele>
        <time>2014-04-23T09:19:56Z</time>
      </trkpt>
      <trkpt lat="47.22012" lon="4.61597">
        <ele>355</ele>
        <time>2014-04-23T09:20:00Z</time>
      </trkpt>
      <trkpt lat="47.22015" lon="4.61607">
        <ele>356</ele>
        <time>2014-04-23T09:20:10Z</time>
      </trkpt>
      <trkpt lat="47.22015" lon="4.61614">
        <ele>356</ele>
        <time>2014-04-23T09:20:27Z</time>
      </trkpt>
      <trkpt lat="47.22017" lon="4.61622">
        <ele>356</ele>
        <time>2014-04-23T09:20:33Z</time>
      </trkpt>
      <trkpt lat="47.22022" lon="4.61626">
        <ele>356</ele>
        <time>2014-04-23T09:20:36Z</time>
      </trkpt>
      <trkpt lat="47.22028" lon="4.61631">
        <ele>356</ele>
        <time>2014-04-23T09:20:39Z</time>
      </trkpt>
      <trkpt lat="47.22032" lon="4.61637">
        <ele>356</ele>
        <time>2014-04-23T09:20:42Z</time>
      </trkpt>
      <trkpt lat="47.22033" lon="4.61644">
        <ele>356</ele>
        <time>2014-04-23T09:20:46Z</time>
      </trkpt>
      <trkpt lat="47.22036" lon="4.61649">
        <ele>356</ele>
        <time>2014-04-23T09:20:51Z</time>
      </trkpt>
      <trkpt lat="47.22037" lon="4.61656">
        <ele>356</ele>
        <time>2014-04-23T09:20:55Z</time>
      </trkpt>
      <trkpt lat="47.22039" lon="4.61664">
        <ele>356</ele>
        <time>2014-04-23T09:20:59Z</time>
      </trkpt>
      <trkpt lat="47.22041" lon="4.61672">
        <ele>355</ele>
        <time>2014-04-23T09:21:03Z</time>
      </trkpt>
      <trkpt lat="47.22041" lon="4.6168">
        <ele>355</ele>
        <time>2014-04-23T09:21:08Z</time>
      </trkpt>
      <trkpt lat="47.22042" lon="4.61686">
        <ele>355</ele>
        <time>2014-04-23T09:21:12Z</time>
      </trkpt>
      <trkpt lat="47.22042" lon="4.61694">
        <ele>354</ele>
        <time>2014-04-23T09:21:17Z</time>
      </trkpt>
      <trkpt lat="47.22041" lon="4.61701">
        <ele>354</ele>
        <time>2014-04-23T09:21:23Z</time>
      </trkpt>
      <trkpt lat="47.22038" lon="4.61707">
        <ele>354</ele>
        <time>2014-04-23T09:21:29Z</time>
      </trkpt>
      <trkpt lat="47.22041" lon="4.61714">
        <ele>354</ele>
        <time>2014-04-23T09:21:35Z</time>
      </trkpt>
      <trkpt lat="47.22042" lon="4.6172">
        <ele>354</ele>
        <time>2014-04-23T09:21:38Z</time>
      </trkpt>
      <trkpt lat="47.22042" lon="4.61727">
        <ele>354</ele>
        <time>2014-04-23T09:21:41Z</time>
      </trkpt>
      <trkpt lat="47.22042" lon="4.61734">
        <ele>354</ele>
        <time>2014-04-23T09:21:44Z</time>
      </trkpt>
      <trkpt lat="47.22041" lon="4.61742">
        <ele>354</ele>
        <time>2014-04-23T09:21:48Z</time>
      </trkpt>
      <trkpt lat="47.2204" lon="4.61748">
        <ele>354</ele>
        <time>2014-04-23T09:21:51Z</time>
      </trkpt>
      <trkpt lat="47.22039" lon="4.61755">
        <ele>353</ele>
        <time>2014-04-23T09:21:56Z</time>
      </trkpt>
      <trkpt lat="47.22037" lon="4.61763">
        <ele>353</ele>
        <time>2014-04-23T09:21:59Z</time>
      </trkpt>
      <trkpt lat="47.22036" lon="4.6177">
        <ele>353</ele>
        <time>2014-04-23T09:22:02Z</time>
      </trkpt>
      <trkpt lat="47.22033" lon="4.61777">
        <ele>353</ele>
        <time>2014-04-23T09:22:06Z</time>
      </trkpt>
      <trkpt lat="47.22029" lon="4.61782">
        <ele>353</ele>
        <time>2014-04-23T09:22:10Z</time>
      </trkpt>
      <trkpt lat="47.22027" lon="4.61788">
        <ele>353</ele>
        <time>2014-04-23T09:22:14Z</time>
      </trkpt>
      <trkpt lat="47.22024" lon="4.61795">
        <ele>353</ele>
        <time>2014-04-23T09:22:19Z</time>
      </trkpt>
      <trkpt lat="47.22021" lon="4.61804">
        <ele>353</ele>
        <time>2014-04-23T09:22:22Z</time>
      </trkpt>
      <trkpt lat="47.22018" lon="4.61812">
        <ele>353</ele>
        <time>2014-04-23T09:22:25Z</time>
      </trkpt>
      <trkpt lat="47.22017" lon="4.6182">
        <ele>353</ele>
        <time>2014-04-23T09:22:30Z</time>
      </trkpt>
      <trkpt lat="47.22016" lon="4.61826">
        <ele>353</ele>
        <time>2014-04-23T09:22:35Z</time>
      </trkpt>
      <trkpt lat="47.22012" lon="4.61833">
        <ele>353</ele>
        <time>2014-04-23T09:22:39Z</time>
      </trkpt>
      <trkpt lat="47.22008" lon="4.6184">
        <ele>353</ele>
        <time>2014-04-23T09:22:42Z</time>
      </trkpt>
      <trkpt lat="47.22005" lon="4.61848">
        <ele>353</ele>
        <time>2014-04-23T09:22:46Z</time>
      </trkpt>
      <trkpt lat="47.22001" lon="4.61851">
        <ele>353</ele>
        <time>2014-04-23T09:22:52Z</time>
      </trkpt>
      <trkpt lat="47.21996" lon="4.61854">
        <ele>354</ele>
        <time>2014-04-23T09:22:57Z</time>
      </trkpt>
      <trkpt lat="47.21993" lon="4.6186">
        <ele>354</ele>
        <time>2014-04-23T09:23:01Z</time>
      </trkpt>
      <trkpt lat="47.21983" lon="4.61869">
        <ele>354</ele>
        <time>2014-04-23T09:23:09Z</time>
      </trkpt>
      <trkpt lat="47.21981" lon="4.61875">
        <ele>354</ele>
        <time>2014-04-23T09:23:16Z</time>
      </trkpt>
      <trkpt lat="47.21982" lon="4.61883">
        <ele>354</ele>
        <time>2014-04-23T09:23:21Z</time>
      </trkpt>
      <trkpt lat="47.21984" lon="4.61891">
        <ele>354</ele>
        <time>2014-04-23T09:23:24Z</time>
      </trkpt>
      <trkpt lat="47.21984" lon="4.61899">
        <ele>354</ele>
        <time>2014-04-23T09:23:28Z</time>
      </trkpt>
      <trkpt lat="47.21987" lon="4.61905">
        <ele>354</ele>
        <time>2014-04-23T09:23:33Z</time>
      </trkpt>
      <trkpt lat="47.21988" lon="4.61913">
        <ele>353</ele>
        <time>2014-04-23T09:23:38Z</time>
      </trkpt>
      <trkpt lat="47.21989" lon="4.61921">
        <ele>353</ele>
        <time>2014-04-23T09:23:42Z</time>
      </trkpt>
      <trkpt lat="47.21987" lon="4.61927">
        <ele>353</ele>
        <time>2014-04-23T09:23:46Z</time>
      </trkpt>
      <trkpt lat="47.21984" lon="4.61934">
        <ele>353</ele>
        <time>2014-04-23T09:23:50Z</time>
      </trkpt>
      <trkpt lat="47.21985" lon="4.61941">
        <ele>354</ele>
        <time>2014-04-23T09:23:56Z</time>
      </trkpt>
      <trkpt lat="47.21987" lon="4.61948">
        <ele>354</ele>
        <time>2014-04-23T09:24:01Z</time>
      </trkpt>
      <trkpt lat="47.21986" lon="4.61957">
        <ele>354</ele>
        <time>2014-04-23T09:24:11Z</time>
      </trkpt>
      <trkpt lat="47.21984" lon="4.61963">
        <ele>354</ele>
        <time>2014-04-23T09:24:14Z</time>
      </trkpt>
      <trkpt lat="47.21983" lon="4.6197">
        <ele>354</ele>
        <time>2014-04-23T09:24:22Z</time>
      </trkpt>
      <trkpt lat="47.2198" lon="4.61977">
        <ele>354</ele>
        <time>2014-04-23T09:24:26Z</time>
      </trkpt>
      <trkpt lat="47.21978" lon="4.61983">
        <ele>353</ele>
        <time>2014-04-23T09:24:28Z</time>
      </trkpt>
      <trkpt lat="47.21975" lon="4.61993">
        <ele>353</ele>
        <time>2014-04-23T09:24:31Z</time>
      </trkpt>
      <trkpt lat="47.21973" lon="4.62">
        <ele>353</ele>
        <time>2014-04-23T09:24:34Z</time>
      </trkpt>
      <trkpt lat="47.21971" lon="4.62008">
        <ele>353</ele>
        <time>2014-04-23T09:24:39Z</time>
      </trkpt>
      <trkpt lat="47.21969" lon="4.62015">
        <ele>353</ele>
        <time>2014-04-23T09:24:47Z</time>
      </trkpt>
      <trkpt lat="47.21967" lon="4.62024">
        <ele>353</ele>
        <time>2014-04-23T09:24:50Z</time>
      </trkpt>
      <trkpt lat="47.21965" lon="4.62031">
        <ele>353</ele>
        <time>2014-04-23T09:24:53Z</time>
      </trkpt>
      <trkpt lat="47.21963" lon="4.62038">
        <ele>353</ele>
        <time>2014-04-23T09:24:57Z</time>
      </trkpt>
      <trkpt lat="47.21962" lon="4.62045">
        <ele>353</ele>
        <time>2014-04-23T09:25:01Z</time>
      </trkpt>
      <trkpt lat="47.21959" lon="4.62053">
        <ele>353</ele>
        <time>2014-04-23T09:25:06Z</time>
      </trkpt>
      <trkpt lat="47.21956" lon="4.62059">
        <ele>353</ele>
        <time>2014-04-23T09:25:11Z</time>
      </trkpt>
      <trkpt lat="47.21955" lon="4.62066">
        <ele>353</ele>
        <time>2014-04-23T09:25:14Z</time>
      </trkpt>
      <trkpt lat="47.21954" lon="4.62075">
        <ele>352</ele>
        <time>2014-04-23T09:25:18Z</time>
      </trkpt>
      <trkpt lat="47.21952" lon="4.62082">
        <ele>352</ele>
        <time>2014-04-23T09:25:23Z</time>
      </trkpt>
      <trkpt lat="47.2195" lon="4.62088">
        <ele>352</ele>
        <time>2014-04-23T09:25:28Z</time>
      </trkpt>
      <trkpt lat="47.21949" lon="4.62096">
        <ele>352</ele>
        <time>2014-04-23T09:25:32Z</time>
      </trkpt>
      <trkpt lat="47.21947" lon="4.62103">
        <ele>352</ele>
        <time>2014-04-23T09:25:36Z</time>
      </trkpt>
      <trkpt lat="47.21946" lon="4.62111">
        <ele>352</ele>
        <time>2014-04-23T09:25:41Z</time>
      </trkpt>
      <trkpt lat="47.21944" lon="4.62118">
        <ele>352</ele>
        <time>2014-04-23T09:25:44Z</time>
      </trkpt>
      <trkpt lat="47.21942" lon="4.62124">
        <ele>352</ele>
        <time>2014-04-23T09:25:46Z</time>
      </trkpt>
      <trkpt lat="47.21939" lon="4.62131">
        <ele>351</ele>
        <time>2014-04-23T09:25:50Z</time>
      </trkpt>
      <trkpt lat="47.21936" lon="4.62139">
        <ele>351</ele>
        <time>2014-04-23T09:25:53Z</time>
      </trkpt>
      <trkpt lat="47.21934" lon="4.62146">
        <ele>351</ele>
        <time>2014-04-23T09:25:55Z</time>
      </trkpt>
      <trkpt lat="47.21932" lon="4.62152">
        <ele>351</ele>
        <time>2014-04-23T09:25:58Z</time>
      </trkpt>
      <trkpt lat="47.21929" lon="4.62158">
        <ele>351</ele>
        <time>2014-04-23T09:26:02Z</time>
      </trkpt>
      <trkpt lat="47.21928" lon="4.62165">
        <ele>351</ele>
        <time>2014-04-23T09:26:07Z</time>
      </trkpt>
      <trkpt lat="47.21927" lon="4.62172">
        <ele>351</ele>
        <time>2014-04-23T09:26:12Z</time>
      </trkpt>
      <trkpt lat="47.21926" lon="4.62181">
        <ele>351</ele>
        <time>2014-04-23T09:26:16Z</time>
      </trkpt>
      <trkpt lat="47.21923" lon="4.62187">
        <ele>351</ele>
        <time>2014-04-23T09:26:21Z</time>
      </trkpt>
      <trkpt lat="47.21921" lon="4.62193">
        <ele>351</ele>
        <time>2014-04-23T09:26:26Z</time>
      </trkpt>
      <trkpt lat="47.21919" lon="4.622">
        <ele>351</ele>
        <time>2014-04-23T09:26:31Z</time>
      </trkpt>
      <trkpt lat="47.21917" lon="4.62206">
        <ele>351</ele>
        <time>2014-04-23T09:26:35Z</time>
      </trkpt>
      <trkpt lat="47.21915" lon="4.62211">
        <ele>351</ele>
        <time>2014-04-23T09:26:42Z</time>
      </trkpt>
      <trkpt lat="47.21913" lon="4.6222">
        <ele>351</ele>
        <time>2014-04-23T09:26:49Z</time>
      </trkpt>
      <trkpt lat="47.21911" lon="4.62226">
        <ele>351</ele>
        <time>2014-04-23T09:26:54Z</time>
      </trkpt>
      <trkpt lat="47.21911" lon="4.62234">
        <ele>351</ele>
        <time>2014-04-23T09:27:00Z</time>
      </trkpt>
      <trkpt lat="47.21911" lon="4.62241">
        <ele>351</ele>
        <time>2014-04-23T09:27:06Z</time>
      </trkpt>
      <trkpt lat="47.21907" lon="4.62248">
        <ele>350</ele>
        <time>2014-04-23T09:27:10Z</time>
      </trkpt>
      <trkpt lat="47.21904" lon="4.62253">
        <ele>350</ele>
        <time>2014-04-23T09:27:14Z</time>
      </trkpt>
      <trkpt lat="47.21902" lon="4.6226">
        <ele>351</ele>
        <time>2014-04-23T09:27:18Z</time>
      </trkpt>
      <trkpt lat="47.219" lon="4.62267">
        <ele>351</ele>
        <time>2014-04-23T09:27:23Z</time>
      </trkpt>
      <trkpt lat="47.21898" lon="4.62275">
        <ele>351</ele>
        <time>2014-04-23T09:27:27Z</time>
      </trkpt>
      <trkpt lat="47.21895" lon="4.62282">
        <ele>351</ele>
        <time>2014-04-23T09:27:30Z</time>
      </trkpt>
      <trkpt lat="47.21894" lon="4.62289">
        <ele>351</ele>
        <time>2014-04-23T09:27:33Z</time>
      </trkpt>
      <trkpt lat="47.21894" lon="4.62297">
        <ele>351</ele>
        <time>2014-04-23T09:27:36Z</time>
      </trkpt>
      <trkpt lat="47.21893" lon="4.62304">
        <ele>351</ele>
        <time>2014-04-23T09:27:40Z</time>
      </trkpt>
      <trkpt lat="47.2189" lon="4.6231">
        <ele>351</ele>
        <time>2014-04-23T09:27:44Z</time>
      </trkpt>
      <trkpt lat="47.21888" lon="4.62317">
        <ele>351</ele>
        <time>2014-04-23T09:27:50Z</time>
      </trkpt>
      <trkpt lat="47.21884" lon="4.62323">
        <ele>351</ele>
        <time>2014-04-23T09:27:56Z</time>
      </trkpt>
      <trkpt lat="47.21883" lon="4.62331">
        <ele>351</ele>
        <time>2014-04-23T09:28:00Z</time>
      </trkpt>
      <trkpt lat="47.21882" lon="4.62338">
        <ele>351</ele>
        <time>2014-04-23T09:28:03Z</time>
      </trkpt>
      <trkpt lat="47.21879" lon="4.62345">
        <ele>351</ele>
        <time>2014-04-23T09:28:07Z</time>
      </trkpt>
      <trkpt lat="47.21878" lon="4.6235">
        <ele>351</ele>
        <time>2014-04-23T09:28:16Z</time>
      </trkpt>
      <trkpt lat="47.21878" lon="4.62357">
        <ele>351</ele>
        <time>2014-04-23T09:28:29Z</time>
      </trkpt>
      <trkpt lat="47.21874" lon="4.62363">
        <ele>351</ele>
        <time>2014-04-23T09:28:36Z</time>
      </trkpt>
      <trkpt lat="47.2187" lon="4.62368">
        <ele>351</ele>
        <time>2014-04-23T09:28:39Z</time>
      </trkpt>
      <trkpt lat="47.21867" lon="4.62374">
        <ele>351</ele>
        <time>2014-04-23T09:28:42Z</time>
      </trkpt>
      <trkpt lat="47.21863" lon="4.62383">
        <ele>351</ele>
        <time>2014-04-23T09:28:46Z</time>
      </trkpt>
      <trkpt lat="47.2186" lon="4.62388">
        <ele>351</ele>
        <time>2014-04-23T09:28:48Z</time>
      </trkpt>
      <trkpt lat="47.21857" lon="4.62394">
        <ele>351</ele>
        <time>2014-04-23T09:28:51Z</time>
      </trkpt>
      <trkpt lat="47.21855" lon="4.624">
        <ele>351</ele>
        <time>2014-04-23T09:28:54Z</time>
      </trkpt>
      <trkpt lat="47.21851" lon="4.62406">
        <ele>351</ele>
        <time>2014-04-23T09:28:58Z</time>
      </trkpt>
      <trkpt lat="47.21848" lon="4.62412">
        <ele>351</ele>
        <time>2014-04-23T09:29:01Z</time>
      </trkpt>
      <trkpt lat="47.21845" lon="4.62418">
        <ele>351</ele>
        <time>2014-04-23T09:29:05Z</time>
      </trkpt>
      <trkpt lat="47.21841" lon="4.62422">
        <ele>351</ele>
        <time>2014-04-23T09:29:10Z</time>
      </trkpt>
      <trkpt lat="47.21836" lon="4.62425">
        <ele>351</ele>
        <time>2014-04-23T09:29:14Z</time>
      </trkpt>
      <trkpt lat="47.21831" lon="4.62428">
        <ele>351</ele>
        <time>2014-04-23T09:29:19Z</time>
      </trkpt>
      <trkpt lat="47.21827" lon="4.6243">
        <ele>351</ele>
        <time>2014-04-23T09:29:31Z</time>
      </trkpt>
      <trkpt lat="47.2182" lon="4.62433">
        <ele>351</ele>
        <time>2014-04-23T09:29:34Z</time>
      </trkpt>
      <trkpt lat="47.21818" lon="4.62433">
        <ele>351</ele>
        <time>2014-04-23T09:29:45Z</time>
      </trkpt>
      <trkpt lat="47.21815" lon="4.6244">
        <ele>351</ele>
        <time>2014-04-23T09:29:49Z</time>
      </trkpt>
      <trkpt lat="47.21817" lon="4.62446">
        <ele>351</ele>
        <time>2014-04-23T09:30:05Z</time>
      </trkpt>
      <trkpt lat="47.21821" lon="4.62449">
        <ele>351</ele>
        <time>2014-04-23T09:30:15Z</time>
      </trkpt>
      <trkpt lat="47.21816" lon="4.62453">
        <ele>351</ele>
        <time>2014-04-23T09:30:53Z</time>
      </trkpt>
      <trkpt lat="47.21813" lon="4.6246">
        <ele>351</ele>
        <time>2014-04-23T09:30:57Z</time>
      </trkpt>
      <trkpt lat="47.2181" lon="4.62465">
        <ele>351</ele>
        <time>2014-04-23T09:31:00Z</time>
      </trkpt>
      <trkpt lat="47.21806" lon="4.62469">
        <ele>350</ele>
        <time>2014-04-23T09:31:04Z</time>
      </trkpt>
      <trkpt lat="47.21802" lon="4.62474">
        <ele>350</ele>
        <time>2014-04-23T09:31:08Z</time>
      </trkpt>
      <trkpt lat="47.218" lon="4.6248">
        <ele>350</ele>
        <time>2014-04-23T09:31:12Z</time>
      </trkpt>
      <trkpt lat="47.21798" lon="4.62487">
        <ele>350</ele>
        <time>2014-04-23T09:31:16Z</time>
      </trkpt>
      <trkpt lat="47.21795" lon="4.62493">
        <ele>350</ele>
        <time>2014-04-23T09:31:20Z</time>
      </trkpt>
      <trkpt lat="47.21791" lon="4.62497">
        <ele>350</ele>
        <time>2014-04-23T09:31:25Z</time>
      </trkpt>
      <trkpt lat="47.21787" lon="4.62503">
        <ele>349</ele>
        <time>2014-04-23T09:31:29Z</time>
      </trkpt>
      <trkpt lat="47.21785" lon="4.6251">
        <ele>349</ele>
        <time>2014-04-23T09:31:33Z</time>
      </trkpt>
      <trkpt lat="47.21783" lon="4.62515">
        <ele>349</ele>
        <time>2014-04-23T09:31:36Z</time>
      </trkpt>
      <trkpt lat="47.21778" lon="4.62518">
        <ele>349</ele>
        <time>2014-04-23T09:31:40Z</time>
      </trkpt>
      <trkpt lat="47.21774" lon="4.62523">
        <ele>349</ele>
        <time>2014-04-23T09:31:44Z</time>
      </trkpt>
      <trkpt lat="47.2177" lon="4.62525">
        <ele>349</ele>
        <time>2014-04-23T09:31:53Z</time>
      </trkpt>
      <trkpt lat="47.21766" lon="4.62529">
        <ele>349</ele>
        <time>2014-04-23T09:32:05Z</time>
      </trkpt>
      <trkpt lat="47.21763" lon="4.62536">
        <ele>349</ele>
        <time>2014-04-23T09:32:10Z</time>
      </trkpt>
      <trkpt lat="47.2176" lon="4.62541">
        <ele>349</ele>
        <time>2014-04-23T09:32:14Z</time>
      </trkpt>
      <trkpt lat="47.21757" lon="4.62547">
        <ele>348</ele>
        <time>2014-04-23T09:32:18Z</time>
      </trkpt>
      <trkpt lat="47.21756" lon="4.6255">
        <ele>348</ele>
        <time>2014-04-23T09:32:24Z</time>
      </trkpt>
      <trkpt lat="47.21755" lon="4.62558">
        <ele>348</ele>
        <time>2014-04-23T09:32:40Z</time>
      </trkpt>
      <trkpt lat="47.21752" lon="4.62563">
        <ele>348</ele>
        <time>2014-04-23T09:32:46Z</time>
      </trkpt>
      <trkpt lat="47.2175" lon="4.62571">
        <ele>348</ele>
        <time>2014-04-23T09:32:51Z</time>
      </trkpt>
      <trkpt lat="47.21751" lon="4.62582">
        <ele>347</ele>
        <time>2014-04-23T09:32:53Z</time>
      </trkpt>
      <trkpt lat="47.21747" lon="4.62577">
        <ele>348</ele>
        <time>2014-04-23T09:33:04Z</time>
      </trkpt>
      <trkpt lat="47.21743" lon="4.62582">
        <ele>348</ele>
        <time>2014-04-23T09:33:25Z</time>
      </trkpt>
      <trkpt lat="47.2174" lon="4.62588">
        <ele>347</ele>
        <time>2014-04-23T09:33:29Z</time>
      </trkpt>
      <trkpt lat="47.21736" lon="4.62593">
        <ele>347</ele>
        <time>2014-04-23T09:33:33Z</time>
      </trkpt>
      <trkpt lat="47.21732" lon="4.62596">
        <ele>347</ele>
        <time>2014-04-23T09:33:37Z</time>
      </trkpt>
      <trkpt lat="47.21728" lon="4.62602">
        <ele>347</ele>
        <time>2014-04-23T09:33:42Z</time>
      </trkpt>
      <trkpt lat="47.21724" lon="4.62608">
        <ele>347</ele>
        <time>2014-04-23T09:33:46Z</time>
      </trkpt>
      <trkpt lat="47.21722" lon="4.62614">
        <ele>347</ele>
        <time>2014-04-23T09:33:50Z</time>
      </trkpt>
      <trkpt lat="47.21718" lon="4.62619">
        <ele>347</ele>
        <time>2014-04-23T09:33:55Z</time>
      </trkpt>
      <trkpt lat="47.21714" lon="4.62623">
        <ele>347</ele>
        <time>2014-04-23T09:33:59Z</time>
      </trkpt>
      <trkpt lat="47.21711" lon="4.62631">
        <ele>347</ele>
        <time>2014-04-23T09:34:03Z</time>
      </trkpt>
      <trkpt lat="47.21709" lon="4.62637">
        <ele>347</ele>
        <time>2014-04-23T09:34:07Z</time>
      </trkpt>
      <trkpt lat="47.21705" lon="4.62642">
        <ele>347</ele>
        <time>2014-04-23T09:34:13Z</time>
      </trkpt>
      <trkpt lat="47.217" lon="4.62646">
        <ele>347</ele>
        <time>2014-04-23T09:34:17Z</time>
      </trkpt>
      <trkpt lat="47.21698" lon="4.62652">
        <ele>347</ele>
        <time>2014-04-23T09:34:23Z</time>
      </trkpt>
      <trkpt lat="47.21693" lon="4.62657">
        <ele>347</ele>
        <time>2014-04-23T09:34:28Z</time>
      </trkpt>
      <trkpt lat="47.21689" lon="4.62662">
        <ele>347</ele>
        <time>2014-04-23T09:34:32Z</time>
      </trkpt>
      <trkpt lat="47.21686" lon="4.62667">
        <ele>347</ele>
        <time>2014-04-23T09:34:36Z</time>
      </trkpt>
      <trkpt lat="47.21684" lon="4.62674">
        <ele>347</ele>
        <time>2014-04-23T09:34:45Z</time>
      </trkpt>
      <trkpt lat="47.2168" lon="4.62679">
        <ele>347</ele>
        <time>2014-04-23T09:35:06Z</time>
      </trkpt>
      <trkpt lat="47.21676" lon="4.62682">
        <ele>347</ele>
        <time>2014-04-23T09:35:13Z</time>
      </trkpt>
      <trkpt lat="47.21672" lon="4.62687">
        <ele>347</ele>
        <time>2014-04-23T09:35:17Z</time>
      </trkpt>
      <trkpt lat="47.21669" lon="4.62693">
        <ele>347</ele>
        <time>2014-04-23T09:35:21Z</time>
      </trkpt>
      <trkpt lat="47.21663" lon="4.62696">
        <ele>347</ele>
        <time>2014-04-23T09:35:25Z</time>
      </trkpt>
      <trkpt lat="47.21659" lon="4.627">
        <ele>347</ele>
        <time>2014-04-23T09:35:27Z</time>
      </trkpt>
      <trkpt lat="47.21655" lon="4.62705">
        <ele>347</ele>
        <time>2014-04-23T09:35:29Z</time>
      </trkpt>
      <trkpt lat="47.21652" lon="4.62709">
        <ele>347</ele>
        <time>2014-04-23T09:35:32Z</time>
      </trkpt>
      <trkpt lat="47.21652" lon="4.62716">
        <ele>347</ele>
        <time>2014-04-23T09:35:37Z</time>
      </trkpt>
      <trkpt lat="47.21647" lon="4.62718">
        <ele>347</ele>
        <time>2014-04-23T09:35:42Z</time>
      </trkpt>
      <trkpt lat="47.21644" lon="4.62726">
        <ele>347</ele>
        <time>2014-04-23T09:35:45Z</time>
      </trkpt>
      <trkpt lat="47.21641" lon="4.62732">
        <ele>347</ele>
        <time>2014-04-23T09:35:47Z</time>
      </trkpt>
      <trkpt lat="47.21638" lon="4.62739">
        <ele>347</ele>
        <time>2014-04-23T09:35:50Z</time>
      </trkpt>
      <trkpt lat="47.21632" lon="4.6274">
        <ele>347</ele>
        <time>2014-04-23T09:35:55Z</time>
      </trkpt>
      <trkpt lat="47.21628" lon="4.62741">
        <ele>347</ele>
        <time>2014-04-23T09:36:00Z</time>
      </trkpt>
      <trkpt lat="47.21623" lon="4.62742">
        <ele>347</ele>
        <time>2014-04-23T09:36:05Z</time>
      </trkpt>
      <trkpt lat="47.21619" lon="4.62748">
        <ele>347</ele>
        <time>2014-04-23T09:36:09Z</time>
      </trkpt>
      <trkpt lat="47.21616" lon="4.62754">
        <ele>347</ele>
        <time>2014-04-23T09:36:13Z</time>
      </trkpt>
      <trkpt lat="47.21612" lon="4.62758">
        <ele>347</ele>
        <time>2014-04-23T09:36:19Z</time>
      </trkpt>
      <trkpt lat="47.21608" lon="4.62758">
        <ele>347</ele>
        <time>2014-04-23T09:36:22Z</time>
      </trkpt>
      <trkpt lat="47.21603" lon="4.62761">
        <ele>347</ele>
        <time>2014-04-23T09:36:25Z</time>
      </trkpt>
      <trkpt lat="47.21599" lon="4.62765">
        <ele>347</ele>
        <time>2014-04-23T09:36:29Z</time>
      </trkpt>
      <trkpt lat="47.21594" lon="4.6277">
        <ele>347</ele>
        <time>2014-04-23T09:36:33Z</time>
      </trkpt>
      <trkpt lat="47.21591" lon="4.62777">
        <ele>347</ele>
        <time>2014-04-23T09:36:37Z</time>
      </trkpt>
      <trkpt lat="47.21586" lon="4.62781">
        <ele>347</ele>
        <time>2014-04-23T09:36:41Z</time>
      </trkpt>
      <trkpt lat="47.21581" lon="4.62783">
        <ele>348</ele>
        <time>2014-04-23T09:36:45Z</time>
      </trkpt>
      <trkpt lat="47.21578" lon="4.62789">
        <ele>348</ele>
        <time>2014-04-23T09:36:52Z</time>
      </trkpt>
      <trkpt lat="47.21574" lon="4.62794">
        <ele>348</ele>
        <time>2014-04-23T09:36:56Z</time>
      </trkpt>
      <trkpt lat="47.21571" lon="4.62799">
        <ele>348</ele>
        <time>2014-04-23T09:37:00Z</time>
      </trkpt>
      <trkpt lat="47.21568" lon="4.62804">
        <ele>348</ele>
        <time>2014-04-23T09:37:04Z</time>
      </trkpt>
      <trkpt lat="47.21564" lon="4.6281">
        <ele>348</ele>
        <time>2014-04-23T09:37:08Z</time>
      </trkpt>
      <trkpt lat="47.2156" lon="4.62815">
        <ele>348</ele>
        <time>2014-04-23T09:37:12Z</time>
      </trkpt>
      <trkpt lat="47.21555" lon="4.62818">
        <ele>348</ele>
        <time>2014-04-23T09:37:16Z</time>
      </trkpt>
      <trkpt lat="47.2155" lon="4.62822">
        <ele>348</ele>
        <time>2014-04-23T09:37:20Z</time>
      </trkpt>
      <trkpt lat="47.21545" lon="4.62827">
        <ele>348</ele>
        <time>2014-04-23T09:37:24Z</time>
      </trkpt>
      <trkpt lat="47.21544" lon="4.62834">
        <ele>348</ele>
        <time>2014-04-23T09:37:27Z</time>
      </trkpt>
      <trkpt lat="47.21546" lon="4.6284">
        <ele>348</ele>
        <time>2014-04-23T09:37:30Z</time>
      </trkpt>
      <trkpt lat="47.2155" lon="4.62846">
        <ele>348</ele>
        <time>2014-04-23T09:37:34Z</time>
      </trkpt>
      <trkpt lat="47.21553" lon="4.62851">
        <ele>348</ele>
        <time>2014-04-23T09:37:38Z</time>
      </trkpt>
      <trkpt lat="47.21556" lon="4.62857">
        <ele>348</ele>
        <time>2014-04-23T09:37:41Z</time>
      </trkpt>
      <trkpt lat="47.21559" lon="4.62863">
        <ele>348</ele>
        <time>2014-04-23T09:37:45Z</time>
      </trkpt>
      <trkpt lat="47.21561" lon="4.6287">
        <ele>348</ele>
        <time>2014-04-23T09:37:50Z</time>
      </trkpt>
      <trkpt lat="47.21563" lon="4.62876">
        <ele>348</ele>
        <time>2014-04-23T09:37:54Z</time>
      </trkpt>
      <trkpt lat="47.21565" lon="4.62882">
        <ele>348</ele>
        <time>2014-04-23T09:37:58Z</time>
      </trkpt>
      <trkpt lat="47.21567" lon="4.62889">
        <ele>348</ele>
        <time>2014-04-23T09:38:02Z</time>
      </trkpt>
      <trkpt lat="47.21567" lon="4.62896">
        <ele>347</ele>
        <time>2014-04-23T09:38:06Z</time>
      </trkpt>
      <trkpt lat="47.2157" lon="4.62903">
        <ele>347</ele>
        <time>2014-04-23T09:38:10Z</time>
      </trkpt>
      <trkpt lat="47.21572" lon="4.62911">
        <ele>347</ele>
        <time>2014-04-23T09:38:15Z</time>
      </trkpt>
      <trkpt lat="47.21573" lon="4.62914">
        <ele>347</ele>
        <time>2014-04-23T09:38:41Z</time>
      </trkpt>
      <trkpt lat="47.21578" lon="4.62918">
        <ele>346</ele>
        <time>2014-04-23T09:38:46Z</time>
      </trkpt>
      <trkpt lat="47.21581" lon="4.62924">
        <ele>346</ele>
        <time>2014-04-23T09:38:49Z</time>
      </trkpt>
      <trkpt lat="47.21581" lon="4.62931">
        <ele>347</ele>
        <time>2014-04-23T09:38:52Z</time>
      </trkpt>
      <trkpt lat="47.21581" lon="4.62938">
        <ele>347</ele>
        <time>2014-04-23T09:38:56Z</time>
      </trkpt>
      <trkpt lat="47.21582" lon="4.62945">
        <ele>347</ele>
        <time>2014-04-23T09:39:00Z</time>
      </trkpt>
      <trkpt lat="47.21585" lon="4.62951">
        <ele>346</ele>
        <time>2014-04-23T09:39:04Z</time>
      </trkpt>
      <trkpt lat="47.21588" lon="4.62957">
        <ele>346</ele>
        <time>2014-04-23T09:39:08Z</time>
      </trkpt>
      <trkpt lat="47.21592" lon="4.62961">
        <ele>346</ele>
        <time>2014-04-23T09:39:14Z</time>
      </trkpt>
      <trkpt lat="47.21595" lon="4.62966">
        <ele>346</ele>
        <time>2014-04-23T09:39:22Z</time>
      </trkpt>
      <trkpt lat="47.21599" lon="4.62971">
        <ele>346</ele>
        <time>2014-04-23T09:39:26Z</time>
      </trkpt>
      <trkpt lat="47.21601" lon="4.62977">
        <ele>346</ele>
        <time>2014-04-23T09:39:30Z</time>
      </trkpt>
      <trkpt lat="47.21603" lon="4.62983">
        <ele>346</ele>
        <time>2014-04-23T09:39:33Z</time>
      </trkpt>
      <trkpt lat="47.21606" lon="4.6299">
        <ele>346</ele>
        <time>2014-04-23T09:39:37Z</time>
      </trkpt>
      <trkpt lat="47.21609" lon="4.62997">
        <ele>346</ele>
        <time>2014-04-23T09:39:41Z</time>
      </trkpt>
      <trkpt lat="47.21611" lon="4.63003">
        <ele>347</ele>
        <time>2014-04-23T09:39:45Z</time>
      </trkpt>
      <trkpt lat="47.21615" lon="4.63008">
        <ele>347</ele>
        <time>2014-04-23T09:39:48Z</time>
      </trkpt>
      <trkpt lat="47.21616" lon="4.63015">
        <ele>347</ele>
        <time>2014-04-23T09:39:52Z</time>
      </trkpt>
      <trkpt lat="47.21618" lon="4.6302">
        <ele>347</ele>
        <time>2014-04-23T09:40:01Z</time>
      </trkpt>
      <trkpt lat="47.2162" lon="4.6303">
        <ele>347</ele>
        <time>2014-04-23T09:40:19Z</time>
      </trkpt>
      <trkpt lat="47.21622" lon="4.63038">
        <ele>347</ele>
        <time>2014-04-23T09:40:24Z</time>
      </trkpt>
      <trkpt lat="47.21622" lon="4.63048">
        <ele>346</ele>
        <time>2014-04-23T09:40:27Z</time>
      </trkpt>
      <trkpt lat="47.21625" lon="4.63055">
        <ele>347</ele>
        <time>2014-04-23T09:40:30Z</time>
      </trkpt>
      <trkpt lat="47.21629" lon="4.63059">
        <ele>347</ele>
        <time>2014-04-23T09:40:33Z</time>
      </trkpt>
      <trkpt lat="47.21632" lon="4.63065">
        <ele>347</ele>
        <time>2014-04-23T09:40:38Z</time>
      </trkpt>
      <trkpt lat="47.21635" lon="4.63071">
        <ele>347</ele>
        <time>2014-04-23T09:40:42Z</time>
      </trkpt>
      <trkpt lat="47.21638" lon="4.63076">
        <ele>347</ele>
        <time>2014-04-23T09:40:46Z</time>
      </trkpt>
      <trkpt lat="47.21641" lon="4.63082">
        <ele>347</ele>
        <time>2014-04-23T09:40:50Z</time>
      </trkpt>
      <trkpt lat="47.21644" lon="4.63088">
        <ele>347</ele>
        <time>2014-04-23T09:40:54Z</time>
      </trkpt>
      <trkpt lat="47.21646" lon="4.63094">
        <ele>347</ele>
        <time>2014-04-23T09:40:58Z</time>
      </trkpt>
      <trkpt lat="47.21648" lon="4.63101">
        <ele>346</ele>
        <time>2014-04-23T09:41:03Z</time>
      </trkpt>
      <trkpt lat="47.2165" lon="4.63108">
        <ele>346</ele>
        <time>2014-04-23T09:41:07Z</time>
      </trkpt>
      <trkpt lat="47.21653" lon="4.63114">
        <ele>346</ele>
        <time>2014-04-23T09:41:12Z</time>
      </trkpt>
      <trkpt lat="47.21656" lon="4.63121">
        <ele>346</ele>
        <time>2014-04-23T09:41:17Z</time>
      </trkpt>
      <trkpt lat="47.21659" lon="4.63128">
        <ele>346</ele>
        <time>2014-04-23T09:41:21Z</time>
      </trkpt>
      <trkpt lat="47.21661" lon="4.63134">
        <ele>346</ele>
        <time>2014-04-23T09:41:24Z</time>
      </trkpt>
      <trkpt lat="47.21663" lon="4.63141">
        <ele>346</ele>
        <time>2014-04-23T09:41:27Z</time>
      </trkpt>
      <trkpt lat="47.21666" lon="4.63148">
        <ele>346</ele>
        <time>2014-04-23T09:41:31Z</time>
      </trkpt>
      <trkpt lat="47.21668" lon="4.63154">
        <ele>346</ele>
        <time>2014-04-23T09:41:35Z</time>
      </trkpt>
      <trkpt lat="47.2167" lon="4.63161">
        <ele>346</ele>
        <time>2014-04-23T09:41:40Z</time>
      </trkpt>
      <trkpt lat="47.21672" lon="4.63168">
        <ele>346</ele>
        <time>2014-04-23T09:41:44Z</time>
      </trkpt>
      <trkpt lat="47.21674" lon="4.63175">
        <ele>346</ele>
        <time>2014-04-23T09:41:49Z</time>
      </trkpt>
      <trkpt lat="47.21676" lon="4.63182">
        <ele>346</ele>
        <time>2014-04-23T09:41:54Z</time>
      </trkpt>
      <trkpt lat="47.21679" lon="4.63188">
        <ele>346</ele>
        <time>2014-04-23T09:41:59Z</time>
      </trkpt>
      <trkpt lat="47.21682" lon="4.63193">
        <ele>347</ele>
        <time>2014-04-23T09:42:02Z</time>
      </trkpt>
      <trkpt lat="47.21686" lon="4.63198">
        <ele>347</ele>
        <time>2014-04-23T09:42:05Z</time>
      </trkpt>
      <trkpt lat="47.21689" lon="4.63203">
        <ele>347</ele>
        <time>2014-04-23T09:42:08Z</time>
      </trkpt>
      <trkpt lat="47.21692" lon="4.63209">
        <ele>347</ele>
        <time>2014-04-23T09:42:12Z</time>
      </trkpt>
      <trkpt lat="47.21695" lon="4.63215">
        <ele>347</ele>
        <time>2014-04-23T09:42:16Z</time>
      </trkpt>
      <trkpt lat="47.21699" lon="4.63221">
        <ele>347</ele>
        <time>2014-04-23T09:42:20Z</time>
      </trkpt>
      <trkpt lat="47.21702" lon="4.63227">
        <ele>347</ele>
        <time>2014-04-23T09:42:26Z</time>
      </trkpt>
      <trkpt lat="47.21704" lon="4.63234">
        <ele>347</ele>
        <time>2014-04-23T09:42:31Z</time>
      </trkpt>
      <trkpt lat="47.21706" lon="4.63241">
        <ele>347</ele>
        <time>2014-04-23T09:42:35Z</time>
      </trkpt>
      <trkpt lat="47.21708" lon="4.63246">
        <ele>347</ele>
        <time>2014-04-23T09:42:41Z</time>
      </trkpt>
      <trkpt lat="47.2171" lon="4.63253">
        <ele>349</ele>
        <time>2014-04-23T09:42:44Z</time>
      </trkpt>
      <trkpt lat="47.21713" lon="4.63257">
        <ele>349</ele>
        <time>2014-04-23T09:43:14Z</time>
      </trkpt>
      <trkpt lat="47.21715" lon="4.63263">
        <ele>349</ele>
        <time>2014-04-23T09:43:20Z</time>
      </trkpt>
      <trkpt lat="47.21717" lon="4.6327">
        <ele>349</ele>
        <time>2014-04-23T09:43:25Z</time>
      </trkpt>
      <trkpt lat="47.21718" lon="4.63279">
        <ele>349</ele>
        <time>2014-04-23T09:43:29Z</time>
      </trkpt>
      <trkpt lat="47.21717" lon="4.63287">
        <ele>349</ele>
        <time>2014-04-23T09:43:32Z</time>
      </trkpt>
      <trkpt lat="47.21716" lon="4.63293">
        <ele>350</ele>
        <time>2014-04-23T09:43:36Z</time>
      </trkpt>
      <trkpt lat="47.21717" lon="4.63297">
        <ele>350</ele>
        <time>2014-04-23T09:43:41Z</time>
      </trkpt>
      <trkpt lat="47.21721" lon="4.63298">
        <ele>350</ele>
        <time>2014-04-23T09:43:53Z</time>
      </trkpt>
      <trkpt lat="47.21723" lon="4.63306">
        <ele>350</ele>
        <time>2014-04-23T09:43:57Z</time>
      </trkpt>
      <trkpt lat="47.21721" lon="4.63314">
        <ele>350</ele>
        <time>2014-04-23T09:44:00Z</time>
      </trkpt>
      <trkpt lat="47.21725" lon="4.63321">
        <ele>351</ele>
        <time>2014-04-23T09:44:04Z</time>
      </trkpt>
      <trkpt lat="47.21726" lon="4.63327">
        <ele>351</ele>
        <time>2014-04-23T09:44:08Z</time>
      </trkpt>
      <trkpt lat="47.21731" lon="4.63333">
        <ele>351</ele>
        <time>2014-04-23T09:44:12Z</time>
      </trkpt>
      <trkpt lat="47.21735" lon="4.63337">
        <ele>354</ele>
        <time>2014-04-23T09:44:16Z</time>
      </trkpt>
      <trkpt lat="47.21739" lon="4.63343">
        <ele>354</ele>
        <time>2014-04-23T09:44:20Z</time>
      </trkpt>
      <trkpt lat="47.21743" lon="4.63348">
        <ele>355</ele>
        <time>2014-04-23T09:44:25Z</time>
      </trkpt>
      <trkpt lat="47.21748" lon="4.63352">
        <ele>355</ele>
        <time>2014-04-23T09:44:30Z</time>
      </trkpt>
      <trkpt lat="47.21752" lon="4.63354">
        <ele>357</ele>
        <time>2014-04-23T09:44:34Z</time>
      </trkpt>
      <trkpt lat="47.21755" lon="4.63355">
        <ele>357</ele>
        <time>2014-04-23T09:44:40Z</time>
      </trkpt>
      <trkpt lat="47.21759" lon="4.6336">
        <ele>358</ele>
        <time>2014-04-23T09:44:45Z</time>
      </trkpt>
      <trkpt lat="47.21763" lon="4.63363">
        <ele>358</ele>
        <time>2014-04-23T09:44:50Z</time>
      </trkpt>
      <trkpt lat="47.21768" lon="4.63361">
        <ele>358</ele>
        <time>2014-04-23T09:44:58Z</time>
      </trkpt>
      <trkpt lat="47.21772" lon="4.63362">
        <ele>359</ele>
        <time>2014-04-23T09:45:03Z</time>
      </trkpt>
      <trkpt lat="47.21776" lon="4.63367">
        <ele>359</ele>
        <time>2014-04-23T09:45:07Z</time>
      </trkpt>
      <trkpt lat="47.21781" lon="4.6337">
        <ele>359</ele>
        <time>2014-04-23T09:45:11Z</time>
      </trkpt>
      <trkpt lat="47.21787" lon="4.63371">
        <ele>360</ele>
        <time>2014-04-23T09:45:16Z</time>
      </trkpt>
      <trkpt lat="47.21791" lon="4.63372">
        <ele>360</ele>
        <time>2014-04-23T09:45:21Z</time>
      </trkpt>
      <trkpt lat="47.21796" lon="4.63377">
        <ele>360</ele>
        <time>2014-04-23T09:45:33Z</time>
      </trkpt>
      <trkpt lat="47.21799" lon="4.63378">
        <ele>360</ele>
        <time>2014-04-23T09:45:49Z</time>
      </trkpt>
      <trkpt lat="47.21802" lon="4.63378">
        <ele>360</ele>
        <time>2014-04-23T09:46:13Z</time>
      </trkpt>
      <trkpt lat="47.21802" lon="4.63383">
        <ele>361</ele>
        <time>2014-04-23T09:46:40Z</time>
      </trkpt>
      <trkpt lat="47.21805" lon="4.63385">
        <ele>361</ele>
        <time>2014-04-23T09:46:58Z</time>
      </trkpt>
      <trkpt lat="47.21809" lon="4.6339">
        <ele>362</ele>
        <time>2014-04-23T09:47:01Z</time>
      </trkpt>
      <trkpt lat="47.21815" lon="4.63389">
        <ele>362</ele>
        <time>2014-04-23T09:47:04Z</time>
      </trkpt>
      <trkpt lat="47.2182" lon="4.63388">
        <ele>362</ele>
        <time>2014-04-23T09:47:07Z</time>
      </trkpt>
      <trkpt lat="47.21824" lon="4.6339">
        <ele>362</ele>
        <time>2014-04-23T09:47:10Z</time>
      </trkpt>
      <trkpt lat="47.21829" lon="4.63394">
        <ele>363</ele>
        <time>2014-04-23T09:47:14Z</time>
      </trkpt>
      <trkpt lat="47.21833" lon="4.63396">
        <ele>363</ele>
        <time>2014-04-23T09:47:18Z</time>
      </trkpt>
      <trkpt lat="47.21837" lon="4.63399">
        <ele>366</ele>
        <time>2014-04-23T09:47:24Z</time>
      </trkpt>
      <trkpt lat="47.21842" lon="4.63397">
        <ele>366</ele>
        <time>2014-04-23T09:47:29Z</time>
      </trkpt>
      <trkpt lat="47.21846" lon="4.63401">
        <ele>366</ele>
        <time>2014-04-23T09:47:34Z</time>
      </trkpt>
      <trkpt lat="47.21851" lon="4.63404">
        <ele>366</ele>
        <time>2014-04-23T09:47:42Z</time>
      </trkpt>
      <trkpt lat="47.21855" lon="4.63406">
        <ele>367</ele>
        <time>2014-04-23T09:47:46Z</time>
      </trkpt>
      <trkpt lat="47.2186" lon="4.63409">
        <ele>367</ele>
        <time>2014-04-23T09:47:51Z</time>
      </trkpt>
      <trkpt lat="47.21862" lon="4.63415">
        <ele>367</ele>
        <time>2014-04-23T09:48:01Z</time>
      </trkpt>
      <trkpt lat="47.21868" lon="4.63416">
        <ele>367</ele>
        <time>2014-04-23T09:48:15Z</time>
      </trkpt>
      <trkpt lat="47.21873" lon="4.63417">
        <ele>376</ele>
        <time>2014-04-23T09:48:19Z</time>
      </trkpt>
      <trkpt lat="47.21878" lon="4.63419">
        <ele>376</ele>
        <time>2014-04-23T09:48:24Z</time>
      </trkpt>
      <trkpt lat="47.21883" lon="4.63422">
        <ele>377</ele>
        <time>2014-04-23T09:48:28Z</time>
      </trkpt>
      <trkpt lat="47.21887" lon="4.63425">
        <ele>377</ele>
        <time>2014-04-23T09:48:33Z</time>
      </trkpt>
      <trkpt lat="47.21892" lon="4.63426">
        <ele>377</ele>
        <time>2014-04-23T09:48:38Z</time>
      </trkpt>
      <trkpt lat="47.21896" lon="4.6343">
        <ele>377</ele>
        <time>2014-04-23T09:48:50Z</time>
      </trkpt>
      <trkpt lat="47.219" lon="4.63435">
        <ele>378</ele>
        <time>2014-04-23T09:48:56Z</time>
      </trkpt>
      <trkpt lat="47.21901" lon="4.63443">
        <ele>378</ele>
        <time>2014-04-23T09:49:01Z</time>
      </trkpt>
      <trkpt lat="47.21902" lon="4.6345">
        <ele>379</ele>
        <time>2014-04-23T09:49:06Z</time>
      </trkpt>
      <trkpt lat="47.21901" lon="4.63458">
        <ele>380</ele>
        <time>2014-04-23T09:49:11Z</time>
      </trkpt>
      <trkpt lat="47.21897" lon="4.63463">
        <ele>380</ele>
        <time>2014-04-23T09:49:15Z</time>
      </trkpt>
      <trkpt lat="47.21894" lon="4.63468">
        <ele>381</ele>
        <time>2014-04-23T09:49:19Z</time>
      </trkpt>
      <trkpt lat="47.21892" lon="4.63474">
        <ele>381</ele>
        <time>2014-04-23T09:49:24Z</time>
      </trkpt>
      <trkpt lat="47.21888" lon="4.63478">
        <ele>381</ele>
        <time>2014-04-23T09:49:28Z</time>
      </trkpt>
      <trkpt lat="47.21886" lon="4.6348">
        <ele>381</ele>
        <time>2014-04-23T09:49:34Z</time>
      </trkpt>
      <trkpt lat="47.21882" lon="4.63484">
        <ele>381</ele>
        <time>2014-04-23T09:49:41Z</time>
      </trkpt>
      <trkpt lat="47.21876" lon="4.63483">
        <ele>381</ele>
        <time>2014-04-23T09:49:47Z</time>
      </trkpt>
      <trkpt lat="47.21873" lon="4.63488">
        <ele>381</ele>
        <time>2014-04-23T09:49:53Z</time>
      </trkpt>
      <trkpt lat="47.2187" lon="4.63494">
        <ele>381</ele>
        <time>2014-04-23T09:50:02Z</time>
      </trkpt>
      <trkpt lat="47.21871" lon="4.63502">
        <ele>391</ele>
        <time>2014-04-23T09:50:06Z</time>
      </trkpt>
      <trkpt lat="47.21868" lon="4.63509">
        <ele>391</ele>
        <time>2014-04-23T09:50:11Z</time>
      </trkpt>
      <trkpt lat="47.21863" lon="4.63513">
        <ele>391</ele>
        <time>2014-04-23T09:50:15Z</time>
      </trkpt>
      <trkpt lat="47.21858" lon="4.63516">
        <ele>391</ele>
        <time>2014-04-23T09:50:20Z</time>
      </trkpt>
      <trkpt lat="47.21854" lon="4.63519">
        <ele>391</ele>
        <time>2014-04-23T09:50:28Z</time>
      </trkpt>
      <trkpt lat="47.2185" lon="4.63524">
        <ele>391</ele>
        <time>2014-04-23T09:50:33Z</time>
      </trkpt>
      <trkpt lat="47.21848" lon="4.63529">
        <ele>392</ele>
        <time>2014-04-23T09:50:37Z</time>
      </trkpt>
      <trkpt lat="47.21844" lon="4.63535">
        <ele>393</ele>
        <time>2014-04-23T09:50:42Z</time>
      </trkpt>
      <trkpt lat="47.2184" lon="4.63539">
        <ele>393</ele>
        <time>2014-04-23T09:50:46Z</time>
      </trkpt>
      <trkpt lat="47.21836" lon="4.63542">
        <ele>394</ele>
        <time>2014-04-23T09:50:51Z</time>
      </trkpt>
      <trkpt lat="47.21832" lon="4.63548">
        <ele>391</ele>
        <time>2014-04-23T09:50:57Z</time>
      </trkpt>
      <trkpt lat="47.2183" lon="4.63554">
        <ele>392</ele>
        <time>2014-04-23T09:51:03Z</time>
      </trkpt>
      <trkpt lat="47.21826" lon="4.63559">
        <ele>393</ele>
        <time>2014-04-23T09:51:09Z</time>
      </trkpt>
      <trkpt lat="47.21821" lon="4.63566">
        <ele>394</ele>
        <time>2014-04-23T09:51:21Z</time>
      </trkpt>
      <trkpt lat="47.21817" lon="4.6357">
        <ele>394</ele>
        <time>2014-04-23T09:51:28Z</time>
      </trkpt>
      <trkpt lat="47.21814" lon="4.63569">
        <ele>394</ele>
        <time>2014-04-23T09:51:34Z</time>
      </trkpt>
      <trkpt lat="47.21811" lon="4.63575">
        <ele>394</ele>
        <time>2014-04-23T09:51:39Z</time>
      </trkpt>
      <trkpt lat="47.21807" lon="4.6358">
        <ele>394</ele>
        <time>2014-04-23T09:51:43Z</time>
      </trkpt>
      <trkpt lat="47.21803" lon="4.63586">
        <ele>403</ele>
        <time>2014-04-23T09:51:48Z</time>
      </trkpt>
      <trkpt lat="47.218" lon="4.6359">
        <ele>403</ele>
        <time>2014-04-23T09:51:53Z</time>
      </trkpt>
      <trkpt lat="47.21797" lon="4.63596">
        <ele>404</ele>
        <time>2014-04-23T09:51:58Z</time>
      </trkpt>
      <trkpt lat="47.21793" lon="4.636">
        <ele>404</ele>
        <time>2014-04-23T09:52:02Z</time>
      </trkpt>
      <trkpt lat="47.21792" lon="4.63604">
        <ele>404</ele>
        <time>2014-04-23T09:52:18Z</time>
      </trkpt>
      <trkpt lat="47.21787" lon="4.63606">
        <ele>404</ele>
        <time>2014-04-23T09:52:23Z</time>
      </trkpt>
      <trkpt lat="47.21783" lon="4.63611">
        <ele>404</ele>
        <time>2014-04-23T09:52:28Z</time>
      </trkpt>
      <trkpt lat="47.2178" lon="4.63618">
        <ele>405</ele>
        <time>2014-04-23T09:52:32Z</time>
      </trkpt>
      <trkpt lat="47.21777" lon="4.63623">
        <ele>405</ele>
        <time>2014-04-23T09:52:36Z</time>
      </trkpt>
      <trkpt lat="47.21773" lon="4.63628">
        <ele>406</ele>
        <time>2014-04-23T09:52:41Z</time>
      </trkpt>
      <trkpt lat="47.21766" lon="4.63629">
        <ele>406</ele>
        <time>2014-04-23T09:52:51Z</time>
      </trkpt>
      <trkpt lat="47.21762" lon="4.63633">
        <ele>406</ele>
        <time>2014-04-23T09:52:56Z</time>
      </trkpt>
      <trkpt lat="47.21759" lon="4.63638">
        <ele>407</ele>
        <time>2014-04-23T09:52:59Z</time>
      </trkpt>
      <trkpt lat="47.21756" lon="4.63645">
        <ele>408</ele>
        <time>2014-04-23T09:53:03Z</time>
      </trkpt>
      <trkpt lat="47.21754" lon="4.63651">
        <ele>408</ele>
        <time>2014-04-23T09:53:08Z</time>
      </trkpt>
      <trkpt lat="47.21751" lon="4.63656">
        <ele>409</ele>
        <time>2014-04-23T09:53:13Z</time>
      </trkpt>
      <trkpt lat="47.21749" lon="4.63661">
        <ele>409</ele>
        <time>2014-04-23T09:53:22Z</time>
      </trkpt>
      <trkpt lat="47.21745" lon="4.63664">
        <ele>409</ele>
        <time>2014-04-23T09:53:28Z</time>
      </trkpt>
      <trkpt lat="47.21738" lon="4.63669">
        <ele>413</ele>
        <time>2014-04-23T09:53:38Z</time>
      </trkpt>
      <trkpt lat="47.21734" lon="4.63672">
        <ele>413</ele>
        <time>2014-04-23T09:53:43Z</time>
      </trkpt>
      <trkpt lat="47.2173" lon="4.63678">
        <ele>414</ele>
        <time>2014-04-23T09:53:48Z</time>
      </trkpt>
      <trkpt lat="47.21728" lon="4.63684">
        <ele>414</ele>
        <time>2014-04-23T09:53:53Z</time>
      </trkpt>
      <trkpt lat="47.21726" lon="4.63686">
        <ele>415</ele>
        <time>2014-04-23T09:53:59Z</time>
      </trkpt>
      <trkpt lat="47.21723" lon="4.63692">
        <ele>415</ele>
        <time>2014-04-23T09:54:05Z</time>
      </trkpt>
      <trkpt lat="47.21719" lon="4.63696">
        <ele>415</ele>
        <time>2014-04-23T09:54:10Z</time>
      </trkpt>
      <trkpt lat="47.21715" lon="4.637">
        <ele>416</ele>
        <time>2014-04-23T09:54:16Z</time>
      </trkpt>
      <trkpt lat="47.21711" lon="4.63704">
        <ele>416</ele>
        <time>2014-04-23T09:54:23Z</time>
      </trkpt>
      <trkpt lat="47.21707" lon="4.63708">
        <ele>416</ele>
        <time>2014-04-23T09:54:27Z</time>
      </trkpt>
      <trkpt lat="47.21702" lon="4.63711">
        <ele>416</ele>
        <time>2014-04-23T09:54:31Z</time>
      </trkpt>
      <trkpt lat="47.21698" lon="4.63715">
        <ele>417</ele>
        <time>2014-04-23T09:54:36Z</time>
      </trkpt>
      <trkpt lat="47.21693" lon="4.63718">
        <ele>417</ele>
        <time>2014-04-23T09:54:42Z</time>
      </trkpt>
      <trkpt lat="47.21689" lon="4.63721">
        <ele>417</ele>
        <time>2014-04-23T09:54:46Z</time>
      </trkpt>
      <trkpt lat="47.21684" lon="4.63724">
        <ele>417</ele>
        <time>2014-04-23T09:54:51Z</time>
      </trkpt>
      <trkpt lat="47.2168" lon="4.6373">
        <ele>417</ele>
        <time>2014-04-23T09:54:57Z</time>
      </trkpt>
      <trkpt lat="47.21678" lon="4.63738">
        <ele>418</ele>
        <time>2014-04-23T09:55:01Z</time>
      </trkpt>
      <trkpt lat="47.21676" lon="4.63744">
        <ele>419</ele>
        <time>2014-04-23T09:55:06Z</time>
      </trkpt>
      <trkpt lat="47.21672" lon="4.63751">
        <ele>422</ele>
        <time>2014-04-23T09:56:19Z</time>
      </trkpt>
      <trkpt lat="47.2167" lon="4.63761">
        <ele>423</ele>
        <time>2014-04-23T09:56:52Z</time>
      </trkpt>
      <trkpt lat="47.21672" lon="4.63767">
        <ele>425</ele>
        <time>2014-04-23T09:56:57Z</time>
      </trkpt>
      <trkpt lat="47.21674" lon="4.63774">
        <ele>426</ele>
        <time>2014-04-23T09:57:02Z</time>
      </trkpt>
      <trkpt lat="47.21676" lon="4.63781">
        <ele>427</ele>
        <time>2014-04-23T09:57:08Z</time>
      </trkpt>
      <trkpt lat="47.21678" lon="4.63787">
        <ele>428</ele>
        <time>2014-04-23T09:57:12Z</time>
      </trkpt>
      <trkpt lat="47.21682" lon="4.63791">
        <ele>428</ele>
        <time>2014-04-23T09:57:16Z</time>
      </trkpt>
      <trkpt lat="47.21684" lon="4.63799">
        <ele>429</ele>
        <time>2014-04-23T09:57:21Z</time>
      </trkpt>
      <trkpt lat="47.21689" lon="4.63801">
        <ele>429</ele>
        <time>2014-04-23T09:57:26Z</time>
      </trkpt>
      <trkpt lat="47.21693" lon="4.63807">
        <ele>429</ele>
        <time>2014-04-23T09:57:30Z</time>
      </trkpt>
      <trkpt lat="47.21694" lon="4.63815">
        <ele>430</ele>
        <time>2014-04-23T09:57:34Z</time>
      </trkpt>
      <trkpt lat="47.21692" lon="4.63822">
        <ele>430</ele>
        <time>2014-04-23T09:57:38Z</time>
      </trkpt>
      <trkpt lat="47.21692" lon="4.63829">
        <ele>430</ele>
        <time>2014-04-23T09:57:43Z</time>
      </trkpt>
      <trkpt lat="47.21692" lon="4.63836">
        <ele>436</ele>
        <time>2014-04-23T09:57:47Z</time>
      </trkpt>
      <trkpt lat="47.21695" lon="4.63842">
        <ele>437</ele>
        <time>2014-04-23T09:57:51Z</time>
      </trkpt>
      <trkpt lat="47.21699" lon="4.63848">
        <ele>437</ele>
        <time>2014-04-23T09:57:56Z</time>
      </trkpt>
      <trkpt lat="47.21701" lon="4.63855">
        <ele>438</ele>
        <time>2014-04-23T09:58:01Z</time>
      </trkpt>
      <trkpt lat="47.21704" lon="4.6386">
        <ele>438</ele>
        <time>2014-04-23T09:58:06Z</time>
      </trkpt>
      <trkpt lat="47.21701" lon="4.63866">
        <ele>439</ele>
        <time>2014-04-23T09:58:13Z</time>
      </trkpt>
      <trkpt lat="47.21704" lon="4.63872">
        <ele>439</ele>
        <time>2014-04-23T09:58:18Z</time>
      </trkpt>
      <trkpt lat="47.21704" lon="4.6388">
        <ele>439</ele>
        <time>2014-04-23T09:58:25Z</time>
      </trkpt>
      <trkpt lat="47.21702" lon="4.63885">
        <ele>440</ele>
        <time>2014-04-23T09:58:34Z</time>
      </trkpt>
      <trkpt lat="47.217" lon="4.63892">
        <ele>440</ele>
        <time>2014-04-23T09:58:50Z</time>
      </trkpt>
      <trkpt lat="47.21701" lon="4.639">
        <ele>440</ele>
        <time>2014-04-23T09:58:54Z</time>
      </trkpt>
      <trkpt lat="47.21699" lon="4.63906">
        <ele>440</ele>
        <time>2014-04-23T09:58:57Z</time>
      </trkpt>
      <trkpt lat="47.21696" lon="4.63913">
        <ele>440</ele>
        <time>2014-04-23T09:59:00Z</time>
      </trkpt>
      <trkpt lat="47.21693" lon="4.63919">
        <ele>446</ele>
        <time>2014-04-23T09:59:05Z</time>
      </trkpt>
      <trkpt lat="47.21691" lon="4.63926">
        <ele>446</ele>
        <time>2014-04-23T09:59:12Z</time>
      </trkpt>
      <trkpt lat="47.2169" lon="4.63933">
        <ele>447</ele>
        <time>2014-04-23T09:59:16Z</time>
      </trkpt>
      <trkpt lat="47.21689" lon="4.6394">
        <ele>447</ele>
        <time>2014-04-23T09:59:20Z</time>
      </trkpt>
      <trkpt lat="47.21685" lon="4.63946">
        <ele>447</ele>
        <time>2014-04-23T09:59:25Z</time>
      </trkpt>
      <trkpt lat="47.21681" lon="4.6395">
        <ele>448</ele>
        <time>2014-04-23T09:59:29Z</time>
      </trkpt>
      <trkpt lat="47.21678" lon="4.63956">
        <ele>448</ele>
        <time>2014-04-23T09:59:34Z</time>
      </trkpt>
      <trkpt lat="47.21675" lon="4.63963">
        <ele>449</ele>
        <time>2014-04-23T09:59:39Z</time>
      </trkpt>
      <trkpt lat="47.21673" lon="4.6397">
        <ele>449</ele>
        <time>2014-04-23T09:59:43Z</time>
      </trkpt>
      <trkpt lat="47.2167" lon="4.63975">
        <ele>449</ele>
        <time>2014-04-23T09:59:48Z</time>
      </trkpt>
      <trkpt lat="47.21668" lon="4.63982">
        <ele>449</ele>
        <time>2014-04-23T09:59:55Z</time>
      </trkpt>
      <trkpt lat="47.21666" lon="4.63989">
        <ele>445</ele>
        <time>2014-04-23T09:59:59Z</time>
      </trkpt>
      <trkpt lat="47.21664" lon="4.63996">
        <ele>447</ele>
        <time>2014-04-23T10:00:03Z</time>
      </trkpt>
      <trkpt lat="47.21661" lon="4.64003">
        <ele>448</ele>
        <time>2014-04-23T10:00:07Z</time>
      </trkpt>
      <trkpt lat="47.21658" lon="4.6401">
        <ele>446</ele>
        <time>2014-04-23T10:00:11Z</time>
      </trkpt>
      <trkpt lat="47.21656" lon="4.64016">
        <ele>446</ele>
        <time>2014-04-23T10:00:16Z</time>
      </trkpt>
      <trkpt lat="47.21656" lon="4.64023">
        <ele>445</ele>
        <time>2014-04-23T10:00:22Z</time>
      </trkpt>
      <trkpt lat="47.21658" lon="4.64029">
        <ele>445</ele>
        <time>2014-04-23T10:00:26Z</time>
      </trkpt>
      <trkpt lat="47.2166" lon="4.64036">
        <ele>445</ele>
        <time>2014-04-23T10:00:30Z</time>
      </trkpt>
      <trkpt lat="47.21658" lon="4.64042">
        <ele>445</ele>
        <time>2014-04-23T10:00:34Z</time>
      </trkpt>
      <trkpt lat="47.21656" lon="4.64048">
        <ele>445</ele>
        <time>2014-04-23T10:00:39Z</time>
      </trkpt>
      <trkpt lat="47.21657" lon="4.64055">
        <ele>446</ele>
        <time>2014-04-23T10:00:57Z</time>
      </trkpt>
      <trkpt lat="47.21659" lon="4.64062">
        <ele>446</ele>
        <time>2014-04-23T10:01:02Z</time>
      </trkpt>
      <trkpt lat="47.21662" lon="4.64068">
        <ele>447</ele>
        <time>2014-04-23T10:01:08Z</time>
      </trkpt>
      <trkpt lat="47.21665" lon="4.64074">
        <ele>448</ele>
        <time>2014-04-23T10:01:14Z</time>
      </trkpt>
      <trkpt lat="47.21667" lon="4.6408">
        <ele>452</ele>
        <time>2014-04-23T10:01:18Z</time>
      </trkpt>
      <trkpt lat="47.21666" lon="4.64084">
        <ele>451</ele>
        <time>2014-04-23T10:01:26Z</time>
      </trkpt>
      <trkpt lat="47.21671" lon="4.64089">
        <ele>451</ele>
        <time>2014-04-23T10:01:38Z</time>
      </trkpt>
      <trkpt lat="47.21676" lon="4.64092">
        <ele>451</ele>
        <time>2014-04-23T10:01:42Z</time>
      </trkpt>
      <trkpt lat="47.21679" lon="4.64097">
        <ele>451</ele>
        <time>2014-04-23T10:01:48Z</time>
      </trkpt>
      <trkpt lat="47.21684" lon="4.64096">
        <ele>451</ele>
        <time>2014-04-23T10:01:55Z</time>
      </trkpt>
      <trkpt lat="47.21687" lon="4.6409">
        <ele>452</ele>
        <time>2014-04-23T10:01:59Z</time>
      </trkpt>
      <trkpt lat="47.21689" lon="4.64087">
        <ele>452</ele>
        <time>2014-04-23T10:02:10Z</time>
      </trkpt>
      <trkpt lat="47.21693" lon="4.6409">
        <ele>452</ele>
        <time>2014-04-23T10:02:14Z</time>
      </trkpt>
      <trkpt lat="47.21698" lon="4.64092">
        <ele>452</ele>
        <time>2014-04-23T10:02:17Z</time>
      </trkpt>
      <trkpt lat="47.21704" lon="4.64094">
        <ele>453</ele>
        <time>2014-04-23T10:02:20Z</time>
      </trkpt>
      <trkpt lat="47.21708" lon="4.64096">
        <ele>453</ele>
        <time>2014-04-23T10:02:24Z</time>
      </trkpt>
      <trkpt lat="47.21714" lon="4.64097">
        <ele>453</ele>
        <time>2014-04-23T10:02:29Z</time>
      </trkpt>
      <trkpt lat="47.21719" lon="4.64099">
        <ele>454</ele>
        <time>2014-04-23T10:02:35Z</time>
      </trkpt>
      <trkpt lat="47.21724" lon="4.64101">
        <ele>454</ele>
        <time>2014-04-23T10:02:53Z</time>
      </trkpt>
      <trkpt lat="47.21727" lon="4.64095">
        <ele>455</ele>
        <time>2014-04-23T10:03:08Z</time>
      </trkpt>
      <trkpt lat="47.21731" lon="4.64091">
        <ele>456</ele>
        <time>2014-04-23T10:03:11Z</time>
      </trkpt>
      <trkpt lat="47.2174" lon="4.64095">
        <ele>458</ele>
        <time>2014-04-23T10:03:15Z</time>
      </trkpt>
      <trkpt lat="47.21748" lon="4.64103">
        <ele>457</ele>
        <time>2014-04-23T10:03:19Z</time>
      </trkpt>
      <trkpt lat="47.21756" lon="4.64103">
        <ele>461</ele>
        <time>2014-04-23T10:03:32Z</time>
      </trkpt>
      <trkpt lat="47.21761" lon="4.64098">
        <ele>461</ele>
        <time>2014-04-23T10:03:36Z</time>
      </trkpt>
      <trkpt lat="47.21767" lon="4.64098">
        <ele>461</ele>
        <time>2014-04-23T10:03:39Z</time>
      </trkpt>
      <trkpt lat="47.21771" lon="4.64095">
        <ele>461</ele>
        <time>2014-04-23T10:03:42Z</time>
      </trkpt>
      <trkpt lat="47.21775" lon="4.64091">
        <ele>461</ele>
        <time>2014-04-23T10:03:46Z</time>
      </trkpt>
      <trkpt lat="47.21779" lon="4.64087">
        <ele>462</ele>
        <time>2014-04-23T10:03:49Z</time>
      </trkpt>
      <trkpt lat="47.21789" lon="4.64088">
        <ele>462</ele>
        <time>2014-04-23T10:03:54Z</time>
      </trkpt>
      <trkpt lat="47.21796" lon="4.64097">
        <ele>462</ele>
        <time>2014-04-23T10:04:00Z</time>
      </trkpt>
      <trkpt lat="47.21801" lon="4.64094">
        <ele>463</ele>
        <time>2014-04-23T10:04:05Z</time>
      </trkpt>
      <trkpt lat="47.21806" lon="4.6409">
        <ele>463</ele>
        <time>2014-04-23T10:04:16Z</time>
      </trkpt>
      <trkpt lat="47.21809" lon="4.64085">
        <ele>464</ele>
        <time>2014-04-23T10:04:21Z</time>
      </trkpt>
      <trkpt lat="47.21812" lon="4.6408">
        <ele>468</ele>
        <time>2014-04-23T10:04:29Z</time>
      </trkpt>
      <trkpt lat="47.21812" lon="4.64073">
        <ele>468</ele>
        <time>2014-04-23T10:04:36Z</time>
      </trkpt>
      <trkpt lat="47.21816" lon="4.64068">
        <ele>468</ele>
        <time>2014-04-23T10:04:42Z</time>
      </trkpt>
      <trkpt lat="47.21818" lon="4.64063">
        <ele>468</ele>
        <time>2014-04-23T10:04:48Z</time>
      </trkpt>
      <trkpt lat="47.21817" lon="4.64058">
        <ele>468</ele>
        <time>2014-04-23T10:05:00Z</time>
      </trkpt>
      <trkpt lat="47.21813" lon="4.64054">
        <ele>468</ele>
        <time>2014-04-23T10:05:06Z</time>
      </trkpt>
      <trkpt lat="47.21811" lon="4.64048">
        <ele>468</ele>
        <time>2014-04-23T10:05:12Z</time>
      </trkpt>
      <trkpt lat="47.21814" lon="4.64042">
        <ele>468</ele>
        <time>2014-04-23T10:05:16Z</time>
      </trkpt>
      <trkpt lat="47.21812" lon="4.64033">
        <ele>468</ele>
        <time>2014-04-23T10:05:20Z</time>
      </trkpt>
      <trkpt lat="47.21809" lon="4.64025">
        <ele>469</ele>
        <time>2014-04-23T10:05:24Z</time>
      </trkpt>
      <trkpt lat="47.21812" lon="4.64019">
        <ele>469</ele>
        <time>2014-04-23T10:05:28Z</time>
      </trkpt>
      <trkpt lat="47.21809" lon="4.64022">
        <ele>469</ele>
        <time>2014-04-23T10:05:40Z</time>
      </trkpt>
      <trkpt lat="47.21805" lon="4.64026">
        <ele>468</ele>
        <time>2014-04-23T10:05:47Z</time>
      </trkpt>
      <trkpt lat="47.21803" lon="4.64032">
        <ele>468</ele>
        <time>2014-04-23T10:05:53Z</time>
      </trkpt>
      <trkpt lat="47.21798" lon="4.6403">
        <ele>468</ele>
        <time>2014-04-23T10:05:59Z</time>
      </trkpt>
      <trkpt lat="47.21793" lon="4.64028">
        <ele>468</ele>
        <time>2014-04-23T10:06:04Z</time>
      </trkpt>
      <trkpt lat="47.21789" lon="4.64027">
        <ele>468</ele>
        <time>2014-04-23T10:06:13Z</time>
      </trkpt>
      <trkpt lat="47.21785" lon="4.64023">
        <ele>467</ele>
        <time>2014-04-23T10:06:29Z</time>
      </trkpt>
      <trkpt lat="47.2178" lon="4.64021">
        <ele>467</ele>
        <time>2014-04-23T10:06:37Z</time>
      </trkpt>
      <trkpt lat="47.21778" lon="4.64018">
        <ele>467</ele>
        <time>2014-04-23T10:06:49Z</time>
      </trkpt>
      <trkpt lat="47.21781" lon="4.64011">
        <ele>467</ele>
        <time>2014-04-23T10:06:59Z</time>
      </trkpt>
      <trkpt lat="47.21776" lon="4.63994">
        <ele>463</ele>
        <time>2014-04-23T10:11:21Z</time>
      </trkpt>
      <trkpt lat="47.21772" lon="4.63992">
        <ele>463</ele>
        <time>2014-04-23T10:11:31Z</time>
      </trkpt>
      <trkpt lat="47.21762" lon="4.63991">
        <ele>463</ele>
        <time>2014-04-23T10:11:41Z</time>
      </trkpt>
      <trkpt lat="47.21758" lon="4.64">
        <ele>466</ele>
        <time>2014-04-23T10:15:51Z</time>
      </trkpt>
      <trkpt lat="47.21755" lon="4.63998">
        <ele>464</ele>
        <time>2014-04-23T10:16:01Z</time>
      </trkpt>
      <trkpt lat="47.21752" lon="4.63997">
        <ele>465</ele>
        <time>2014-04-23T10:17:32Z</time>
      </trkpt>
      <trkpt lat="47.21747" lon="4.63995">
        <ele>462</ele>
        <time>2014-04-23T10:17:41Z</time>
      </trkpt>
      <trkpt lat="47.21748" lon="4.64008">
        <ele>463</ele>
        <time>2014-04-23T10:17:55Z</time>
      </trkpt>
      <trkpt lat="47.21755" lon="4.64008">
        <ele>466</ele>
        <time>2014-04-23T10:18:23Z</time>
      </trkpt>
      <trkpt lat="47.21753" lon="4.64">
        <ele>465</ele>
        <time>2014-04-23T10:18:34Z</time>
      </trkpt>
      <trkpt lat="47.21753" lon="4.63997">
        <ele>464</ele>
        <time>2014-04-23T10:18:58Z</time>
      </trkpt>
      <trkpt lat="47.21784" lon="4.63989">
        <ele>463</ele>
        <time>2014-04-23T10:20:02Z</time>
      </trkpt>
      <trkpt lat="47.21781" lon="4.63959">
        <ele>461</ele>
        <time>2014-04-23T10:22:51Z</time>
      </trkpt>
      <trkpt lat="47.21799" lon="4.63969">
        <ele>463</ele>
        <time>2014-04-23T10:23:19Z</time>
      </trkpt>
      <trkpt lat="47.21791" lon="4.63965">
        <ele>462</ele>
        <time>2014-04-23T10:23:38Z</time>
      </trkpt>
      <trkpt lat="47.21783" lon="4.63964">
        <ele>462</ele>
        <time>2014-04-23T10:24:07Z</time>
      </trkpt>
      <trkpt lat="47.21778" lon="4.63955">
        <ele>461</ele>
        <time>2014-04-23T10:24:09Z</time>
      </trkpt>
      <trkpt lat="47.21776" lon="4.63948">
        <ele>460</ele>
        <time>2014-04-23T10:24:11Z</time>
      </trkpt>
      <trkpt lat="47.21785" lon="4.63973">
        <ele>462</ele>
        <time>2014-04-23T10:25:43Z</time>
      </trkpt>
      <trkpt lat="47.21784" lon="4.63973">
        <ele>462</ele>
        <time>2014-04-23T10:26:07Z</time>
      </trkpt>
      <trkpt lat="47.21784" lon="4.63982">
        <ele>463</ele>
        <time>2014-04-23T10:26:11Z</time>
      </trkpt>
      <trkpt lat="47.21782" lon="4.63991">
        <ele>463</ele>
        <time>2014-04-23T10:26:14Z</time>
      </trkpt>
      <trkpt lat="47.21773" lon="4.64001">
        <ele>467</ele>
        <time>2014-04-23T10:26:21Z</time>
      </trkpt>
      <trkpt lat="47.21768" lon="4.64005">
        <ele>466</ele>
        <time>2014-04-23T10:26:26Z</time>
      </trkpt>
      <trkpt lat="47.21764" lon="4.64011">
        <ele>466</ele>
        <time>2014-04-23T10:26:33Z</time>
      </trkpt>
      <trkpt lat="47.21762" lon="4.64011">
        <ele>466</ele>
        <time>2014-04-23T10:26:59Z</time>
      </trkpt>
      <trkpt lat="47.21757" lon="4.6401">
        <ele>466</ele>
        <time>2014-04-23T10:27:05Z</time>
      </trkpt>
      <trkpt lat="47.21752" lon="4.64013">
        <ele>466</ele>
        <time>2014-04-23T10:27:12Z</time>
      </trkpt>
      <trkpt lat="47.21752" lon="4.6401">
        <ele>466</ele>
        <time>2014-04-23T10:27:24Z</time>
      </trkpt>
      <trkpt lat="47.21757" lon="4.6401">
        <ele>466</ele>
        <time>2014-04-23T10:27:28Z</time>
      </trkpt>
      <trkpt lat="47.2176" lon="4.64005">
        <ele>466</ele>
        <time>2014-04-23T10:27:32Z</time>
      </trkpt>
      <trkpt lat="47.21764" lon="4.63999">
        <ele>464</ele>
        <time>2014-04-23T10:27:37Z</time>
      </trkpt>
      <trkpt lat="47.21769" lon="4.63995">
        <ele>463</ele>
        <time>2014-04-23T10:27:42Z</time>
      </trkpt>
      <trkpt lat="47.21772" lon="4.63989">
        <ele>463</ele>
        <time>2014-04-23T10:27:45Z</time>
      </trkpt>
      <trkpt lat="47.21774" lon="4.63989">
        <ele>463</ele>
        <time>2014-04-23T10:27:56Z</time>
      </trkpt>
      <trkpt lat="47.21766" lon="4.63995">
        <ele>464</ele>
        <time>2014-04-23T10:29:20Z</time>
      </trkpt>
      <trkpt lat="47.21766" lon="4.64003">
        <ele>466</ele>
        <time>2014-04-23T10:29:22Z</time>
      </trkpt>
      <trkpt lat="47.21766" lon="4.6401">
        <ele>466</ele>
        <time>2014-04-23T10:29:24Z</time>
      </trkpt>
      <trkpt lat="47.21766" lon="4.64024">
        <ele>467</ele>
        <time>2014-04-23T10:29:30Z</time>
      </trkpt>
      <trkpt lat="47.21771" lon="4.64023">
        <ele>467</ele>
        <time>2014-04-23T10:29:32Z</time>
      </trkpt>
      <trkpt lat="47.21776" lon="4.64024">
        <ele>467</ele>
        <time>2014-04-23T10:29:36Z</time>
      </trkpt>
      <trkpt lat="47.21781" lon="4.64024">
        <ele>467</ele>
        <time>2014-04-23T10:29:39Z</time>
      </trkpt>
      <trkpt lat="47.21785" lon="4.64025">
        <ele>467</ele>
        <time>2014-04-23T10:29:43Z</time>
      </trkpt>
      <trkpt lat="47.21791" lon="4.64025">
        <ele>468</ele>
        <time>2014-04-23T10:29:55Z</time>
      </trkpt>
      <trkpt lat="47.21795" lon="4.64029">
        <ele>468</ele>
        <time>2014-04-23T10:30:00Z</time>
      </trkpt>
      <trkpt lat="47.21796" lon="4.64032">
        <ele>468</ele>
        <time>2014-04-23T10:30:06Z</time>
      </trkpt>
      <trkpt lat="47.21802" lon="4.6403">
        <ele>468</ele>
        <time>2014-04-23T10:30:21Z</time>
      </trkpt>
      <trkpt lat="47.21807" lon="4.64029">
        <ele>468</ele>
        <time>2014-04-23T10:30:24Z</time>
      </trkpt>
      <trkpt lat="47.21812" lon="4.64027">
        <ele>469</ele>
        <time>2014-04-23T10:30:28Z</time>
      </trkpt>
      <trkpt lat="47.21817" lon="4.64025">
        <ele>469</ele>
        <time>2014-04-23T10:30:32Z</time>
      </trkpt>
      <trkpt lat="47.21821" lon="4.64023">
        <ele>469</ele>
        <time>2014-04-23T10:30:37Z</time>
      </trkpt>
      <trkpt lat="47.21826" lon="4.6402">
        <ele>470</ele>
        <time>2014-04-23T10:30:44Z</time>
      </trkpt>
      <trkpt lat="47.21831" lon="4.6402">
        <ele>470</ele>
        <time>2014-04-23T10:30:49Z</time>
      </trkpt>
      <trkpt lat="47.21836" lon="4.6402">
        <ele>473</ele>
        <time>2014-04-23T10:30:54Z</time>
      </trkpt>
      <trkpt lat="47.21841" lon="4.64018">
        <ele>473</ele>
        <time>2014-04-23T10:30:59Z</time>
      </trkpt>
      <trkpt lat="47.21843" lon="4.64011">
        <ele>473</ele>
        <time>2014-04-23T10:31:05Z</time>
      </trkpt>
      <trkpt lat="47.21842" lon="4.64011">
        <ele>473</ele>
        <time>2014-04-23T10:31:21Z</time>
      </trkpt>
      <trkpt lat="47.21859" lon="4.64007">
        <ele>473</ele>
        <time>2014-04-23T10:32:19Z</time>
      </trkpt>
      <trkpt lat="47.21858" lon="4.6401">
        <ele>473</ele>
        <time>2014-04-23T10:32:22Z</time>
      </trkpt>
      <trkpt lat="47.21855" lon="4.64018">
        <ele>473</ele>
        <time>2014-04-23T10:32:27Z</time>
      </trkpt>
      <trkpt lat="47.21851" lon="4.64021">
        <ele>473</ele>
        <time>2014-04-23T10:32:29Z</time>
      </trkpt>
      <trkpt lat="47.21845" lon="4.64023">
        <ele>473</ele>
        <time>2014-04-23T10:32:31Z</time>
      </trkpt>
      <trkpt lat="47.21839" lon="4.64019">
        <ele>473</ele>
        <time>2014-04-23T10:32:34Z</time>
      </trkpt>
      <trkpt lat="47.21834" lon="4.64018">
        <ele>473</ele>
        <time>2014-04-23T10:32:37Z</time>
      </trkpt>
      <trkpt lat="47.21829" lon="4.64021">
        <ele>470</ele>
        <time>2014-04-23T10:32:41Z</time>
      </trkpt>
      <trkpt lat="47.21826" lon="4.64026">
        <ele>469</ele>
        <time>2014-04-23T10:32:44Z</time>
      </trkpt>
      <trkpt lat="47.21821" lon="4.64028">
        <ele>469</ele>
        <time>2014-04-23T10:32:48Z</time>
      </trkpt>
      <trkpt lat="47.21817" lon="4.64033">
        <ele>469</ele>
        <time>2014-04-23T10:32:54Z</time>
      </trkpt>
      <trkpt lat="47.21818" lon="4.64041">
        <ele>468</ele>
        <time>2014-04-23T10:33:29Z</time>
      </trkpt>
      <trkpt lat="47.21815" lon="4.64048">
        <ele>468</ele>
        <time>2014-04-23T10:33:32Z</time>
      </trkpt>
      <trkpt lat="47.21814" lon="4.64056">
        <ele>468</ele>
        <time>2014-04-23T10:33:36Z</time>
      </trkpt>
      <trkpt lat="47.21814" lon="4.64064">
        <ele>468</ele>
        <time>2014-04-23T10:33:39Z</time>
      </trkpt>
      <trkpt lat="47.21814" lon="4.64071">
        <ele>468</ele>
        <time>2014-04-23T10:33:42Z</time>
      </trkpt>
      <trkpt lat="47.21812" lon="4.64078">
        <ele>468</ele>
        <time>2014-04-23T10:33:45Z</time>
      </trkpt>
      <trkpt lat="47.21809" lon="4.64085">
        <ele>464</ele>
        <time>2014-04-23T10:33:49Z</time>
      </trkpt>
      <trkpt lat="47.21807" lon="4.64078">
        <ele>468</ele>
        <time>2014-04-23T10:33:53Z</time>
      </trkpt>
      <trkpt lat="47.21802" lon="4.64077">
        <ele>468</ele>
        <time>2014-04-23T10:33:57Z</time>
      </trkpt>
      <trkpt lat="47.21797" lon="4.64077">
        <ele>467</ele>
        <time>2014-04-23T10:34:02Z</time>
      </trkpt>
      <trkpt lat="47.21791" lon="4.64075">
        <ele>467</ele>
        <time>2014-04-23T10:34:07Z</time>
      </trkpt>
      <trkpt lat="47.21787" lon="4.64074">
        <ele>467</ele>
        <time>2014-04-23T10:34:10Z</time>
      </trkpt>
      <trkpt lat="47.21782" lon="4.64075">
        <ele>467</ele>
        <time>2014-04-23T10:34:13Z</time>
      </trkpt>
      <trkpt lat="47.21777" lon="4.64077">
        <ele>466</ele>
        <time>2014-04-23T10:34:16Z</time>
      </trkpt>
      <trkpt lat="47.21772" lon="4.6408">
        <ele>466</ele>
        <time>2014-04-23T10:34:20Z</time>
      </trkpt>
      <trkpt lat="47.21767" lon="4.64078">
        <ele>465</ele>
        <time>2014-04-23T10:34:24Z</time>
      </trkpt>
      <trkpt lat="47.21763" lon="4.64076">
        <ele>465</ele>
        <time>2014-04-23T10:34:28Z</time>
      </trkpt>
      <trkpt lat="47.21758" lon="4.64075">
        <ele>465</ele>
        <time>2014-04-23T10:34:32Z</time>
      </trkpt>
      <trkpt lat="47.21755" lon="4.64078">
        <ele>464</ele>
        <time>2014-04-23T10:34:41Z</time>
      </trkpt>
      <trkpt lat="47.21751" lon="4.6408">
        <ele>464</ele>
        <time>2014-04-23T10:35:07Z</time>
      </trkpt>
      <trkpt lat="47.21747" lon="4.64079">
        <ele>462</ele>
        <time>2014-04-23T10:35:11Z</time>
      </trkpt>
      <trkpt lat="47.21742" lon="4.64077">
        <ele>461</ele>
        <time>2014-04-23T10:35:15Z</time>
      </trkpt>
      <trkpt lat="47.21738" lon="4.6407">
        <ele>460</ele>
        <time>2014-04-23T10:35:20Z</time>
      </trkpt>
      <trkpt lat="47.21734" lon="4.64065">
        <ele>459</ele>
        <time>2014-04-23T10:35:24Z</time>
      </trkpt>
      <trkpt lat="47.2173" lon="4.6406">
        <ele>459</ele>
        <time>2014-04-23T10:35:29Z</time>
      </trkpt>
      <trkpt lat="47.21726" lon="4.64057">
        <ele>459</ele>
        <time>2014-04-23T10:35:34Z</time>
      </trkpt>
      <trkpt lat="47.21723" lon="4.64052">
        <ele>458</ele>
        <time>2014-04-23T10:35:38Z</time>
      </trkpt>
      <trkpt lat="47.21719" lon="4.64047">
        <ele>458</ele>
        <time>2014-04-23T10:35:41Z</time>
      </trkpt>
      <trkpt lat="47.21714" lon="4.64046">
        <ele>458</ele>
        <time>2014-04-23T10:35:45Z</time>
      </trkpt>
      <trkpt lat="47.21709" lon="4.64045">
        <ele>457</ele>
        <time>2014-04-23T10:35:52Z</time>
      </trkpt>
      <trkpt lat="47.21708" lon="4.64043">
        <ele>457</ele>
        <time>2014-04-23T10:36:23Z</time>
      </trkpt>
      <trkpt lat="47.21703" lon="4.64041">
        <ele>457</ele>
        <time>2014-04-23T10:36:28Z</time>
      </trkpt>
      <trkpt lat="47.21694" lon="4.64045">
        <ele>456</ele>
        <time>2014-04-23T10:36:34Z</time>
      </trkpt>
      <trkpt lat="47.21689" lon="4.64044">
        <ele>455</ele>
        <time>2014-04-23T10:36:41Z</time>
      </trkpt>
      <trkpt lat="47.21684" lon="4.64047">
        <ele>455</ele>
        <time>2014-04-23T10:36:44Z</time>
      </trkpt>
      <trkpt lat="47.21682" lon="4.64047">
        <ele>455</ele>
        <time>2014-04-23T10:37:10Z</time>
      </trkpt>
      <trkpt lat="47.21682" lon="4.64056">
        <ele>455</ele>
        <time>2014-04-23T10:37:35Z</time>
      </trkpt>
      <trkpt lat="47.21686" lon="4.64051">
        <ele>455</ele>
        <time>2014-04-23T10:37:40Z</time>
      </trkpt>
      <trkpt lat="47.21686" lon="4.64045">
        <ele>455</ele>
        <time>2014-04-23T10:37:52Z</time>
      </trkpt>
      <trkpt lat="47.21689" lon="4.64039">
        <ele>455</ele>
        <time>2014-04-23T10:37:58Z</time>
      </trkpt>
      <trkpt lat="47.21694" lon="4.64039">
        <ele>456</ele>
        <time>2014-04-23T10:38:02Z</time>
      </trkpt>
      <trkpt lat="47.21699" lon="4.6404">
        <ele>456</ele>
        <time>2014-04-23T10:38:06Z</time>
      </trkpt>
      <trkpt lat="47.21697" lon="4.64039">
        <ele>456</ele>
        <time>2014-04-23T10:38:29Z</time>
      </trkpt>
      <trkpt lat="47.21695" lon="4.64039">
        <ele>456</ele>
        <time>2014-04-23T10:39:11Z</time>
      </trkpt>
      <trkpt lat="47.21695" lon="4.64046">
        <ele>456</ele>
        <time>2014-04-23T10:40:13Z</time>
      </trkpt>
      <trkpt lat="47.21691" lon="4.64051">
        <ele>456</ele>
        <time>2014-04-23T10:40:49Z</time>
      </trkpt>
      <trkpt lat="47.21685" lon="4.64056">
        <ele>455</ele>
        <time>2014-04-23T10:43:07Z</time>
      </trkpt>
      <trkpt lat="47.21684" lon="4.6405">
        <ele>455</ele>
        <time>2014-04-23T10:57:58Z</time>
      </trkpt>
      <trkpt lat="47.21685" lon="4.64045">
        <ele>455</ele>
        <time>2014-04-23T10:58:45Z</time>
      </trkpt>
      <trkpt lat="47.21683" lon="4.64046">
        <ele>455</ele>
        <time>2014-04-23T11:04:17Z</time>
      </trkpt>
      <trkpt lat="47.21683" lon="4.64039">
        <ele>455</ele>
        <time>2014-04-23T11:05:11Z</time>
      </trkpt>
      <trkpt lat="47.21686" lon="4.64035">
        <ele>455</ele>
        <time>2014-04-23T11:07:56Z</time>
      </trkpt>
      <trkpt lat="47.2169" lon="4.64035">
        <ele>455</ele>
        <time>2014-04-23T11:11:14Z</time>
      </trkpt>
      <trkpt lat="47.21696" lon="4.64025">
        <ele>456</ele>
        <time>2014-04-23T11:11:24Z</time>
      </trkpt>
      <trkpt lat="47.21699" lon="4.6403">
        <ele>456</ele>
        <time>2014-04-23T11:11:28Z</time>
      </trkpt>
      <trkpt lat="47.21701" lon="4.64037">
        <ele>456</ele>
        <time>2014-04-23T11:11:32Z</time>
      </trkpt>
      <trkpt lat="47.21703" lon="4.6404">
        <ele>457</ele>
        <time>2014-04-23T11:11:57Z</time>
      </trkpt>
      <trkpt lat="47.21706" lon="4.64034">
        <ele>457</ele>
        <time>2014-04-23T11:12:11Z</time>
      </trkpt>
      <trkpt lat="47.21715" lon="4.64065">
        <ele>458</ele>
        <time>2014-04-23T11:12:34Z</time>
      </trkpt>
      <trkpt lat="47.21725" lon="4.64067">
        <ele>459</ele>
        <time>2014-04-23T11:12:40Z</time>
      </trkpt>
      <trkpt lat="47.21735" lon="4.64063">
        <ele>459</ele>
        <time>2014-04-23T11:12:45Z</time>
      </trkpt>
      <trkpt lat="47.21744" lon="4.6409">
        <ele>459</ele>
        <time>2014-04-23T11:12:57Z</time>
      </trkpt>
      <trkpt lat="47.21749" lon="4.64076">
        <ele>462</ele>
        <time>2014-04-23T11:13:01Z</time>
      </trkpt>
      <trkpt lat="47.21759" lon="4.64077">
        <ele>465</ele>
        <time>2014-04-23T11:13:20Z</time>
      </trkpt>
      <trkpt lat="47.21764" lon="4.64086">
        <ele>462</ele>
        <time>2014-04-23T11:13:57Z</time>
      </trkpt>
      <trkpt lat="47.21739" lon="4.64094">
        <ele>457</ele>
        <time>2014-04-23T11:14:13Z</time>
      </trkpt>
      <trkpt lat="47.21731" lon="4.64103">
        <ele>455</ele>
        <time>2014-04-23T11:14:19Z</time>
      </trkpt>
      <trkpt lat="47.21725" lon="4.64103">
        <ele>454</ele>
        <time>2014-04-23T11:14:23Z</time>
      </trkpt>
      <trkpt lat="47.21721" lon="4.64101">
        <ele>454</ele>
        <time>2014-04-23T11:14:30Z</time>
      </trkpt>
      <trkpt lat="47.21716" lon="4.64098">
        <ele>454</ele>
        <time>2014-04-23T11:14:36Z</time>
      </trkpt>
      <trkpt lat="47.21712" lon="4.64097">
        <ele>453</ele>
        <time>2014-04-23T11:14:45Z</time>
      </trkpt>
      <trkpt lat="47.21708" lon="4.641">
        <ele>453</ele>
        <time>2014-04-23T11:14:55Z</time>
      </trkpt>
      <trkpt lat="47.21703" lon="4.64102">
        <ele>452</ele>
        <time>2014-04-23T11:14:59Z</time>
      </trkpt>
      <trkpt lat="47.21698" lon="4.64102">
        <ele>452</ele>
        <time>2014-04-23T11:15:02Z</time>
      </trkpt>
      <trkpt lat="47.21693" lon="4.64102">
        <ele>451</ele>
        <time>2014-04-23T11:15:07Z</time>
      </trkpt>
      <trkpt lat="47.21689" lon="4.641">
        <ele>451</ele>
        <time>2014-04-23T11:15:10Z</time>
      </trkpt>
      <trkpt lat="47.21684" lon="4.641">
        <ele>451</ele>
        <time>2014-04-23T11:15:15Z</time>
      </trkpt>
      <trkpt lat="47.2168" lon="4.64097">
        <ele>451</ele>
        <time>2014-04-23T11:15:22Z</time>
      </trkpt>
      <trkpt lat="47.21674" lon="4.64098">
        <ele>451</ele>
        <time>2014-04-23T11:15:27Z</time>
      </trkpt>
      <trkpt lat="47.21669" lon="4.64097">
        <ele>451</ele>
        <time>2014-04-23T11:15:33Z</time>
      </trkpt>
      <trkpt lat="47.21665" lon="4.64098">
        <ele>446</ele>
        <time>2014-04-23T11:15:37Z</time>
      </trkpt>
      <trkpt lat="47.21664" lon="4.64093">
        <ele>447</ele>
        <time>2014-04-23T11:15:48Z</time>
      </trkpt>
      <trkpt lat="47.21658" lon="4.64093">
        <ele>447</ele>
        <time>2014-04-23T11:15:53Z</time>
      </trkpt>
      <trkpt lat="47.21654" lon="4.64092">
        <ele>446</ele>
        <time>2014-04-23T11:15:57Z</time>
      </trkpt>
      <trkpt lat="47.21648" lon="4.64093">
        <ele>445</ele>
        <time>2014-04-23T11:16:01Z</time>
      </trkpt>
      <trkpt lat="47.21644" lon="4.64092">
        <ele>444</ele>
        <time>2014-04-23T11:16:04Z</time>
      </trkpt>
      <trkpt lat="47.21638" lon="4.64093">
        <ele>443</ele>
        <time>2014-04-23T11:16:08Z</time>
      </trkpt>
      <trkpt lat="47.21633" lon="4.64095">
        <ele>442</ele>
        <time>2014-04-23T11:16:13Z</time>
      </trkpt>
      <trkpt lat="47.21629" lon="4.64096">
        <ele>442</ele>
        <time>2014-04-23T11:16:20Z</time>
      </trkpt>
      <trkpt lat="47.21624" lon="4.64099">
        <ele>441</ele>
        <time>2014-04-23T11:16:26Z</time>
      </trkpt>
      <trkpt lat="47.2162" lon="4.64104">
        <ele>441</ele>
        <time>2014-04-23T11:16:30Z</time>
      </trkpt>
      <trkpt lat="47.21617" lon="4.6411">
        <ele>440</ele>
        <time>2014-04-23T11:16:35Z</time>
      </trkpt>
      <trkpt lat="47.21614" lon="4.64116">
        <ele>440</ele>
        <time>2014-04-23T11:16:39Z</time>
      </trkpt>
      <trkpt lat="47.21614" lon="4.64124">
        <ele>440</ele>
        <time>2014-04-23T11:16:42Z</time>
      </trkpt>
      <trkpt lat="47.21616" lon="4.64132">
        <ele>439</ele>
        <time>2014-04-23T11:16:46Z</time>
      </trkpt>
      <trkpt lat="47.21615" lon="4.64153">
        <ele>439</ele>
        <time>2014-04-23T11:17:01Z</time>
      </trkpt>
      <trkpt lat="47.21615" lon="4.6416">
        <ele>438</ele>
        <time>2014-04-23T11:17:06Z</time>
      </trkpt>
      <trkpt lat="47.21612" lon="4.64161">
        <ele>438</ele>
        <time>2014-04-23T11:17:13Z</time>
      </trkpt>
      <trkpt lat="47.21613" lon="4.64168">
        <ele>434</ele>
        <time>2014-04-23T11:17:21Z</time>
      </trkpt>
      <trkpt lat="47.21614" lon="4.64174">
        <ele>434</ele>
        <time>2014-04-23T11:17:26Z</time>
      </trkpt>
      <trkpt lat="47.21617" lon="4.64172">
        <ele>434</ele>
        <time>2014-04-23T11:17:37Z</time>
      </trkpt>
      <trkpt lat="47.21621" lon="4.64178">
        <ele>434</ele>
        <time>2014-04-23T11:17:43Z</time>
      </trkpt>
      <trkpt lat="47.2162" lon="4.64185">
        <ele>434</ele>
        <time>2014-04-23T11:17:47Z</time>
      </trkpt>
      <trkpt lat="47.21617" lon="4.64191">
        <ele>434</ele>
        <time>2014-04-23T11:17:50Z</time>
      </trkpt>
      <trkpt lat="47.21618" lon="4.64198">
        <ele>433</ele>
        <time>2014-04-23T11:17:54Z</time>
      </trkpt>
      <trkpt lat="47.21615" lon="4.64202">
        <ele>433</ele>
        <time>2014-04-23T11:18:17Z</time>
      </trkpt>
      <trkpt lat="47.21611" lon="4.64207">
        <ele>433</ele>
        <time>2014-04-23T11:18:22Z</time>
      </trkpt>
      <trkpt lat="47.21607" lon="4.64212">
        <ele>432</ele>
        <time>2014-04-23T11:18:26Z</time>
      </trkpt>
      <trkpt lat="47.21602" lon="4.64214">
        <ele>432</ele>
        <time>2014-04-23T11:18:30Z</time>
      </trkpt>
      <trkpt lat="47.21596" lon="4.64217">
        <ele>432</ele>
        <time>2014-04-23T11:18:34Z</time>
      </trkpt>
      <trkpt lat="47.21591" lon="4.64222">
        <ele>431</ele>
        <time>2014-04-23T11:18:37Z</time>
      </trkpt>
      <trkpt lat="47.21588" lon="4.64226">
        <ele>431</ele>
        <time>2014-04-23T11:18:40Z</time>
      </trkpt>
      <trkpt lat="47.21584" lon="4.64231">
        <ele>430</ele>
        <time>2014-04-23T11:18:43Z</time>
      </trkpt>
      <trkpt lat="47.21579" lon="4.64234">
        <ele>426</ele>
        <time>2014-04-23T11:18:48Z</time>
      </trkpt>
      <trkpt lat="47.21576" lon="4.64239">
        <ele>426</ele>
        <time>2014-04-23T11:18:53Z</time>
      </trkpt>
      <trkpt lat="47.21574" lon="4.64245">
        <ele>426</ele>
        <time>2014-04-23T11:18:59Z</time>
      </trkpt>
      <trkpt lat="47.21572" lon="4.64251">
        <ele>424</ele>
        <time>2014-04-23T11:19:06Z</time>
      </trkpt>
      <trkpt lat="47.21569" lon="4.64253">
        <ele>424</ele>
        <time>2014-04-23T11:19:13Z</time>
      </trkpt>
      <trkpt lat="47.21566" lon="4.64262">
        <ele>423</ele>
        <time>2014-04-23T11:19:26Z</time>
      </trkpt>
      <trkpt lat="47.21564" lon="4.64269">
        <ele>422</ele>
        <time>2014-04-23T11:19:34Z</time>
      </trkpt>
      <trkpt lat="47.2156" lon="4.64273">
        <ele>421</ele>
        <time>2014-04-23T11:19:38Z</time>
      </trkpt>
      <trkpt lat="47.21556" lon="4.64278">
        <ele>421</ele>
        <time>2014-04-23T11:19:41Z</time>
      </trkpt>
      <trkpt lat="47.21553" lon="4.64283">
        <ele>420</ele>
        <time>2014-04-23T11:19:44Z</time>
      </trkpt>
      <trkpt lat="47.21551" lon="4.64289">
        <ele>420</ele>
        <time>2014-04-23T11:19:48Z</time>
      </trkpt>
      <trkpt lat="47.21548" lon="4.64295">
        <ele>419</ele>
        <time>2014-04-23T11:19:52Z</time>
      </trkpt>
      <trkpt lat="47.21545" lon="4.64301">
        <ele>419</ele>
        <time>2014-04-23T11:19:56Z</time>
      </trkpt>
      <trkpt lat="47.21543" lon="4.64307">
        <ele>419</ele>
        <time>2014-04-23T11:20:01Z</time>
      </trkpt>
      <trkpt lat="47.2154" lon="4.64311">
        <ele>418</ele>
        <time>2014-04-23T11:20:09Z</time>
      </trkpt>
      <trkpt lat="47.21535" lon="4.64321">
        <ele>418</ele>
        <time>2014-04-23T11:20:21Z</time>
      </trkpt>
      <trkpt lat="47.21532" lon="4.64326">
        <ele>418</ele>
        <time>2014-04-23T11:20:24Z</time>
      </trkpt>
      <trkpt lat="47.2153" lon="4.64333">
        <ele>417</ele>
        <time>2014-04-23T11:20:28Z</time>
      </trkpt>
      <trkpt lat="47.21527" lon="4.64339">
        <ele>413</ele>
        <time>2014-04-23T11:20:38Z</time>
      </trkpt>
      <trkpt lat="47.21522" lon="4.64337">
        <ele>413</ele>
        <time>2014-04-23T11:20:42Z</time>
      </trkpt>
      <trkpt lat="47.21517" lon="4.64338">
        <ele>413</ele>
        <time>2014-04-23T11:20:47Z</time>
      </trkpt>
      <trkpt lat="47.21513" lon="4.64342">
        <ele>413</ele>
        <time>2014-04-23T11:20:53Z</time>
      </trkpt>
      <trkpt lat="47.2151" lon="4.64348">
        <ele>412</ele>
        <time>2014-04-23T11:20:57Z</time>
      </trkpt>
      <trkpt lat="47.21508" lon="4.64354">
        <ele>412</ele>
        <time>2014-04-23T11:21:03Z</time>
      </trkpt>
      <trkpt lat="47.21507" lon="4.64361">
        <ele>412</ele>
        <time>2014-04-23T11:21:08Z</time>
      </trkpt>
      <trkpt lat="47.21505" lon="4.64369">
        <ele>411</ele>
        <time>2014-04-23T11:21:13Z</time>
      </trkpt>
      <trkpt lat="47.21502" lon="4.64376">
        <ele>411</ele>
        <time>2014-04-23T11:21:17Z</time>
      </trkpt>
      <trkpt lat="47.21499" lon="4.64383">
        <ele>407</ele>
        <time>2014-04-23T11:21:21Z</time>
      </trkpt>
      <trkpt lat="47.21496" lon="4.64388">
        <ele>407</ele>
        <time>2014-04-23T11:21:27Z</time>
      </trkpt>
      <trkpt lat="47.21494" lon="4.64394">
        <ele>406</ele>
        <time>2014-04-23T11:21:31Z</time>
      </trkpt>
      <trkpt lat="47.2149" lon="4.644">
        <ele>406</ele>
        <time>2014-04-23T11:21:35Z</time>
      </trkpt>
      <trkpt lat="47.21487" lon="4.64407">
        <ele>406</ele>
        <time>2014-04-23T11:21:39Z</time>
      </trkpt>
      <trkpt lat="47.21484" lon="4.64415">
        <ele>406</ele>
        <time>2014-04-23T11:21:43Z</time>
      </trkpt>
      <trkpt lat="47.21482" lon="4.64421">
        <ele>403</ele>
        <time>2014-04-23T11:21:46Z</time>
      </trkpt>
      <trkpt lat="47.21479" lon="4.64428">
        <ele>402</ele>
        <time>2014-04-23T11:21:50Z</time>
      </trkpt>
      <trkpt lat="47.21477" lon="4.64433">
        <ele>401</ele>
        <time>2014-04-23T11:22:00Z</time>
      </trkpt>
      <trkpt lat="47.21476" lon="4.64439">
        <ele>401</ele>
        <time>2014-04-23T11:22:13Z</time>
      </trkpt>
      <trkpt lat="47.21474" lon="4.64446">
        <ele>400</ele>
        <time>2014-04-23T11:22:17Z</time>
      </trkpt>
      <trkpt lat="47.21471" lon="4.64452">
        <ele>400</ele>
        <time>2014-04-23T11:22:21Z</time>
      </trkpt>
      <trkpt lat="47.21469" lon="4.64459">
        <ele>399</ele>
        <time>2014-04-23T11:22:24Z</time>
      </trkpt>
      <trkpt lat="47.21467" lon="4.64465">
        <ele>399</ele>
        <time>2014-04-23T11:22:27Z</time>
      </trkpt>
      <trkpt lat="47.21466" lon="4.64473">
        <ele>399</ele>
        <time>2014-04-23T11:22:31Z</time>
      </trkpt>
      <trkpt lat="47.21464" lon="4.6448">
        <ele>398</ele>
        <time>2014-04-23T11:22:37Z</time>
      </trkpt>
      <trkpt lat="47.21461" lon="4.64486">
        <ele>398</ele>
        <time>2014-04-23T11:22:42Z</time>
      </trkpt>
      <trkpt lat="47.2146" lon="4.64493">
        <ele>398</ele>
        <time>2014-04-23T11:22:47Z</time>
      </trkpt>
      <trkpt lat="47.21457" lon="4.645">
        <ele>398</ele>
        <time>2014-04-23T11:22:52Z</time>
      </trkpt>
      <trkpt lat="47.21455" lon="4.64506">
        <ele>392</ele>
        <time>2014-04-23T11:22:56Z</time>
      </trkpt>
      <trkpt lat="47.21453" lon="4.64514">
        <ele>392</ele>
        <time>2014-04-23T11:23:01Z</time>
      </trkpt>
      <trkpt lat="47.21451" lon="4.64522">
        <ele>392</ele>
        <time>2014-04-23T11:23:05Z</time>
      </trkpt>
      <trkpt lat="47.2145" lon="4.64529">
        <ele>391</ele>
        <time>2014-04-23T11:23:09Z</time>
      </trkpt>
      <trkpt lat="47.21447" lon="4.64536">
        <ele>391</ele>
        <time>2014-04-23T11:23:13Z</time>
      </trkpt>
      <trkpt lat="47.21445" lon="4.64543">
        <ele>390</ele>
        <time>2014-04-23T11:23:17Z</time>
      </trkpt>
      <trkpt lat="47.21442" lon="4.64548">
        <ele>390</ele>
        <time>2014-04-23T11:23:22Z</time>
      </trkpt>
      <trkpt lat="47.2144" lon="4.64555">
        <ele>390</ele>
        <time>2014-04-23T11:23:30Z</time>
      </trkpt>
      <trkpt lat="47.21438" lon="4.64562">
        <ele>389</ele>
        <time>2014-04-23T11:23:35Z</time>
      </trkpt>
      <trkpt lat="47.21434" lon="4.64567">
        <ele>389</ele>
        <time>2014-04-23T11:23:40Z</time>
      </trkpt>
      <trkpt lat="47.21432" lon="4.64573">
        <ele>388</ele>
        <time>2014-04-23T11:23:53Z</time>
      </trkpt>
      <trkpt lat="47.21431" lon="4.6458">
        <ele>388</ele>
        <time>2014-04-23T11:23:57Z</time>
      </trkpt>
      <trkpt lat="47.21433" lon="4.64587">
        <ele>385</ele>
        <time>2014-04-23T11:24:02Z</time>
      </trkpt>
      <trkpt lat="47.21434" lon="4.64595">
        <ele>384</ele>
        <time>2014-04-23T11:24:07Z</time>
      </trkpt>
      <trkpt lat="47.21435" lon="4.64602">
        <ele>384</ele>
        <time>2014-04-23T11:24:10Z</time>
      </trkpt>
      <trkpt lat="47.21434" lon="4.6461">
        <ele>384</ele>
        <time>2014-04-23T11:24:14Z</time>
      </trkpt>
      <trkpt lat="47.21431" lon="4.64617">
        <ele>384</ele>
        <time>2014-04-23T11:24:17Z</time>
      </trkpt>
      <trkpt lat="47.21426" lon="4.6462">
        <ele>384</ele>
        <time>2014-04-23T11:24:21Z</time>
      </trkpt>
      <trkpt lat="47.21422" lon="4.64622">
        <ele>383</ele>
        <time>2014-04-23T11:24:27Z</time>
      </trkpt>
      <trkpt lat="47.21416" lon="4.64621">
        <ele>381</ele>
        <time>2014-04-23T11:24:33Z</time>
      </trkpt>
      <trkpt lat="47.21412" lon="4.64619">
        <ele>381</ele>
        <time>2014-04-23T11:24:38Z</time>
      </trkpt>
      <trkpt lat="47.21406" lon="4.6462">
        <ele>381</ele>
        <time>2014-04-23T11:24:43Z</time>
      </trkpt>
      <trkpt lat="47.21402" lon="4.64622">
        <ele>381</ele>
        <time>2014-04-23T11:24:47Z</time>
      </trkpt>
      <trkpt lat="47.21399" lon="4.64629">
        <ele>380</ele>
        <time>2014-04-23T11:24:51Z</time>
      </trkpt>
      <trkpt lat="47.21395" lon="4.64635">
        <ele>380</ele>
        <time>2014-04-23T11:24:55Z</time>
      </trkpt>
      <trkpt lat="47.21392" lon="4.6464">
        <ele>380</ele>
        <time>2014-04-23T11:24:59Z</time>
      </trkpt>
      <trkpt lat="47.21389" lon="4.64646">
        <ele>380</ele>
        <time>2014-04-23T11:25:04Z</time>
      </trkpt>
      <trkpt lat="47.21386" lon="4.64652">
        <ele>380</ele>
        <time>2014-04-23T11:25:08Z</time>
      </trkpt>
      <trkpt lat="47.21382" lon="4.64657">
        <ele>379</ele>
        <time>2014-04-23T11:25:12Z</time>
      </trkpt>
      <trkpt lat="47.2138" lon="4.64662">
        <ele>379</ele>
        <time>2014-04-23T11:25:16Z</time>
      </trkpt>
      <trkpt lat="47.21374" lon="4.64674">
        <ele>379</ele>
        <time>2014-04-23T11:25:23Z</time>
      </trkpt>
      <trkpt lat="47.21371" lon="4.64681">
        <ele>379</ele>
        <time>2014-04-23T11:25:26Z</time>
      </trkpt>
      <trkpt lat="47.21369" lon="4.64688">
        <ele>379</ele>
        <time>2014-04-23T11:25:31Z</time>
      </trkpt>
      <trkpt lat="47.21365" lon="4.6469">
        <ele>379</ele>
        <time>2014-04-23T11:25:54Z</time>
      </trkpt>
      <trkpt lat="47.21362" lon="4.64696">
        <ele>379</ele>
        <time>2014-04-23T11:27:04Z</time>
      </trkpt>
      <trkpt lat="47.21357" lon="4.64699">
        <ele>379</ele>
        <time>2014-04-23T11:27:12Z</time>
      </trkpt>
      <trkpt lat="47.21352" lon="4.64701">
        <ele>379</ele>
        <time>2014-04-23T11:27:15Z</time>
      </trkpt>
      <trkpt lat="47.21348" lon="4.64705">
        <ele>379</ele>
        <time>2014-04-23T11:27:18Z</time>
      </trkpt>
      <trkpt lat="47.21343" lon="4.64707">
        <ele>379</ele>
        <time>2014-04-23T11:27:21Z</time>
      </trkpt>
      <trkpt lat="47.21338" lon="4.64707">
        <ele>379</ele>
        <time>2014-04-23T11:27:26Z</time>
      </trkpt>
      <trkpt lat="47.21332" lon="4.64707">
        <ele>378</ele>
        <time>2014-04-23T11:27:30Z</time>
      </trkpt>
      <trkpt lat="47.21327" lon="4.64706">
        <ele>378</ele>
        <time>2014-04-23T11:27:34Z</time>
      </trkpt>
      <trkpt lat="47.21321" lon="4.64706">
        <ele>378</ele>
        <time>2014-04-23T11:27:38Z</time>
      </trkpt>
      <trkpt lat="47.21317" lon="4.64709">
        <ele>378</ele>
        <time>2014-04-23T11:27:42Z</time>
      </trkpt>
      <trkpt lat="47.21311" lon="4.64709">
        <ele>378</ele>
        <time>2014-04-23T11:27:46Z</time>
      </trkpt>
      <trkpt lat="47.21307" lon="4.6471">
        <ele>378</ele>
        <time>2014-04-23T11:27:50Z</time>
      </trkpt>
      <trkpt lat="47.21301" lon="4.64711">
        <ele>378</ele>
        <time>2014-04-23T11:27:54Z</time>
      </trkpt>
      <trkpt lat="47.21297" lon="4.64711">
        <ele>378</ele>
        <time>2014-04-23T11:27:57Z</time>
      </trkpt>
      <trkpt lat="47.21292" lon="4.6471">
        <ele>378</ele>
        <time>2014-04-23T11:28:01Z</time>
      </trkpt>
      <trkpt lat="47.21287" lon="4.6471">
        <ele>378</ele>
        <time>2014-04-23T11:28:05Z</time>
      </trkpt>
      <trkpt lat="47.21281" lon="4.64711">
        <ele>378</ele>
        <time>2014-04-23T11:28:09Z</time>
      </trkpt>
      <trkpt lat="47.21276" lon="4.64712">
        <ele>378</ele>
        <time>2014-04-23T11:28:12Z</time>
      </trkpt>
      <trkpt lat="47.21271" lon="4.64713">
        <ele>378</ele>
        <time>2014-04-23T11:28:15Z</time>
      </trkpt>
      <trkpt lat="47.21266" lon="4.64715">
        <ele>378</ele>
        <time>2014-04-23T11:28:19Z</time>
      </trkpt>
      <trkpt lat="47.21261" lon="4.64718">
        <ele>379</ele>
        <time>2014-04-23T11:28:23Z</time>
      </trkpt>
      <trkpt lat="47.21255" lon="4.6472">
        <ele>379</ele>
        <time>2014-04-23T11:28:27Z</time>
      </trkpt>
      <trkpt lat="47.2125" lon="4.64722">
        <ele>379</ele>
        <time>2014-04-23T11:28:31Z</time>
      </trkpt>
      <trkpt lat="47.21246" lon="4.64723">
        <ele>378</ele>
        <time>2014-04-23T11:28:36Z</time>
      </trkpt>
      <trkpt lat="47.21241" lon="4.64723">
        <ele>378</ele>
        <time>2014-04-23T11:28:40Z</time>
      </trkpt>
      <trkpt lat="47.21236" lon="4.64724">
        <ele>378</ele>
        <time>2014-04-23T11:28:44Z</time>
      </trkpt>
      <trkpt lat="47.21231" lon="4.64727">
        <ele>378</ele>
        <time>2014-04-23T11:28:48Z</time>
      </trkpt>
      <trkpt lat="47.21227" lon="4.6473">
        <ele>378</ele>
        <time>2014-04-23T11:28:53Z</time>
      </trkpt>
      <trkpt lat="47.21221" lon="4.6473">
        <ele>378</ele>
        <time>2014-04-23T11:28:58Z</time>
      </trkpt>
      <trkpt lat="47.21216" lon="4.64735">
        <ele>378</ele>
        <time>2014-04-23T11:29:02Z</time>
      </trkpt>
      <trkpt lat="47.21211" lon="4.64739">
        <ele>378</ele>
        <time>2014-04-23T11:29:05Z</time>
      </trkpt>
      <trkpt lat="47.21208" lon="4.64742">
        <ele>378</ele>
        <time>2014-04-23T11:29:08Z</time>
      </trkpt>
      <trkpt lat="47.21203" lon="4.64746">
        <ele>378</ele>
        <time>2014-04-23T11:29:12Z</time>
      </trkpt>
      <trkpt lat="47.21201" lon="4.64753">
        <ele>383</ele>
        <time>2014-04-23T11:29:18Z</time>
      </trkpt>
      <trkpt lat="47.21197" lon="4.64757">
        <ele>383</ele>
        <time>2014-04-23T11:29:22Z</time>
      </trkpt>
      <trkpt lat="47.21192" lon="4.64761">
        <ele>383</ele>
        <time>2014-04-23T11:29:26Z</time>
      </trkpt>
      <trkpt lat="47.21188" lon="4.64764">
        <ele>382</ele>
        <time>2014-04-23T11:29:29Z</time>
      </trkpt>
      <trkpt lat="47.21183" lon="4.64768">
        <ele>383</ele>
        <time>2014-04-23T11:29:33Z</time>
      </trkpt>
      <trkpt lat="47.2118" lon="4.64774">
        <ele>383</ele>
        <time>2014-04-23T11:29:36Z</time>
      </trkpt>
      <trkpt lat="47.21176" lon="4.64778">
        <ele>383</ele>
        <time>2014-04-23T11:29:40Z</time>
      </trkpt>
      <trkpt lat="47.21172" lon="4.64781">
        <ele>383</ele>
        <time>2014-04-23T11:29:46Z</time>
      </trkpt>
      <trkpt lat="47.21168" lon="4.64785">
        <ele>384</ele>
        <time>2014-04-23T11:29:52Z</time>
      </trkpt>
      <trkpt lat="47.21165" lon="4.64788">
        <ele>383</ele>
        <time>2014-04-23T11:30:04Z</time>
      </trkpt>
      <trkpt lat="47.21162" lon="4.64794">
        <ele>383</ele>
        <time>2014-04-23T11:30:10Z</time>
      </trkpt>
      <trkpt lat="47.21158" lon="4.64799">
        <ele>384</ele>
        <time>2014-04-23T11:30:14Z</time>
      </trkpt>
      <trkpt lat="47.21152" lon="4.64802">
        <ele>384</ele>
        <time>2014-04-23T11:30:17Z</time>
      </trkpt>
      <trkpt lat="47.21146" lon="4.64802">
        <ele>384</ele>
        <time>2014-04-23T11:30:20Z</time>
      </trkpt>
      <trkpt lat="47.21142" lon="4.648">
        <ele>383</ele>
        <time>2014-04-23T11:30:23Z</time>
      </trkpt>
      <trkpt lat="47.21138" lon="4.64806">
        <ele>384</ele>
        <time>2014-04-23T11:30:27Z</time>
      </trkpt>
      <trkpt lat="47.21135" lon="4.64812">
        <ele>384</ele>
        <time>2014-04-23T11:30:31Z</time>
      </trkpt>
      <trkpt lat="47.2113" lon="4.64815">
        <ele>384</ele>
        <time>2014-04-23T11:30:36Z</time>
      </trkpt>
      <trkpt lat="47.21126" lon="4.64818">
        <ele>384</ele>
        <time>2014-04-23T11:30:41Z</time>
      </trkpt>
      <trkpt lat="47.21122" lon="4.64823">
        <ele>384</ele>
        <time>2014-04-23T11:30:45Z</time>
      </trkpt>
      <trkpt lat="47.21117" lon="4.64826">
        <ele>384</ele>
        <time>2014-04-23T11:30:48Z</time>
      </trkpt>
      <trkpt lat="47.21113" lon="4.64829">
        <ele>385</ele>
        <time>2014-04-23T11:30:52Z</time>
      </trkpt>
      <trkpt lat="47.21108" lon="4.64833">
        <ele>385</ele>
        <time>2014-04-23T11:30:57Z</time>
      </trkpt>
      <trkpt lat="47.21103" lon="4.64835">
        <ele>390</ele>
        <time>2014-04-23T11:31:03Z</time>
      </trkpt>
      <trkpt lat="47.21098" lon="4.64835">
        <ele>390</ele>
        <time>2014-04-23T11:31:06Z</time>
      </trkpt>
      <trkpt lat="47.21096" lon="4.64839">
        <ele>390</ele>
        <time>2014-04-23T11:31:26Z</time>
      </trkpt>
      <trkpt lat="47.21092" lon="4.64842">
        <ele>389</ele>
        <time>2014-04-23T11:31:31Z</time>
      </trkpt>
      <trkpt lat="47.21087" lon="4.64846">
        <ele>390</ele>
        <time>2014-04-23T11:31:36Z</time>
      </trkpt>
      <trkpt lat="47.21082" lon="4.6485">
        <ele>390</ele>
        <time>2014-04-23T11:31:39Z</time>
      </trkpt>
      <trkpt lat="47.21078" lon="4.64854">
        <ele>391</ele>
        <time>2014-04-23T11:31:42Z</time>
      </trkpt>
      <trkpt lat="47.21073" lon="4.64858">
        <ele>391</ele>
        <time>2014-04-23T11:31:46Z</time>
      </trkpt>
      <trkpt lat="47.21068" lon="4.64861">
        <ele>392</ele>
        <time>2014-04-23T11:31:51Z</time>
      </trkpt>
      <trkpt lat="47.21063" lon="4.64865">
        <ele>392</ele>
        <time>2014-04-23T11:32:00Z</time>
      </trkpt>
      <trkpt lat="47.21058" lon="4.64869">
        <ele>393</ele>
        <time>2014-04-23T11:32:04Z</time>
      </trkpt>
      <trkpt lat="47.21054" lon="4.64873">
        <ele>393</ele>
        <time>2014-04-23T11:32:07Z</time>
      </trkpt>
      <trkpt lat="47.21049" lon="4.64877">
        <ele>393</ele>
        <time>2014-04-23T11:32:11Z</time>
      </trkpt>
      <trkpt lat="47.21044" lon="4.64878">
        <ele>393</ele>
        <time>2014-04-23T11:32:15Z</time>
      </trkpt>
      <trkpt lat="47.2104" lon="4.6488">
        <ele>393</ele>
        <time>2014-04-23T11:32:19Z</time>
      </trkpt>
      <trkpt lat="47.21033" lon="4.64882">
        <ele>393</ele>
        <time>2014-04-23T11:32:32Z</time>
      </trkpt>
      <trkpt lat="47.21028" lon="4.64883">
        <ele>393</ele>
        <time>2014-04-23T11:32:37Z</time>
      </trkpt>
      <trkpt lat="47.21023" lon="4.64886">
        <ele>394</ele>
        <time>2014-04-23T11:32:41Z</time>
      </trkpt>
      <trkpt lat="47.21019" lon="4.6489">
        <ele>394</ele>
        <time>2014-04-23T11:32:45Z</time>
      </trkpt>
      <trkpt lat="47.21016" lon="4.64896">
        <ele>394</ele>
        <time>2014-04-23T11:32:52Z</time>
      </trkpt>
      <trkpt lat="47.21012" lon="4.649">
        <ele>395</ele>
        <time>2014-04-23T11:32:56Z</time>
      </trkpt>
      <trkpt lat="47.21007" lon="4.64905">
        <ele>395</ele>
        <time>2014-04-23T11:33:00Z</time>
      </trkpt>
      <trkpt lat="47.21004" lon="4.64909">
        <ele>396</ele>
        <time>2014-04-23T11:33:05Z</time>
      </trkpt>
      <trkpt lat="47.21" lon="4.64913">
        <ele>396</ele>
        <time>2014-04-23T11:33:09Z</time>
      </trkpt>
      <trkpt lat="47.20995" lon="4.64914">
        <ele>396</ele>
        <time>2014-04-23T11:33:14Z</time>
      </trkpt>
      <trkpt lat="47.20987" lon="4.64917">
        <ele>400</ele>
        <time>2014-04-23T11:33:20Z</time>
      </trkpt>
      <trkpt lat="47.20983" lon="4.64921">
        <ele>400</ele>
        <time>2014-04-23T11:33:23Z</time>
      </trkpt>
      <trkpt lat="47.20978" lon="4.64927">
        <ele>401</ele>
        <time>2014-04-23T11:33:39Z</time>
      </trkpt>
      <trkpt lat="47.20973" lon="4.64927">
        <ele>401</ele>
        <time>2014-04-23T11:33:47Z</time>
      </trkpt>
      <trkpt lat="47.20969" lon="4.6493">
        <ele>402</ele>
        <time>2014-04-23T11:33:51Z</time>
      </trkpt>
      <trkpt lat="47.20964" lon="4.64934">
        <ele>402</ele>
        <time>2014-04-23T11:33:55Z</time>
      </trkpt>
      <trkpt lat="47.20959" lon="4.64935">
        <ele>402</ele>
        <time>2014-04-23T11:33:59Z</time>
      </trkpt>
      <trkpt lat="47.20955" lon="4.64935">
        <ele>402</ele>
        <time>2014-04-23T11:34:05Z</time>
      </trkpt>
      <trkpt lat="47.2095" lon="4.64938">
        <ele>402</ele>
        <time>2014-04-23T11:34:10Z</time>
      </trkpt>
      <trkpt lat="47.20944" lon="4.64942">
        <ele>402</ele>
        <time>2014-04-23T11:34:14Z</time>
      </trkpt>
      <trkpt lat="47.2094" lon="4.64945">
        <ele>402</ele>
        <time>2014-04-23T11:34:19Z</time>
      </trkpt>
      <trkpt lat="47.20935" lon="4.64948">
        <ele>403</ele>
        <time>2014-04-23T11:34:25Z</time>
      </trkpt>
      <trkpt lat="47.20931" lon="4.64952">
        <ele>403</ele>
        <time>2014-04-23T11:34:30Z</time>
      </trkpt>
      <trkpt lat="47.20935" lon="4.64955">
        <ele>403</ele>
        <time>2014-04-23T11:34:38Z</time>
      </trkpt>
      <trkpt lat="47.20936" lon="4.64954">
        <ele>403</ele>
        <time>2014-04-23T11:35:35Z</time>
      </trkpt>
      <trkpt lat="47.20936" lon="4.64949">
        <ele>403</ele>
        <time>2014-04-23T11:35:48Z</time>
      </trkpt>
      <trkpt lat="47.20931" lon="4.64951">
        <ele>403</ele>
        <time>2014-04-23T11:36:10Z</time>
      </trkpt>
      <trkpt lat="47.20927" lon="4.6495">
        <ele>403</ele>
        <time>2014-04-23T11:36:16Z</time>
      </trkpt>
      <trkpt lat="47.20921" lon="4.64949">
        <ele>402</ele>
        <time>2014-04-23T11:36:22Z</time>
      </trkpt>
      <trkpt lat="47.20917" lon="4.64949">
        <ele>402</ele>
        <time>2014-04-23T11:36:26Z</time>
      </trkpt>
      <trkpt lat="47.20911" lon="4.6495">
        <ele>402</ele>
        <time>2014-04-23T11:36:31Z</time>
      </trkpt>
      <trkpt lat="47.20906" lon="4.64951">
        <ele>402</ele>
        <time>2014-04-23T11:36:35Z</time>
      </trkpt>
      <trkpt lat="47.20901" lon="4.64954">
        <ele>403</ele>
        <time>2014-04-23T11:36:39Z</time>
      </trkpt>
      <trkpt lat="47.20896" lon="4.64955">
        <ele>403</ele>
        <time>2014-04-23T11:36:43Z</time>
      </trkpt>
      <trkpt lat="47.20892" lon="4.64952">
        <ele>403</ele>
        <time>2014-04-23T11:36:49Z</time>
      </trkpt>
      <trkpt lat="47.20886" lon="4.64956">
        <ele>403</ele>
        <time>2014-04-23T11:36:54Z</time>
      </trkpt>
      <trkpt lat="47.20883" lon="4.6496">
        <ele>403</ele>
        <time>2014-04-23T11:36:57Z</time>
      </trkpt>
      <trkpt lat="47.20879" lon="4.64966">
        <ele>404</ele>
        <time>2014-04-23T11:37:01Z</time>
      </trkpt>
      <trkpt lat="47.20877" lon="4.64972">
        <ele>404</ele>
        <time>2014-04-23T11:37:06Z</time>
      </trkpt>
      <trkpt lat="47.20873" lon="4.64978">
        <ele>404</ele>
        <time>2014-04-23T11:37:13Z</time>
      </trkpt>
      <trkpt lat="47.2087" lon="4.64983">
        <ele>405</ele>
        <time>2014-04-23T11:37:16Z</time>
      </trkpt>
      <trkpt lat="47.20866" lon="4.64988">
        <ele>405</ele>
        <time>2014-04-23T11:37:20Z</time>
      </trkpt>
      <trkpt lat="47.20861" lon="4.64993">
        <ele>405</ele>
        <time>2014-04-23T11:37:24Z</time>
      </trkpt>
      <trkpt lat="47.20858" lon="4.64998">
        <ele>406</ele>
        <time>2014-04-23T11:37:27Z</time>
      </trkpt>
      <trkpt lat="47.20854" lon="4.65002">
        <ele>412</ele>
        <time>2014-04-23T11:37:30Z</time>
      </trkpt>
      <trkpt lat="47.20849" lon="4.65006">
        <ele>412</ele>
        <time>2014-04-23T11:37:33Z</time>
      </trkpt>
      <trkpt lat="47.20843" lon="4.65009">
        <ele>412</ele>
        <time>2014-04-23T11:37:36Z</time>
      </trkpt>
      <trkpt lat="47.20839" lon="4.65013">
        <ele>412</ele>
        <time>2014-04-23T11:37:41Z</time>
      </trkpt>
      <trkpt lat="47.20835" lon="4.65018">
        <ele>413</ele>
        <time>2014-04-23T11:37:46Z</time>
      </trkpt>
      <trkpt lat="47.20831" lon="4.65024">
        <ele>412</ele>
        <time>2014-04-23T11:37:50Z</time>
      </trkpt>
      <trkpt lat="47.20828" lon="4.65029">
        <ele>413</ele>
        <time>2014-04-23T11:37:53Z</time>
      </trkpt>
      <trkpt lat="47.20825" lon="4.65036">
        <ele>414</ele>
        <time>2014-04-23T11:37:57Z</time>
      </trkpt>
      <trkpt lat="47.2082" lon="4.65039">
        <ele>414</ele>
        <time>2014-04-23T11:38:02Z</time>
      </trkpt>
      <trkpt lat="47.20815" lon="4.65039">
        <ele>414</ele>
        <time>2014-04-23T11:38:08Z</time>
      </trkpt>
      <trkpt lat="47.2081" lon="4.65043">
        <ele>414</ele>
        <time>2014-04-23T11:38:14Z</time>
      </trkpt>
      <trkpt lat="47.20806" lon="4.65046">
        <ele>414</ele>
        <time>2014-04-23T11:38:18Z</time>
      </trkpt>
      <trkpt lat="47.208" lon="4.65046">
        <ele>414</ele>
        <time>2014-04-23T11:38:22Z</time>
      </trkpt>
      <trkpt lat="47.20795" lon="4.65047">
        <ele>414</ele>
        <time>2014-04-23T11:38:26Z</time>
      </trkpt>
      <trkpt lat="47.20788" lon="4.65055">
        <ele>415</ele>
        <time>2014-04-23T11:38:36Z</time>
      </trkpt>
      <trkpt lat="47.20784" lon="4.65061">
        <ele>415</ele>
        <time>2014-04-23T11:38:42Z</time>
      </trkpt>
      <trkpt lat="47.2078" lon="4.65063">
        <ele>415</ele>
        <time>2014-04-23T11:38:45Z</time>
      </trkpt>
      <trkpt lat="47.20775" lon="4.65066">
        <ele>416</ele>
        <time>2014-04-23T11:38:48Z</time>
      </trkpt>
      <trkpt lat="47.20771" lon="4.65071">
        <ele>416</ele>
        <time>2014-04-23T11:38:51Z</time>
      </trkpt>
      <trkpt lat="47.20767" lon="4.65074">
        <ele>416</ele>
        <time>2014-04-23T11:38:55Z</time>
      </trkpt>
      <trkpt lat="47.20761" lon="4.65075">
        <ele>417</ele>
        <time>2014-04-23T11:38:59Z</time>
      </trkpt>
      <trkpt lat="47.20756" lon="4.6508">
        <ele>418</ele>
        <time>2014-04-23T11:39:02Z</time>
      </trkpt>
      <trkpt lat="47.20751" lon="4.65082">
        <ele>419</ele>
        <time>2014-04-23T11:39:05Z</time>
      </trkpt>
      <trkpt lat="47.20744" lon="4.65091">
        <ele>420</ele>
        <time>2014-04-23T11:39:12Z</time>
      </trkpt>
      <trkpt lat="47.20739" lon="4.65101">
        <ele>421</ele>
        <time>2014-04-23T11:39:19Z</time>
      </trkpt>
      <trkpt lat="47.20735" lon="4.65104">
        <ele>421</ele>
        <time>2014-04-23T11:39:24Z</time>
      </trkpt>
      <trkpt lat="47.2073" lon="4.65108">
        <ele>422</ele>
        <time>2014-04-23T11:39:29Z</time>
      </trkpt>
      <trkpt lat="47.20726" lon="4.65112">
        <ele>422</ele>
        <time>2014-04-23T11:39:34Z</time>
      </trkpt>
      <trkpt lat="47.20722" lon="4.65117">
        <ele>422</ele>
        <time>2014-04-23T11:39:40Z</time>
      </trkpt>
      <trkpt lat="47.2072" lon="4.65122">
        <ele>422</ele>
        <time>2014-04-23T11:39:46Z</time>
      </trkpt>
      <trkpt lat="47.20719" lon="4.6513">
        <ele>423</ele>
        <time>2014-04-23T11:39:53Z</time>
      </trkpt>
      <trkpt lat="47.20716" lon="4.65135">
        <ele>423</ele>
        <time>2014-04-23T11:39:57Z</time>
      </trkpt>
      <trkpt lat="47.20711" lon="4.65139">
        <ele>423</ele>
        <time>2014-04-23T11:40:00Z</time>
      </trkpt>
      <trkpt lat="47.20707" lon="4.65143">
        <ele>423</ele>
        <time>2014-04-23T11:40:03Z</time>
      </trkpt>
      <trkpt lat="47.20703" lon="4.65146">
        <ele>423</ele>
        <time>2014-04-23T11:40:07Z</time>
      </trkpt>
      <trkpt lat="47.207" lon="4.65156">
        <ele>424</ele>
        <time>2014-04-23T11:40:15Z</time>
      </trkpt>
      <trkpt lat="47.20699" lon="4.65164">
        <ele>424</ele>
        <time>2014-04-23T11:40:20Z</time>
      </trkpt>
      <trkpt lat="47.20693" lon="4.65171">
        <ele>430</ele>
        <time>2014-04-23T11:40:28Z</time>
      </trkpt>
      <trkpt lat="47.20691" lon="4.65177">
        <ele>430</ele>
        <time>2014-04-23T11:40:35Z</time>
      </trkpt>
      <trkpt lat="47.2069" lon="4.65184">
        <ele>430</ele>
        <time>2014-04-23T11:40:40Z</time>
      </trkpt>
      <trkpt lat="47.20682" lon="4.65196">
        <ele>431</ele>
        <time>2014-04-23T11:40:54Z</time>
      </trkpt>
      <trkpt lat="47.20679" lon="4.6521">
        <ele>431</ele>
        <time>2014-04-23T11:40:59Z</time>
      </trkpt>
      <trkpt lat="47.2067" lon="4.6522">
        <ele>432</ele>
        <time>2014-04-23T11:41:04Z</time>
      </trkpt>
      <trkpt lat="47.20663" lon="4.65229">
        <ele>428</ele>
        <time>2014-04-23T11:41:10Z</time>
      </trkpt>
      <trkpt lat="47.2066" lon="4.65242">
        <ele>431</ele>
        <time>2014-04-23T11:41:20Z</time>
      </trkpt>
      <trkpt lat="47.20659" lon="4.65248">
        <ele>432</ele>
        <time>2014-04-23T11:41:33Z</time>
      </trkpt>
      <trkpt lat="47.20664" lon="4.65251">
        <ele>434</ele>
        <time>2014-04-23T11:41:39Z</time>
      </trkpt>
      <trkpt lat="47.20662" lon="4.65254">
        <ele>434</ele>
        <time>2014-04-23T11:41:50Z</time>
      </trkpt>
      <trkpt lat="47.20658" lon="4.65258">
        <ele>434</ele>
        <time>2014-04-23T11:41:54Z</time>
      </trkpt>
      <trkpt lat="47.20653" lon="4.65262">
        <ele>435</ele>
        <time>2014-04-23T11:41:57Z</time>
      </trkpt>
      <trkpt lat="47.2065" lon="4.65266">
        <ele>435</ele>
        <time>2014-04-23T11:42:00Z</time>
      </trkpt>
      <trkpt lat="47.20648" lon="4.65273">
        <ele>435</ele>
        <time>2014-04-23T11:42:06Z</time>
      </trkpt>
      <trkpt lat="47.20646" lon="4.65279">
        <ele>436</ele>
        <time>2014-04-23T11:42:14Z</time>
      </trkpt>
      <trkpt lat="47.20642" lon="4.65285">
        <ele>436</ele>
        <time>2014-04-23T11:42:18Z</time>
      </trkpt>
      <trkpt lat="47.20641" lon="4.65288">
        <ele>436</ele>
        <time>2014-04-23T11:42:24Z</time>
      </trkpt>
      <trkpt lat="47.20641" lon="4.65303">
        <ele>437</ele>
        <time>2014-04-23T11:42:41Z</time>
      </trkpt>
      <trkpt lat="47.20639" lon="4.65316">
        <ele>438</ele>
        <time>2014-04-23T11:42:51Z</time>
      </trkpt>
      <trkpt lat="47.20633" lon="4.65322">
        <ele>438</ele>
        <time>2014-04-23T11:42:56Z</time>
      </trkpt>
      <trkpt lat="47.20627" lon="4.65332">
        <ele>438</ele>
        <time>2014-04-23T11:43:04Z</time>
      </trkpt>
      <trkpt lat="47.20619" lon="4.65339">
        <ele>446</ele>
        <time>2014-04-23T11:43:10Z</time>
      </trkpt>
      <trkpt lat="47.2061" lon="4.65342">
        <ele>444</ele>
        <time>2014-04-23T11:43:16Z</time>
      </trkpt>
      <trkpt lat="47.20603" lon="4.65352">
        <ele>444</ele>
        <time>2014-04-23T11:43:23Z</time>
      </trkpt>
      <trkpt lat="47.20594" lon="4.65358">
        <ele>444</ele>
        <time>2014-04-23T11:43:33Z</time>
      </trkpt>
      <trkpt lat="47.20593" lon="4.65377">
        <ele>446</ele>
        <time>2014-04-23T11:43:52Z</time>
      </trkpt>
      <trkpt lat="47.20586" lon="4.65384">
        <ele>447</ele>
        <time>2014-04-23T11:43:58Z</time>
      </trkpt>
      <trkpt lat="47.20582" lon="4.65388">
        <ele>437</ele>
        <time>2014-04-23T11:44:01Z</time>
      </trkpt>
      <trkpt lat="47.20578" lon="4.65392">
        <ele>438</ele>
        <time>2014-04-23T11:44:04Z</time>
      </trkpt>
      <trkpt lat="47.20574" lon="4.65397">
        <ele>438</ele>
        <time>2014-04-23T11:44:07Z</time>
      </trkpt>
      <trkpt lat="47.20573" lon="4.65404">
        <ele>440</ele>
        <time>2014-04-23T11:44:12Z</time>
      </trkpt>
      <trkpt lat="47.20574" lon="4.65413">
        <ele>441</ele>
        <time>2014-04-23T11:44:16Z</time>
      </trkpt>
      <trkpt lat="47.20575" lon="4.6542">
        <ele>445</ele>
        <time>2014-04-23T11:44:20Z</time>
      </trkpt>
      <trkpt lat="47.20573" lon="4.65427">
        <ele>445</ele>
        <time>2014-04-23T11:44:25Z</time>
      </trkpt>
      <trkpt lat="47.20568" lon="4.65432">
        <ele>444</ele>
        <time>2014-04-23T11:44:29Z</time>
      </trkpt>
      <trkpt lat="47.20562" lon="4.65437">
        <ele>444</ele>
        <time>2014-04-23T11:44:33Z</time>
      </trkpt>
      <trkpt lat="47.20558" lon="4.65443">
        <ele>444</ele>
        <time>2014-04-23T11:44:37Z</time>
      </trkpt>
      <trkpt lat="47.20551" lon="4.65451">
        <ele>444</ele>
        <time>2014-04-23T11:44:44Z</time>
      </trkpt>
      <trkpt lat="47.20543" lon="4.65459">
        <ele>444</ele>
        <time>2014-04-23T11:44:51Z</time>
      </trkpt>
      <trkpt lat="47.20542" lon="4.65473">
        <ele>444</ele>
        <time>2014-04-23T11:44:57Z</time>
      </trkpt>
      <trkpt lat="47.20541" lon="4.65483">
        <ele>445</ele>
        <time>2014-04-23T11:45:03Z</time>
      </trkpt>
      <trkpt lat="47.20543" lon="4.65491">
        <ele>445</ele>
        <time>2014-04-23T11:45:08Z</time>
      </trkpt>
      <trkpt lat="47.20543" lon="4.65499">
        <ele>446</ele>
        <time>2014-04-23T11:45:13Z</time>
      </trkpt>
      <trkpt lat="47.20538" lon="4.65497">
        <ele>445</ele>
        <time>2014-04-23T11:45:17Z</time>
      </trkpt>
      <trkpt lat="47.20532" lon="4.655">
        <ele>451</ele>
        <time>2014-04-23T11:45:30Z</time>
      </trkpt>
      <trkpt lat="47.2053" lon="4.65508">
        <ele>451</ele>
        <time>2014-04-23T11:45:34Z</time>
      </trkpt>
      <trkpt lat="47.20529" lon="4.65515">
        <ele>451</ele>
        <time>2014-04-23T11:45:41Z</time>
      </trkpt>
      <trkpt lat="47.20527" lon="4.65521">
        <ele>451</ele>
        <time>2014-04-23T11:45:46Z</time>
      </trkpt>
      <trkpt lat="47.20523" lon="4.65526">
        <ele>451</ele>
        <time>2014-04-23T11:45:51Z</time>
      </trkpt>
      <trkpt lat="47.20518" lon="4.65529">
        <ele>451</ele>
        <time>2014-04-23T11:45:56Z</time>
      </trkpt>
      <trkpt lat="47.20515" lon="4.65534">
        <ele>451</ele>
        <time>2014-04-23T11:46:01Z</time>
      </trkpt>
      <trkpt lat="47.20511" lon="4.65539">
        <ele>451</ele>
        <time>2014-04-23T11:46:04Z</time>
      </trkpt>
      <trkpt lat="47.20507" lon="4.65543">
        <ele>451</ele>
        <time>2014-04-23T11:46:07Z</time>
      </trkpt>
      <trkpt lat="47.20504" lon="4.65549">
        <ele>452</ele>
        <time>2014-04-23T11:46:11Z</time>
      </trkpt>
      <trkpt lat="47.20505" lon="4.65558">
        <ele>452</ele>
        <time>2014-04-23T11:46:14Z</time>
      </trkpt>
      <trkpt lat="47.20507" lon="4.65567">
        <ele>452</ele>
        <time>2014-04-23T11:46:17Z</time>
      </trkpt>
      <trkpt lat="47.20505" lon="4.65573">
        <ele>451</ele>
        <time>2014-04-23T11:46:21Z</time>
      </trkpt>
      <trkpt lat="47.205" lon="4.65578">
        <ele>450</ele>
        <time>2014-04-23T11:46:25Z</time>
      </trkpt>
      <trkpt lat="47.20498" lon="4.65584">
        <ele>449</ele>
        <time>2014-04-23T11:46:29Z</time>
      </trkpt>
      <trkpt lat="47.20493" lon="4.65592">
        <ele>448</ele>
        <time>2014-04-23T11:46:35Z</time>
      </trkpt>
      <trkpt lat="47.20489" lon="4.65596">
        <ele>447</ele>
        <time>2014-04-23T11:46:40Z</time>
      </trkpt>
      <trkpt lat="47.20481" lon="4.65605">
        <ele>446</ele>
        <time>2014-04-23T11:46:48Z</time>
      </trkpt>
      <trkpt lat="47.20477" lon="4.6562">
        <ele>446</ele>
        <time>2014-04-23T11:46:53Z</time>
      </trkpt>
      <trkpt lat="47.20473" lon="4.65634">
        <ele>447</ele>
        <time>2014-04-23T11:46:57Z</time>
      </trkpt>
      <trkpt lat="47.20467" lon="4.65645">
        <ele>447</ele>
        <time>2014-04-23T11:47:06Z</time>
      </trkpt>
      <trkpt lat="47.20462" lon="4.65656">
        <ele>447</ele>
        <time>2014-04-23T11:47:16Z</time>
      </trkpt>
      <trkpt lat="47.20463" lon="4.65669">
        <ele>453</ele>
        <time>2014-04-23T11:47:28Z</time>
      </trkpt>
      <trkpt lat="47.20456" lon="4.6568">
        <ele>452</ele>
        <time>2014-04-23T11:47:34Z</time>
      </trkpt>
      <trkpt lat="47.20452" lon="4.65693">
        <ele>452</ele>
        <time>2014-04-23T11:47:40Z</time>
      </trkpt>
      <trkpt lat="47.20449" lon="4.657">
        <ele>452</ele>
        <time>2014-04-23T11:47:45Z</time>
      </trkpt>
      <trkpt lat="47.20444" lon="4.65703">
        <ele>451</ele>
        <time>2014-04-23T11:47:49Z</time>
      </trkpt>
      <trkpt lat="47.2044" lon="4.65707">
        <ele>451</ele>
        <time>2014-04-23T11:47:52Z</time>
      </trkpt>
      <trkpt lat="47.20438" lon="4.65714">
        <ele>451</ele>
        <time>2014-04-23T11:47:57Z</time>
      </trkpt>
      <trkpt lat="47.2044" lon="4.65722">
        <ele>452</ele>
        <time>2014-04-23T11:48:10Z</time>
      </trkpt>
      <trkpt lat="47.20436" lon="4.65728">
        <ele>451</ele>
        <time>2014-04-23T11:48:15Z</time>
      </trkpt>
      <trkpt lat="47.20435" lon="4.65734">
        <ele>451</ele>
        <time>2014-04-23T11:48:21Z</time>
      </trkpt>
      <trkpt lat="47.20433" lon="4.65738">
        <ele>451</ele>
        <time>2014-04-23T11:48:29Z</time>
      </trkpt>
      <trkpt lat="47.20431" lon="4.65744">
        <ele>450</ele>
        <time>2014-04-23T11:48:36Z</time>
      </trkpt>
      <trkpt lat="47.20428" lon="4.65749">
        <ele>449</ele>
        <time>2014-04-23T11:48:40Z</time>
      </trkpt>
      <trkpt lat="47.20425" lon="4.65755">
        <ele>451</ele>
        <time>2014-04-23T11:48:44Z</time>
      </trkpt>
      <trkpt lat="47.20423" lon="4.65762">
        <ele>453</ele>
        <time>2014-04-23T11:48:48Z</time>
      </trkpt>
      <trkpt lat="47.20422" lon="4.6577">
        <ele>455</ele>
        <time>2014-04-23T11:48:52Z</time>
      </trkpt>
      <trkpt lat="47.20421" lon="4.65777">
        <ele>457</ele>
        <time>2014-04-23T11:48:56Z</time>
      </trkpt>
      <trkpt lat="47.20418" lon="4.65783">
        <ele>458</ele>
        <time>2014-04-23T11:49:01Z</time>
      </trkpt>
      <trkpt lat="47.20416" lon="4.6579">
        <ele>444</ele>
        <time>2014-04-23T11:49:06Z</time>
      </trkpt>
      <trkpt lat="47.20415" lon="4.65797">
        <ele>444</ele>
        <time>2014-04-23T11:49:10Z</time>
      </trkpt>
      <trkpt lat="47.20411" lon="4.65803">
        <ele>445</ele>
        <time>2014-04-23T11:49:15Z</time>
      </trkpt>
      <trkpt lat="47.20407" lon="4.65809">
        <ele>445</ele>
        <time>2014-04-23T11:49:20Z</time>
      </trkpt>
      <trkpt lat="47.20405" lon="4.65816">
        <ele>446</ele>
        <time>2014-04-23T11:49:25Z</time>
      </trkpt>
      <trkpt lat="47.20404" lon="4.65822">
        <ele>447</ele>
        <time>2014-04-23T11:49:30Z</time>
      </trkpt>
      <trkpt lat="47.20403" lon="4.65829">
        <ele>448</ele>
        <time>2014-04-23T11:49:35Z</time>
      </trkpt>
      <trkpt lat="47.20403" lon="4.65836">
        <ele>451</ele>
        <time>2014-04-23T11:49:40Z</time>
      </trkpt>
      <trkpt lat="47.20399" lon="4.65843">
        <ele>450</ele>
        <time>2014-04-23T11:49:43Z</time>
      </trkpt>
      <trkpt lat="47.20397" lon="4.65849">
        <ele>450</ele>
        <time>2014-04-23T11:49:46Z</time>
      </trkpt>
      <trkpt lat="47.20393" lon="4.65855">
        <ele>449</ele>
        <time>2014-04-23T11:49:49Z</time>
      </trkpt>
      <trkpt lat="47.2039" lon="4.65859">
        <ele>448</ele>
        <time>2014-04-23T11:49:52Z</time>
      </trkpt>
      <trkpt lat="47.20387" lon="4.65866">
        <ele>448</ele>
        <time>2014-04-23T11:49:56Z</time>
      </trkpt>
      <trkpt lat="47.20385" lon="4.65872">
        <ele>448</ele>
        <time>2014-04-23T11:50:00Z</time>
      </trkpt>
      <trkpt lat="47.20383" lon="4.65881">
        <ele>448</ele>
        <time>2014-04-23T11:50:10Z</time>
      </trkpt>
      <trkpt lat="47.20381" lon="4.65888">
        <ele>448</ele>
        <time>2014-04-23T11:50:15Z</time>
      </trkpt>
      <trkpt lat="47.20377" lon="4.65893">
        <ele>448</ele>
        <time>2014-04-23T11:50:20Z</time>
      </trkpt>
      <trkpt lat="47.20376" lon="4.659">
        <ele>448</ele>
        <time>2014-04-23T11:50:27Z</time>
      </trkpt>
      <trkpt lat="47.20376" lon="4.65908">
        <ele>448</ele>
        <time>2014-04-23T11:50:35Z</time>
      </trkpt>
      <trkpt lat="47.20374" lon="4.65915">
        <ele>448</ele>
        <time>2014-04-23T11:50:39Z</time>
      </trkpt>
      <trkpt lat="47.20372" lon="4.65922">
        <ele>453</ele>
        <time>2014-04-23T11:50:43Z</time>
      </trkpt>
      <trkpt lat="47.20369" lon="4.65928">
        <ele>452</ele>
        <time>2014-04-23T11:50:46Z</time>
      </trkpt>
      <trkpt lat="47.20366" lon="4.65934">
        <ele>452</ele>
        <time>2014-04-23T11:50:49Z</time>
      </trkpt>
      <trkpt lat="47.20363" lon="4.65939">
        <ele>452</ele>
        <time>2014-04-23T11:50:52Z</time>
      </trkpt>
      <trkpt lat="47.2036" lon="4.65945">
        <ele>451</ele>
        <time>2014-04-23T11:50:56Z</time>
      </trkpt>
      <trkpt lat="47.20357" lon="4.65952">
        <ele>452</ele>
        <time>2014-04-23T11:51:01Z</time>
      </trkpt>
      <trkpt lat="47.20356" lon="4.65961">
        <ele>452</ele>
        <time>2014-04-23T11:51:06Z</time>
      </trkpt>
      <trkpt lat="47.20354" lon="4.65967">
        <ele>452</ele>
        <time>2014-04-23T11:51:10Z</time>
      </trkpt>
      <trkpt lat="47.2035" lon="4.6597">
        <ele>452</ele>
        <time>2014-04-23T11:51:17Z</time>
      </trkpt>
      <trkpt lat="47.20346" lon="4.65975">
        <ele>451</ele>
        <time>2014-04-23T11:51:22Z</time>
      </trkpt>
      <trkpt lat="47.20344" lon="4.65982">
        <ele>451</ele>
        <time>2014-04-23T11:51:26Z</time>
      </trkpt>
      <trkpt lat="47.20341" lon="4.65989">
        <ele>450</ele>
        <time>2014-04-23T11:51:31Z</time>
      </trkpt>
      <trkpt lat="47.20339" lon="4.65996">
        <ele>449</ele>
        <time>2014-04-23T11:51:35Z</time>
      </trkpt>
      <trkpt lat="47.20337" lon="4.66002">
        <ele>449</ele>
        <time>2014-04-23T11:51:38Z</time>
      </trkpt>
      <trkpt lat="47.20334" lon="4.6601">
        <ele>452</ele>
        <time>2014-04-23T11:51:42Z</time>
      </trkpt>
      <trkpt lat="47.20332" lon="4.66016">
        <ele>444</ele>
        <time>2014-04-23T11:51:45Z</time>
      </trkpt>
      <trkpt lat="47.20329" lon="4.66021">
        <ele>443</ele>
        <time>2014-04-23T11:51:49Z</time>
      </trkpt>
      <trkpt lat="47.20327" lon="4.66029">
        <ele>443</ele>
        <time>2014-04-23T11:51:53Z</time>
      </trkpt>
      <trkpt lat="47.20326" lon="4.66036">
        <ele>443</ele>
        <time>2014-04-23T11:51:58Z</time>
      </trkpt>
      <trkpt lat="47.20325" lon="4.6604">
        <ele>443</ele>
        <time>2014-04-23T11:52:06Z</time>
      </trkpt>
      <trkpt lat="47.20325" lon="4.66048">
        <ele>444</ele>
        <time>2014-04-23T11:52:12Z</time>
      </trkpt>
      <trkpt lat="47.20326" lon="4.66053">
        <ele>444</ele>
        <time>2014-04-23T11:52:19Z</time>
      </trkpt>
      <trkpt lat="47.20321" lon="4.66055">
        <ele>444</ele>
        <time>2014-04-23T11:52:32Z</time>
      </trkpt>
      <trkpt lat="47.20323" lon="4.66062">
        <ele>445</ele>
        <time>2014-04-23T11:52:38Z</time>
      </trkpt>
      <trkpt lat="47.20326" lon="4.66076">
        <ele>449</ele>
        <time>2014-04-23T11:52:47Z</time>
      </trkpt>
      <trkpt lat="47.20326" lon="4.66084">
        <ele>451</ele>
        <time>2014-04-23T11:52:51Z</time>
      </trkpt>
      <trkpt lat="47.20323" lon="4.66091">
        <ele>450</ele>
        <time>2014-04-23T11:52:54Z</time>
      </trkpt>
      <trkpt lat="47.20322" lon="4.66099">
        <ele>449</ele>
        <time>2014-04-23T11:52:58Z</time>
      </trkpt>
      <trkpt lat="47.20321" lon="4.66106">
        <ele>448</ele>
        <time>2014-04-23T11:53:02Z</time>
      </trkpt>
      <trkpt lat="47.20322" lon="4.66115">
        <ele>448</ele>
        <time>2014-04-23T11:53:06Z</time>
      </trkpt>
      <trkpt lat="47.20324" lon="4.66123">
        <ele>448</ele>
        <time>2014-04-23T11:53:10Z</time>
      </trkpt>
      <trkpt lat="47.20325" lon="4.66131">
        <ele>448</ele>
        <time>2014-04-23T11:53:14Z</time>
      </trkpt>
      <trkpt lat="47.20326" lon="4.66139">
        <ele>449</ele>
        <time>2014-04-23T11:53:19Z</time>
      </trkpt>
      <trkpt lat="47.20328" lon="4.66138">
        <ele>449</ele>
        <time>2014-04-23T11:53:30Z</time>
      </trkpt>
      <trkpt lat="47.20328" lon="4.66145">
        <ele>450</ele>
        <time>2014-04-23T11:53:36Z</time>
      </trkpt>
      <trkpt lat="47.20327" lon="4.66152">
        <ele>451</ele>
        <time>2014-04-23T11:53:42Z</time>
      </trkpt>
      <trkpt lat="47.20325" lon="4.66158">
        <ele>452</ele>
        <time>2014-04-23T11:53:46Z</time>
      </trkpt>
      <trkpt lat="47.20323" lon="4.66166">
        <ele>453</ele>
        <time>2014-04-23T11:53:50Z</time>
      </trkpt>
      <trkpt lat="47.20322" lon="4.66173">
        <ele>453</ele>
        <time>2014-04-23T11:53:54Z</time>
      </trkpt>
      <trkpt lat="47.20324" lon="4.66184">
        <ele>452</ele>
        <time>2014-04-23T11:54:15Z</time>
      </trkpt>
      <trkpt lat="47.20325" lon="4.66198">
        <ele>451</ele>
        <time>2014-04-23T11:54:25Z</time>
      </trkpt>
      <trkpt lat="47.20321" lon="4.66212">
        <ele>451</ele>
        <time>2014-04-23T11:54:34Z</time>
      </trkpt>
      <trkpt lat="47.20317" lon="4.66225">
        <ele>451</ele>
        <time>2014-04-23T11:54:45Z</time>
      </trkpt>
      <trkpt lat="47.20319" lon="4.66233">
        <ele>453</ele>
        <time>2014-04-23T11:54:51Z</time>
      </trkpt>
      <trkpt lat="47.20319" lon="4.6624">
        <ele>454</ele>
        <time>2014-04-23T11:54:56Z</time>
      </trkpt>
      <trkpt lat="47.20319" lon="4.66248">
        <ele>454</ele>
        <time>2014-04-23T11:55:00Z</time>
      </trkpt>
      <trkpt lat="47.20315" lon="4.66252">
        <ele>455</ele>
        <time>2014-04-23T11:55:04Z</time>
      </trkpt>
      <trkpt lat="47.20312" lon="4.66257">
        <ele>454</ele>
        <time>2014-04-23T11:55:07Z</time>
      </trkpt>
      <trkpt lat="47.20309" lon="4.66267">
        <ele>453</ele>
        <time>2014-04-23T11:55:14Z</time>
      </trkpt>
      <trkpt lat="47.2031" lon="4.66273">
        <ele>453</ele>
        <time>2014-04-23T11:55:17Z</time>
      </trkpt>
      <trkpt lat="47.20309" lon="4.66281">
        <ele>452</ele>
        <time>2014-04-23T11:55:20Z</time>
      </trkpt>
      <trkpt lat="47.20308" lon="4.66288">
        <ele>452</ele>
        <time>2014-04-23T11:55:24Z</time>
      </trkpt>
      <trkpt lat="47.20307" lon="4.66294">
        <ele>452</ele>
        <time>2014-04-23T11:55:28Z</time>
      </trkpt>
      <trkpt lat="47.20305" lon="4.66301">
        <ele>452</ele>
        <time>2014-04-23T11:55:31Z</time>
      </trkpt>
      <trkpt lat="47.20304" lon="4.66307">
        <ele>452</ele>
        <time>2014-04-23T11:55:34Z</time>
      </trkpt>
      <trkpt lat="47.20303" lon="4.66318">
        <ele>453</ele>
        <time>2014-04-23T11:55:42Z</time>
      </trkpt>
      <trkpt lat="47.20301" lon="4.66319">
        <ele>452</ele>
        <time>2014-04-23T11:55:53Z</time>
      </trkpt>
      <trkpt lat="47.20304" lon="4.66325">
        <ele>453</ele>
        <time>2014-04-23T11:55:58Z</time>
      </trkpt>
      <trkpt lat="47.20305" lon="4.66332">
        <ele>453</ele>
        <time>2014-04-23T11:56:02Z</time>
      </trkpt>
      <trkpt lat="47.20307" lon="4.66338">
        <ele>454</ele>
        <time>2014-04-23T11:56:09Z</time>
      </trkpt>
      <trkpt lat="47.20309" lon="4.66345">
        <ele>455</ele>
        <time>2014-04-23T11:56:14Z</time>
      </trkpt>
      <trkpt lat="47.20311" lon="4.66352">
        <ele>455</ele>
        <time>2014-04-23T11:56:17Z</time>
      </trkpt>
      <trkpt lat="47.2031" lon="4.66359">
        <ele>454</ele>
        <time>2014-04-23T11:56:20Z</time>
      </trkpt>
      <trkpt lat="47.20309" lon="4.66366">
        <ele>454</ele>
        <time>2014-04-23T11:56:24Z</time>
      </trkpt>
      <trkpt lat="47.20307" lon="4.66375">
        <ele>454</ele>
        <time>2014-04-23T11:56:28Z</time>
      </trkpt>
      <trkpt lat="47.20307" lon="4.66381">
        <ele>454</ele>
        <time>2014-04-23T11:56:32Z</time>
      </trkpt>
      <trkpt lat="47.20307" lon="4.66388">
        <ele>454</ele>
        <time>2014-04-23T11:56:37Z</time>
      </trkpt>
      <trkpt lat="47.20307" lon="4.66395">
        <ele>454</ele>
        <time>2014-04-23T11:56:43Z</time>
      </trkpt>
      <trkpt lat="47.20307" lon="4.66403">
        <ele>454</ele>
        <time>2014-04-23T11:56:48Z</time>
      </trkpt>
      <trkpt lat="47.20305" lon="4.66411">
        <ele>454</ele>
        <time>2014-04-23T11:56:52Z</time>
      </trkpt>
      <trkpt lat="47.20303" lon="4.66418">
        <ele>453</ele>
        <time>2014-04-23T11:56:56Z</time>
      </trkpt>
      <trkpt lat="47.20303" lon="4.66424">
        <ele>452</ele>
        <time>2014-04-23T11:57:00Z</time>
      </trkpt>
      <trkpt lat="47.203" lon="4.66433">
        <ele>452</ele>
        <time>2014-04-23T11:57:34Z</time>
      </trkpt>
      <trkpt lat="47.20297" lon="4.6644">
        <ele>451</ele>
        <time>2014-04-23T11:57:38Z</time>
      </trkpt>
      <trkpt lat="47.20294" lon="4.66446">
        <ele>451</ele>
        <time>2014-04-23T11:57:42Z</time>
      </trkpt>
      <trkpt lat="47.20293" lon="4.66454">
        <ele>450</ele>
        <time>2014-04-23T11:57:46Z</time>
      </trkpt>
      <trkpt lat="47.20292" lon="4.66463">
        <ele>450</ele>
        <time>2014-04-23T11:57:50Z</time>
      </trkpt>
      <trkpt lat="47.20291" lon="4.66471">
        <ele>450</ele>
        <time>2014-04-23T11:57:54Z</time>
      </trkpt>
      <trkpt lat="47.2029" lon="4.66477">
        <ele>450</ele>
        <time>2014-04-23T11:57:58Z</time>
      </trkpt>
      <trkpt lat="47.20289" lon="4.66484">
        <ele>449</ele>
        <time>2014-04-23T11:58:02Z</time>
      </trkpt>
      <trkpt lat="47.20289" lon="4.66491">
        <ele>449</ele>
        <time>2014-04-23T11:58:06Z</time>
      </trkpt>
      <trkpt lat="47.20289" lon="4.66499">
        <ele>449</ele>
        <time>2014-04-23T11:58:11Z</time>
      </trkpt>
      <trkpt lat="47.2029" lon="4.66503">
        <ele>447</ele>
        <time>2014-04-23T11:58:18Z</time>
      </trkpt>
      <trkpt lat="47.2029" lon="4.66509">
        <ele>447</ele>
        <time>2014-04-23T11:58:26Z</time>
      </trkpt>
      <trkpt lat="47.20289" lon="4.66516">
        <ele>447</ele>
        <time>2014-04-23T11:58:32Z</time>
      </trkpt>
      <trkpt lat="47.20289" lon="4.66524">
        <ele>447</ele>
        <time>2014-04-23T11:58:37Z</time>
      </trkpt>
      <trkpt lat="47.20286" lon="4.66531">
        <ele>446</ele>
        <time>2014-04-23T11:58:41Z</time>
      </trkpt>
      <trkpt lat="47.20285" lon="4.66545">
        <ele>446</ele>
        <time>2014-04-23T11:58:51Z</time>
      </trkpt>
      <trkpt lat="47.20286" lon="4.66553">
        <ele>446</ele>
        <time>2014-04-23T11:58:55Z</time>
      </trkpt>
      <trkpt lat="47.20285" lon="4.6656">
        <ele>445</ele>
        <time>2014-04-23T11:58:59Z</time>
      </trkpt>
      <trkpt lat="47.20284" lon="4.66568">
        <ele>445</ele>
        <time>2014-04-23T11:59:03Z</time>
      </trkpt>
      <trkpt lat="47.20284" lon="4.66575">
        <ele>445</ele>
        <time>2014-04-23T11:59:07Z</time>
      </trkpt>
      <trkpt lat="47.20285" lon="4.66583">
        <ele>445</ele>
        <time>2014-04-23T11:59:11Z</time>
      </trkpt>
      <trkpt lat="47.20285" lon="4.6659">
        <ele>444</ele>
        <time>2014-04-23T11:59:16Z</time>
      </trkpt>
      <trkpt lat="47.20286" lon="4.66597">
        <ele>444</ele>
        <time>2014-04-23T11:59:20Z</time>
      </trkpt>
      <trkpt lat="47.20289" lon="4.66603">
        <ele>444</ele>
        <time>2014-04-23T11:59:26Z</time>
      </trkpt>
      <trkpt lat="47.20291" lon="4.66611">
        <ele>444</ele>
        <time>2014-04-23T11:59:31Z</time>
      </trkpt>
      <trkpt lat="47.20292" lon="4.66618">
        <ele>445</ele>
        <time>2014-04-23T11:59:35Z</time>
      </trkpt>
      <trkpt lat="47.2029" lon="4.66624">
        <ele>444</ele>
        <time>2014-04-23T11:59:38Z</time>
      </trkpt>
      <trkpt lat="47.20287" lon="4.66631">
        <ele>444</ele>
        <time>2014-04-23T11:59:41Z</time>
      </trkpt>
      <trkpt lat="47.20287" lon="4.66638">
        <ele>444</ele>
        <time>2014-04-23T11:59:45Z</time>
      </trkpt>
      <trkpt lat="47.20289" lon="4.66646">
        <ele>444</ele>
        <time>2014-04-23T11:59:50Z</time>
      </trkpt>
      <trkpt lat="47.20288" lon="4.66652">
        <ele>444</ele>
        <time>2014-04-23T11:59:54Z</time>
      </trkpt>
      <trkpt lat="47.20286" lon="4.6666">
        <ele>444</ele>
        <time>2014-04-23T11:59:58Z</time>
      </trkpt>
      <trkpt lat="47.20289" lon="4.66664">
        <ele>444</ele>
        <time>2014-04-23T12:00:01Z</time>
      </trkpt>
      <trkpt lat="47.20294" lon="4.66667">
        <ele>445</ele>
        <time>2014-04-23T12:00:04Z</time>
      </trkpt>
      <trkpt lat="47.20295" lon="4.66673">
        <ele>445</ele>
        <time>2014-04-23T12:00:09Z</time>
      </trkpt>
      <trkpt lat="47.20291" lon="4.66679">
        <ele>445</ele>
        <time>2014-04-23T12:00:12Z</time>
      </trkpt>
      <trkpt lat="47.20288" lon="4.66684">
        <ele>445</ele>
        <time>2014-04-23T12:00:14Z</time>
      </trkpt>
      <trkpt lat="47.20285" lon="4.66691">
        <ele>445</ele>
        <time>2014-04-23T12:00:17Z</time>
      </trkpt>
      <trkpt lat="47.20281" lon="4.66696">
        <ele>444</ele>
        <time>2014-04-23T12:00:21Z</time>
      </trkpt>
      <trkpt lat="47.20277" lon="4.66702">
        <ele>444</ele>
        <time>2014-04-23T12:00:25Z</time>
      </trkpt>
      <trkpt lat="47.20272" lon="4.66707">
        <ele>444</ele>
        <time>2014-04-23T12:00:28Z</time>
      </trkpt>
      <trkpt lat="47.20272" lon="4.66714">
        <ele>445</ele>
        <time>2014-04-23T12:00:33Z</time>
      </trkpt>
      <trkpt lat="47.2027" lon="4.6672">
        <ele>445</ele>
        <time>2014-04-23T12:00:38Z</time>
      </trkpt>
      <trkpt lat="47.20274" lon="4.66721">
        <ele>445</ele>
        <time>2014-04-23T12:00:51Z</time>
      </trkpt>
      <trkpt lat="47.20277" lon="4.66727">
        <ele>445</ele>
        <time>2014-04-23T12:01:00Z</time>
      </trkpt>
      <trkpt lat="47.20274" lon="4.66734">
        <ele>445</ele>
        <time>2014-04-23T12:01:09Z</time>
      </trkpt>
      <trkpt lat="47.2027" lon="4.66738">
        <ele>445</ele>
        <time>2014-04-23T12:01:13Z</time>
      </trkpt>
      <trkpt lat="47.20267" lon="4.66743">
        <ele>445</ele>
        <time>2014-04-23T12:01:17Z</time>
      </trkpt>
      <trkpt lat="47.20261" lon="4.66748">
        <ele>445</ele>
        <time>2014-04-23T12:01:23Z</time>
      </trkpt>
      <trkpt lat="47.20258" lon="4.66754">
        <ele>444</ele>
        <time>2014-04-23T12:01:28Z</time>
      </trkpt>
      <trkpt lat="47.20256" lon="4.6676">
        <ele>444</ele>
        <time>2014-04-23T12:01:34Z</time>
      </trkpt>
      <trkpt lat="47.20251" lon="4.66765">
        <ele>444</ele>
        <time>2014-04-23T12:01:38Z</time>
      </trkpt>
      <trkpt lat="47.20245" lon="4.6677">
        <ele>441</ele>
        <time>2014-04-23T12:01:41Z</time>
      </trkpt>
      <trkpt lat="47.2024" lon="4.66772">
        <ele>441</ele>
        <time>2014-04-23T12:01:44Z</time>
      </trkpt>
      <trkpt lat="47.20235" lon="4.66775">
        <ele>441</ele>
        <time>2014-04-23T12:01:49Z</time>
      </trkpt>
      <trkpt lat="47.20231" lon="4.66778">
        <ele>440</ele>
        <time>2014-04-23T12:01:54Z</time>
      </trkpt>
      <trkpt lat="47.20229" lon="4.66778">
        <ele>440</ele>
        <time>2014-04-23T12:02:04Z</time>
      </trkpt>
      <trkpt lat="47.20224" lon="4.6678">
        <ele>440</ele>
        <time>2014-04-23T12:02:09Z</time>
      </trkpt>
      <trkpt lat="47.20219" lon="4.66783">
        <ele>439</ele>
        <time>2014-04-23T12:02:14Z</time>
      </trkpt>
      <trkpt lat="47.20214" lon="4.66786">
        <ele>439</ele>
        <time>2014-04-23T12:02:18Z</time>
      </trkpt>
      <trkpt lat="47.20209" lon="4.66791">
        <ele>439</ele>
        <time>2014-04-23T12:02:22Z</time>
      </trkpt>
      <trkpt lat="47.20205" lon="4.66795">
        <ele>439</ele>
        <time>2014-04-23T12:02:25Z</time>
      </trkpt>
      <trkpt lat="47.20201" lon="4.66799">
        <ele>438</ele>
        <time>2014-04-23T12:02:29Z</time>
      </trkpt>
      <trkpt lat="47.20198" lon="4.66804">
        <ele>438</ele>
        <time>2014-04-23T12:02:34Z</time>
      </trkpt>
      <trkpt lat="47.20195" lon="4.66809">
        <ele>438</ele>
        <time>2014-04-23T12:02:38Z</time>
      </trkpt>
      <trkpt lat="47.20196" lon="4.66812">
        <ele>438</ele>
        <time>2014-04-23T12:03:00Z</time>
      </trkpt>
      <trkpt lat="47.20193" lon="4.66817">
        <ele>438</ele>
        <time>2014-04-23T12:03:03Z</time>
      </trkpt>
      <trkpt lat="47.2019" lon="4.66823">
        <ele>438</ele>
        <time>2014-04-23T12:03:06Z</time>
      </trkpt>
      <trkpt lat="47.20188" lon="4.6683">
        <ele>438</ele>
        <time>2014-04-23T12:03:14Z</time>
      </trkpt>
      <trkpt lat="47.20186" lon="4.66838">
        <ele>436</ele>
        <time>2014-04-23T12:03:20Z</time>
      </trkpt>
      <trkpt lat="47.20184" lon="4.66845">
        <ele>436</ele>
        <time>2014-04-23T12:03:23Z</time>
      </trkpt>
      <trkpt lat="47.20184" lon="4.66852">
        <ele>436</ele>
        <time>2014-04-23T12:03:27Z</time>
      </trkpt>
      <trkpt lat="47.2019" lon="4.66852">
        <ele>436</ele>
        <time>2014-04-23T12:03:31Z</time>
      </trkpt>
      <trkpt lat="47.20194" lon="4.6685">
        <ele>436</ele>
        <time>2014-04-23T12:03:34Z</time>
      </trkpt>
      <trkpt lat="47.20199" lon="4.66847">
        <ele>436</ele>
        <time>2014-04-23T12:03:38Z</time>
      </trkpt>
      <trkpt lat="47.20203" lon="4.66846">
        <ele>436</ele>
        <time>2014-04-23T12:03:45Z</time>
      </trkpt>
      <trkpt lat="47.20205" lon="4.66844">
        <ele>436</ele>
        <time>2014-04-23T12:03:51Z</time>
      </trkpt>
      <trkpt lat="47.20207" lon="4.66838">
        <ele>436</ele>
        <time>2014-04-23T12:04:00Z</time>
      </trkpt>
      <trkpt lat="47.20211" lon="4.66842">
        <ele>436</ele>
        <time>2014-04-23T12:08:33Z</time>
      </trkpt>
      <trkpt lat="47.20209" lon="4.66845">
        <ele>436</ele>
        <time>2014-04-23T12:11:10Z</time>
      </trkpt>
      <trkpt lat="47.20204" lon="4.66846">
        <ele>436</ele>
        <time>2014-04-23T12:11:41Z</time>
      </trkpt>
      <trkpt lat="47.20204" lon="4.66839">
        <ele>436</ele>
        <time>2014-04-23T12:15:02Z</time>
      </trkpt>
      <trkpt lat="47.20207" lon="4.66838">
        <ele>436</ele>
        <time>2014-04-23T12:15:08Z</time>
      </trkpt>
      <trkpt lat="47.20209" lon="4.6684">
        <ele>436</ele>
        <time>2014-04-23T12:15:26Z</time>
      </trkpt>
      <trkpt lat="47.20209" lon="4.66843">
        <ele>436</ele>
        <time>2014-04-23T12:17:12Z</time>
      </trkpt>
      <trkpt lat="47.20206" lon="4.66845">
        <ele>436</ele>
        <time>2014-04-23T12:17:41Z</time>
      </trkpt>
      <trkpt lat="47.20207" lon="4.66845">
        <ele>436</ele>
        <time>2014-04-23T12:18:40Z</time>
      </trkpt>
      <trkpt lat="47.20211" lon="4.66848">
        <ele>436</ele>
        <time>2014-04-23T12:18:48Z</time>
      </trkpt>
      <trkpt lat="47.20216" lon="4.66847">
        <ele>436</ele>
        <time>2014-04-23T12:18:52Z</time>
      </trkpt>
      <trkpt lat="47.20221" lon="4.66846">
        <ele>437</ele>
        <time>2014-04-23T12:18:59Z</time>
      </trkpt>
      <trkpt lat="47.20226" lon="4.66845">
        <ele>437</ele>
        <time>2014-04-23T12:19:05Z</time>
      </trkpt>
      <trkpt lat="47.20231" lon="4.66846">
        <ele>437</ele>
        <time>2014-04-23T12:19:09Z</time>
      </trkpt>
      <trkpt lat="47.20236" lon="4.66846">
        <ele>437</ele>
        <time>2014-04-23T12:19:12Z</time>
      </trkpt>
      <trkpt lat="47.20241" lon="4.66848">
        <ele>437</ele>
        <time>2014-04-23T12:19:16Z</time>
      </trkpt>
      <trkpt lat="47.20245" lon="4.66848">
        <ele>438</ele>
        <time>2014-04-23T12:19:20Z</time>
      </trkpt>
      <trkpt lat="47.2025" lon="4.66852">
        <ele>437</ele>
        <time>2014-04-23T12:19:24Z</time>
      </trkpt>
      <trkpt lat="47.2025" lon="4.66861">
        <ele>438</ele>
        <time>2014-04-23T12:19:28Z</time>
      </trkpt>
      <trkpt lat="47.2025" lon="4.66868">
        <ele>437</ele>
        <time>2014-04-23T12:19:38Z</time>
      </trkpt>
      <trkpt lat="47.20246" lon="4.66871">
        <ele>436</ele>
        <time>2014-04-23T12:19:49Z</time>
      </trkpt>
      <trkpt lat="47.20248" lon="4.66877">
        <ele>436</ele>
        <time>2014-04-23T12:20:08Z</time>
      </trkpt>
      <trkpt lat="47.20246" lon="4.66885">
        <ele>436</ele>
        <time>2014-04-23T12:20:11Z</time>
      </trkpt>
      <trkpt lat="47.20244" lon="4.66894">
        <ele>436</ele>
        <time>2014-04-23T12:20:14Z</time>
      </trkpt>
      <trkpt lat="47.20242" lon="4.66901">
        <ele>435</ele>
        <time>2014-04-23T12:20:19Z</time>
      </trkpt>
      <trkpt lat="47.20239" lon="4.66906">
        <ele>435</ele>
        <time>2014-04-23T12:20:23Z</time>
      </trkpt>
      <trkpt lat="47.20235" lon="4.66909">
        <ele>435</ele>
        <time>2014-04-23T12:20:27Z</time>
      </trkpt>
      <trkpt lat="47.20231" lon="4.66912">
        <ele>435</ele>
        <time>2014-04-23T12:20:31Z</time>
      </trkpt>
      <trkpt lat="47.20226" lon="4.66915">
        <ele>435</ele>
        <time>2014-04-23T12:20:35Z</time>
      </trkpt>
      <trkpt lat="47.20221" lon="4.66918">
        <ele>436</ele>
        <time>2014-04-23T12:20:39Z</time>
      </trkpt>
      <trkpt lat="47.20216" lon="4.6692">
        <ele>436</ele>
        <time>2014-04-23T12:20:43Z</time>
      </trkpt>
      <trkpt lat="47.20212" lon="4.66924">
        <ele>436</ele>
        <time>2014-04-23T12:20:48Z</time>
      </trkpt>
      <trkpt lat="47.20208" lon="4.6693">
        <ele>436</ele>
        <time>2014-04-23T12:20:52Z</time>
      </trkpt>
      <trkpt lat="47.20204" lon="4.66936">
        <ele>436</ele>
        <time>2014-04-23T12:20:56Z</time>
      </trkpt>
      <trkpt lat="47.202" lon="4.6694">
        <ele>436</ele>
        <time>2014-04-23T12:21:01Z</time>
      </trkpt>
      <trkpt lat="47.20197" lon="4.66945">
        <ele>436</ele>
        <time>2014-04-23T12:21:06Z</time>
      </trkpt>
      <trkpt lat="47.20195" lon="4.66952">
        <ele>436</ele>
        <time>2014-04-23T12:21:11Z</time>
      </trkpt>
      <trkpt lat="47.20192" lon="4.66958">
        <ele>436</ele>
        <time>2014-04-23T12:21:17Z</time>
      </trkpt>
      <trkpt lat="47.20191" lon="4.66968">
        <ele>437</ele>
        <time>2014-04-23T12:21:25Z</time>
      </trkpt>
      <trkpt lat="47.20187" lon="4.66973">
        <ele>437</ele>
        <time>2014-04-23T12:21:31Z</time>
      </trkpt>
      <trkpt lat="47.20183" lon="4.66977">
        <ele>437</ele>
        <time>2014-04-23T12:21:34Z</time>
      </trkpt>
      <trkpt lat="47.2018" lon="4.66979">
        <ele>437</ele>
        <time>2014-04-23T12:21:36Z</time>
      </trkpt>
      <trkpt lat="47.20179" lon="4.66986">
        <ele>437</ele>
        <time>2014-04-23T12:21:41Z</time>
      </trkpt>
      <trkpt lat="47.20176" lon="4.66993">
        <ele>437</ele>
        <time>2014-04-23T12:21:44Z</time>
      </trkpt>
      <trkpt lat="47.20173" lon="4.66997">
        <ele>437</ele>
        <time>2014-04-23T12:21:49Z</time>
      </trkpt>
      <trkpt lat="47.2017" lon="4.67003">
        <ele>438</ele>
        <time>2014-04-23T12:21:54Z</time>
      </trkpt>
      <trkpt lat="47.20168" lon="4.6701">
        <ele>439</ele>
        <time>2014-04-23T12:22:00Z</time>
      </trkpt>
      <trkpt lat="47.20165" lon="4.67016">
        <ele>436</ele>
        <time>2014-04-23T12:22:05Z</time>
      </trkpt>
      <trkpt lat="47.20161" lon="4.6702">
        <ele>436</ele>
        <time>2014-04-23T12:22:08Z</time>
      </trkpt>
      <trkpt lat="47.20159" lon="4.67027">
        <ele>436</ele>
        <time>2014-04-23T12:22:12Z</time>
      </trkpt>
      <trkpt lat="47.20156" lon="4.67032">
        <ele>436</ele>
        <time>2014-04-23T12:22:17Z</time>
      </trkpt>
      <trkpt lat="47.20156" lon="4.6703">
        <ele>436</ele>
        <time>2014-04-23T12:22:31Z</time>
      </trkpt>
      <trkpt lat="47.2016" lon="4.67027">
        <ele>436</ele>
        <time>2014-04-23T12:22:34Z</time>
      </trkpt>
      <trkpt lat="47.20165" lon="4.67026">
        <ele>436</ele>
        <time>2014-04-23T12:22:37Z</time>
      </trkpt>
      <trkpt lat="47.2017" lon="4.67021">
        <ele>440</ele>
        <time>2014-04-23T12:22:41Z</time>
      </trkpt>
      <trkpt lat="47.20172" lon="4.67013">
        <ele>439</ele>
        <time>2014-04-23T12:22:45Z</time>
      </trkpt>
      <trkpt lat="47.20172" lon="4.67006">
        <ele>438</ele>
        <time>2014-04-23T12:22:48Z</time>
      </trkpt>
      <trkpt lat="47.20175" lon="4.67">
        <ele>438</ele>
        <time>2014-04-23T12:22:53Z</time>
      </trkpt>
      <trkpt lat="47.20177" lon="4.66994">
        <ele>437</ele>
        <time>2014-04-23T12:22:56Z</time>
      </trkpt>
      <trkpt lat="47.20179" lon="4.66987">
        <ele>437</ele>
        <time>2014-04-23T12:22:59Z</time>
      </trkpt>
      <trkpt lat="47.20183" lon="4.66983">
        <ele>437</ele>
        <time>2014-04-23T12:23:02Z</time>
      </trkpt>
      <trkpt lat="47.20187" lon="4.66987">
        <ele>437</ele>
        <time>2014-04-23T12:23:08Z</time>
      </trkpt>
      <trkpt lat="47.20191" lon="4.66991">
        <ele>437</ele>
        <time>2014-04-23T12:23:15Z</time>
      </trkpt>
      <trkpt lat="47.20196" lon="4.66992">
        <ele>437</ele>
        <time>2014-04-23T12:23:19Z</time>
      </trkpt>
      <trkpt lat="47.20201" lon="4.66993">
        <ele>437</ele>
        <time>2014-04-23T12:23:22Z</time>
      </trkpt>
      <trkpt lat="47.20206" lon="4.66995">
        <ele>438</ele>
        <time>2014-04-23T12:23:26Z</time>
      </trkpt>
      <trkpt lat="47.2021" lon="4.66996">
        <ele>438</ele>
        <time>2014-04-23T12:23:30Z</time>
      </trkpt>
      <trkpt lat="47.20215" lon="4.66995">
        <ele>438</ele>
        <time>2014-04-23T12:23:34Z</time>
      </trkpt>
      <trkpt lat="47.2022" lon="4.66996">
        <ele>438</ele>
        <time>2014-04-23T12:23:39Z</time>
      </trkpt>
      <trkpt lat="47.20222" lon="4.67">
        <ele>439</ele>
        <time>2014-04-23T12:23:46Z</time>
      </trkpt>
      <trkpt lat="47.20225" lon="4.67005">
        <ele>442</ele>
        <time>2014-04-23T12:24:09Z</time>
      </trkpt>
      <trkpt lat="47.20229" lon="4.67009">
        <ele>442</ele>
        <time>2014-04-23T12:24:13Z</time>
      </trkpt>
      <trkpt lat="47.20233" lon="4.67013">
        <ele>442</ele>
        <time>2014-04-23T12:24:17Z</time>
      </trkpt>
      <trkpt lat="47.20237" lon="4.67017">
        <ele>442</ele>
        <time>2014-04-23T12:24:22Z</time>
      </trkpt>
      <trkpt lat="47.2024" lon="4.67023">
        <ele>442</ele>
        <time>2014-04-23T12:24:26Z</time>
      </trkpt>
      <trkpt lat="47.20243" lon="4.67028">
        <ele>443</ele>
        <time>2014-04-23T12:24:30Z</time>
      </trkpt>
      <trkpt lat="47.20246" lon="4.67036">
        <ele>443</ele>
        <time>2014-04-23T12:24:36Z</time>
      </trkpt>
      <trkpt lat="47.2025" lon="4.67043">
        <ele>443</ele>
        <time>2014-04-23T12:24:39Z</time>
      </trkpt>
      <trkpt lat="47.20254" lon="4.67044">
        <ele>446</ele>
        <time>2014-04-23T12:24:48Z</time>
      </trkpt>
      <trkpt lat="47.20259" lon="4.6704">
        <ele>446</ele>
        <time>2014-04-23T12:25:04Z</time>
      </trkpt>
      <trkpt lat="47.20263" lon="4.67043">
        <ele>446</ele>
        <time>2014-04-23T12:25:08Z</time>
      </trkpt>
      <trkpt lat="47.20266" lon="4.67047">
        <ele>446</ele>
        <time>2014-04-23T12:25:13Z</time>
      </trkpt>
      <trkpt lat="47.20269" lon="4.67055">
        <ele>446</ele>
        <time>2014-04-23T12:25:16Z</time>
      </trkpt>
      <trkpt lat="47.20271" lon="4.67061">
        <ele>447</ele>
        <time>2014-04-23T12:25:18Z</time>
      </trkpt>
      <trkpt lat="47.20275" lon="4.67068">
        <ele>447</ele>
        <time>2014-04-23T12:25:26Z</time>
      </trkpt>
      <trkpt lat="47.20276" lon="4.67075">
        <ele>447</ele>
        <time>2014-04-23T12:25:28Z</time>
      </trkpt>
      <trkpt lat="47.20279" lon="4.67082">
        <ele>447</ele>
        <time>2014-04-23T12:25:32Z</time>
      </trkpt>
      <trkpt lat="47.20281" lon="4.67088">
        <ele>450</ele>
        <time>2014-04-23T12:25:38Z</time>
      </trkpt>
      <trkpt lat="47.20283" lon="4.67095">
        <ele>450</ele>
        <time>2014-04-23T12:25:42Z</time>
      </trkpt>
      <trkpt lat="47.20284" lon="4.67102">
        <ele>450</ele>
        <time>2014-04-23T12:25:47Z</time>
      </trkpt>
      <trkpt lat="47.20285" lon="4.67107">
        <ele>450</ele>
        <time>2014-04-23T12:25:57Z</time>
      </trkpt>
      <trkpt lat="47.20288" lon="4.67114">
        <ele>451</ele>
        <time>2014-04-23T12:26:21Z</time>
      </trkpt>
      <trkpt lat="47.2029" lon="4.67121">
        <ele>451</ele>
        <time>2014-04-23T12:26:25Z</time>
      </trkpt>
      <trkpt lat="47.20292" lon="4.67129">
        <ele>451</ele>
        <time>2014-04-23T12:26:29Z</time>
      </trkpt>
      <trkpt lat="47.20292" lon="4.67136">
        <ele>451</ele>
        <time>2014-04-23T12:26:34Z</time>
      </trkpt>
      <trkpt lat="47.2029" lon="4.67143">
        <ele>451</ele>
        <time>2014-04-23T12:26:39Z</time>
      </trkpt>
      <trkpt lat="47.2029" lon="4.6715">
        <ele>451</ele>
        <time>2014-04-23T12:26:44Z</time>
      </trkpt>
      <trkpt lat="47.20292" lon="4.67157">
        <ele>452</ele>
        <time>2014-04-23T12:26:50Z</time>
      </trkpt>
      <trkpt lat="47.20294" lon="4.67164">
        <ele>452</ele>
        <time>2014-04-23T12:26:54Z</time>
      </trkpt>
      <trkpt lat="47.20298" lon="4.67169">
        <ele>454</ele>
        <time>2014-04-23T12:26:57Z</time>
      </trkpt>
      <trkpt lat="47.20301" lon="4.67174">
        <ele>454</ele>
        <time>2014-04-23T12:27:01Z</time>
      </trkpt>
      <trkpt lat="47.20303" lon="4.67181">
        <ele>454</ele>
        <time>2014-04-23T12:27:06Z</time>
      </trkpt>
      <trkpt lat="47.20305" lon="4.67188">
        <ele>454</ele>
        <time>2014-04-23T12:27:10Z</time>
      </trkpt>
      <trkpt lat="47.20307" lon="4.67195">
        <ele>454</ele>
        <time>2014-04-23T12:27:15Z</time>
      </trkpt>
      <trkpt lat="47.20308" lon="4.67203">
        <ele>454</ele>
        <time>2014-04-23T12:27:20Z</time>
      </trkpt>
      <trkpt lat="47.20307" lon="4.67211">
        <ele>454</ele>
        <time>2014-04-23T12:27:24Z</time>
      </trkpt>
      <trkpt lat="47.20307" lon="4.67218">
        <ele>454</ele>
        <time>2014-04-23T12:27:28Z</time>
      </trkpt>
      <trkpt lat="47.20307" lon="4.67226">
        <ele>454</ele>
        <time>2014-04-23T12:27:32Z</time>
      </trkpt>
      <trkpt lat="47.20309" lon="4.67234">
        <ele>455</ele>
        <time>2014-04-23T12:27:36Z</time>
      </trkpt>
      <trkpt lat="47.20309" lon="4.67241">
        <ele>455</ele>
        <time>2014-04-23T12:27:40Z</time>
      </trkpt>
      <trkpt lat="47.20309" lon="4.67248">
        <ele>455</ele>
        <time>2014-04-23T12:27:44Z</time>
      </trkpt>
      <trkpt lat="47.20309" lon="4.67255">
        <ele>457</ele>
        <time>2014-04-23T12:27:48Z</time>
      </trkpt>
      <trkpt lat="47.20308" lon="4.67262">
        <ele>457</ele>
        <time>2014-04-23T12:27:52Z</time>
      </trkpt>
      <trkpt lat="47.20307" lon="4.6727">
        <ele>457</ele>
        <time>2014-04-23T12:27:56Z</time>
      </trkpt>
      <trkpt lat="47.20307" lon="4.67278">
        <ele>457</ele>
        <time>2014-04-23T12:28:00Z</time>
      </trkpt>
      <trkpt lat="47.20305" lon="4.67286">
        <ele>457</ele>
        <time>2014-04-23T12:28:06Z</time>
      </trkpt>
      <trkpt lat="47.20305" lon="4.67294">
        <ele>457</ele>
        <time>2014-04-23T12:28:10Z</time>
      </trkpt>
      <trkpt lat="47.20305" lon="4.67301">
        <ele>457</ele>
        <time>2014-04-23T12:28:15Z</time>
      </trkpt>
      <trkpt lat="47.20305" lon="4.67309">
        <ele>458</ele>
        <time>2014-04-23T12:28:20Z</time>
      </trkpt>
      <trkpt lat="47.20305" lon="4.67317">
        <ele>458</ele>
        <time>2014-04-23T12:28:24Z</time>
      </trkpt>
      <trkpt lat="47.20308" lon="4.67317">
        <ele>458</ele>
        <time>2014-04-23T12:28:33Z</time>
      </trkpt>
      <trkpt lat="47.20307" lon="4.67324">
        <ele>458</ele>
        <time>2014-04-23T12:28:38Z</time>
      </trkpt>
      <trkpt lat="47.20308" lon="4.6733">
        <ele>459</ele>
        <time>2014-04-23T12:28:43Z</time>
      </trkpt>
      <trkpt lat="47.20308" lon="4.67339">
        <ele>461</ele>
        <time>2014-04-23T12:28:48Z</time>
      </trkpt>
      <trkpt lat="47.20309" lon="4.67346">
        <ele>461</ele>
        <time>2014-04-23T12:28:52Z</time>
      </trkpt>
      <trkpt lat="47.2031" lon="4.67352">
        <ele>461</ele>
        <time>2014-04-23T12:28:56Z</time>
      </trkpt>
      <trkpt lat="47.2031" lon="4.67359">
        <ele>461</ele>
        <time>2014-04-23T12:29:00Z</time>
      </trkpt>
      <trkpt lat="47.20312" lon="4.67367">
        <ele>461</ele>
        <time>2014-04-23T12:29:06Z</time>
      </trkpt>
      <trkpt lat="47.20311" lon="4.67374">
        <ele>462</ele>
        <time>2014-04-23T12:29:13Z</time>
      </trkpt>
      <trkpt lat="47.20314" lon="4.67379">
        <ele>462</ele>
        <time>2014-04-23T12:29:26Z</time>
      </trkpt>
      <trkpt lat="47.20311" lon="4.6739">
        <ele>462</ele>
        <time>2014-04-23T12:29:33Z</time>
      </trkpt>
      <trkpt lat="47.20309" lon="4.67397">
        <ele>462</ele>
        <time>2014-04-23T12:29:36Z</time>
      </trkpt>
      <trkpt lat="47.20306" lon="4.67403">
        <ele>462</ele>
        <time>2014-04-23T12:29:40Z</time>
      </trkpt>
      <trkpt lat="47.20304" lon="4.67406">
        <ele>462</ele>
        <time>2014-04-23T12:29:47Z</time>
      </trkpt>
      <trkpt lat="47.203" lon="4.6741">
        <ele>462</ele>
        <time>2014-04-23T12:29:53Z</time>
      </trkpt>
      <trkpt lat="47.20298" lon="4.67416">
        <ele>462</ele>
        <time>2014-04-23T12:29:57Z</time>
      </trkpt>
      <trkpt lat="47.20297" lon="4.67423">
        <ele>464</ele>
        <time>2014-04-23T12:30:02Z</time>
      </trkpt>
      <trkpt lat="47.20296" lon="4.67431">
        <ele>464</ele>
        <time>2014-04-23T12:30:07Z</time>
      </trkpt>
      <trkpt lat="47.20296" lon="4.67438">
        <ele>464</ele>
        <time>2014-04-23T12:30:10Z</time>
      </trkpt>
      <trkpt lat="47.20297" lon="4.67445">
        <ele>464</ele>
        <time>2014-04-23T12:30:13Z</time>
      </trkpt>
      <trkpt lat="47.20296" lon="4.67451">
        <ele>464</ele>
        <time>2014-04-23T12:30:17Z</time>
      </trkpt>
      <trkpt lat="47.20295" lon="4.67459">
        <ele>464</ele>
        <time>2014-04-23T12:30:22Z</time>
      </trkpt>
      <trkpt lat="47.20294" lon="4.67465">
        <ele>465</ele>
        <time>2014-04-23T12:30:26Z</time>
      </trkpt>
      <trkpt lat="47.20294" lon="4.67473">
        <ele>465</ele>
        <time>2014-04-23T12:30:31Z</time>
      </trkpt>
      <trkpt lat="47.20293" lon="4.6748">
        <ele>465</ele>
        <time>2014-04-23T12:30:36Z</time>
      </trkpt>
      <trkpt lat="47.20293" lon="4.67488">
        <ele>465</ele>
        <time>2014-04-23T12:30:41Z</time>
      </trkpt>
      <trkpt lat="47.20293" lon="4.67496">
        <ele>465</ele>
        <time>2014-04-23T12:30:45Z</time>
      </trkpt>
      <trkpt lat="47.20292" lon="4.67504">
        <ele>466</ele>
        <time>2014-04-23T12:30:49Z</time>
      </trkpt>
      <trkpt lat="47.20293" lon="4.67512">
        <ele>466</ele>
        <time>2014-04-23T12:30:53Z</time>
      </trkpt>
      <trkpt lat="47.20293" lon="4.6752">
        <ele>466</ele>
        <time>2014-04-23T12:30:58Z</time>
      </trkpt>
      <trkpt lat="47.20293" lon="4.67528">
        <ele>466</ele>
        <time>2014-04-23T12:31:02Z</time>
      </trkpt>
      <trkpt lat="47.20292" lon="4.67536">
        <ele>466</ele>
        <time>2014-04-23T12:31:06Z</time>
      </trkpt>
      <trkpt lat="47.20294" lon="4.6754">
        <ele>466</ele>
        <time>2014-04-23T12:31:17Z</time>
      </trkpt>
      <trkpt lat="47.20294" lon="4.67547">
        <ele>466</ele>
        <time>2014-04-23T12:31:20Z</time>
      </trkpt>
      <trkpt lat="47.20294" lon="4.67551">
        <ele>466</ele>
        <time>2014-04-23T12:31:21Z</time>
      </trkpt>
      <trkpt lat="47.20294" lon="4.67554">
        <ele>466</ele>
        <time>2014-04-23T12:31:22Z</time>
      </trkpt>
      <trkpt lat="47.20294" lon="4.67558">
        <ele>466</ele>
        <time>2014-04-23T12:31:24Z</time>
      </trkpt>
      <trkpt lat="47.20296" lon="4.67566">
        <ele>466</ele>
        <time>2014-04-23T12:31:32Z</time>
      </trkpt>
      <trkpt lat="47.20296" lon="4.6757">
        <ele>466</ele>
        <time>2014-04-23T12:31:33Z</time>
      </trkpt>
      <trkpt lat="47.20296" lon="4.67574">
        <ele>466</ele>
        <time>2014-04-23T12:31:34Z</time>
      </trkpt>
      <trkpt lat="47.20296" lon="4.6758">
        <ele>466</ele>
        <time>2014-04-23T12:31:36Z</time>
      </trkpt>
      <trkpt lat="47.20299" lon="4.67582">
        <ele>466</ele>
        <time>2014-04-23T12:31:42Z</time>
      </trkpt>
      <trkpt lat="47.20299" lon="4.67589">
        <ele>466</ele>
        <time>2014-04-23T12:31:46Z</time>
      </trkpt>
      <trkpt lat="47.203" lon="4.67596">
        <ele>466</ele>
        <time>2014-04-23T12:31:55Z</time>
      </trkpt>
      <trkpt lat="47.203" lon="4.67604">
        <ele>466</ele>
        <time>2014-04-23T12:31:59Z</time>
      </trkpt>
      <trkpt lat="47.20301" lon="4.67614">
        <ele>466</ele>
        <time>2014-04-23T12:32:21Z</time>
      </trkpt>
      <trkpt lat="47.20302" lon="4.67621">
        <ele>466</ele>
        <time>2014-04-23T12:32:25Z</time>
      </trkpt>
      <trkpt lat="47.20303" lon="4.67628">
        <ele>466</ele>
        <time>2014-04-23T12:32:29Z</time>
      </trkpt>
      <trkpt lat="47.20304" lon="4.67636">
        <ele>466</ele>
        <time>2014-04-23T12:32:34Z</time>
      </trkpt>
      <trkpt lat="47.20304" lon="4.67643">
        <ele>466</ele>
        <time>2014-04-23T12:32:38Z</time>
      </trkpt>
      <trkpt lat="47.20305" lon="4.67651">
        <ele>466</ele>
        <time>2014-04-23T12:32:42Z</time>
      </trkpt>
      <trkpt lat="47.20306" lon="4.67658">
        <ele>466</ele>
        <time>2014-04-23T12:32:46Z</time>
      </trkpt>
      <trkpt lat="47.20305" lon="4.67665">
        <ele>466</ele>
        <time>2014-04-23T12:32:50Z</time>
      </trkpt>
      <trkpt lat="47.20304" lon="4.67673">
        <ele>467</ele>
        <time>2014-04-23T12:32:54Z</time>
      </trkpt>
      <trkpt lat="47.20304" lon="4.67681">
        <ele>467</ele>
        <time>2014-04-23T12:32:58Z</time>
      </trkpt>
      <trkpt lat="47.20303" lon="4.67688">
        <ele>467</ele>
        <time>2014-04-23T12:33:03Z</time>
      </trkpt>
      <trkpt lat="47.20301" lon="4.67695">
        <ele>467</ele>
        <time>2014-04-23T12:33:08Z</time>
      </trkpt>
      <trkpt lat="47.20302" lon="4.67701">
        <ele>467</ele>
        <time>2014-04-23T12:33:21Z</time>
      </trkpt>
      <trkpt lat="47.203" lon="4.6771">
        <ele>467</ele>
        <time>2014-04-23T12:33:30Z</time>
      </trkpt>
      <trkpt lat="47.20296" lon="4.67717">
        <ele>467</ele>
        <time>2014-04-23T12:33:33Z</time>
      </trkpt>
      <trkpt lat="47.20294" lon="4.67723">
        <ele>467</ele>
        <time>2014-04-23T12:33:36Z</time>
      </trkpt>
      <trkpt lat="47.20291" lon="4.67727">
        <ele>467</ele>
        <time>2014-04-23T12:33:45Z</time>
      </trkpt>
      <trkpt lat="47.20287" lon="4.67733">
        <ele>467</ele>
        <time>2014-04-23T12:34:00Z</time>
      </trkpt>
      <trkpt lat="47.20284" lon="4.67741">
        <ele>467</ele>
        <time>2014-04-23T12:34:03Z</time>
      </trkpt>
      <trkpt lat="47.20281" lon="4.67746">
        <ele>467</ele>
        <time>2014-04-23T12:34:06Z</time>
      </trkpt>
      <trkpt lat="47.20279" lon="4.67758">
        <ele>470</ele>
        <time>2014-04-23T12:34:15Z</time>
      </trkpt>
      <trkpt lat="47.20273" lon="4.67765">
        <ele>470</ele>
        <time>2014-04-23T12:34:26Z</time>
      </trkpt>
      <trkpt lat="47.20269" lon="4.6777">
        <ele>470</ele>
        <time>2014-04-23T12:34:30Z</time>
      </trkpt>
      <trkpt lat="47.20266" lon="4.67775">
        <ele>470</ele>
        <time>2014-04-23T12:34:34Z</time>
      </trkpt>
      <trkpt lat="47.20264" lon="4.67781">
        <ele>470</ele>
        <time>2014-04-23T12:34:39Z</time>
      </trkpt>
      <trkpt lat="47.2026" lon="4.67786">
        <ele>471</ele>
        <time>2014-04-23T12:34:43Z</time>
      </trkpt>
      <trkpt lat="47.20258" lon="4.67792">
        <ele>471</ele>
        <time>2014-04-23T12:34:47Z</time>
      </trkpt>
      <trkpt lat="47.20256" lon="4.67802">
        <ele>471</ele>
        <time>2014-04-23T12:34:51Z</time>
      </trkpt>
      <trkpt lat="47.20255" lon="4.67811">
        <ele>472</ele>
        <time>2014-04-23T12:34:54Z</time>
      </trkpt>
      <trkpt lat="47.20252" lon="4.67818">
        <ele>473</ele>
        <time>2014-04-23T12:35:00Z</time>
      </trkpt>
      <trkpt lat="47.20255" lon="4.6782">
        <ele>473</ele>
        <time>2014-04-23T12:35:06Z</time>
      </trkpt>
      <trkpt lat="47.20253" lon="4.67828">
        <ele>473</ele>
        <time>2014-04-23T12:35:18Z</time>
      </trkpt>
      <trkpt lat="47.20252" lon="4.67835">
        <ele>474</ele>
        <time>2014-04-23T12:35:23Z</time>
      </trkpt>
      <trkpt lat="47.2025" lon="4.67842">
        <ele>474</ele>
        <time>2014-04-23T12:35:28Z</time>
      </trkpt>
      <trkpt lat="47.20248" lon="4.67848">
        <ele>475</ele>
        <time>2014-04-23T12:35:33Z</time>
      </trkpt>
      <trkpt lat="47.20246" lon="4.67855">
        <ele>475</ele>
        <time>2014-04-23T12:35:38Z</time>
      </trkpt>
      <trkpt lat="47.20243" lon="4.67862">
        <ele>475</ele>
        <time>2014-04-23T12:35:43Z</time>
      </trkpt>
      <trkpt lat="47.20241" lon="4.67868">
        <ele>476</ele>
        <time>2014-04-23T12:35:48Z</time>
      </trkpt>
      <trkpt lat="47.2024" lon="4.67871">
        <ele>476</ele>
        <time>2014-04-23T12:35:54Z</time>
      </trkpt>
      <trkpt lat="47.20238" lon="4.67878">
        <ele>476</ele>
        <time>2014-04-23T12:36:10Z</time>
      </trkpt>
      <trkpt lat="47.20234" lon="4.67884">
        <ele>477</ele>
        <time>2014-04-23T12:36:15Z</time>
      </trkpt>
      <trkpt lat="47.20232" lon="4.67889">
        <ele>477</ele>
        <time>2014-04-23T12:36:20Z</time>
      </trkpt>
      <trkpt lat="47.2023" lon="4.67896">
        <ele>477</ele>
        <time>2014-04-23T12:36:25Z</time>
      </trkpt>
      <trkpt lat="47.20228" lon="4.67902">
        <ele>478</ele>
        <time>2014-04-23T12:36:30Z</time>
      </trkpt>
      <trkpt lat="47.20227" lon="4.67909">
        <ele>478</ele>
        <time>2014-04-23T12:36:34Z</time>
      </trkpt>
      <trkpt lat="47.20226" lon="4.67917">
        <ele>481</ele>
        <time>2014-04-23T12:36:40Z</time>
      </trkpt>
      <trkpt lat="47.20226" lon="4.67925">
        <ele>481</ele>
        <time>2014-04-23T12:36:46Z</time>
      </trkpt>
      <trkpt lat="47.20226" lon="4.67932">
        <ele>481</ele>
        <time>2014-04-23T12:36:51Z</time>
      </trkpt>
      <trkpt lat="47.20227" lon="4.6794">
        <ele>481</ele>
        <time>2014-04-23T12:36:56Z</time>
      </trkpt>
      <trkpt lat="47.20228" lon="4.67947">
        <ele>481</ele>
        <time>2014-04-23T12:37:00Z</time>
      </trkpt>
      <trkpt lat="47.20227" lon="4.67952">
        <ele>482</ele>
        <time>2014-04-23T12:37:16Z</time>
      </trkpt>
      <trkpt lat="47.20231" lon="4.6796">
        <ele>482</ele>
        <time>2014-04-23T12:37:30Z</time>
      </trkpt>
      <trkpt lat="47.20232" lon="4.67967">
        <ele>482</ele>
        <time>2014-04-23T12:37:37Z</time>
      </trkpt>
      <trkpt lat="47.20233" lon="4.67973">
        <ele>483</ele>
        <time>2014-04-23T12:37:42Z</time>
      </trkpt>
      <trkpt lat="47.20235" lon="4.67981">
        <ele>483</ele>
        <time>2014-04-23T12:37:47Z</time>
      </trkpt>
      <trkpt lat="47.20235" lon="4.67988">
        <ele>484</ele>
        <time>2014-04-23T12:37:52Z</time>
      </trkpt>
      <trkpt lat="47.20236" lon="4.67995">
        <ele>484</ele>
        <time>2014-04-23T12:37:57Z</time>
      </trkpt>
      <trkpt lat="47.20237" lon="4.68002">
        <ele>485</ele>
        <time>2014-04-23T12:38:01Z</time>
      </trkpt>
      <trkpt lat="47.20237" lon="4.6801">
        <ele>485</ele>
        <time>2014-04-23T12:38:06Z</time>
      </trkpt>
      <trkpt lat="47.20238" lon="4.68017">
        <ele>485</ele>
        <time>2014-04-23T12:38:10Z</time>
      </trkpt>
      <trkpt lat="47.20239" lon="4.68024">
        <ele>485</ele>
        <time>2014-04-23T12:38:15Z</time>
      </trkpt>
      <trkpt lat="47.20239" lon="4.68031">
        <ele>484</ele>
        <time>2014-04-23T12:38:20Z</time>
      </trkpt>
      <trkpt lat="47.20241" lon="4.68038">
        <ele>484</ele>
        <time>2014-04-23T12:38:24Z</time>
      </trkpt>
      <trkpt lat="47.20243" lon="4.68046">
        <ele>484</ele>
        <time>2014-04-23T12:38:28Z</time>
      </trkpt>
      <trkpt lat="47.20244" lon="4.68049">
        <ele>484</ele>
        <time>2014-04-23T12:38:35Z</time>
      </trkpt>
      <trkpt lat="47.20248" lon="4.68054">
        <ele>485</ele>
        <time>2014-04-23T12:38:45Z</time>
      </trkpt>
      <trkpt lat="47.20248" lon="4.68061">
        <ele>485</ele>
        <time>2014-04-23T12:38:50Z</time>
      </trkpt>
      <trkpt lat="47.20244" lon="4.68064">
        <ele>485</ele>
        <time>2014-04-23T12:38:58Z</time>
      </trkpt>
      <trkpt lat="47.20244" lon="4.68068">
        <ele>485</ele>
        <time>2014-04-23T12:39:04Z</time>
      </trkpt>
      <trkpt lat="47.20246" lon="4.68074">
        <ele>485</ele>
        <time>2014-04-23T12:39:08Z</time>
      </trkpt>
      <trkpt lat="47.20248" lon="4.68081">
        <ele>486</ele>
        <time>2014-04-23T12:39:12Z</time>
      </trkpt>
      <trkpt lat="47.20249" lon="4.68088">
        <ele>485</ele>
        <time>2014-04-23T12:39:16Z</time>
      </trkpt>
      <trkpt lat="47.20252" lon="4.68094">
        <ele>486</ele>
        <time>2014-04-23T12:39:21Z</time>
      </trkpt>
      <trkpt lat="47.20253" lon="4.68102">
        <ele>486</ele>
        <time>2014-04-23T12:39:26Z</time>
      </trkpt>
      <trkpt lat="47.20253" lon="4.68109">
        <ele>486</ele>
        <time>2014-04-23T12:39:31Z</time>
      </trkpt>
      <trkpt lat="47.20252" lon="4.68117">
        <ele>486</ele>
        <time>2014-04-23T12:39:35Z</time>
      </trkpt>
      <trkpt lat="47.20251" lon="4.68125">
        <ele>486</ele>
        <time>2014-04-23T12:39:40Z</time>
      </trkpt>
      <trkpt lat="47.20252" lon="4.68133">
        <ele>486</ele>
        <time>2014-04-23T12:39:45Z</time>
      </trkpt>
      <trkpt lat="47.20254" lon="4.68139">
        <ele>485</ele>
        <time>2014-04-23T12:39:51Z</time>
      </trkpt>
      <trkpt lat="47.2026" lon="4.68148">
        <ele>485</ele>
        <time>2014-04-23T12:39:56Z</time>
      </trkpt>
      <trkpt lat="47.20259" lon="4.68144">
        <ele>485</ele>
        <time>2014-04-23T12:40:20Z</time>
      </trkpt>
      <trkpt lat="47.20264" lon="4.68147">
        <ele>485</ele>
        <time>2014-04-23T12:40:53Z</time>
      </trkpt>
      <trkpt lat="47.20266" lon="4.68154">
        <ele>485</ele>
        <time>2014-04-23T12:40:57Z</time>
      </trkpt>
      <trkpt lat="47.20263" lon="4.6816">
        <ele>485</ele>
        <time>2014-04-23T12:41:03Z</time>
      </trkpt>
      <trkpt lat="47.20264" lon="4.68167">
        <ele>485</ele>
        <time>2014-04-23T12:41:08Z</time>
      </trkpt>
      <trkpt lat="47.20266" lon="4.68173">
        <ele>484</ele>
        <time>2014-04-23T12:41:13Z</time>
      </trkpt>
      <trkpt lat="47.20264" lon="4.68183">
        <ele>484</ele>
        <time>2014-04-23T12:41:19Z</time>
      </trkpt>
      <trkpt lat="47.20265" lon="4.68189">
        <ele>484</ele>
        <time>2014-04-23T12:41:31Z</time>
      </trkpt>
      <trkpt lat="47.20266" lon="4.68196">
        <ele>484</ele>
        <time>2014-04-23T12:41:38Z</time>
      </trkpt>
      <trkpt lat="47.20267" lon="4.68203">
        <ele>483</ele>
        <time>2014-04-23T12:41:43Z</time>
      </trkpt>
      <trkpt lat="47.20269" lon="4.6821">
        <ele>483</ele>
        <time>2014-04-23T12:41:48Z</time>
      </trkpt>
      <trkpt lat="47.20274" lon="4.68235">
        <ele>483</ele>
        <time>2014-04-23T12:42:20Z</time>
      </trkpt>
      <trkpt lat="47.20269" lon="4.68236">
        <ele>482</ele>
        <time>2014-04-23T12:42:26Z</time>
      </trkpt>
      <trkpt lat="47.20265" lon="4.68242">
        <ele>482</ele>
        <time>2014-04-23T12:42:36Z</time>
      </trkpt>
      <trkpt lat="47.20264" lon="4.6825">
        <ele>481</ele>
        <time>2014-04-23T12:42:42Z</time>
      </trkpt>
      <trkpt lat="47.20268" lon="4.68252">
        <ele>479</ele>
        <time>2014-04-23T12:43:07Z</time>
      </trkpt>
      <trkpt lat="47.20271" lon="4.68247">
        <ele>482</ele>
        <time>2014-04-23T12:43:15Z</time>
      </trkpt>
      <trkpt lat="47.20269" lon="4.6824">
        <ele>482</ele>
        <time>2014-04-23T12:43:21Z</time>
      </trkpt>
      <trkpt lat="47.2027" lon="4.68234">
        <ele>482</ele>
        <time>2014-04-23T12:43:31Z</time>
      </trkpt>
      <trkpt lat="47.20275" lon="4.68233">
        <ele>483</ele>
        <time>2014-04-23T12:43:36Z</time>
      </trkpt>
      <trkpt lat="47.20279" lon="4.68235">
        <ele>483</ele>
        <time>2014-04-23T12:43:42Z</time>
      </trkpt>
      <trkpt lat="47.20282" lon="4.68238">
        <ele>483</ele>
        <time>2014-04-23T12:43:50Z</time>
      </trkpt>
      <trkpt lat="47.20287" lon="4.68237">
        <ele>483</ele>
        <time>2014-04-23T12:43:57Z</time>
      </trkpt>
      <trkpt lat="47.20292" lon="4.68234">
        <ele>484</ele>
        <time>2014-04-23T12:44:04Z</time>
      </trkpt>
      <trkpt lat="47.20295" lon="4.68239">
        <ele>484</ele>
        <time>2014-04-23T12:44:15Z</time>
      </trkpt>
      <trkpt lat="47.20299" lon="4.68242">
        <ele>484</ele>
        <time>2014-04-23T12:44:20Z</time>
      </trkpt>
      <trkpt lat="47.20303" lon="4.68247">
        <ele>484</ele>
        <time>2014-04-23T12:44:26Z</time>
      </trkpt>
      <trkpt lat="47.20307" lon="4.68253">
        <ele>481</ele>
        <time>2014-04-23T12:44:31Z</time>
      </trkpt>
      <trkpt lat="47.20303" lon="4.68261">
        <ele>481</ele>
        <time>2014-04-23T12:44:44Z</time>
      </trkpt>
      <trkpt lat="47.20306" lon="4.68264">
        <ele>481</ele>
        <time>2014-04-23T12:45:08Z</time>
      </trkpt>
      <trkpt lat="47.2031" lon="4.68268">
        <ele>481</ele>
        <time>2014-04-23T12:45:53Z</time>
      </trkpt>
      <trkpt lat="47.20309" lon="4.68274">
        <ele>481</ele>
        <time>2014-04-23T12:46:00Z</time>
      </trkpt>
      <trkpt lat="47.20309" lon="4.68274">
        <ele>481</ele>
        <time>2014-04-23T12:46:12Z</time>
      </trkpt>
      <trkpt lat="47.20312" lon="4.68281">
        <ele>481</ele>
        <time>2014-04-23T12:46:17Z</time>
      </trkpt>
      <trkpt lat="47.20313" lon="4.68287">
        <ele>480</ele>
        <time>2014-04-23T12:46:29Z</time>
      </trkpt>
      <trkpt lat="47.20318" lon="4.68288">
        <ele>480</ele>
        <time>2014-04-23T12:46:44Z</time>
      </trkpt>
      <trkpt lat="47.20322" lon="4.68291">
        <ele>480</ele>
        <time>2014-04-23T12:47:04Z</time>
      </trkpt>
      <trkpt lat="47.20321" lon="4.68294">
        <ele>480</ele>
        <time>2014-04-23T12:47:15Z</time>
      </trkpt>
      <trkpt lat="47.2032" lon="4.68301">
        <ele>480</ele>
        <time>2014-04-23T12:47:23Z</time>
      </trkpt>
      <trkpt lat="47.20322" lon="4.68307">
        <ele>480</ele>
        <time>2014-04-23T12:47:30Z</time>
      </trkpt>
      <trkpt lat="47.20327" lon="4.68308">
        <ele>480</ele>
        <time>2014-04-23T12:47:42Z</time>
      </trkpt>
      <trkpt lat="47.20329" lon="4.68306">
        <ele>480</ele>
        <time>2014-04-23T12:47:48Z</time>
      </trkpt>
      <trkpt lat="47.20334" lon="4.68305">
        <ele>485</ele>
        <time>2014-04-23T12:48:01Z</time>
      </trkpt>
      <trkpt lat="47.20339" lon="4.68309">
        <ele>485</ele>
        <time>2014-04-23T12:48:05Z</time>
      </trkpt>
      <trkpt lat="47.2034" lon="4.68316">
        <ele>484</ele>
        <time>2014-04-23T12:48:12Z</time>
      </trkpt>
      <trkpt lat="47.20345" lon="4.68321">
        <ele>484</ele>
        <time>2014-04-23T12:48:31Z</time>
      </trkpt>
      <trkpt lat="47.20349" lon="4.68324">
        <ele>484</ele>
        <time>2014-04-23T12:48:40Z</time>
      </trkpt>
      <trkpt lat="47.2035" lon="4.68331">
        <ele>484</ele>
        <time>2014-04-23T12:48:44Z</time>
      </trkpt>
      <trkpt lat="47.20353" lon="4.68338">
        <ele>483</ele>
        <time>2014-04-23T12:48:50Z</time>
      </trkpt>
      <trkpt lat="47.20354" lon="4.68344">
        <ele>483</ele>
        <time>2014-04-23T12:48:55Z</time>
      </trkpt>
      <trkpt lat="47.20353" lon="4.68352">
        <ele>484</ele>
        <time>2014-04-23T12:49:02Z</time>
      </trkpt>
      <trkpt lat="47.20354" lon="4.68359">
        <ele>484</ele>
        <time>2014-04-23T12:49:08Z</time>
      </trkpt>
      <trkpt lat="47.20356" lon="4.68367">
        <ele>484</ele>
        <time>2014-04-23T12:49:13Z</time>
      </trkpt>
      <trkpt lat="47.20358" lon="4.68376">
        <ele>484</ele>
        <time>2014-04-23T12:49:30Z</time>
      </trkpt>
      <trkpt lat="47.20353" lon="4.68379">
        <ele>483</ele>
        <time>2014-04-23T12:49:37Z</time>
      </trkpt>
      <trkpt lat="47.20351" lon="4.68386">
        <ele>483</ele>
        <time>2014-04-23T12:49:44Z</time>
      </trkpt>
      <trkpt lat="47.20351" lon="4.68393">
        <ele>483</ele>
        <time>2014-04-23T12:49:50Z</time>
      </trkpt>
      <trkpt lat="47.20349" lon="4.68399">
        <ele>482</ele>
        <time>2014-04-23T12:49:56Z</time>
      </trkpt>
      <trkpt lat="47.20347" lon="4.68406">
        <ele>481</ele>
        <time>2014-04-23T12:50:00Z</time>
      </trkpt>
      <trkpt lat="47.20347" lon="4.68413">
        <ele>481</ele>
        <time>2014-04-23T12:50:05Z</time>
      </trkpt>
      <trkpt lat="47.20346" lon="4.6842">
        <ele>480</ele>
        <time>2014-04-23T12:50:09Z</time>
      </trkpt>
      <trkpt lat="47.20345" lon="4.68427">
        <ele>480</ele>
        <time>2014-04-23T12:50:13Z</time>
      </trkpt>
      <trkpt lat="47.20343" lon="4.68435">
        <ele>480</ele>
        <time>2014-04-23T12:50:18Z</time>
      </trkpt>
      <trkpt lat="47.20341" lon="4.68442">
        <ele>481</ele>
        <time>2014-04-23T12:50:24Z</time>
      </trkpt>
      <trkpt lat="47.2034" lon="4.6845">
        <ele>481</ele>
        <time>2014-04-23T12:50:28Z</time>
      </trkpt>
      <trkpt lat="47.20338" lon="4.68457">
        <ele>481</ele>
        <time>2014-04-23T12:50:32Z</time>
      </trkpt>
      <trkpt lat="47.20337" lon="4.68464">
        <ele>481</ele>
        <time>2014-04-23T12:50:37Z</time>
      </trkpt>
      <trkpt lat="47.20339" lon="4.68466">
        <ele>481</ele>
        <time>2014-04-23T12:50:43Z</time>
      </trkpt>
      <trkpt lat="47.20343" lon="4.68469">
        <ele>481</ele>
        <time>2014-04-23T12:50:48Z</time>
      </trkpt>
      <trkpt lat="47.20348" lon="4.68471">
        <ele>481</ele>
        <time>2014-04-23T12:50:52Z</time>
      </trkpt>
      <trkpt lat="47.20352" lon="4.68473">
        <ele>481</ele>
        <time>2014-04-23T12:50:58Z</time>
      </trkpt>
      <trkpt lat="47.20358" lon="4.68478">
        <ele>481</ele>
        <time>2014-04-23T12:51:07Z</time>
      </trkpt>
      <trkpt lat="47.20362" lon="4.68482">
        <ele>481</ele>
        <time>2014-04-23T12:51:12Z</time>
      </trkpt>
      <trkpt lat="47.20367" lon="4.68484">
        <ele>482</ele>
        <time>2014-04-23T12:51:16Z</time>
      </trkpt>
      <trkpt lat="47.20371" lon="4.68488">
        <ele>482</ele>
        <time>2014-04-23T12:51:21Z</time>
      </trkpt>
      <trkpt lat="47.20375" lon="4.68491">
        <ele>482</ele>
        <time>2014-04-23T12:51:26Z</time>
      </trkpt>
      <trkpt lat="47.2038" lon="4.68494">
        <ele>483</ele>
        <time>2014-04-23T12:51:31Z</time>
      </trkpt>
      <trkpt lat="47.20383" lon="4.685">
        <ele>483</ele>
        <time>2014-04-23T12:51:35Z</time>
      </trkpt>
      <trkpt lat="47.20387" lon="4.68503">
        <ele>484</ele>
        <time>2014-04-23T12:51:39Z</time>
      </trkpt>
      <trkpt lat="47.20392" lon="4.68506">
        <ele>484</ele>
        <time>2014-04-23T12:51:44Z</time>
      </trkpt>
      <trkpt lat="47.20396" lon="4.6851">
        <ele>485</ele>
        <time>2014-04-23T12:51:48Z</time>
      </trkpt>
      <trkpt lat="47.204" lon="4.68514">
        <ele>485</ele>
        <time>2014-04-23T12:51:52Z</time>
      </trkpt>
      <trkpt lat="47.20404" lon="4.6852">
        <ele>485</ele>
        <time>2014-04-23T12:51:56Z</time>
      </trkpt>
      <trkpt lat="47.20409" lon="4.68524">
        <ele>485</ele>
        <time>2014-04-23T12:52:01Z</time>
      </trkpt>
      <trkpt lat="47.20413" lon="4.68528">
        <ele>485</ele>
        <time>2014-04-23T12:52:06Z</time>
      </trkpt>
      <trkpt lat="47.20413" lon="4.68536">
        <ele>485</ele>
        <time>2014-04-23T12:52:12Z</time>
      </trkpt>
      <trkpt lat="47.20413" lon="4.68534">
        <ele>485</ele>
        <time>2014-04-23T12:52:53Z</time>
      </trkpt>
      <trkpt lat="47.20418" lon="4.68531">
        <ele>487</ele>
        <time>2014-04-23T12:52:58Z</time>
      </trkpt>
      <trkpt lat="47.20423" lon="4.68529">
        <ele>487</ele>
        <time>2014-04-23T12:53:03Z</time>
      </trkpt>
      <trkpt lat="47.20426" lon="4.68525">
        <ele>487</ele>
        <time>2014-04-23T12:53:09Z</time>
      </trkpt>
      <trkpt lat="47.20431" lon="4.68522">
        <ele>487</ele>
        <time>2014-04-23T12:53:14Z</time>
      </trkpt>
      <trkpt lat="47.20436" lon="4.68522">
        <ele>487</ele>
        <time>2014-04-23T12:53:18Z</time>
      </trkpt>
      <trkpt lat="47.2044" lon="4.68519">
        <ele>487</ele>
        <time>2014-04-23T12:53:23Z</time>
      </trkpt>
      <trkpt lat="47.20444" lon="4.68515">
        <ele>487</ele>
        <time>2014-04-23T12:53:29Z</time>
      </trkpt>
      <trkpt lat="47.20449" lon="4.68512">
        <ele>487</ele>
        <time>2014-04-23T12:53:34Z</time>
      </trkpt>
      <trkpt lat="47.20454" lon="4.68509">
        <ele>487</ele>
        <time>2014-04-23T12:53:39Z</time>
      </trkpt>
      <trkpt lat="47.20458" lon="4.68506">
        <ele>487</ele>
        <time>2014-04-23T12:53:43Z</time>
      </trkpt>
      <trkpt lat="47.20462" lon="4.68505">
        <ele>488</ele>
        <time>2014-04-23T12:53:48Z</time>
      </trkpt>
      <trkpt lat="47.20468" lon="4.68505">
        <ele>488</ele>
        <time>2014-04-23T12:53:53Z</time>
      </trkpt>
      <trkpt lat="47.20472" lon="4.68508">
        <ele>488</ele>
        <time>2014-04-23T12:53:57Z</time>
      </trkpt>
      <trkpt lat="47.20476" lon="4.68512">
        <ele>488</ele>
        <time>2014-04-23T12:54:01Z</time>
      </trkpt>
      <trkpt lat="47.20479" lon="4.68518">
        <ele>488</ele>
        <time>2014-04-23T12:54:05Z</time>
      </trkpt>
      <trkpt lat="47.20481" lon="4.68525">
        <ele>488</ele>
        <time>2014-04-23T12:54:10Z</time>
      </trkpt>
      <trkpt lat="47.20482" lon="4.68532">
        <ele>488</ele>
        <time>2014-04-23T12:54:15Z</time>
      </trkpt>
      <trkpt lat="47.20482" lon="4.6854">
        <ele>488</ele>
        <time>2014-04-23T12:54:20Z</time>
      </trkpt>
      <trkpt lat="47.20481" lon="4.68548">
        <ele>488</ele>
        <time>2014-04-23T12:54:24Z</time>
      </trkpt>
      <trkpt lat="47.2048" lon="4.68556">
        <ele>488</ele>
        <time>2014-04-23T12:54:28Z</time>
      </trkpt>
      <trkpt lat="47.20478" lon="4.68563">
        <ele>488</ele>
        <time>2014-04-23T12:54:33Z</time>
      </trkpt>
      <trkpt lat="47.20477" lon="4.6857">
        <ele>488</ele>
        <time>2014-04-23T12:54:37Z</time>
      </trkpt>
      <trkpt lat="47.20475" lon="4.68577">
        <ele>488</ele>
        <time>2014-04-23T12:54:41Z</time>
      </trkpt>
      <trkpt lat="47.20473" lon="4.68583">
        <ele>488</ele>
        <time>2014-04-23T12:54:45Z</time>
      </trkpt>
      <trkpt lat="47.20473" lon="4.6859">
        <ele>490</ele>
        <time>2014-04-23T12:54:49Z</time>
      </trkpt>
      <trkpt lat="47.20473" lon="4.68597">
        <ele>490</ele>
        <time>2014-04-23T12:54:53Z</time>
      </trkpt>
      <trkpt lat="47.20473" lon="4.68605">
        <ele>490</ele>
        <time>2014-04-23T12:54:58Z</time>
      </trkpt>
      <trkpt lat="47.20473" lon="4.68612">
        <ele>490</ele>
        <time>2014-04-23T12:55:02Z</time>
      </trkpt>
      <trkpt lat="47.20473" lon="4.6862">
        <ele>490</ele>
        <time>2014-04-23T12:55:07Z</time>
      </trkpt>
      <trkpt lat="47.20473" lon="4.68627">
        <ele>490</ele>
        <time>2014-04-23T12:55:13Z</time>
      </trkpt>
      <trkpt lat="47.20474" lon="4.68634">
        <ele>490</ele>
        <time>2014-04-23T12:55:19Z</time>
      </trkpt>
      <trkpt lat="47.20474" lon="4.68641">
        <ele>490</ele>
        <time>2014-04-23T12:55:23Z</time>
      </trkpt>
      <trkpt lat="47.20475" lon="4.68648">
        <ele>490</ele>
        <time>2014-04-23T12:55:29Z</time>
      </trkpt>
      <trkpt lat="47.20475" lon="4.68656">
        <ele>490</ele>
        <time>2014-04-23T12:55:35Z</time>
      </trkpt>
      <trkpt lat="47.20477" lon="4.68664">
        <ele>490</ele>
        <time>2014-04-23T12:55:40Z</time>
      </trkpt>
      <trkpt lat="47.20476" lon="4.68671">
        <ele>493</ele>
        <time>2014-04-23T12:55:45Z</time>
      </trkpt>
      <trkpt lat="47.20477" lon="4.68678">
        <ele>493</ele>
        <time>2014-04-23T12:55:49Z</time>
      </trkpt>
      <trkpt lat="47.2048" lon="4.68685">
        <ele>494</ele>
        <time>2014-04-23T12:55:53Z</time>
      </trkpt>
      <trkpt lat="47.20482" lon="4.68692">
        <ele>494</ele>
        <time>2014-04-23T12:55:56Z</time>
      </trkpt>
      <trkpt lat="47.20486" lon="4.68698">
        <ele>494</ele>
        <time>2014-04-23T12:55:59Z</time>
      </trkpt>
      <trkpt lat="47.2049" lon="4.68704">
        <ele>495</ele>
        <time>2014-04-23T12:56:02Z</time>
      </trkpt>
      <trkpt lat="47.20494" lon="4.68708">
        <ele>495</ele>
        <time>2014-04-23T12:56:05Z</time>
      </trkpt>
      <trkpt lat="47.20498" lon="4.68713">
        <ele>495</ele>
        <time>2014-04-23T12:56:08Z</time>
      </trkpt>
      <trkpt lat="47.20501" lon="4.6872">
        <ele>490</ele>
        <time>2014-04-23T12:56:12Z</time>
      </trkpt>
      <trkpt lat="47.20504" lon="4.68726">
        <ele>491</ele>
        <time>2014-04-23T12:56:16Z</time>
      </trkpt>
      <trkpt lat="47.20507" lon="4.68731">
        <ele>491</ele>
        <time>2014-04-23T12:56:19Z</time>
      </trkpt>
      <trkpt lat="47.2051" lon="4.68737">
        <ele>492</ele>
        <time>2014-04-23T12:56:22Z</time>
      </trkpt>
      <trkpt lat="47.20513" lon="4.68742">
        <ele>492</ele>
        <time>2014-04-23T12:56:25Z</time>
      </trkpt>
      <trkpt lat="47.20516" lon="4.68748">
        <ele>492</ele>
        <time>2014-04-23T12:56:28Z</time>
      </trkpt>
      <trkpt lat="47.20519" lon="4.68754">
        <ele>495</ele>
        <time>2014-04-23T12:56:31Z</time>
      </trkpt>
      <trkpt lat="47.20521" lon="4.68761">
        <ele>494</ele>
        <time>2014-04-23T12:56:35Z</time>
      </trkpt>
      <trkpt lat="47.20522" lon="4.68768">
        <ele>494</ele>
        <time>2014-04-23T12:56:40Z</time>
      </trkpt>
      <trkpt lat="47.20523" lon="4.68772">
        <ele>494</ele>
        <time>2014-04-23T12:56:46Z</time>
      </trkpt>
      <trkpt lat="47.2052" lon="4.68775">
        <ele>495</ele>
        <time>2014-04-23T12:57:10Z</time>
      </trkpt>
      <trkpt lat="47.20517" lon="4.68774">
        <ele>495</ele>
        <time>2014-04-23T12:57:24Z</time>
      </trkpt>
      <trkpt lat="47.20517" lon="4.68767">
        <ele>495</ele>
        <time>2014-04-23T12:57:48Z</time>
      </trkpt>
      <trkpt lat="47.20518" lon="4.68762">
        <ele>495</ele>
        <time>2014-04-23T12:57:56Z</time>
      </trkpt>
      <trkpt lat="47.2052" lon="4.68761">
        <ele>495</ele>
        <time>2014-04-23T12:58:02Z</time>
      </trkpt>
      <trkpt lat="47.20522" lon="4.6877">
        <ele>494</ele>
        <time>2014-04-23T12:58:18Z</time>
      </trkpt>
      <trkpt lat="47.20525" lon="4.68778">
        <ele>494</ele>
        <time>2014-04-23T12:58:22Z</time>
      </trkpt>
      <trkpt lat="47.20527" lon="4.68785">
        <ele>494</ele>
        <time>2014-04-23T12:58:25Z</time>
      </trkpt>
      <trkpt lat="47.2053" lon="4.68792">
        <ele>494</ele>
        <time>2014-04-23T12:58:28Z</time>
      </trkpt>
      <trkpt lat="47.20532" lon="4.68799">
        <ele>495</ele>
        <time>2014-04-23T12:58:31Z</time>
      </trkpt>
      <trkpt lat="47.20537" lon="4.68805">
        <ele>495</ele>
        <time>2014-04-23T12:58:34Z</time>
      </trkpt>
      <trkpt lat="47.20542" lon="4.68809">
        <ele>494</ele>
        <time>2014-04-23T12:58:36Z</time>
      </trkpt>
      <trkpt lat="47.20545" lon="4.68813">
        <ele>494</ele>
        <time>2014-04-23T12:58:38Z</time>
      </trkpt>
      <trkpt lat="47.20549" lon="4.68818">
        <ele>494</ele>
        <time>2014-04-23T12:58:41Z</time>
      </trkpt>
      <trkpt lat="47.20553" lon="4.68823">
        <ele>494</ele>
        <time>2014-04-23T12:58:44Z</time>
      </trkpt>
      <trkpt lat="47.20556" lon="4.6883">
        <ele>493</ele>
        <time>2014-04-23T12:58:48Z</time>
      </trkpt>
      <trkpt lat="47.2056" lon="4.68836">
        <ele>497</ele>
        <time>2014-04-23T12:58:52Z</time>
      </trkpt>
      <trkpt lat="47.20562" lon="4.68843">
        <ele>497</ele>
        <time>2014-04-23T12:58:58Z</time>
      </trkpt>
      <trkpt lat="47.20564" lon="4.6885">
        <ele>497</ele>
        <time>2014-04-23T12:59:03Z</time>
      </trkpt>
      <trkpt lat="47.20568" lon="4.68855">
        <ele>497</ele>
        <time>2014-04-23T12:59:07Z</time>
      </trkpt>
      <trkpt lat="47.20571" lon="4.6886">
        <ele>497</ele>
        <time>2014-04-23T12:59:10Z</time>
      </trkpt>
      <trkpt lat="47.20574" lon="4.68866">
        <ele>498</ele>
        <time>2014-04-23T12:59:14Z</time>
      </trkpt>
      <trkpt lat="47.20577" lon="4.68872">
        <ele>498</ele>
        <time>2014-04-23T12:59:18Z</time>
      </trkpt>
      <trkpt lat="47.2058" lon="4.68879">
        <ele>498</ele>
        <time>2014-04-23T12:59:22Z</time>
      </trkpt>
      <trkpt lat="47.20582" lon="4.68885">
        <ele>498</ele>
        <time>2014-04-23T12:59:26Z</time>
      </trkpt>
      <trkpt lat="47.20585" lon="4.68891">
        <ele>491</ele>
        <time>2014-04-23T12:59:30Z</time>
      </trkpt>
      <trkpt lat="47.20588" lon="4.68899">
        <ele>492</ele>
        <time>2014-04-23T12:59:34Z</time>
      </trkpt>
      <trkpt lat="47.2059" lon="4.68905">
        <ele>493</ele>
        <time>2014-04-23T12:59:38Z</time>
      </trkpt>
      <trkpt lat="47.20593" lon="4.68911">
        <ele>493</ele>
        <time>2014-04-23T12:59:42Z</time>
      </trkpt>
      <trkpt lat="47.20596" lon="4.68917">
        <ele>496</ele>
        <time>2014-04-23T12:59:47Z</time>
      </trkpt>
      <trkpt lat="47.20599" lon="4.68923">
        <ele>495</ele>
        <time>2014-04-23T12:59:51Z</time>
      </trkpt>
      <trkpt lat="47.20601" lon="4.68929">
        <ele>495</ele>
        <time>2014-04-23T12:59:55Z</time>
      </trkpt>
      <trkpt lat="47.20605" lon="4.68936">
        <ele>495</ele>
        <time>2014-04-23T12:59:59Z</time>
      </trkpt>
      <trkpt lat="47.20608" lon="4.68941">
        <ele>495</ele>
        <time>2014-04-23T13:00:03Z</time>
      </trkpt>
      <trkpt lat="47.20612" lon="4.68946">
        <ele>495</ele>
        <time>2014-04-23T13:00:07Z</time>
      </trkpt>
      <trkpt lat="47.20616" lon="4.6895">
        <ele>494</ele>
        <time>2014-04-23T13:00:11Z</time>
      </trkpt>
      <trkpt lat="47.2062" lon="4.68955">
        <ele>494</ele>
        <time>2014-04-23T13:00:15Z</time>
      </trkpt>
      <trkpt lat="47.20624" lon="4.68959">
        <ele>494</ele>
        <time>2014-04-23T13:00:20Z</time>
      </trkpt>
      <trkpt lat="47.20627" lon="4.68965">
        <ele>494</ele>
        <time>2014-04-23T13:00:25Z</time>
      </trkpt>
      <trkpt lat="47.2063" lon="4.6897">
        <ele>494</ele>
        <time>2014-04-23T13:00:30Z</time>
      </trkpt>
      <trkpt lat="47.20633" lon="4.68976">
        <ele>494</ele>
        <time>2014-04-23T13:00:34Z</time>
      </trkpt>
      <trkpt lat="47.20638" lon="4.68981">
        <ele>494</ele>
        <time>2014-04-23T13:00:38Z</time>
      </trkpt>
      <trkpt lat="47.20641" lon="4.68986">
        <ele>493</ele>
        <time>2014-04-23T13:00:42Z</time>
      </trkpt>
      <trkpt lat="47.20646" lon="4.68989">
        <ele>493</ele>
        <time>2014-04-23T13:00:49Z</time>
      </trkpt>
      <trkpt lat="47.2065" lon="4.68992">
        <ele>493</ele>
        <time>2014-04-23T13:00:54Z</time>
      </trkpt>
      <trkpt lat="47.20654" lon="4.68997">
        <ele>492</ele>
        <time>2014-04-23T13:00:59Z</time>
      </trkpt>
      <trkpt lat="47.20658" lon="4.68999">
        <ele>492</ele>
        <time>2014-04-23T13:01:06Z</time>
      </trkpt>
      <trkpt lat="47.20663" lon="4.69002">
        <ele>492</ele>
        <time>2014-04-23T13:01:10Z</time>
      </trkpt>
      <trkpt lat="47.20668" lon="4.69005">
        <ele>491</ele>
        <time>2014-04-23T13:01:14Z</time>
      </trkpt>
      <trkpt lat="47.20673" lon="4.69009">
        <ele>491</ele>
        <time>2014-04-23T13:01:18Z</time>
      </trkpt>
      <trkpt lat="47.20677" lon="4.69015">
        <ele>491</ele>
        <time>2014-04-23T13:01:22Z</time>
      </trkpt>
      <trkpt lat="47.20681" lon="4.69019">
        <ele>490</ele>
        <time>2014-04-23T13:01:25Z</time>
      </trkpt>
      <trkpt lat="47.20687" lon="4.69023">
        <ele>490</ele>
        <time>2014-04-23T13:01:28Z</time>
      </trkpt>
      <trkpt lat="47.20693" lon="4.69026">
        <ele>490</ele>
        <time>2014-04-23T13:01:31Z</time>
      </trkpt>
      <trkpt lat="47.20698" lon="4.6903">
        <ele>490</ele>
        <time>2014-04-23T13:01:34Z</time>
      </trkpt>
      <trkpt lat="47.20702" lon="4.69033">
        <ele>490</ele>
        <time>2014-04-23T13:01:37Z</time>
      </trkpt>
      <trkpt lat="47.20707" lon="4.69035">
        <ele>490</ele>
        <time>2014-04-23T13:01:40Z</time>
      </trkpt>
      <trkpt lat="47.20711" lon="4.69038">
        <ele>490</ele>
        <time>2014-04-23T13:01:43Z</time>
      </trkpt>
      <trkpt lat="47.20715" lon="4.69042">
        <ele>490</ele>
        <time>2014-04-23T13:01:47Z</time>
      </trkpt>
      <trkpt lat="47.2072" lon="4.69044">
        <ele>490</ele>
        <time>2014-04-23T13:01:50Z</time>
      </trkpt>
      <trkpt lat="47.20724" lon="4.69048">
        <ele>490</ele>
        <time>2014-04-23T13:01:54Z</time>
      </trkpt>
      <trkpt lat="47.20728" lon="4.69054">
        <ele>490</ele>
        <time>2014-04-23T13:01:58Z</time>
      </trkpt>
      <trkpt lat="47.20731" lon="4.6906">
        <ele>490</ele>
        <time>2014-04-23T13:02:02Z</time>
      </trkpt>
      <trkpt lat="47.20735" lon="4.69065">
        <ele>490</ele>
        <time>2014-04-23T13:02:08Z</time>
      </trkpt>
      <trkpt lat="47.2074" lon="4.69068">
        <ele>490</ele>
        <time>2014-04-23T13:02:12Z</time>
      </trkpt>
      <trkpt lat="47.20744" lon="4.69072">
        <ele>490</ele>
        <time>2014-04-23T13:02:16Z</time>
      </trkpt>
      <trkpt lat="47.20745" lon="4.6908">
        <ele>490</ele>
        <time>2014-04-23T13:02:20Z</time>
      </trkpt>
      <trkpt lat="47.20747" lon="4.69087">
        <ele>491</ele>
        <time>2014-04-23T13:02:23Z</time>
      </trkpt>
      <trkpt lat="47.2075" lon="4.69092">
        <ele>492</ele>
        <time>2014-04-23T13:02:26Z</time>
      </trkpt>
      <trkpt lat="47.20753" lon="4.69096">
        <ele>490</ele>
        <time>2014-04-23T13:02:29Z</time>
      </trkpt>
      <trkpt lat="47.20758" lon="4.69099">
        <ele>490</ele>
        <time>2014-04-23T13:02:32Z</time>
      </trkpt>
      <trkpt lat="47.20763" lon="4.69101">
        <ele>490</ele>
        <time>2014-04-23T13:02:35Z</time>
      </trkpt>
      <trkpt lat="47.20768" lon="4.69105">
        <ele>490</ele>
        <time>2014-04-23T13:02:39Z</time>
      </trkpt>
      <trkpt lat="47.20772" lon="4.6911">
        <ele>490</ele>
        <time>2014-04-23T13:02:43Z</time>
      </trkpt>
      <trkpt lat="47.20776" lon="4.69115">
        <ele>490</ele>
        <time>2014-04-23T13:02:47Z</time>
      </trkpt>
      <trkpt lat="47.2078" lon="4.69119">
        <ele>490</ele>
        <time>2014-04-23T13:02:51Z</time>
      </trkpt>
      <trkpt lat="47.20785" lon="4.69122">
        <ele>490</ele>
        <time>2014-04-23T13:02:55Z</time>
      </trkpt>
      <trkpt lat="47.2079" lon="4.69126">
        <ele>490</ele>
        <time>2014-04-23T13:02:59Z</time>
      </trkpt>
      <trkpt lat="47.20794" lon="4.69129">
        <ele>490</ele>
        <time>2014-04-23T13:03:02Z</time>
      </trkpt>
      <trkpt lat="47.20798" lon="4.69133">
        <ele>490</ele>
        <time>2014-04-23T13:03:06Z</time>
      </trkpt>
      <trkpt lat="47.20802" lon="4.69137">
        <ele>490</ele>
        <time>2014-04-23T13:03:11Z</time>
      </trkpt>
      <trkpt lat="47.20806" lon="4.69141">
        <ele>490</ele>
        <time>2014-04-23T13:03:15Z</time>
      </trkpt>
      <trkpt lat="47.2081" lon="4.69146">
        <ele>490</ele>
        <time>2014-04-23T13:03:19Z</time>
      </trkpt>
      <trkpt lat="47.20814" lon="4.6915">
        <ele>490</ele>
        <time>2014-04-23T13:03:22Z</time>
      </trkpt>
      <trkpt lat="47.20818" lon="4.69155">
        <ele>490</ele>
        <time>2014-04-23T13:03:26Z</time>
      </trkpt>
      <trkpt lat="47.20822" lon="4.69159">
        <ele>490</ele>
        <time>2014-04-23T13:03:32Z</time>
      </trkpt>
      <trkpt lat="47.20826" lon="4.69162">
        <ele>490</ele>
        <time>2014-04-23T13:03:35Z</time>
      </trkpt>
      <trkpt lat="47.20831" lon="4.69167">
        <ele>491</ele>
        <time>2014-04-23T13:03:39Z</time>
      </trkpt>
      <trkpt lat="47.20835" lon="4.69171">
        <ele>490</ele>
        <time>2014-04-23T13:03:43Z</time>
      </trkpt>
      <trkpt lat="47.2084" lon="4.69172">
        <ele>489</ele>
        <time>2014-04-23T13:03:52Z</time>
      </trkpt>
      <trkpt lat="47.20837" lon="4.69175">
        <ele>489</ele>
        <time>2014-04-23T13:04:30Z</time>
      </trkpt>
      <trkpt lat="47.20841" lon="4.69178">
        <ele>489</ele>
        <time>2014-04-23T13:04:33Z</time>
      </trkpt>
      <trkpt lat="47.20846" lon="4.69182">
        <ele>489</ele>
        <time>2014-04-23T13:04:37Z</time>
      </trkpt>
      <trkpt lat="47.2085" lon="4.69188">
        <ele>488</ele>
        <time>2014-04-23T13:04:42Z</time>
      </trkpt>
      <trkpt lat="47.20852" lon="4.69193">
        <ele>488</ele>
        <time>2014-04-23T13:04:47Z</time>
      </trkpt>
      <trkpt lat="47.20854" lon="4.69199">
        <ele>488</ele>
        <time>2014-04-23T13:04:55Z</time>
      </trkpt>
      <trkpt lat="47.20857" lon="4.69205">
        <ele>488</ele>
        <time>2014-04-23T13:05:04Z</time>
      </trkpt>
      <trkpt lat="47.20861" lon="4.69211">
        <ele>488</ele>
        <time>2014-04-23T13:05:09Z</time>
      </trkpt>
      <trkpt lat="47.20864" lon="4.69216">
        <ele>488</ele>
        <time>2014-04-23T13:05:15Z</time>
      </trkpt>
      <trkpt lat="47.20867" lon="4.69221">
        <ele>488</ele>
        <time>2014-04-23T13:05:18Z</time>
      </trkpt>
      <trkpt lat="47.20871" lon="4.69225">
        <ele>488</ele>
        <time>2014-04-23T13:05:22Z</time>
      </trkpt>
      <trkpt lat="47.20875" lon="4.69231">
        <ele>488</ele>
        <time>2014-04-23T13:05:26Z</time>
      </trkpt>
      <trkpt lat="47.20879" lon="4.69235">
        <ele>488</ele>
        <time>2014-04-23T13:05:30Z</time>
      </trkpt>
      <trkpt lat="47.20883" lon="4.69239">
        <ele>487</ele>
        <time>2014-04-23T13:05:34Z</time>
      </trkpt>
      <trkpt lat="47.20888" lon="4.69245">
        <ele>487</ele>
        <time>2014-04-23T13:05:38Z</time>
      </trkpt>
      <trkpt lat="47.20892" lon="4.69249">
        <ele>487</ele>
        <time>2014-04-23T13:05:44Z</time>
      </trkpt>
      <trkpt lat="47.20894" lon="4.69255">
        <ele>488</ele>
        <time>2014-04-23T13:05:49Z</time>
      </trkpt>
      <trkpt lat="47.20897" lon="4.69262">
        <ele>488</ele>
        <time>2014-04-23T13:05:53Z</time>
      </trkpt>
      <trkpt lat="47.20899" lon="4.69268">
        <ele>488</ele>
        <time>2014-04-23T13:05:58Z</time>
      </trkpt>
      <trkpt lat="47.20902" lon="4.69276">
        <ele>488</ele>
        <time>2014-04-23T13:06:02Z</time>
      </trkpt>
      <trkpt lat="47.20906" lon="4.69283">
        <ele>488</ele>
        <time>2014-04-23T13:06:05Z</time>
      </trkpt>
      <trkpt lat="47.20908" lon="4.69289">
        <ele>488</ele>
        <time>2014-04-23T13:06:10Z</time>
      </trkpt>
      <trkpt lat="47.2091" lon="4.69295">
        <ele>488</ele>
        <time>2014-04-23T13:06:15Z</time>
      </trkpt>
      <trkpt lat="47.20911" lon="4.69302">
        <ele>488</ele>
        <time>2014-04-23T13:06:19Z</time>
      </trkpt>
      <trkpt lat="47.20912" lon="4.69309">
        <ele>488</ele>
        <time>2014-04-23T13:06:24Z</time>
      </trkpt>
      <trkpt lat="47.20912" lon="4.69317">
        <ele>487</ele>
        <time>2014-04-23T13:06:29Z</time>
      </trkpt>
      <trkpt lat="47.20912" lon="4.69325">
        <ele>487</ele>
        <time>2014-04-23T13:06:33Z</time>
      </trkpt>
      <trkpt lat="47.20913" lon="4.69332">
        <ele>486</ele>
        <time>2014-04-23T13:06:37Z</time>
      </trkpt>
      <trkpt lat="47.20913" lon="4.69341">
        <ele>486</ele>
        <time>2014-04-23T13:06:41Z</time>
      </trkpt>
      <trkpt lat="47.20914" lon="4.69348">
        <ele>487</ele>
        <time>2014-04-23T13:06:45Z</time>
      </trkpt>
      <trkpt lat="47.20916" lon="4.69354">
        <ele>487</ele>
        <time>2014-04-23T13:06:50Z</time>
      </trkpt>
      <trkpt lat="47.20919" lon="4.6936">
        <ele>481</ele>
        <time>2014-04-23T13:06:54Z</time>
      </trkpt>
      <trkpt lat="47.20921" lon="4.69366">
        <ele>481</ele>
        <time>2014-04-23T13:06:58Z</time>
      </trkpt>
      <trkpt lat="47.20925" lon="4.69372">
        <ele>481</ele>
        <time>2014-04-23T13:07:02Z</time>
      </trkpt>
      <trkpt lat="47.20927" lon="4.69378">
        <ele>481</ele>
        <time>2014-04-23T13:07:05Z</time>
      </trkpt>
      <trkpt lat="47.20929" lon="4.69385">
        <ele>480</ele>
        <time>2014-04-23T13:07:08Z</time>
      </trkpt>
      <trkpt lat="47.20933" lon="4.69391">
        <ele>480</ele>
        <time>2014-04-23T13:07:12Z</time>
      </trkpt>
      <trkpt lat="47.20936" lon="4.69396">
        <ele>480</ele>
        <time>2014-04-23T13:07:15Z</time>
      </trkpt>
      <trkpt lat="47.20938" lon="4.69403">
        <ele>480</ele>
        <time>2014-04-23T13:07:19Z</time>
      </trkpt>
      <trkpt lat="47.2094" lon="4.69409">
        <ele>480</ele>
        <time>2014-04-23T13:07:22Z</time>
      </trkpt>
      <trkpt lat="47.20942" lon="4.69415">
        <ele>480</ele>
        <time>2014-04-23T13:07:26Z</time>
      </trkpt>
      <trkpt lat="47.20946" lon="4.6942">
        <ele>480</ele>
        <time>2014-04-23T13:07:34Z</time>
      </trkpt>
      <trkpt lat="47.2095" lon="4.69422">
        <ele>480</ele>
        <time>2014-04-23T13:07:38Z</time>
      </trkpt>
      <trkpt lat="47.20955" lon="4.69423">
        <ele>479</ele>
        <time>2014-04-23T13:07:42Z</time>
      </trkpt>
      <trkpt lat="47.2096" lon="4.69424">
        <ele>479</ele>
        <time>2014-04-23T13:07:47Z</time>
      </trkpt>
      <trkpt lat="47.20965" lon="4.69424">
        <ele>479</ele>
        <time>2014-04-23T13:07:52Z</time>
      </trkpt>
      <trkpt lat="47.20971" lon="4.69423">
        <ele>478</ele>
        <time>2014-04-23T13:07:56Z</time>
      </trkpt>
      <trkpt lat="47.20976" lon="4.69423">
        <ele>478</ele>
        <time>2014-04-23T13:08:00Z</time>
      </trkpt>
      <trkpt lat="47.20981" lon="4.69421">
        <ele>477</ele>
        <time>2014-04-23T13:08:04Z</time>
      </trkpt>
      <trkpt lat="47.20985" lon="4.69418">
        <ele>477</ele>
        <time>2014-04-23T13:08:10Z</time>
      </trkpt>
      <trkpt lat="47.2099" lon="4.69416">
        <ele>476</ele>
        <time>2014-04-23T13:08:14Z</time>
      </trkpt>
      <trkpt lat="47.20994" lon="4.69417">
        <ele>475</ele>
        <time>2014-04-23T13:08:16Z</time>
      </trkpt>
      <trkpt lat="47.20999" lon="4.69419">
        <ele>474</ele>
        <time>2014-04-23T13:08:18Z</time>
      </trkpt>
      <trkpt lat="47.21005" lon="4.69418">
        <ele>474</ele>
        <time>2014-04-23T13:08:21Z</time>
      </trkpt>
      <trkpt lat="47.2101" lon="4.69417">
        <ele>473</ele>
        <time>2014-04-23T13:08:24Z</time>
      </trkpt>
      <trkpt lat="47.21014" lon="4.69416">
        <ele>472</ele>
        <time>2014-04-23T13:08:28Z</time>
      </trkpt>
      <trkpt lat="47.21019" lon="4.69413">
        <ele>472</ele>
        <time>2014-04-23T13:08:32Z</time>
      </trkpt>
      <trkpt lat="47.21023" lon="4.69411">
        <ele>471</ele>
        <time>2014-04-23T13:08:38Z</time>
      </trkpt>
      <trkpt lat="47.21028" lon="4.69412">
        <ele>471</ele>
        <time>2014-04-23T13:08:43Z</time>
      </trkpt>
      <trkpt lat="47.21033" lon="4.69413">
        <ele>471</ele>
        <time>2014-04-23T13:08:49Z</time>
      </trkpt>
      <trkpt lat="47.21038" lon="4.69414">
        <ele>470</ele>
        <time>2014-04-23T13:08:53Z</time>
      </trkpt>
      <trkpt lat="47.21043" lon="4.69417">
        <ele>471</ele>
        <time>2014-04-23T13:08:58Z</time>
      </trkpt>
      <trkpt lat="47.21048" lon="4.69418">
        <ele>471</ele>
        <time>2014-04-23T13:09:02Z</time>
      </trkpt>
      <trkpt lat="47.21052" lon="4.69421">
        <ele>471</ele>
        <time>2014-04-23T13:09:06Z</time>
      </trkpt>
      <trkpt lat="47.21057" lon="4.69423">
        <ele>470</ele>
        <time>2014-04-23T13:09:10Z</time>
      </trkpt>
      <trkpt lat="47.21063" lon="4.69426">
        <ele>470</ele>
        <time>2014-04-23T13:09:14Z</time>
      </trkpt>
      <trkpt lat="47.21067" lon="4.69429">
        <ele>470</ele>
        <time>2014-04-23T13:09:17Z</time>
      </trkpt>
      <trkpt lat="47.21073" lon="4.6943">
        <ele>469</ele>
        <time>2014-04-23T13:09:20Z</time>
      </trkpt>
      <trkpt lat="47.21079" lon="4.69431">
        <ele>469</ele>
        <time>2014-04-23T13:09:23Z</time>
      </trkpt>
      <trkpt lat="47.21083" lon="4.69432">
        <ele>469</ele>
        <time>2014-04-23T13:09:26Z</time>
      </trkpt>
      <trkpt lat="47.21088" lon="4.69436">
        <ele>465</ele>
        <time>2014-04-23T13:09:30Z</time>
      </trkpt>
      <trkpt lat="47.21092" lon="4.69442">
        <ele>465</ele>
        <time>2014-04-23T13:09:34Z</time>
      </trkpt>
      <trkpt lat="47.21095" lon="4.69448">
        <ele>464</ele>
        <time>2014-04-23T13:09:38Z</time>
      </trkpt>
      <trkpt lat="47.21099" lon="4.69452">
        <ele>464</ele>
        <time>2014-04-23T13:09:42Z</time>
      </trkpt>
      <trkpt lat="47.21103" lon="4.69457">
        <ele>464</ele>
        <time>2014-04-23T13:09:46Z</time>
      </trkpt>
      <trkpt lat="47.21107" lon="4.69463">
        <ele>464</ele>
        <time>2014-04-23T13:09:50Z</time>
      </trkpt>
      <trkpt lat="47.21111" lon="4.69468">
        <ele>464</ele>
        <time>2014-04-23T13:09:54Z</time>
      </trkpt>
      <trkpt lat="47.21114" lon="4.69476">
        <ele>464</ele>
        <time>2014-04-23T13:09:59Z</time>
      </trkpt>
      <trkpt lat="47.21118" lon="4.69481">
        <ele>463</ele>
        <time>2014-04-23T13:10:04Z</time>
      </trkpt>
      <trkpt lat="47.21123" lon="4.69485">
        <ele>463</ele>
        <time>2014-04-23T13:10:08Z</time>
      </trkpt>
      <trkpt lat="47.21127" lon="4.6949">
        <ele>463</ele>
        <time>2014-04-23T13:10:11Z</time>
      </trkpt>
      <trkpt lat="47.2113" lon="4.69495">
        <ele>463</ele>
        <time>2014-04-23T13:10:14Z</time>
      </trkpt>
      <trkpt lat="47.21134" lon="4.69499">
        <ele>462</ele>
        <time>2014-04-23T13:10:16Z</time>
      </trkpt>
      <trkpt lat="47.21138" lon="4.69504">
        <ele>463</ele>
        <time>2014-04-23T13:10:19Z</time>
      </trkpt>
      <trkpt lat="47.21142" lon="4.69509">
        <ele>463</ele>
        <time>2014-04-23T13:10:23Z</time>
      </trkpt>
      <trkpt lat="47.21142" lon="4.69516">
        <ele>463</ele>
        <time>2014-04-23T13:10:30Z</time>
      </trkpt>
      <trkpt lat="47.21144" lon="4.69523">
        <ele>463</ele>
        <time>2014-04-23T13:10:36Z</time>
      </trkpt>
      <trkpt lat="47.21144" lon="4.69531">
        <ele>463</ele>
        <time>2014-04-23T13:10:41Z</time>
      </trkpt>
      <trkpt lat="47.21148" lon="4.69536">
        <ele>463</ele>
        <time>2014-04-23T13:10:44Z</time>
      </trkpt>
      <trkpt lat="47.21153" lon="4.6954">
        <ele>463</ele>
        <time>2014-04-23T13:10:48Z</time>
      </trkpt>
      <trkpt lat="47.21157" lon="4.69546">
        <ele>463</ele>
        <time>2014-04-23T13:10:53Z</time>
      </trkpt>
      <trkpt lat="47.2116" lon="4.69553">
        <ele>462</ele>
        <time>2014-04-23T13:10:57Z</time>
      </trkpt>
      <trkpt lat="47.21162" lon="4.6956">
        <ele>462</ele>
        <time>2014-04-23T13:11:01Z</time>
      </trkpt>
      <trkpt lat="47.21163" lon="4.69567">
        <ele>461</ele>
        <time>2014-04-23T13:11:04Z</time>
      </trkpt>
      <trkpt lat="47.21164" lon="4.69574">
        <ele>461</ele>
        <time>2014-04-23T13:11:07Z</time>
      </trkpt>
      <trkpt lat="47.21165" lon="4.69581">
        <ele>460</ele>
        <time>2014-04-23T13:11:11Z</time>
      </trkpt>
      <trkpt lat="47.21168" lon="4.69589">
        <ele>457</ele>
        <time>2014-04-23T13:11:16Z</time>
      </trkpt>
      <trkpt lat="47.21172" lon="4.69593">
        <ele>456</ele>
        <time>2014-04-23T13:11:20Z</time>
      </trkpt>
      <trkpt lat="47.21173" lon="4.69601">
        <ele>455</ele>
        <time>2014-04-23T13:11:25Z</time>
      </trkpt>
      <trkpt lat="47.21176" lon="4.69607">
        <ele>454</ele>
        <time>2014-04-23T13:11:29Z</time>
      </trkpt>
      <trkpt lat="47.2118" lon="4.69613">
        <ele>454</ele>
        <time>2014-04-23T13:11:32Z</time>
      </trkpt>
      <trkpt lat="47.21184" lon="4.69617">
        <ele>453</ele>
        <time>2014-04-23T13:11:36Z</time>
      </trkpt>
      <trkpt lat="47.21185" lon="4.69625">
        <ele>453</ele>
        <time>2014-04-23T13:11:41Z</time>
      </trkpt>
      <trkpt lat="47.21184" lon="4.69632">
        <ele>453</ele>
        <time>2014-04-23T13:11:45Z</time>
      </trkpt>
      <trkpt lat="47.21185" lon="4.6964">
        <ele>453</ele>
        <time>2014-04-23T13:11:49Z</time>
      </trkpt>
      <trkpt lat="47.21185" lon="4.69647">
        <ele>453</ele>
        <time>2014-04-23T13:11:53Z</time>
      </trkpt>
      <trkpt lat="47.21186" lon="4.69654">
        <ele>454</ele>
        <time>2014-04-23T13:11:59Z</time>
      </trkpt>
      <trkpt lat="47.21179" lon="4.69693">
        <ele>453</ele>
        <time>2014-04-23T13:12:33Z</time>
      </trkpt>
      <trkpt lat="47.21179" lon="4.69701">
        <ele>452</ele>
        <time>2014-04-23T13:12:37Z</time>
      </trkpt>
      <trkpt lat="47.21176" lon="4.69707">
        <ele>452</ele>
        <time>2014-04-23T13:12:42Z</time>
      </trkpt>
      <trkpt lat="47.21173" lon="4.69714">
        <ele>452</ele>
        <time>2014-04-23T13:12:47Z</time>
      </trkpt>
      <trkpt lat="47.21174" lon="4.69722">
        <ele>452</ele>
        <time>2014-04-23T13:12:51Z</time>
      </trkpt>
      <trkpt lat="47.21173" lon="4.69729">
        <ele>453</ele>
        <time>2014-04-23T13:12:55Z</time>
      </trkpt>
      <trkpt lat="47.21172" lon="4.69737">
        <ele>454</ele>
        <time>2014-04-23T13:12:59Z</time>
      </trkpt>
      <trkpt lat="47.21172" lon="4.69744">
        <ele>455</ele>
        <time>2014-04-23T13:13:03Z</time>
      </trkpt>
      <trkpt lat="47.21171" lon="4.69751">
        <ele>455</ele>
        <time>2014-04-23T13:13:07Z</time>
      </trkpt>
      <trkpt lat="47.21168" lon="4.69757">
        <ele>455</ele>
        <time>2014-04-23T13:13:12Z</time>
      </trkpt>
      <trkpt lat="47.21167" lon="4.69765">
        <ele>460</ele>
        <time>2014-04-23T13:13:16Z</time>
      </trkpt>
      <trkpt lat="47.21165" lon="4.69772">
        <ele>460</ele>
        <time>2014-04-23T13:13:19Z</time>
      </trkpt>
      <trkpt lat="47.21164" lon="4.69779">
        <ele>461</ele>
        <time>2014-04-23T13:13:23Z</time>
      </trkpt>
      <trkpt lat="47.2116" lon="4.69783">
        <ele>461</ele>
        <time>2014-04-23T13:13:26Z</time>
      </trkpt>
      <trkpt lat="47.21161" lon="4.6979">
        <ele>461</ele>
        <time>2014-04-23T13:13:30Z</time>
      </trkpt>
      <trkpt lat="47.21163" lon="4.69797">
        <ele>461</ele>
        <time>2014-04-23T13:13:34Z</time>
      </trkpt>
      <trkpt lat="47.21165" lon="4.69799">
        <ele>461</ele>
        <time>2014-04-23T13:13:47Z</time>
      </trkpt>
      <trkpt lat="47.21166" lon="4.69805">
        <ele>461</ele>
        <time>2014-04-23T13:13:54Z</time>
      </trkpt>
      <trkpt lat="47.21167" lon="4.69814">
        <ele>452</ele>
        <time>2014-04-23T13:14:05Z</time>
      </trkpt>
      <trkpt lat="47.21174" lon="4.69817">
        <ele>452</ele>
        <time>2014-04-23T13:14:09Z</time>
      </trkpt>
      <trkpt lat="47.21179" lon="4.69821">
        <ele>451</ele>
        <time>2014-04-23T13:14:12Z</time>
      </trkpt>
      <trkpt lat="47.21183" lon="4.69825">
        <ele>451</ele>
        <time>2014-04-23T13:14:16Z</time>
      </trkpt>
      <trkpt lat="47.21184" lon="4.69832">
        <ele>451</ele>
        <time>2014-04-23T13:14:19Z</time>
      </trkpt>
      <trkpt lat="47.21183" lon="4.69839">
        <ele>451</ele>
        <time>2014-04-23T13:14:22Z</time>
      </trkpt>
      <trkpt lat="47.21182" lon="4.69847">
        <ele>450</ele>
        <time>2014-04-23T13:14:26Z</time>
      </trkpt>
      <trkpt lat="47.21183" lon="4.69853">
        <ele>449</ele>
        <time>2014-04-23T13:14:30Z</time>
      </trkpt>
      <trkpt lat="47.21186" lon="4.69861">
        <ele>448</ele>
        <time>2014-04-23T13:14:34Z</time>
      </trkpt>
      <trkpt lat="47.21185" lon="4.69869">
        <ele>448</ele>
        <time>2014-04-23T13:14:39Z</time>
      </trkpt>
      <trkpt lat="47.21185" lon="4.69877">
        <ele>448</ele>
        <time>2014-04-23T13:14:43Z</time>
      </trkpt>
      <trkpt lat="47.21186" lon="4.69884">
        <ele>448</ele>
        <time>2014-04-23T13:14:47Z</time>
      </trkpt>
      <trkpt lat="47.21185" lon="4.69891">
        <ele>448</ele>
        <time>2014-04-23T13:14:52Z</time>
      </trkpt>
      <trkpt lat="47.21186" lon="4.699">
        <ele>449</ele>
        <time>2014-04-23T13:14:56Z</time>
      </trkpt>
      <trkpt lat="47.21187" lon="4.69908">
        <ele>449</ele>
        <time>2014-04-23T13:15:00Z</time>
      </trkpt>
      <trkpt lat="47.21188" lon="4.69916">
        <ele>449</ele>
        <time>2014-04-23T13:15:04Z</time>
      </trkpt>
      <trkpt lat="47.21188" lon="4.69923">
        <ele>448</ele>
        <time>2014-04-23T13:15:07Z</time>
      </trkpt>
      <trkpt lat="47.21189" lon="4.69931">
        <ele>448</ele>
        <time>2014-04-23T13:15:11Z</time>
      </trkpt>
      <trkpt lat="47.21191" lon="4.69938">
        <ele>447</ele>
        <time>2014-04-23T13:15:15Z</time>
      </trkpt>
      <trkpt lat="47.21192" lon="4.69945">
        <ele>447</ele>
        <time>2014-04-23T13:15:19Z</time>
      </trkpt>
      <trkpt lat="47.21193" lon="4.69952">
        <ele>446</ele>
        <time>2014-04-23T13:15:23Z</time>
      </trkpt>
      <trkpt lat="47.21194" lon="4.6996">
        <ele>446</ele>
        <time>2014-04-23T13:15:28Z</time>
      </trkpt>
      <trkpt lat="47.21196" lon="4.69966">
        <ele>446</ele>
        <time>2014-04-23T13:15:31Z</time>
      </trkpt>
      <trkpt lat="47.21196" lon="4.69974">
        <ele>446</ele>
        <time>2014-04-23T13:15:35Z</time>
      </trkpt>
      <trkpt lat="47.21197" lon="4.69981">
        <ele>446</ele>
        <time>2014-04-23T13:15:39Z</time>
      </trkpt>
      <trkpt lat="47.212" lon="4.69989">
        <ele>446</ele>
        <time>2014-04-23T13:15:43Z</time>
      </trkpt>
      <trkpt lat="47.21199" lon="4.69998">
        <ele>446</ele>
        <time>2014-04-23T13:15:58Z</time>
      </trkpt>
      <trkpt lat="47.21199" lon="4.70005">
        <ele>445</ele>
        <time>2014-04-23T13:16:02Z</time>
      </trkpt>
      <trkpt lat="47.21199" lon="4.70013">
        <ele>445</ele>
        <time>2014-04-23T13:16:06Z</time>
      </trkpt>
      <trkpt lat="47.21201" lon="4.7002">
        <ele>444</ele>
        <time>2014-04-23T13:16:11Z</time>
      </trkpt>
      <trkpt lat="47.21204" lon="4.70026">
        <ele>444</ele>
        <time>2014-04-23T13:16:14Z</time>
      </trkpt>
      <trkpt lat="47.21205" lon="4.70033">
        <ele>443</ele>
        <time>2014-04-23T13:16:19Z</time>
      </trkpt>
      <trkpt lat="47.21206" lon="4.7004">
        <ele>443</ele>
        <time>2014-04-23T13:16:23Z</time>
      </trkpt>
      <trkpt lat="47.2121" lon="4.70045">
        <ele>443</ele>
        <time>2014-04-23T13:16:27Z</time>
      </trkpt>
      <trkpt lat="47.2121" lon="4.70053">
        <ele>443</ele>
        <time>2014-04-23T13:16:32Z</time>
      </trkpt>
      <trkpt lat="47.21209" lon="4.7006">
        <ele>443</ele>
        <time>2014-04-23T13:16:36Z</time>
      </trkpt>
      <trkpt lat="47.2121" lon="4.70069">
        <ele>442</ele>
        <time>2014-04-23T13:16:41Z</time>
      </trkpt>
      <trkpt lat="47.21208" lon="4.7008">
        <ele>442</ele>
        <time>2014-04-23T13:16:46Z</time>
      </trkpt>
      <trkpt lat="47.21205" lon="4.70086">
        <ele>440</ele>
        <time>2014-04-23T13:16:49Z</time>
      </trkpt>
      <trkpt lat="47.21203" lon="4.70093">
        <ele>440</ele>
        <time>2014-04-23T13:16:52Z</time>
      </trkpt>
      <trkpt lat="47.21201" lon="4.701">
        <ele>440</ele>
        <time>2014-04-23T13:16:55Z</time>
      </trkpt>
      <trkpt lat="47.21199" lon="4.70108">
        <ele>440</ele>
        <time>2014-04-23T13:16:58Z</time>
      </trkpt>
      <trkpt lat="47.21199" lon="4.70115">
        <ele>440</ele>
        <time>2014-04-23T13:17:01Z</time>
      </trkpt>
      <trkpt lat="47.21197" lon="4.70123">
        <ele>440</ele>
        <time>2014-04-23T13:17:04Z</time>
      </trkpt>
      <trkpt lat="47.21195" lon="4.70129">
        <ele>440</ele>
        <time>2014-04-23T13:17:07Z</time>
      </trkpt>
      <trkpt lat="47.21192" lon="4.70135">
        <ele>440</ele>
        <time>2014-04-23T13:17:14Z</time>
      </trkpt>
      <trkpt lat="47.2119" lon="4.70151">
        <ele>440</ele>
        <time>2014-04-23T13:17:38Z</time>
      </trkpt>
      <trkpt lat="47.21187" lon="4.70157">
        <ele>440</ele>
        <time>2014-04-23T13:17:42Z</time>
      </trkpt>
      <trkpt lat="47.21183" lon="4.70161">
        <ele>440</ele>
        <time>2014-04-23T13:17:47Z</time>
      </trkpt>
      <trkpt lat="47.21179" lon="4.70166">
        <ele>440</ele>
        <time>2014-04-23T13:17:52Z</time>
      </trkpt>
      <trkpt lat="47.21175" lon="4.70171">
        <ele>439</ele>
        <time>2014-04-23T13:17:57Z</time>
      </trkpt>
      <trkpt lat="47.21172" lon="4.70176">
        <ele>439</ele>
        <time>2014-04-23T13:18:00Z</time>
      </trkpt>
      <trkpt lat="47.21168" lon="4.7018">
        <ele>438</ele>
        <time>2014-04-23T13:18:03Z</time>
      </trkpt>
      <trkpt lat="47.21163" lon="4.70183">
        <ele>441</ele>
        <time>2014-04-23T13:18:06Z</time>
      </trkpt>
      <trkpt lat="47.2116" lon="4.70187">
        <ele>441</ele>
        <time>2014-04-23T13:18:10Z</time>
      </trkpt>
      <trkpt lat="47.21156" lon="4.70193">
        <ele>441</ele>
        <time>2014-04-23T13:18:14Z</time>
      </trkpt>
      <trkpt lat="47.21153" lon="4.702">
        <ele>441</ele>
        <time>2014-04-23T13:18:18Z</time>
      </trkpt>
      <trkpt lat="47.21147" lon="4.70203">
        <ele>441</ele>
        <time>2014-04-23T13:18:35Z</time>
      </trkpt>
      <trkpt lat="47.21142" lon="4.70206">
        <ele>441</ele>
        <time>2014-04-23T13:18:39Z</time>
      </trkpt>
      <trkpt lat="47.21138" lon="4.70208">
        <ele>441</ele>
        <time>2014-04-23T13:18:42Z</time>
      </trkpt>
      <trkpt lat="47.21133" lon="4.70211">
        <ele>441</ele>
        <time>2014-04-23T13:18:45Z</time>
      </trkpt>
      <trkpt lat="47.21127" lon="4.70213">
        <ele>441</ele>
        <time>2014-04-23T13:18:49Z</time>
      </trkpt>
      <trkpt lat="47.21121" lon="4.70215">
        <ele>441</ele>
        <time>2014-04-23T13:18:52Z</time>
      </trkpt>
      <trkpt lat="47.21116" lon="4.70218">
        <ele>441</ele>
        <time>2014-04-23T13:18:55Z</time>
      </trkpt>
      <trkpt lat="47.21111" lon="4.70219">
        <ele>441</ele>
        <time>2014-04-23T13:19:00Z</time>
      </trkpt>
      <trkpt lat="47.21107" lon="4.70223">
        <ele>441</ele>
        <time>2014-04-23T13:19:06Z</time>
      </trkpt>
      <trkpt lat="47.21102" lon="4.70227">
        <ele>441</ele>
        <time>2014-04-23T13:19:11Z</time>
      </trkpt>
      <trkpt lat="47.21099" lon="4.70232">
        <ele>440</ele>
        <time>2014-04-23T13:19:16Z</time>
      </trkpt>
      <trkpt lat="47.21096" lon="4.70237">
        <ele>440</ele>
        <time>2014-04-23T13:19:21Z</time>
      </trkpt>
      <trkpt lat="47.21091" lon="4.70238">
        <ele>440</ele>
        <time>2014-04-23T13:19:26Z</time>
      </trkpt>
      <trkpt lat="47.21087" lon="4.7024">
        <ele>440</ele>
        <time>2014-04-23T13:19:30Z</time>
      </trkpt>
      <trkpt lat="47.21083" lon="4.70243">
        <ele>440</ele>
        <time>2014-04-23T13:19:33Z</time>
      </trkpt>
      <trkpt lat="47.21078" lon="4.70248">
        <ele>440</ele>
        <time>2014-04-23T13:19:37Z</time>
      </trkpt>
      <trkpt lat="47.21074" lon="4.70251">
        <ele>438</ele>
        <time>2014-04-23T13:19:41Z</time>
      </trkpt>
      <trkpt lat="47.21069" lon="4.70254">
        <ele>438</ele>
        <time>2014-04-23T13:19:45Z</time>
      </trkpt>
      <trkpt lat="47.21065" lon="4.70257">
        <ele>437</ele>
        <time>2014-04-23T13:19:48Z</time>
      </trkpt>
      <trkpt lat="47.21061" lon="4.70261">
        <ele>437</ele>
        <time>2014-04-23T13:19:51Z</time>
      </trkpt>
      <trkpt lat="47.21058" lon="4.70266">
        <ele>437</ele>
        <time>2014-04-23T13:19:55Z</time>
      </trkpt>
      <trkpt lat="47.21054" lon="4.7027">
        <ele>437</ele>
        <time>2014-04-23T13:19:59Z</time>
      </trkpt>
      <trkpt lat="47.21049" lon="4.70275">
        <ele>436</ele>
        <time>2014-04-23T13:20:03Z</time>
      </trkpt>
      <trkpt lat="47.21047" lon="4.7028">
        <ele>436</ele>
        <time>2014-04-23T13:20:07Z</time>
      </trkpt>
      <trkpt lat="47.21047" lon="4.70289">
        <ele>436</ele>
        <time>2014-04-23T13:20:13Z</time>
      </trkpt>
      <trkpt lat="47.21045" lon="4.70295">
        <ele>435</ele>
        <time>2014-04-23T13:20:17Z</time>
      </trkpt>
      <trkpt lat="47.21044" lon="4.70301">
        <ele>435</ele>
        <time>2014-04-23T13:20:45Z</time>
      </trkpt>
      <trkpt lat="47.21041" lon="4.70308">
        <ele>435</ele>
        <time>2014-04-23T13:20:50Z</time>
      </trkpt>
      <trkpt lat="47.21037" lon="4.70313">
        <ele>434</ele>
        <time>2014-04-23T13:20:58Z</time>
      </trkpt>
      <trkpt lat="47.21033" lon="4.70316">
        <ele>435</ele>
        <time>2014-04-23T13:21:02Z</time>
      </trkpt>
      <trkpt lat="47.21029" lon="4.7032">
        <ele>435</ele>
        <time>2014-04-23T13:21:05Z</time>
      </trkpt>
      <trkpt lat="47.21025" lon="4.70325">
        <ele>434</ele>
        <time>2014-04-23T13:21:08Z</time>
      </trkpt>
      <trkpt lat="47.21022" lon="4.70331">
        <ele>434</ele>
        <time>2014-04-23T13:21:11Z</time>
      </trkpt>
      <trkpt lat="47.21019" lon="4.70338">
        <ele>430</ele>
        <time>2014-04-23T13:21:15Z</time>
      </trkpt>
      <trkpt lat="47.21016" lon="4.70343">
        <ele>430</ele>
        <time>2014-04-23T13:21:18Z</time>
      </trkpt>
      <trkpt lat="47.21012" lon="4.70348">
        <ele>430</ele>
        <time>2014-04-23T13:21:22Z</time>
      </trkpt>
      <trkpt lat="47.21009" lon="4.70354">
        <ele>430</ele>
        <time>2014-04-23T13:21:26Z</time>
      </trkpt>
      <trkpt lat="47.21007" lon="4.70362">
        <ele>429</ele>
        <time>2014-04-23T13:21:32Z</time>
      </trkpt>
      <trkpt lat="47.21007" lon="4.70367">
        <ele>429</ele>
        <time>2014-04-23T13:21:40Z</time>
      </trkpt>
      <trkpt lat="47.21009" lon="4.70373">
        <ele>428</ele>
        <time>2014-04-23T13:21:43Z</time>
      </trkpt>
      <trkpt lat="47.21015" lon="4.70381">
        <ele>428</ele>
        <time>2014-04-23T13:21:58Z</time>
      </trkpt>
      <trkpt lat="47.21017" lon="4.70388">
        <ele>427</ele>
        <time>2014-04-23T13:22:03Z</time>
      </trkpt>
      <trkpt lat="47.21017" lon="4.70396">
        <ele>427</ele>
        <time>2014-04-23T13:22:08Z</time>
      </trkpt>
      <trkpt lat="47.21018" lon="4.70403">
        <ele>427</ele>
        <time>2014-04-23T13:22:13Z</time>
      </trkpt>
      <trkpt lat="47.21015" lon="4.70405">
        <ele>427</ele>
        <time>2014-04-23T13:22:24Z</time>
      </trkpt>
      <trkpt lat="47.21011" lon="4.70406">
        <ele>427</ele>
        <time>2014-04-23T13:22:38Z</time>
      </trkpt>
      <trkpt lat="47.21013" lon="4.70412">
        <ele>427</ele>
        <time>2014-04-23T13:22:47Z</time>
      </trkpt>
      <trkpt lat="47.21015" lon="4.70419">
        <ele>425</ele>
        <time>2014-04-23T13:22:52Z</time>
      </trkpt>
      <trkpt lat="47.21017" lon="4.70427">
        <ele>424</ele>
        <time>2014-04-23T13:22:57Z</time>
      </trkpt>
      <trkpt lat="47.21018" lon="4.70434">
        <ele>423</ele>
        <time>2014-04-23T13:23:02Z</time>
      </trkpt>
      <trkpt lat="47.2102" lon="4.7044">
        <ele>423</ele>
        <time>2014-04-23T13:23:08Z</time>
      </trkpt>
      <trkpt lat="47.21016" lon="4.70447">
        <ele>422</ele>
        <time>2014-04-23T13:23:19Z</time>
      </trkpt>
      <trkpt lat="47.21018" lon="4.70454">
        <ele>422</ele>
        <time>2014-04-23T13:23:25Z</time>
      </trkpt>
      <trkpt lat="47.21019" lon="4.70461">
        <ele>422</ele>
        <time>2014-04-23T13:23:28Z</time>
      </trkpt>
      <trkpt lat="47.21021" lon="4.70468">
        <ele>421</ele>
        <time>2014-04-23T13:23:31Z</time>
      </trkpt>
      <trkpt lat="47.21025" lon="4.70471">
        <ele>421</ele>
        <time>2014-04-23T13:23:36Z</time>
      </trkpt>
      <trkpt lat="47.2103" lon="4.70469">
        <ele>421</ele>
        <time>2014-04-23T13:23:42Z</time>
      </trkpt>
      <trkpt lat="47.21035" lon="4.7047">
        <ele>421</ele>
        <time>2014-04-23T13:23:48Z</time>
      </trkpt>
      <trkpt lat="47.2104" lon="4.70472">
        <ele>420</ele>
        <time>2014-04-23T13:23:52Z</time>
      </trkpt>
      <trkpt lat="47.21043" lon="4.70476">
        <ele>420</ele>
        <time>2014-04-23T13:23:55Z</time>
      </trkpt>
      <trkpt lat="47.21048" lon="4.7048">
        <ele>419</ele>
        <time>2014-04-23T13:23:59Z</time>
      </trkpt>
      <trkpt lat="47.21051" lon="4.70485">
        <ele>419</ele>
        <time>2014-04-23T13:24:06Z</time>
      </trkpt>
      <trkpt lat="47.21054" lon="4.70492">
        <ele>418</ele>
        <time>2014-04-23T13:24:12Z</time>
      </trkpt>
      <trkpt lat="47.21059" lon="4.70495">
        <ele>418</ele>
        <time>2014-04-23T13:24:19Z</time>
      </trkpt>
      <trkpt lat="47.21062" lon="4.705">
        <ele>418</ele>
        <time>2014-04-23T13:24:23Z</time>
      </trkpt>
      <trkpt lat="47.21066" lon="4.70505">
        <ele>417</ele>
        <time>2014-04-23T13:24:27Z</time>
      </trkpt>
      <trkpt lat="47.2107" lon="4.70509">
        <ele>417</ele>
        <time>2014-04-23T13:24:30Z</time>
      </trkpt>
      <trkpt lat="47.21075" lon="4.70513">
        <ele>417</ele>
        <time>2014-04-23T13:24:34Z</time>
      </trkpt>
      <trkpt lat="47.21079" lon="4.70516">
        <ele>417</ele>
        <time>2014-04-23T13:24:39Z</time>
      </trkpt>
      <trkpt lat="47.21085" lon="4.70519">
        <ele>411</ele>
        <time>2014-04-23T13:24:43Z</time>
      </trkpt>
      <trkpt lat="47.2109" lon="4.70522">
        <ele>411</ele>
        <time>2014-04-23T13:24:47Z</time>
      </trkpt>
      <trkpt lat="47.21093" lon="4.70526">
        <ele>410</ele>
        <time>2014-04-23T13:24:51Z</time>
      </trkpt>
      <trkpt lat="47.21098" lon="4.70527">
        <ele>410</ele>
        <time>2014-04-23T13:25:05Z</time>
      </trkpt>
      <trkpt lat="47.21102" lon="4.70531">
        <ele>410</ele>
        <time>2014-04-23T13:25:10Z</time>
      </trkpt>
      <trkpt lat="47.21106" lon="4.70535">
        <ele>410</ele>
        <time>2014-04-23T13:25:15Z</time>
      </trkpt>
      <trkpt lat="47.21108" lon="4.70542">
        <ele>409</ele>
        <time>2014-04-23T13:25:21Z</time>
      </trkpt>
      <trkpt lat="47.21113" lon="4.70548">
        <ele>409</ele>
        <time>2014-04-23T13:25:25Z</time>
      </trkpt>
      <trkpt lat="47.21117" lon="4.70553">
        <ele>409</ele>
        <time>2014-04-23T13:25:28Z</time>
      </trkpt>
      <trkpt lat="47.21121" lon="4.70557">
        <ele>409</ele>
        <time>2014-04-23T13:25:32Z</time>
      </trkpt>
      <trkpt lat="47.21124" lon="4.70564">
        <ele>408</ele>
        <time>2014-04-23T13:25:36Z</time>
      </trkpt>
      <trkpt lat="47.21127" lon="4.70569">
        <ele>408</ele>
        <time>2014-04-23T13:25:40Z</time>
      </trkpt>
      <trkpt lat="47.21132" lon="4.70573">
        <ele>407</ele>
        <time>2014-04-23T13:25:43Z</time>
      </trkpt>
      <trkpt lat="47.21135" lon="4.70579">
        <ele>406</ele>
        <time>2014-04-23T13:25:47Z</time>
      </trkpt>
      <trkpt lat="47.21137" lon="4.70587">
        <ele>409</ele>
        <time>2014-04-23T13:25:52Z</time>
      </trkpt>
      <trkpt lat="47.21142" lon="4.70593">
        <ele>408</ele>
        <time>2014-04-23T13:25:57Z</time>
      </trkpt>
      <trkpt lat="47.21147" lon="4.70596">
        <ele>408</ele>
        <time>2014-04-23T13:25:59Z</time>
      </trkpt>
      <trkpt lat="47.21151" lon="4.706">
        <ele>408</ele>
        <time>2014-04-23T13:26:02Z</time>
      </trkpt>
      <trkpt lat="47.21154" lon="4.70606">
        <ele>408</ele>
        <time>2014-04-23T13:26:05Z</time>
      </trkpt>
      <trkpt lat="47.21158" lon="4.7061">
        <ele>408</ele>
        <time>2014-04-23T13:26:09Z</time>
      </trkpt>
      <trkpt lat="47.21161" lon="4.70617">
        <ele>409</ele>
        <time>2014-04-23T13:26:14Z</time>
      </trkpt>
      <trkpt lat="47.2116" lon="4.70624">
        <ele>410</ele>
        <time>2014-04-23T13:26:19Z</time>
      </trkpt>
      <trkpt lat="47.21163" lon="4.7063">
        <ele>410</ele>
        <time>2014-04-23T13:26:24Z</time>
      </trkpt>
      <trkpt lat="47.21167" lon="4.70636">
        <ele>410</ele>
        <time>2014-04-23T13:26:29Z</time>
      </trkpt>
      <trkpt lat="47.21171" lon="4.70638">
        <ele>400</ele>
        <time>2014-04-23T13:26:33Z</time>
      </trkpt>
      <trkpt lat="47.21176" lon="4.70641">
        <ele>400</ele>
        <time>2014-04-23T13:26:37Z</time>
      </trkpt>
      <trkpt lat="47.21181" lon="4.70643">
        <ele>400</ele>
        <time>2014-04-23T13:26:40Z</time>
      </trkpt>
      <trkpt lat="47.21184" lon="4.70648">
        <ele>400</ele>
        <time>2014-04-23T13:26:44Z</time>
      </trkpt>
      <trkpt lat="47.21189" lon="4.70653">
        <ele>400</ele>
        <time>2014-04-23T13:26:48Z</time>
      </trkpt>
      <trkpt lat="47.21192" lon="4.70657">
        <ele>399</ele>
        <time>2014-04-23T13:26:52Z</time>
      </trkpt>
      <trkpt lat="47.21197" lon="4.70659">
        <ele>399</ele>
        <time>2014-04-23T13:26:56Z</time>
      </trkpt>
      <trkpt lat="47.21201" lon="4.70663">
        <ele>398</ele>
        <time>2014-04-23T13:27:00Z</time>
      </trkpt>
      <trkpt lat="47.21206" lon="4.70667">
        <ele>405</ele>
        <time>2014-04-23T13:27:04Z</time>
      </trkpt>
      <trkpt lat="47.21207" lon="4.70673">
        <ele>405</ele>
        <time>2014-04-23T13:27:23Z</time>
      </trkpt>
      <trkpt lat="47.21209" lon="4.70684">
        <ele>406</ele>
        <time>2014-04-23T13:27:25Z</time>
      </trkpt>
      <trkpt lat="47.21211" lon="4.70687">
        <ele>406</ele>
        <time>2014-04-23T13:27:34Z</time>
      </trkpt>
      <trkpt lat="47.21215" lon="4.70697">
        <ele>406</ele>
        <time>2014-04-23T13:27:44Z</time>
      </trkpt>
      <trkpt lat="47.21221" lon="4.70696">
        <ele>405</ele>
        <time>2014-04-23T13:27:56Z</time>
      </trkpt>
      <trkpt lat="47.21225" lon="4.70698">
        <ele>405</ele>
        <time>2014-04-23T13:28:00Z</time>
      </trkpt>
      <trkpt lat="47.21229" lon="4.70703">
        <ele>405</ele>
        <time>2014-04-23T13:28:04Z</time>
      </trkpt>
      <trkpt lat="47.21234" lon="4.70708">
        <ele>405</ele>
        <time>2014-04-23T13:28:09Z</time>
      </trkpt>
      <trkpt lat="47.21237" lon="4.70712">
        <ele>406</ele>
        <time>2014-04-23T13:28:12Z</time>
      </trkpt>
      <trkpt lat="47.21241" lon="4.70715">
        <ele>406</ele>
        <time>2014-04-23T13:28:15Z</time>
      </trkpt>
      <trkpt lat="47.21246" lon="4.70717">
        <ele>406</ele>
        <time>2014-04-23T13:28:19Z</time>
      </trkpt>
      <trkpt lat="47.21251" lon="4.70721">
        <ele>398</ele>
        <time>2014-04-23T13:28:23Z</time>
      </trkpt>
      <trkpt lat="47.21254" lon="4.70725">
        <ele>398</ele>
        <time>2014-04-23T13:28:26Z</time>
      </trkpt>
      <trkpt lat="47.21259" lon="4.70731">
        <ele>399</ele>
        <time>2014-04-23T13:28:29Z</time>
      </trkpt>
      <trkpt lat="47.21264" lon="4.70734">
        <ele>399</ele>
        <time>2014-04-23T13:28:32Z</time>
      </trkpt>
      <trkpt lat="47.21269" lon="4.70737">
        <ele>399</ele>
        <time>2014-04-23T13:28:36Z</time>
      </trkpt>
      <trkpt lat="47.21274" lon="4.7074">
        <ele>398</ele>
        <time>2014-04-23T13:28:41Z</time>
      </trkpt>
      <trkpt lat="47.21278" lon="4.70742">
        <ele>397</ele>
        <time>2014-04-23T13:28:45Z</time>
      </trkpt>
      <trkpt lat="47.21283" lon="4.70747">
        <ele>397</ele>
        <time>2014-04-23T13:28:49Z</time>
      </trkpt>
      <trkpt lat="47.21288" lon="4.70749">
        <ele>396</ele>
        <time>2014-04-23T13:28:53Z</time>
      </trkpt>
      <trkpt lat="47.21293" lon="4.7075">
        <ele>395</ele>
        <time>2014-04-23T13:28:58Z</time>
      </trkpt>
      <trkpt lat="47.21297" lon="4.70752">
        <ele>404</ele>
        <time>2014-04-23T13:29:04Z</time>
      </trkpt>
      <trkpt lat="47.21303" lon="4.70756">
        <ele>404</ele>
        <time>2014-04-23T13:29:08Z</time>
      </trkpt>
      <trkpt lat="47.21308" lon="4.70759">
        <ele>403</ele>
        <time>2014-04-23T13:29:11Z</time>
      </trkpt>
      <trkpt lat="47.21313" lon="4.7076">
        <ele>402</ele>
        <time>2014-04-23T13:29:16Z</time>
      </trkpt>
      <trkpt lat="47.21318" lon="4.70763">
        <ele>401</ele>
        <time>2014-04-23T13:29:20Z</time>
      </trkpt>
      <trkpt lat="47.21323" lon="4.70766">
        <ele>401</ele>
        <time>2014-04-23T13:29:25Z</time>
      </trkpt>
      <trkpt lat="47.21327" lon="4.70772">
        <ele>402</ele>
        <time>2014-04-23T13:29:29Z</time>
      </trkpt>
      <trkpt lat="47.21332" lon="4.70778">
        <ele>403</ele>
        <time>2014-04-23T13:29:32Z</time>
      </trkpt>
      <trkpt lat="47.21336" lon="4.70781">
        <ele>394</ele>
        <time>2014-04-23T13:29:34Z</time>
      </trkpt>
      <trkpt lat="47.21341" lon="4.70783">
        <ele>394</ele>
        <time>2014-04-23T13:29:38Z</time>
      </trkpt>
      <trkpt lat="47.21345" lon="4.70785">
        <ele>394</ele>
        <time>2014-04-23T13:29:46Z</time>
      </trkpt>
      <trkpt lat="47.21349" lon="4.7079">
        <ele>395</ele>
        <time>2014-04-23T13:29:49Z</time>
      </trkpt>
      <trkpt lat="47.21353" lon="4.70796">
        <ele>395</ele>
        <time>2014-04-23T13:29:52Z</time>
      </trkpt>
      <trkpt lat="47.21357" lon="4.70802">
        <ele>395</ele>
        <time>2014-04-23T13:29:55Z</time>
      </trkpt>
      <trkpt lat="47.2136" lon="4.70808">
        <ele>396</ele>
        <time>2014-04-23T13:29:58Z</time>
      </trkpt>
      <trkpt lat="47.21364" lon="4.70814">
        <ele>396</ele>
        <time>2014-04-23T13:30:01Z</time>
      </trkpt>
      <trkpt lat="47.21367" lon="4.7082">
        <ele>396</ele>
        <time>2014-04-23T13:30:05Z</time>
      </trkpt>
      <trkpt lat="47.2137" lon="4.70825">
        <ele>396</ele>
        <time>2014-04-23T13:30:10Z</time>
      </trkpt>
      <trkpt lat="47.21373" lon="4.7083">
        <ele>395</ele>
        <time>2014-04-23T13:30:15Z</time>
      </trkpt>
      <trkpt lat="47.21378" lon="4.70835">
        <ele>403</ele>
        <time>2014-04-23T13:30:19Z</time>
      </trkpt>
      <trkpt lat="47.21382" lon="4.70839">
        <ele>402</ele>
        <time>2014-04-23T13:30:22Z</time>
      </trkpt>
      <trkpt lat="47.21387" lon="4.70842">
        <ele>402</ele>
        <time>2014-04-23T13:30:25Z</time>
      </trkpt>
      <trkpt lat="47.21392" lon="4.70846">
        <ele>401</ele>
        <time>2014-04-23T13:30:29Z</time>
      </trkpt>
      <trkpt lat="47.21396" lon="4.7085">
        <ele>401</ele>
        <time>2014-04-23T13:30:33Z</time>
      </trkpt>
      <trkpt lat="47.21399" lon="4.70854">
        <ele>401</ele>
        <time>2014-04-23T13:30:42Z</time>
      </trkpt>
      <trkpt lat="47.214" lon="4.70865">
        <ele>402</ele>
        <time>2014-04-23T13:31:06Z</time>
      </trkpt>
      <trkpt lat="47.21403" lon="4.70871">
        <ele>403</ele>
        <time>2014-04-23T13:31:11Z</time>
      </trkpt>
      <trkpt lat="47.21406" lon="4.70875">
        <ele>403</ele>
        <time>2014-04-23T13:31:14Z</time>
      </trkpt>
      <trkpt lat="47.21411" lon="4.7088">
        <ele>403</ele>
        <time>2014-04-23T13:31:18Z</time>
      </trkpt>
      <trkpt lat="47.21415" lon="4.70884">
        <ele>403</ele>
        <time>2014-04-23T13:31:22Z</time>
      </trkpt>
      <trkpt lat="47.21417" lon="4.70891">
        <ele>391</ele>
        <time>2014-04-23T13:31:27Z</time>
      </trkpt>
      <trkpt lat="47.2142" lon="4.70896">
        <ele>392</ele>
        <time>2014-04-23T13:31:31Z</time>
      </trkpt>
      <trkpt lat="47.21423" lon="4.70905">
        <ele>394</ele>
        <time>2014-04-23T13:31:41Z</time>
      </trkpt>
      <trkpt lat="47.21426" lon="4.7091">
        <ele>395</ele>
        <time>2014-04-23T13:31:45Z</time>
      </trkpt>
      <trkpt lat="47.21431" lon="4.70915">
        <ele>394</ele>
        <time>2014-04-23T13:31:49Z</time>
      </trkpt>
      <trkpt lat="47.21435" lon="4.7092">
        <ele>398</ele>
        <time>2014-04-23T13:31:52Z</time>
      </trkpt>
      <trkpt lat="47.21439" lon="4.70925">
        <ele>397</ele>
        <time>2014-04-23T13:31:55Z</time>
      </trkpt>
      <trkpt lat="47.21443" lon="4.70929">
        <ele>396</ele>
        <time>2014-04-23T13:31:57Z</time>
      </trkpt>
      <trkpt lat="47.21447" lon="4.70933">
        <ele>396</ele>
        <time>2014-04-23T13:32:00Z</time>
      </trkpt>
      <trkpt lat="47.21451" lon="4.70938">
        <ele>395</ele>
        <time>2014-04-23T13:32:04Z</time>
      </trkpt>
      <trkpt lat="47.21454" lon="4.70943">
        <ele>395</ele>
        <time>2014-04-23T13:32:08Z</time>
      </trkpt>
      <trkpt lat="47.21459" lon="4.70947">
        <ele>394</ele>
        <time>2014-04-23T13:32:12Z</time>
      </trkpt>
      <trkpt lat="47.21463" lon="4.70951">
        <ele>394</ele>
        <time>2014-04-23T13:32:16Z</time>
      </trkpt>
      <trkpt lat="47.21467" lon="4.70956">
        <ele>394</ele>
        <time>2014-04-23T13:32:20Z</time>
      </trkpt>
      <trkpt lat="47.21471" lon="4.70961">
        <ele>394</ele>
        <time>2014-04-23T13:32:23Z</time>
      </trkpt>
      <trkpt lat="47.21471" lon="4.70968">
        <ele>394</ele>
        <time>2014-04-23T13:32:29Z</time>
      </trkpt>
      <trkpt lat="47.21474" lon="4.70973">
        <ele>394</ele>
        <time>2014-04-23T13:32:36Z</time>
      </trkpt>
      <trkpt lat="47.2148" lon="4.70976">
        <ele>394</ele>
        <time>2014-04-23T13:32:40Z</time>
      </trkpt>
      <trkpt lat="47.21485" lon="4.70978">
        <ele>393</ele>
        <time>2014-04-23T13:32:43Z</time>
      </trkpt>
      <trkpt lat="47.21488" lon="4.70983">
        <ele>393</ele>
        <time>2014-04-23T13:32:48Z</time>
      </trkpt>
      <trkpt lat="47.21492" lon="4.70987">
        <ele>393</ele>
        <time>2014-04-23T13:32:51Z</time>
      </trkpt>
      <trkpt lat="47.21494" lon="4.70993">
        <ele>392</ele>
        <time>2014-04-23T13:32:55Z</time>
      </trkpt>
      <trkpt lat="47.21498" lon="4.71001">
        <ele>392</ele>
        <time>2014-04-23T13:32:59Z</time>
      </trkpt>
      <trkpt lat="47.21504" lon="4.71007">
        <ele>389</ele>
        <time>2014-04-23T13:33:02Z</time>
      </trkpt>
      <trkpt lat="47.21509" lon="4.71009">
        <ele>387</ele>
        <time>2014-04-23T13:33:05Z</time>
      </trkpt>
      <trkpt lat="47.21515" lon="4.71019">
        <ele>385</ele>
        <time>2014-04-23T13:33:19Z</time>
      </trkpt>
      <trkpt lat="47.21514" lon="4.71025">
        <ele>385</ele>
        <time>2014-04-23T13:33:25Z</time>
      </trkpt>
      <trkpt lat="47.21519" lon="4.7103">
        <ele>385</ele>
        <time>2014-04-23T13:33:28Z</time>
      </trkpt>
      <trkpt lat="47.21525" lon="4.71033">
        <ele>384</ele>
        <time>2014-04-23T13:33:31Z</time>
      </trkpt>
      <trkpt lat="47.21528" lon="4.71039">
        <ele>384</ele>
        <time>2014-04-23T13:33:34Z</time>
      </trkpt>
      <trkpt lat="47.21531" lon="4.71045">
        <ele>384</ele>
        <time>2014-04-23T13:33:37Z</time>
      </trkpt>
      <trkpt lat="47.21536" lon="4.7105">
        <ele>383</ele>
        <time>2014-04-23T13:33:40Z</time>
      </trkpt>
      <trkpt lat="47.21542" lon="4.71053">
        <ele>382</ele>
        <time>2014-04-23T13:33:44Z</time>
      </trkpt>
      <trkpt lat="47.21546" lon="4.71058">
        <ele>382</ele>
        <time>2014-04-23T13:33:48Z</time>
      </trkpt>
      <trkpt lat="47.21549" lon="4.71063">
        <ele>381</ele>
        <time>2014-04-23T13:33:52Z</time>
      </trkpt>
      <trkpt lat="47.2155" lon="4.71071">
        <ele>381</ele>
        <time>2014-04-23T13:33:56Z</time>
      </trkpt>
      <trkpt lat="47.21552" lon="4.71078">
        <ele>381</ele>
        <time>2014-04-23T13:34:00Z</time>
      </trkpt>
      <trkpt lat="47.21554" lon="4.71084">
        <ele>385</ele>
        <time>2014-04-23T13:34:04Z</time>
      </trkpt>
      <trkpt lat="47.21557" lon="4.71091">
        <ele>385</ele>
        <time>2014-04-23T13:34:10Z</time>
      </trkpt>
      <trkpt lat="47.21562" lon="4.71095">
        <ele>384</ele>
        <time>2014-04-23T13:34:13Z</time>
      </trkpt>
      <trkpt lat="47.21565" lon="4.711">
        <ele>383</ele>
        <time>2014-04-23T13:34:15Z</time>
      </trkpt>
      <trkpt lat="47.21568" lon="4.71106">
        <ele>384</ele>
        <time>2014-04-23T13:34:17Z</time>
      </trkpt>
      <trkpt lat="47.21571" lon="4.71114">
        <ele>384</ele>
        <time>2014-04-23T13:34:20Z</time>
      </trkpt>
      <trkpt lat="47.21574" lon="4.7112">
        <ele>384</ele>
        <time>2014-04-23T13:34:23Z</time>
      </trkpt>
      <trkpt lat="47.21577" lon="4.71127">
        <ele>385</ele>
        <time>2014-04-23T13:34:34Z</time>
      </trkpt>
      <trkpt lat="47.21579" lon="4.71136">
        <ele>384</ele>
        <time>2014-04-23T13:34:36Z</time>
      </trkpt>
      <trkpt lat="47.21582" lon="4.71145">
        <ele>383</ele>
        <time>2014-04-23T13:34:38Z</time>
      </trkpt>
      <trkpt lat="47.21584" lon="4.71148">
        <ele>370</ele>
        <time>2014-04-23T13:34:39Z</time>
      </trkpt>
      <trkpt lat="47.21585" lon="4.71152">
        <ele>371</ele>
        <time>2014-04-23T13:34:47Z</time>
      </trkpt>
      <trkpt lat="47.21585" lon="4.7116">
        <ele>374</ele>
        <time>2014-04-23T13:34:51Z</time>
      </trkpt>
      <trkpt lat="47.21584" lon="4.71168">
        <ele>376</ele>
        <time>2014-04-23T13:34:54Z</time>
      </trkpt>
      <trkpt lat="47.21586" lon="4.71176">
        <ele>374</ele>
        <time>2014-04-23T13:35:02Z</time>
      </trkpt>
      <trkpt lat="47.21586" lon="4.71183">
        <ele>372</ele>
        <time>2014-04-23T13:35:04Z</time>
      </trkpt>
      <trkpt lat="47.21587" lon="4.7119">
        <ele>371</ele>
        <time>2014-04-23T13:35:07Z</time>
      </trkpt>
      <trkpt lat="47.21589" lon="4.71197">
        <ele>371</ele>
        <time>2014-04-23T13:35:12Z</time>
      </trkpt>
      <trkpt lat="47.21591" lon="4.71206">
        <ele>370</ele>
        <time>2014-04-23T13:35:15Z</time>
      </trkpt>
      <trkpt lat="47.21593" lon="4.71213">
        <ele>370</ele>
        <time>2014-04-23T13:35:17Z</time>
      </trkpt>
      <trkpt lat="47.21594" lon="4.71217">
        <ele>370</ele>
        <time>2014-04-23T13:35:18Z</time>
      </trkpt>
      <trkpt lat="47.21596" lon="4.71221">
        <ele>371</ele>
        <time>2014-04-23T13:35:20Z</time>
      </trkpt>
      <trkpt lat="47.21601" lon="4.71229">
        <ele>371</ele>
        <time>2014-04-23T13:35:37Z</time>
      </trkpt>
      <trkpt lat="47.21604" lon="4.71235">
        <ele>371</ele>
        <time>2014-04-23T13:35:41Z</time>
      </trkpt>
      <trkpt lat="47.21608" lon="4.71239">
        <ele>370</ele>
        <time>2014-04-23T13:35:44Z</time>
      </trkpt>
      <trkpt lat="47.2161" lon="4.71247">
        <ele>370</ele>
        <time>2014-04-23T13:35:48Z</time>
      </trkpt>
      <trkpt lat="47.21611" lon="4.71256">
        <ele>370</ele>
        <time>2014-04-23T13:35:53Z</time>
      </trkpt>
      <trkpt lat="47.21612" lon="4.71263">
        <ele>369</ele>
        <time>2014-04-23T13:35:57Z</time>
      </trkpt>
      <trkpt lat="47.21612" lon="4.71267">
        <ele>369</ele>
        <time>2014-04-23T13:36:06Z</time>
      </trkpt>
      <trkpt lat="47.21614" lon="4.71273">
        <ele>369</ele>
        <time>2014-04-23T13:36:20Z</time>
      </trkpt>
      <trkpt lat="47.21613" lon="4.7128">
        <ele>369</ele>
        <time>2014-04-23T13:36:25Z</time>
      </trkpt>
      <trkpt lat="47.21613" lon="4.71291">
        <ele>368</ele>
        <time>2014-04-23T13:36:28Z</time>
      </trkpt>
      <trkpt lat="47.21615" lon="4.71299">
        <ele>368</ele>
        <time>2014-04-23T13:36:31Z</time>
      </trkpt>
      <trkpt lat="47.21619" lon="4.71305">
        <ele>368</ele>
        <time>2014-04-23T13:36:36Z</time>
      </trkpt>
      <trkpt lat="47.21622" lon="4.71311">
        <ele>367</ele>
        <time>2014-04-23T13:36:42Z</time>
      </trkpt>
      <trkpt lat="47.21627" lon="4.71316">
        <ele>366</ele>
        <time>2014-04-23T13:36:46Z</time>
      </trkpt>
      <trkpt lat="47.21633" lon="4.7132">
        <ele>364</ele>
        <time>2014-04-23T13:36:50Z</time>
      </trkpt>
      <trkpt lat="47.21637" lon="4.71323">
        <ele>363</ele>
        <time>2014-04-23T13:36:54Z</time>
      </trkpt>
      <trkpt lat="47.21641" lon="4.7133">
        <ele>362</ele>
        <time>2014-04-23T13:36:59Z</time>
      </trkpt>
      <trkpt lat="47.21643" lon="4.71337">
        <ele>360</ele>
        <time>2014-04-23T13:37:02Z</time>
      </trkpt>
      <trkpt lat="47.21644" lon="4.71345">
        <ele>360</ele>
        <time>2014-04-23T13:37:06Z</time>
      </trkpt>
      <trkpt lat="47.21644" lon="4.71353">
        <ele>360</ele>
        <time>2014-04-23T13:37:11Z</time>
      </trkpt>
      <trkpt lat="47.21642" lon="4.7136">
        <ele>361</ele>
        <time>2014-04-23T13:37:16Z</time>
      </trkpt>
      <trkpt lat="47.21644" lon="4.71367">
        <ele>361</ele>
        <time>2014-04-23T13:37:25Z</time>
      </trkpt>
      <trkpt lat="47.21643" lon="4.71374">
        <ele>361</ele>
        <time>2014-04-23T13:37:29Z</time>
      </trkpt>
      <trkpt lat="47.2164" lon="4.7138">
        <ele>361</ele>
        <time>2014-04-23T13:37:35Z</time>
      </trkpt>
      <trkpt lat="47.2164" lon="4.71388">
        <ele>361</ele>
        <time>2014-04-23T13:37:40Z</time>
      </trkpt>
      <trkpt lat="47.21638" lon="4.71396">
        <ele>361</ele>
        <time>2014-04-23T13:37:44Z</time>
      </trkpt>
      <trkpt lat="47.21635" lon="4.71402">
        <ele>361</ele>
        <time>2014-04-23T13:37:52Z</time>
      </trkpt>
      <trkpt lat="47.21633" lon="4.71408">
        <ele>361</ele>
        <time>2014-04-23T13:37:56Z</time>
      </trkpt>
      <trkpt lat="47.21634" lon="4.71417">
        <ele>357</ele>
        <time>2014-04-23T13:38:06Z</time>
      </trkpt>
      <trkpt lat="47.21631" lon="4.71425">
        <ele>358</ele>
        <time>2014-04-23T13:38:16Z</time>
      </trkpt>
      <trkpt lat="47.21625" lon="4.71429">
        <ele>359</ele>
        <time>2014-04-23T13:38:19Z</time>
      </trkpt>
      <trkpt lat="47.21622" lon="4.71435">
        <ele>359</ele>
        <time>2014-04-23T13:38:22Z</time>
      </trkpt>
      <trkpt lat="47.21622" lon="4.71442">
        <ele>359</ele>
        <time>2014-04-23T13:38:29Z</time>
      </trkpt>
      <trkpt lat="47.21621" lon="4.7145">
        <ele>359</ele>
        <time>2014-04-23T13:38:32Z</time>
      </trkpt>
      <trkpt lat="47.21619" lon="4.71456">
        <ele>359</ele>
        <time>2014-04-23T13:38:34Z</time>
      </trkpt>
      <trkpt lat="47.21617" lon="4.71464">
        <ele>359</ele>
        <time>2014-04-23T13:38:36Z</time>
      </trkpt>
      <trkpt lat="47.21615" lon="4.71471">
        <ele>359</ele>
        <time>2014-04-23T13:38:38Z</time>
      </trkpt>
      <trkpt lat="47.21616" lon="4.71473">
        <ele>359</ele>
        <time>2014-04-23T13:38:48Z</time>
      </trkpt>
      <trkpt lat="47.21618" lon="4.71481">
        <ele>359</ele>
        <time>2014-04-23T13:38:54Z</time>
      </trkpt>
      <trkpt lat="47.21617" lon="4.71488">
        <ele>359</ele>
        <time>2014-04-23T13:38:57Z</time>
      </trkpt>
      <trkpt lat="47.21615" lon="4.71498">
        <ele>359</ele>
        <time>2014-04-23T13:39:00Z</time>
      </trkpt>
      <trkpt lat="47.21613" lon="4.71504">
        <ele>355</ele>
        <time>2014-04-23T13:39:02Z</time>
      </trkpt>
      <trkpt lat="47.21611" lon="4.7151">
        <ele>355</ele>
        <time>2014-04-23T13:39:05Z</time>
      </trkpt>
      <trkpt lat="47.21609" lon="4.71519">
        <ele>354</ele>
        <time>2014-04-23T13:39:09Z</time>
      </trkpt>
      <trkpt lat="47.21608" lon="4.71527">
        <ele>353</ele>
        <time>2014-04-23T13:39:12Z</time>
      </trkpt>
      <trkpt lat="47.21612" lon="4.71531">
        <ele>352</ele>
        <time>2014-04-23T13:39:16Z</time>
      </trkpt>
      <trkpt lat="47.21611" lon="4.71538">
        <ele>352</ele>
        <time>2014-04-23T13:39:22Z</time>
      </trkpt>
      <trkpt lat="47.21609" lon="4.71552">
        <ele>352</ele>
        <time>2014-04-23T13:39:32Z</time>
      </trkpt>
      <trkpt lat="47.21607" lon="4.71561">
        <ele>352</ele>
        <time>2014-04-23T13:39:35Z</time>
      </trkpt>
      <trkpt lat="47.21605" lon="4.71568">
        <ele>352</ele>
        <time>2014-04-23T13:39:37Z</time>
      </trkpt>
      <trkpt lat="47.21605" lon="4.71578">
        <ele>352</ele>
        <time>2014-04-23T13:39:40Z</time>
      </trkpt>
      <trkpt lat="47.21605" lon="4.71585">
        <ele>348</ele>
        <time>2014-04-23T13:39:47Z</time>
      </trkpt>
      <trkpt lat="47.21609" lon="4.71593">
        <ele>347</ele>
        <time>2014-04-23T13:39:51Z</time>
      </trkpt>
      <trkpt lat="47.21611" lon="4.71599">
        <ele>345</ele>
        <time>2014-04-23T13:39:54Z</time>
      </trkpt>
      <trkpt lat="47.2161" lon="4.71607">
        <ele>345</ele>
        <time>2014-04-23T13:39:58Z</time>
      </trkpt>
      <trkpt lat="47.21607" lon="4.71614">
        <ele>345</ele>
        <time>2014-04-23T13:40:02Z</time>
      </trkpt>
      <trkpt lat="47.21608" lon="4.71628">
        <ele>344</ele>
        <time>2014-04-23T13:40:08Z</time>
      </trkpt>
      <trkpt lat="47.2161" lon="4.71635">
        <ele>343</ele>
        <time>2014-04-23T13:40:13Z</time>
      </trkpt>
      <trkpt lat="47.21607" lon="4.71641">
        <ele>344</ele>
        <time>2014-04-23T13:40:18Z</time>
      </trkpt>
      <trkpt lat="47.21606" lon="4.71649">
        <ele>344</ele>
        <time>2014-04-23T13:40:22Z</time>
      </trkpt>
      <trkpt lat="47.21606" lon="4.71658">
        <ele>344</ele>
        <time>2014-04-23T13:40:27Z</time>
      </trkpt>
      <trkpt lat="47.21608" lon="4.71665">
        <ele>344</ele>
        <time>2014-04-23T13:40:30Z</time>
      </trkpt>
      <trkpt lat="47.21611" lon="4.71663">
        <ele>343</ele>
        <time>2014-04-23T13:41:06Z</time>
      </trkpt>
      <trkpt lat="47.2161" lon="4.71671">
        <ele>339</ele>
        <time>2014-04-23T13:41:11Z</time>
      </trkpt>
      <trkpt lat="47.21613" lon="4.71678">
        <ele>339</ele>
        <time>2014-04-23T13:41:14Z</time>
      </trkpt>
      <trkpt lat="47.21617" lon="4.71683">
        <ele>337</ele>
        <time>2014-04-23T13:41:16Z</time>
      </trkpt>
      <trkpt lat="47.2162" lon="4.71688">
        <ele>337</ele>
        <time>2014-04-23T13:41:18Z</time>
      </trkpt>
      <trkpt lat="47.21621" lon="4.71692">
        <ele>336</ele>
        <time>2014-04-23T13:41:20Z</time>
      </trkpt>
      <trkpt lat="47.21621" lon="4.71695">
        <ele>336</ele>
        <time>2014-04-23T13:41:22Z</time>
      </trkpt>
      <trkpt lat="47.21617" lon="4.71701">
        <ele>336</ele>
        <time>2014-04-23T13:41:25Z</time>
      </trkpt>
      <trkpt lat="47.21613" lon="4.71707">
        <ele>337</ele>
        <time>2014-04-23T13:41:28Z</time>
      </trkpt>
      <trkpt lat="47.2161" lon="4.71715">
        <ele>337</ele>
        <time>2014-04-23T13:41:32Z</time>
      </trkpt>
      <trkpt lat="47.21608" lon="4.71722">
        <ele>337</ele>
        <time>2014-04-23T13:41:36Z</time>
      </trkpt>
      <trkpt lat="47.21605" lon="4.71729">
        <ele>337</ele>
        <time>2014-04-23T13:41:40Z</time>
      </trkpt>
      <trkpt lat="47.21604" lon="4.71737">
        <ele>337</ele>
        <time>2014-04-23T13:41:45Z</time>
      </trkpt>
      <trkpt lat="47.21604" lon="4.71744">
        <ele>338</ele>
        <time>2014-04-23T13:41:50Z</time>
      </trkpt>
      <trkpt lat="47.21601" lon="4.7175">
        <ele>335</ele>
        <time>2014-04-23T13:41:54Z</time>
      </trkpt>
      <trkpt lat="47.21602" lon="4.71755">
        <ele>334</ele>
        <time>2014-04-23T13:42:03Z</time>
      </trkpt>
      <trkpt lat="47.21604" lon="4.71762">
        <ele>333</ele>
        <time>2014-04-23T13:42:17Z</time>
      </trkpt>
      <trkpt lat="47.21601" lon="4.71768">
        <ele>333</ele>
        <time>2014-04-23T13:42:21Z</time>
      </trkpt>
      <trkpt lat="47.21596" lon="4.71771">
        <ele>334</ele>
        <time>2014-04-23T13:42:24Z</time>
      </trkpt>
      <trkpt lat="47.21592" lon="4.71776">
        <ele>333</ele>
        <time>2014-04-23T13:42:28Z</time>
      </trkpt>
      <trkpt lat="47.21588" lon="4.71782">
        <ele>333</ele>
        <time>2014-04-23T13:42:32Z</time>
      </trkpt>
      <trkpt lat="47.21586" lon="4.71789">
        <ele>332</ele>
        <time>2014-04-23T13:42:36Z</time>
      </trkpt>
      <trkpt lat="47.21584" lon="4.71796">
        <ele>332</ele>
        <time>2014-04-23T13:42:42Z</time>
      </trkpt>
      <trkpt lat="47.21582" lon="4.71802">
        <ele>346</ele>
        <time>2014-04-23T13:42:47Z</time>
      </trkpt>
      <trkpt lat="47.21583" lon="4.71809">
        <ele>344</ele>
        <time>2014-04-23T13:42:52Z</time>
      </trkpt>
      <trkpt lat="47.2158" lon="4.71814">
        <ele>343</ele>
        <time>2014-04-23T13:42:56Z</time>
      </trkpt>
      <trkpt lat="47.21577" lon="4.71819">
        <ele>342</ele>
        <time>2014-04-23T13:43:00Z</time>
      </trkpt>
      <trkpt lat="47.21578" lon="4.71827">
        <ele>338</ele>
        <time>2014-04-23T13:43:03Z</time>
      </trkpt>
      <trkpt lat="47.21578" lon="4.71835">
        <ele>335</ele>
        <time>2014-04-23T13:43:08Z</time>
      </trkpt>
      <trkpt lat="47.21578" lon="4.71842">
        <ele>337</ele>
        <time>2014-04-23T13:43:13Z</time>
      </trkpt>
      <trkpt lat="47.21576" lon="4.71848">
        <ele>338</ele>
        <time>2014-04-23T13:43:19Z</time>
      </trkpt>
      <trkpt lat="47.21573" lon="4.71853">
        <ele>339</ele>
        <time>2014-04-23T13:43:23Z</time>
      </trkpt>
      <trkpt lat="47.21573" lon="4.71861">
        <ele>339</ele>
        <time>2014-04-23T13:43:26Z</time>
      </trkpt>
      <trkpt lat="47.21575" lon="4.71869">
        <ele>339</ele>
        <time>2014-04-23T13:43:30Z</time>
      </trkpt>
      <trkpt lat="47.21574" lon="4.71876">
        <ele>339</ele>
        <time>2014-04-23T13:43:34Z</time>
      </trkpt>
      <trkpt lat="47.21569" lon="4.71881">
        <ele>339</ele>
        <time>2014-04-23T13:43:39Z</time>
      </trkpt>
      <trkpt lat="47.21567" lon="4.71887">
        <ele>339</ele>
        <time>2014-04-23T13:43:43Z</time>
      </trkpt>
      <trkpt lat="47.21564" lon="4.71888">
        <ele>339</ele>
        <time>2014-04-23T13:44:05Z</time>
      </trkpt>
      <trkpt lat="47.21564" lon="4.7188">
        <ele>340</ele>
        <time>2014-04-23T13:44:10Z</time>
      </trkpt>
      <trkpt lat="47.21564" lon="4.7188">
        <ele>340</ele>
        <time>2014-04-23T13:44:21Z</time>
      </trkpt>
      <trkpt lat="47.2156" lon="4.71871">
        <ele>341</ele>
        <time>2014-04-23T13:44:33Z</time>
      </trkpt>
      <trkpt lat="47.21562" lon="4.71866">
        <ele>341</ele>
        <time>2014-04-23T13:44:39Z</time>
      </trkpt>
      <trkpt lat="47.21567" lon="4.71867">
        <ele>340</ele>
        <time>2014-04-23T13:44:44Z</time>
      </trkpt>
      <trkpt lat="47.21571" lon="4.7187">
        <ele>339</ele>
        <time>2014-04-23T13:44:50Z</time>
      </trkpt>
      <trkpt lat="47.21576" lon="4.71873">
        <ele>339</ele>
        <time>2014-04-23T13:44:59Z</time>
      </trkpt>
      <trkpt lat="47.21575" lon="4.71879">
        <ele>339</ele>
        <time>2014-04-23T13:45:06Z</time>
      </trkpt>
      <trkpt lat="47.21574" lon="4.71886">
        <ele>338</ele>
        <time>2014-04-23T13:45:11Z</time>
      </trkpt>
      <trkpt lat="47.21572" lon="4.71893">
        <ele>337</ele>
        <time>2014-04-23T13:45:17Z</time>
      </trkpt>
      <trkpt lat="47.21569" lon="4.71899">
        <ele>337</ele>
        <time>2014-04-23T13:45:22Z</time>
      </trkpt>
      <trkpt lat="47.21569" lon="4.71906">
        <ele>336</ele>
        <time>2014-04-23T13:45:27Z</time>
      </trkpt>
      <trkpt lat="47.21572" lon="4.71906">
        <ele>335</ele>
        <time>2014-04-23T13:45:38Z</time>
      </trkpt>
      <trkpt lat="47.21575" lon="4.71899">
        <ele>336</ele>
        <time>2014-04-23T13:45:42Z</time>
      </trkpt>
      <trkpt lat="47.21578" lon="4.71901">
        <ele>335</ele>
        <time>2014-04-23T13:46:02Z</time>
      </trkpt>
      <trkpt lat="47.21576" lon="4.71909">
        <ele>333</ele>
        <time>2014-04-23T13:46:06Z</time>
      </trkpt>
      <trkpt lat="47.21571" lon="4.71909">
        <ele>334</ele>
        <time>2014-04-23T13:46:14Z</time>
      </trkpt>
      <trkpt lat="47.21569" lon="4.71908">
        <ele>335</ele>
        <time>2014-04-23T13:46:21Z</time>
      </trkpt>
      <trkpt lat="47.21565" lon="4.71912">
        <ele>336</ele>
        <time>2014-04-23T13:46:27Z</time>
      </trkpt>
      <trkpt lat="47.21563" lon="4.71918">
        <ele>334</ele>
        <time>2014-04-23T13:46:32Z</time>
      </trkpt>
      <trkpt lat="47.21559" lon="4.71919">
        <ele>335</ele>
        <time>2014-04-23T13:46:39Z</time>
      </trkpt>
      <trkpt lat="47.21558" lon="4.71912">
        <ele>338</ele>
        <time>2014-04-23T13:46:45Z</time>
      </trkpt>
      <trkpt lat="47.2156" lon="4.71906">
        <ele>338</ele>
        <time>2014-04-23T13:46:50Z</time>
      </trkpt>
      <trkpt lat="47.2156" lon="4.71898">
        <ele>339</ele>
        <time>2014-04-23T13:46:54Z</time>
      </trkpt>
      <trkpt lat="47.21561" lon="4.71892">
        <ele>339</ele>
        <time>2014-04-23T13:46:59Z</time>
      </trkpt>
      <trkpt lat="47.21562" lon="4.71884">
        <ele>340</ele>
        <time>2014-04-23T13:47:06Z</time>
      </trkpt>
      <trkpt lat="47.21562" lon="4.71875">
        <ele>340</ele>
        <time>2014-04-23T13:47:10Z</time>
      </trkpt>
      <trkpt lat="47.21562" lon="4.71868">
        <ele>341</ele>
        <time>2014-04-23T13:47:14Z</time>
      </trkpt>
      <trkpt lat="47.21562" lon="4.71862">
        <ele>341</ele>
        <time>2014-04-23T13:47:18Z</time>
      </trkpt>
      <trkpt lat="47.21562" lon="4.71854">
        <ele>340</ele>
        <time>2014-04-23T13:47:23Z</time>
      </trkpt>
      <trkpt lat="47.21564" lon="4.71846">
        <ele>340</ele>
        <time>2014-04-23T13:47:28Z</time>
      </trkpt>
      <trkpt lat="47.21565" lon="4.71839">
        <ele>339</ele>
        <time>2014-04-23T13:47:31Z</time>
      </trkpt>
      <trkpt lat="47.21568" lon="4.71833">
        <ele>342</ele>
        <time>2014-04-23T13:47:35Z</time>
      </trkpt>
      <trkpt lat="47.21571" lon="4.71826">
        <ele>342</ele>
        <time>2014-04-23T13:47:43Z</time>
      </trkpt>
      <trkpt lat="47.21573" lon="4.71819">
        <ele>343</ele>
        <time>2014-04-23T13:47:47Z</time>
      </trkpt>
      <trkpt lat="47.21575" lon="4.71813">
        <ele>344</ele>
        <time>2014-04-23T13:47:50Z</time>
      </trkpt>
      <trkpt lat="47.21577" lon="4.71804">
        <ele>346</ele>
        <time>2014-04-23T13:47:53Z</time>
      </trkpt>
      <trkpt lat="47.21581" lon="4.71797">
        <ele>347</ele>
        <time>2014-04-23T13:47:56Z</time>
      </trkpt>
      <trkpt lat="47.21584" lon="4.7179">
        <ele>332</ele>
        <time>2014-04-23T13:47:59Z</time>
      </trkpt>
      <trkpt lat="47.21586" lon="4.71782">
        <ele>333</ele>
        <time>2014-04-23T13:48:02Z</time>
      </trkpt>
      <trkpt lat="47.21589" lon="4.71776">
        <ele>333</ele>
        <time>2014-04-23T13:48:05Z</time>
      </trkpt>
      <trkpt lat="47.21596" lon="4.71769">
        <ele>334</ele>
        <time>2014-04-23T13:48:15Z</time>
      </trkpt>
      <trkpt lat="47.21601" lon="4.71767">
        <ele>333</ele>
        <time>2014-04-23T13:48:19Z</time>
      </trkpt>
      <trkpt lat="47.21606" lon="4.71765">
        <ele>333</ele>
        <time>2014-04-23T13:48:24Z</time>
      </trkpt>
      <trkpt lat="47.2161" lon="4.71765">
        <ele>332</ele>
        <time>2014-04-23T13:48:28Z</time>
      </trkpt>
      <trkpt lat="47.21615" lon="4.71764">
        <ele>331</ele>
        <time>2014-04-23T13:48:32Z</time>
      </trkpt>
      <trkpt lat="47.21619" lon="4.71761">
        <ele>331</ele>
        <time>2014-04-23T13:48:38Z</time>
      </trkpt>
      <trkpt lat="47.21624" lon="4.71757">
        <ele>330</ele>
        <time>2014-04-23T13:48:44Z</time>
      </trkpt>
      <trkpt lat="47.21629" lon="4.71752">
        <ele>329</ele>
        <time>2014-04-23T13:48:48Z</time>
      </trkpt>
      <trkpt lat="47.21634" lon="4.71748">
        <ele>332</ele>
        <time>2014-04-23T13:48:52Z</time>
      </trkpt>
      <trkpt lat="47.21639" lon="4.71743">
        <ele>331</ele>
        <time>2014-04-23T13:48:57Z</time>
      </trkpt>
      <trkpt lat="47.21643" lon="4.71739">
        <ele>331</ele>
        <time>2014-04-23T13:49:00Z</time>
      </trkpt>
      <trkpt lat="47.21646" lon="4.71735">
        <ele>330</ele>
        <time>2014-04-23T13:49:03Z</time>
      </trkpt>
      <trkpt lat="47.2165" lon="4.71732">
        <ele>330</ele>
        <time>2014-04-23T13:49:06Z</time>
      </trkpt>
      <trkpt lat="47.21654" lon="4.71728">
        <ele>330</ele>
        <time>2014-04-23T13:49:09Z</time>
      </trkpt>
      <trkpt lat="47.21658" lon="4.71723">
        <ele>330</ele>
        <time>2014-04-23T13:49:13Z</time>
      </trkpt>
      <trkpt lat="47.21662" lon="4.71719">
        <ele>330</ele>
        <time>2014-04-23T13:49:16Z</time>
      </trkpt>
      <trkpt lat="47.21666" lon="4.71713">
        <ele>331</ele>
        <time>2014-04-23T13:49:20Z</time>
      </trkpt>
      <trkpt lat="47.21671" lon="4.71709">
        <ele>325</ele>
        <time>2014-04-23T13:49:25Z</time>
      </trkpt>
      <trkpt lat="47.21673" lon="4.71702">
        <ele>325</ele>
        <time>2014-04-23T13:49:30Z</time>
      </trkpt>
      <trkpt lat="47.21674" lon="4.71696">
        <ele>325</ele>
        <time>2014-04-23T13:49:34Z</time>
      </trkpt>
      <trkpt lat="47.21678" lon="4.71691">
        <ele>325</ele>
        <time>2014-04-23T13:49:38Z</time>
      </trkpt>
      <trkpt lat="47.21683" lon="4.71689">
        <ele>325</ele>
        <time>2014-04-23T13:49:41Z</time>
      </trkpt>
      <trkpt lat="47.21688" lon="4.7169">
        <ele>325</ele>
        <time>2014-04-23T13:49:48Z</time>
      </trkpt>
      <trkpt lat="47.21693" lon="4.7169">
        <ele>325</ele>
        <time>2014-04-23T13:49:52Z</time>
      </trkpt>
      <trkpt lat="47.21697" lon="4.7169">
        <ele>326</ele>
        <time>2014-04-23T13:49:57Z</time>
      </trkpt>
      <trkpt lat="47.21703" lon="4.71691">
        <ele>326</ele>
        <time>2014-04-23T13:50:15Z</time>
      </trkpt>
      <trkpt lat="47.21708" lon="4.71693">
        <ele>326</ele>
        <time>2014-04-23T13:50:20Z</time>
      </trkpt>
      <trkpt lat="47.21712" lon="4.71697">
        <ele>326</ele>
        <time>2014-04-23T13:50:25Z</time>
      </trkpt>
      <trkpt lat="47.21719" lon="4.717">
        <ele>326</ele>
        <time>2014-04-23T13:50:30Z</time>
      </trkpt>
      <trkpt lat="47.21723" lon="4.71703">
        <ele>326</ele>
        <time>2014-04-23T13:50:33Z</time>
      </trkpt>
      <trkpt lat="47.21729" lon="4.71706">
        <ele>326</ele>
        <time>2014-04-23T13:50:36Z</time>
      </trkpt>
      <trkpt lat="47.21734" lon="4.7171">
        <ele>326</ele>
        <time>2014-04-23T13:50:40Z</time>
      </trkpt>
      <trkpt lat="47.21736" lon="4.71716">
        <ele>326</ele>
        <time>2014-04-23T13:50:44Z</time>
      </trkpt>
      <trkpt lat="47.21735" lon="4.71723">
        <ele>326</ele>
        <time>2014-04-23T13:50:51Z</time>
      </trkpt>
      <trkpt lat="47.21731" lon="4.71728">
        <ele>326</ele>
        <time>2014-04-23T13:50:55Z</time>
      </trkpt>
      <trkpt lat="47.21727" lon="4.71733">
        <ele>326</ele>
        <time>2014-04-23T13:50:58Z</time>
      </trkpt>
      <trkpt lat="47.21724" lon="4.7174">
        <ele>326</ele>
        <time>2014-04-23T13:51:02Z</time>
      </trkpt>
      <trkpt lat="47.21722" lon="4.71747">
        <ele>326</ele>
        <time>2014-04-23T13:51:06Z</time>
      </trkpt>
      <trkpt lat="47.21719" lon="4.71754">
        <ele>325</ele>
        <time>2014-04-23T13:51:10Z</time>
      </trkpt>
      <trkpt lat="47.21716" lon="4.71759">
        <ele>325</ele>
        <time>2014-04-23T13:51:22Z</time>
      </trkpt>
      <trkpt lat="47.21714" lon="4.71765">
        <ele>325</ele>
        <time>2014-04-23T13:51:25Z</time>
      </trkpt>
      <trkpt lat="47.21711" lon="4.71771">
        <ele>325</ele>
        <time>2014-04-23T13:51:28Z</time>
      </trkpt>
      <trkpt lat="47.21707" lon="4.71778">
        <ele>324</ele>
        <time>2014-04-23T13:51:31Z</time>
      </trkpt>
      <trkpt lat="47.21707" lon="4.71784">
        <ele>324</ele>
        <time>2014-04-23T13:51:36Z</time>
      </trkpt>
      <trkpt lat="47.21711" lon="4.7179">
        <ele>324</ele>
        <time>2014-04-23T13:51:39Z</time>
      </trkpt>
      <trkpt lat="47.21715" lon="4.71795">
        <ele>325</ele>
        <time>2014-04-23T13:51:41Z</time>
      </trkpt>
      <trkpt lat="47.21717" lon="4.71801">
        <ele>325</ele>
        <time>2014-04-23T13:51:44Z</time>
      </trkpt>
      <trkpt lat="47.21717" lon="4.71808">
        <ele>325</ele>
        <time>2014-04-23T13:51:46Z</time>
      </trkpt>
      <trkpt lat="47.21716" lon="4.71815">
        <ele>325</ele>
        <time>2014-04-23T13:51:49Z</time>
      </trkpt>
      <trkpt lat="47.21716" lon="4.71822">
        <ele>325</ele>
        <time>2014-04-23T13:51:53Z</time>
      </trkpt>
      <trkpt lat="47.21715" lon="4.71829">
        <ele>325</ele>
        <time>2014-04-23T13:51:56Z</time>
      </trkpt>
      <trkpt lat="47.21712" lon="4.71837">
        <ele>323</ele>
        <time>2014-04-23T13:52:05Z</time>
      </trkpt>
      <trkpt lat="47.21711" lon="4.71844">
        <ele>323</ele>
        <time>2014-04-23T13:52:08Z</time>
      </trkpt>
      <trkpt lat="47.21711" lon="4.71852">
        <ele>323</ele>
        <time>2014-04-23T13:52:13Z</time>
      </trkpt>
      <trkpt lat="47.21711" lon="4.7186">
        <ele>323</ele>
        <time>2014-04-23T13:52:17Z</time>
      </trkpt>
      <trkpt lat="47.21712" lon="4.71868">
        <ele>322</ele>
        <time>2014-04-23T13:52:20Z</time>
      </trkpt>
      <trkpt lat="47.21711" lon="4.71875">
        <ele>322</ele>
        <time>2014-04-23T13:52:24Z</time>
      </trkpt>
      <trkpt lat="47.21712" lon="4.71882">
        <ele>322</ele>
        <time>2014-04-23T13:52:31Z</time>
      </trkpt>
      <trkpt lat="47.21713" lon="4.7189">
        <ele>322</ele>
        <time>2014-04-23T13:52:39Z</time>
      </trkpt>
      <trkpt lat="47.21718" lon="4.71897">
        <ele>322</ele>
        <time>2014-04-23T13:52:43Z</time>
      </trkpt>
      <trkpt lat="47.2172" lon="4.71903">
        <ele>323</ele>
        <time>2014-04-23T13:52:47Z</time>
      </trkpt>
      <trkpt lat="47.21719" lon="4.7191">
        <ele>323</ele>
        <time>2014-04-23T13:52:51Z</time>
      </trkpt>
      <trkpt lat="47.21715" lon="4.71914">
        <ele>322</ele>
        <time>2014-04-23T13:52:59Z</time>
      </trkpt>
      <trkpt lat="47.2171" lon="4.71916">
        <ele>322</ele>
        <time>2014-04-23T13:53:07Z</time>
      </trkpt>
      <trkpt lat="47.21707" lon="4.71916">
        <ele>321</ele>
        <time>2014-04-23T13:53:14Z</time>
      </trkpt>
      <trkpt lat="47.2171" lon="4.71923">
        <ele>320</ele>
        <time>2014-04-23T13:53:26Z</time>
      </trkpt>
      <trkpt lat="47.21711" lon="4.7193">
        <ele>320</ele>
        <time>2014-04-23T13:53:29Z</time>
      </trkpt>
      <trkpt lat="47.2171" lon="4.71939">
        <ele>320</ele>
        <time>2014-04-23T13:53:32Z</time>
      </trkpt>
      <trkpt lat="47.21709" lon="4.71946">
        <ele>320</ele>
        <time>2014-04-23T13:53:36Z</time>
      </trkpt>
      <trkpt lat="47.21708" lon="4.71953">
        <ele>320</ele>
        <time>2014-04-23T13:53:39Z</time>
      </trkpt>
      <trkpt lat="47.2171" lon="4.7196">
        <ele>320</ele>
        <time>2014-04-23T13:53:44Z</time>
      </trkpt>
      <trkpt lat="47.21708" lon="4.71966">
        <ele>320</ele>
        <time>2014-04-23T13:53:51Z</time>
      </trkpt>
      <trkpt lat="47.21703" lon="4.71968">
        <ele>319</ele>
        <time>2014-04-23T13:53:55Z</time>
      </trkpt>
      <trkpt lat="47.21701" lon="4.71964">
        <ele>319</ele>
        <time>2014-04-23T13:54:03Z</time>
      </trkpt>
      <trkpt lat="47.21701" lon="4.71965">
        <ele>319</ele>
        <time>2014-04-23T13:54:16Z</time>
      </trkpt>
      <trkpt lat="47.21703" lon="4.71963">
        <ele>319</ele>
        <time>2014-04-23T13:54:52Z</time>
      </trkpt>
      <trkpt lat="47.21707" lon="4.71958">
        <ele>320</ele>
        <time>2014-04-23T13:54:57Z</time>
      </trkpt>
      <trkpt lat="47.21712" lon="4.71953">
        <ele>320</ele>
        <time>2014-04-23T13:55:06Z</time>
      </trkpt>
      <trkpt lat="47.21717" lon="4.71954">
        <ele>320</ele>
        <time>2014-04-23T13:55:12Z</time>
      </trkpt>
      <trkpt lat="47.21721" lon="4.71963">
        <ele>320</ele>
        <time>2014-04-23T13:55:23Z</time>
      </trkpt>
      <trkpt lat="47.21718" lon="4.71966">
        <ele>320</ele>
        <time>2014-04-23T13:55:32Z</time>
      </trkpt>
      <trkpt lat="47.21715" lon="4.71961">
        <ele>320</ele>
        <time>2014-04-23T13:55:36Z</time>
      </trkpt>
      <trkpt lat="47.21717" lon="4.71963">
        <ele>320</ele>
        <time>2014-04-23T13:55:48Z</time>
      </trkpt>
      <trkpt lat="47.21718" lon="4.7197">
        <ele>320</ele>
        <time>2014-04-23T13:55:55Z</time>
      </trkpt>
      <trkpt lat="47.21719" lon="4.71977">
        <ele>320</ele>
        <time>2014-04-23T13:56:00Z</time>
      </trkpt>
      <trkpt lat="47.21721" lon="4.71984">
        <ele>320</ele>
        <time>2014-04-23T13:56:04Z</time>
      </trkpt>
      <trkpt lat="47.21723" lon="4.7199">
        <ele>321</ele>
        <time>2014-04-23T13:56:09Z</time>
      </trkpt>
      <trkpt lat="47.21725" lon="4.71998">
        <ele>321</ele>
        <time>2014-04-23T13:56:13Z</time>
      </trkpt>
      <trkpt lat="47.21726" lon="4.72005">
        <ele>321</ele>
        <time>2014-04-23T13:56:17Z</time>
      </trkpt>
      <trkpt lat="47.21729" lon="4.72012">
        <ele>322</ele>
        <time>2014-04-23T13:56:21Z</time>
      </trkpt>
      <trkpt lat="47.2173" lon="4.72019">
        <ele>322</ele>
        <time>2014-04-23T13:56:24Z</time>
      </trkpt>
      <trkpt lat="47.21727" lon="4.72025">
        <ele>321</ele>
        <time>2014-04-23T13:56:28Z</time>
      </trkpt>
      <trkpt lat="47.21723" lon="4.72031">
        <ele>321</ele>
        <time>2014-04-23T13:56:32Z</time>
      </trkpt>
      <trkpt lat="47.2172" lon="4.72037">
        <ele>321</ele>
        <time>2014-04-23T13:56:35Z</time>
      </trkpt>
      <trkpt lat="47.21717" lon="4.72043">
        <ele>321</ele>
        <time>2014-04-23T13:56:39Z</time>
      </trkpt>
      <trkpt lat="47.21713" lon="4.72047">
        <ele>321</ele>
        <time>2014-04-23T13:56:44Z</time>
      </trkpt>
      <trkpt lat="47.21708" lon="4.72052">
        <ele>321</ele>
        <time>2014-04-23T13:56:48Z</time>
      </trkpt>
      <trkpt lat="47.2171" lon="4.72058">
        <ele>321</ele>
        <time>2014-04-23T13:56:53Z</time>
      </trkpt>
      <trkpt lat="47.21708" lon="4.72066">
        <ele>322</ele>
        <time>2014-04-23T13:57:02Z</time>
      </trkpt>
      <trkpt lat="47.21705" lon="4.72069">
        <ele>321</ele>
        <time>2014-04-23T13:57:11Z</time>
      </trkpt>
      <trkpt lat="47.21711" lon="4.7207">
        <ele>322</ele>
        <time>2014-04-23T13:57:23Z</time>
      </trkpt>
      <trkpt lat="47.21711" lon="4.72072">
        <ele>322</ele>
        <time>2014-04-23T13:57:49Z</time>
      </trkpt>
      <trkpt lat="47.2171" lon="4.72078">
        <ele>322</ele>
        <time>2014-04-23T13:57:52Z</time>
      </trkpt>
      <trkpt lat="47.21709" lon="4.72086">
        <ele>323</ele>
        <time>2014-04-23T13:57:55Z</time>
      </trkpt>
      <trkpt lat="47.21708" lon="4.72092">
        <ele>323</ele>
        <time>2014-04-23T13:57:58Z</time>
      </trkpt>
      <trkpt lat="47.21706" lon="4.72099">
        <ele>323</ele>
        <time>2014-04-23T13:58:01Z</time>
      </trkpt>
      <trkpt lat="47.21706" lon="4.72106">
        <ele>322</ele>
        <time>2014-04-23T13:58:06Z</time>
      </trkpt>
      <trkpt lat="47.21704" lon="4.72112">
        <ele>322</ele>
        <time>2014-04-23T13:58:11Z</time>
      </trkpt>
      <trkpt lat="47.21704" lon="4.7212">
        <ele>322</ele>
        <time>2014-04-23T13:58:16Z</time>
      </trkpt>
      <trkpt lat="47.21703" lon="4.72127">
        <ele>322</ele>
        <time>2014-04-23T13:58:20Z</time>
      </trkpt>
      <trkpt lat="47.21702" lon="4.72136">
        <ele>322</ele>
        <time>2014-04-23T13:58:24Z</time>
      </trkpt>
      <trkpt lat="47.217" lon="4.72143">
        <ele>322</ele>
        <time>2014-04-23T13:58:27Z</time>
      </trkpt>
      <trkpt lat="47.21697" lon="4.7215">
        <ele>322</ele>
        <time>2014-04-23T13:58:31Z</time>
      </trkpt>
      <trkpt lat="47.21694" lon="4.72156">
        <ele>321</ele>
        <time>2014-04-23T13:58:35Z</time>
      </trkpt>
      <trkpt lat="47.21695" lon="4.72163">
        <ele>321</ele>
        <time>2014-04-23T13:58:39Z</time>
      </trkpt>
      <trkpt lat="47.21697" lon="4.72168">
        <ele>321</ele>
        <time>2014-04-23T13:58:43Z</time>
      </trkpt>
      <trkpt lat="47.21695" lon="4.72175">
        <ele>321</ele>
        <time>2014-04-23T13:58:48Z</time>
      </trkpt>
      <trkpt lat="47.21692" lon="4.72181">
        <ele>321</ele>
        <time>2014-04-23T13:58:52Z</time>
      </trkpt>
      <trkpt lat="47.2169" lon="4.72188">
        <ele>321</ele>
        <time>2014-04-23T13:58:56Z</time>
      </trkpt>
      <trkpt lat="47.21691" lon="4.72196">
        <ele>321</ele>
        <time>2014-04-23T13:59:00Z</time>
      </trkpt>
      <trkpt lat="47.2169" lon="4.72204">
        <ele>321</ele>
        <time>2014-04-23T13:59:04Z</time>
      </trkpt>
      <trkpt lat="47.21691" lon="4.72213">
        <ele>321</ele>
        <time>2014-04-23T13:59:16Z</time>
      </trkpt>
      <trkpt lat="47.21693" lon="4.7222">
        <ele>321</ele>
        <time>2014-04-23T13:59:21Z</time>
      </trkpt>
      <trkpt lat="47.21694" lon="4.72229">
        <ele>321</ele>
        <time>2014-04-23T13:59:25Z</time>
      </trkpt>
      <trkpt lat="47.21693" lon="4.72236">
        <ele>321</ele>
        <time>2014-04-23T13:59:33Z</time>
      </trkpt>
      <trkpt lat="47.21693" lon="4.72244">
        <ele>320</ele>
        <time>2014-04-23T13:59:37Z</time>
      </trkpt>
      <trkpt lat="47.2169" lon="4.72252">
        <ele>320</ele>
        <time>2014-04-23T13:59:41Z</time>
      </trkpt>
      <trkpt lat="47.21689" lon="4.72259">
        <ele>320</ele>
        <time>2014-04-23T13:59:45Z</time>
      </trkpt>
      <trkpt lat="47.21686" lon="4.72265">
        <ele>320</ele>
        <time>2014-04-23T13:59:49Z</time>
      </trkpt>
      <trkpt lat="47.21685" lon="4.72272">
        <ele>320</ele>
        <time>2014-04-23T13:59:53Z</time>
      </trkpt>
      <trkpt lat="47.21682" lon="4.72278">
        <ele>320</ele>
        <time>2014-04-23T13:59:57Z</time>
      </trkpt>
      <trkpt lat="47.21682" lon="4.72286">
        <ele>320</ele>
        <time>2014-04-23T14:00:01Z</time>
      </trkpt>
      <trkpt lat="47.21681" lon="4.72293">
        <ele>320</ele>
        <time>2014-04-23T14:00:05Z</time>
      </trkpt>
      <trkpt lat="47.21679" lon="4.72299">
        <ele>320</ele>
        <time>2014-04-23T14:00:16Z</time>
      </trkpt>
      <trkpt lat="47.21677" lon="4.72306">
        <ele>320</ele>
        <time>2014-04-23T14:00:20Z</time>
      </trkpt>
      <trkpt lat="47.21675" lon="4.72314">
        <ele>319</ele>
        <time>2014-04-23T14:00:26Z</time>
      </trkpt>
      <trkpt lat="47.21672" lon="4.7232">
        <ele>318</ele>
        <time>2014-04-23T14:00:30Z</time>
      </trkpt>
      <trkpt lat="47.2167" lon="4.72327">
        <ele>317</ele>
        <time>2014-04-23T14:00:34Z</time>
      </trkpt>
      <trkpt lat="47.2167" lon="4.72334">
        <ele>317</ele>
        <time>2014-04-23T14:00:39Z</time>
      </trkpt>
      <trkpt lat="47.21668" lon="4.72341">
        <ele>317</ele>
        <time>2014-04-23T14:00:43Z</time>
      </trkpt>
      <trkpt lat="47.21665" lon="4.72347">
        <ele>315</ele>
        <time>2014-04-23T14:00:46Z</time>
      </trkpt>
      <trkpt lat="47.21662" lon="4.72353">
        <ele>315</ele>
        <time>2014-04-23T14:00:53Z</time>
      </trkpt>
      <trkpt lat="47.21659" lon="4.72352">
        <ele>315</ele>
        <time>2014-04-23T14:01:08Z</time>
      </trkpt>
      <trkpt lat="47.21656" lon="4.7236">
        <ele>314</ele>
        <time>2014-04-23T14:01:21Z</time>
      </trkpt>
      <trkpt lat="47.21655" lon="4.72367">
        <ele>314</ele>
        <time>2014-04-23T14:01:31Z</time>
      </trkpt>
      <trkpt lat="47.21652" lon="4.72373">
        <ele>314</ele>
        <time>2014-04-23T14:01:38Z</time>
      </trkpt>
      <trkpt lat="47.21648" lon="4.7238">
        <ele>314</ele>
        <time>2014-04-23T14:01:42Z</time>
      </trkpt>
      <trkpt lat="47.21643" lon="4.72384">
        <ele>314</ele>
        <time>2014-04-23T14:01:46Z</time>
      </trkpt>
      <trkpt lat="47.2164" lon="4.72388">
        <ele>314</ele>
        <time>2014-04-23T14:01:49Z</time>
      </trkpt>
      <trkpt lat="47.21636" lon="4.72392">
        <ele>314</ele>
        <time>2014-04-23T14:01:52Z</time>
      </trkpt>
      <trkpt lat="47.21632" lon="4.72396">
        <ele>313</ele>
        <time>2014-04-23T14:01:56Z</time>
      </trkpt>
      <trkpt lat="47.21627" lon="4.72399">
        <ele>313</ele>
        <time>2014-04-23T14:02:01Z</time>
      </trkpt>
      <trkpt lat="47.21626" lon="4.72395">
        <ele>313</ele>
        <time>2014-04-23T14:02:09Z</time>
      </trkpt>
      <trkpt lat="47.21623" lon="4.72402">
        <ele>313</ele>
        <time>2014-04-23T14:02:18Z</time>
      </trkpt>
      <trkpt lat="47.21619" lon="4.72405">
        <ele>313</ele>
        <time>2014-04-23T14:02:23Z</time>
      </trkpt>
      <trkpt lat="47.21613" lon="4.72407">
        <ele>313</ele>
        <time>2014-04-23T14:02:27Z</time>
      </trkpt>
      <trkpt lat="47.21608" lon="4.72408">
        <ele>312</ele>
        <time>2014-04-23T14:02:32Z</time>
      </trkpt>
      <trkpt lat="47.21604" lon="4.72412">
        <ele>312</ele>
        <time>2014-04-23T14:02:38Z</time>
      </trkpt>
      <trkpt lat="47.216" lon="4.72415">
        <ele>312</ele>
        <time>2014-04-23T14:02:41Z</time>
      </trkpt>
      <trkpt lat="47.21595" lon="4.7242">
        <ele>311</ele>
        <time>2014-04-23T14:02:46Z</time>
      </trkpt>
      <trkpt lat="47.2159" lon="4.72423">
        <ele>310</ele>
        <time>2014-04-23T14:02:50Z</time>
      </trkpt>
      <trkpt lat="47.21586" lon="4.72424">
        <ele>310</ele>
        <time>2014-04-23T14:02:55Z</time>
      </trkpt>
      <trkpt lat="47.21581" lon="4.72426">
        <ele>309</ele>
        <time>2014-04-23T14:03:02Z</time>
      </trkpt>
      <trkpt lat="47.21578" lon="4.72427">
        <ele>309</ele>
        <time>2014-04-23T14:03:09Z</time>
      </trkpt>
      <trkpt lat="47.21574" lon="4.72434">
        <ele>309</ele>
        <time>2014-04-23T14:03:25Z</time>
      </trkpt>
      <trkpt lat="47.21572" lon="4.72428">
        <ele>309</ele>
        <time>2014-04-23T14:03:30Z</time>
      </trkpt>
      <trkpt lat="47.21574" lon="4.7243">
        <ele>309</ele>
        <time>2014-04-23T14:03:42Z</time>
      </trkpt>
      <trkpt lat="47.21572" lon="4.72433">
        <ele>309</ele>
        <time>2014-04-23T14:04:18Z</time>
      </trkpt>
      <trkpt lat="47.21567" lon="4.72427">
        <ele>309</ele>
        <time>2014-04-23T14:04:38Z</time>
      </trkpt>
      <trkpt lat="47.21562" lon="4.72426">
        <ele>309</ele>
        <time>2014-04-23T14:04:44Z</time>
      </trkpt>
      <trkpt lat="47.21557" lon="4.72424">
        <ele>309</ele>
        <time>2014-04-23T14:04:49Z</time>
      </trkpt>
      <trkpt lat="47.2156" lon="4.72418">
        <ele>309</ele>
        <time>2014-04-23T14:04:55Z</time>
      </trkpt>
      <trkpt lat="47.21556" lon="4.72412">
        <ele>310</ele>
        <time>2014-04-23T14:04:58Z</time>
      </trkpt>
      <trkpt lat="47.21552" lon="4.72407">
        <ele>310</ele>
        <time>2014-04-23T14:05:00Z</time>
      </trkpt>
      <trkpt lat="47.21548" lon="4.72403">
        <ele>310</ele>
        <time>2014-04-23T14:05:03Z</time>
      </trkpt>
      <trkpt lat="47.21543" lon="4.72401">
        <ele>310</ele>
        <time>2014-04-23T14:05:07Z</time>
      </trkpt>
      <trkpt lat="47.21538" lon="4.72397">
        <ele>310</ele>
        <time>2014-04-23T14:05:11Z</time>
      </trkpt>
      <trkpt lat="47.21533" lon="4.72394">
        <ele>310</ele>
        <time>2014-04-23T14:05:15Z</time>
      </trkpt>
      <trkpt lat="47.21529" lon="4.7239">
        <ele>310</ele>
        <time>2014-04-23T14:05:20Z</time>
      </trkpt>
      <trkpt lat="47.21525" lon="4.72386">
        <ele>310</ele>
        <time>2014-04-23T14:05:25Z</time>
      </trkpt>
      <trkpt lat="47.2152" lon="4.72385">
        <ele>310</ele>
        <time>2014-04-23T14:05:29Z</time>
      </trkpt>
      <trkpt lat="47.21514" lon="4.72383">
        <ele>310</ele>
        <time>2014-04-23T14:05:33Z</time>
      </trkpt>
      <trkpt lat="47.2151" lon="4.72379">
        <ele>310</ele>
        <time>2014-04-23T14:05:37Z</time>
      </trkpt>
      <trkpt lat="47.21506" lon="4.72376">
        <ele>310</ele>
        <time>2014-04-23T14:05:42Z</time>
      </trkpt>
      <trkpt lat="47.21503" lon="4.7237">
        <ele>310</ele>
        <time>2014-04-23T14:05:47Z</time>
      </trkpt>
      <trkpt lat="47.21498" lon="4.72366">
        <ele>310</ele>
        <time>2014-04-23T14:05:51Z</time>
      </trkpt>
      <trkpt lat="47.21493" lon="4.72363">
        <ele>310</ele>
        <time>2014-04-23T14:05:54Z</time>
      </trkpt>
      <trkpt lat="47.21489" lon="4.72358">
        <ele>310</ele>
        <time>2014-04-23T14:06:00Z</time>
      </trkpt>
      <trkpt lat="47.21483" lon="4.72353">
        <ele>310</ele>
        <time>2014-04-23T14:06:03Z</time>
      </trkpt>
      <trkpt lat="47.21478" lon="4.72349">
        <ele>310</ele>
        <time>2014-04-23T14:06:06Z</time>
      </trkpt>
      <trkpt lat="47.21473" lon="4.72346">
        <ele>310</ele>
        <time>2014-04-23T14:06:09Z</time>
      </trkpt>
      <trkpt lat="47.21469" lon="4.72341">
        <ele>310</ele>
        <time>2014-04-23T14:06:14Z</time>
      </trkpt>
      <trkpt lat="47.21464" lon="4.72341">
        <ele>310</ele>
        <time>2014-04-23T14:06:21Z</time>
      </trkpt>
      <trkpt lat="47.21459" lon="4.72339">
        <ele>310</ele>
        <time>2014-04-23T14:06:25Z</time>
      </trkpt>
      <trkpt lat="47.21454" lon="4.72338">
        <ele>310</ele>
        <time>2014-04-23T14:06:29Z</time>
      </trkpt>
      <trkpt lat="47.21449" lon="4.72336">
        <ele>310</ele>
        <time>2014-04-23T14:06:35Z</time>
      </trkpt>
      <trkpt lat="47.21444" lon="4.72337">
        <ele>310</ele>
        <time>2014-04-23T14:06:41Z</time>
      </trkpt>
      <trkpt lat="47.21439" lon="4.72337">
        <ele>310</ele>
        <time>2014-04-23T14:06:46Z</time>
      </trkpt>
      <trkpt lat="47.21434" lon="4.7234">
        <ele>310</ele>
        <time>2014-04-23T14:06:50Z</time>
      </trkpt>
      <trkpt lat="47.2143" lon="4.72343">
        <ele>310</ele>
        <time>2014-04-23T14:06:54Z</time>
      </trkpt>
      <trkpt lat="47.21425" lon="4.72347">
        <ele>310</ele>
        <time>2014-04-23T14:06:58Z</time>
      </trkpt>
      <trkpt lat="47.2142" lon="4.72349">
        <ele>310</ele>
        <time>2014-04-23T14:07:03Z</time>
      </trkpt>
      <trkpt lat="47.21416" lon="4.72353">
        <ele>310</ele>
        <time>2014-04-23T14:07:07Z</time>
      </trkpt>
      <trkpt lat="47.21412" lon="4.72357">
        <ele>310</ele>
        <time>2014-04-23T14:07:11Z</time>
      </trkpt>
      <trkpt lat="47.21408" lon="4.72362">
        <ele>310</ele>
        <time>2014-04-23T14:07:16Z</time>
      </trkpt>
      <trkpt lat="47.21403" lon="4.72366">
        <ele>310</ele>
        <time>2014-04-23T14:07:21Z</time>
      </trkpt>
      <trkpt lat="47.21401" lon="4.72364">
        <ele>310</ele>
        <time>2014-04-23T14:07:27Z</time>
      </trkpt>
      <trkpt lat="47.21398" lon="4.72371">
        <ele>310</ele>
        <time>2014-04-23T14:07:30Z</time>
      </trkpt>
      <trkpt lat="47.21395" lon="4.72377">
        <ele>310</ele>
        <time>2014-04-23T14:07:33Z</time>
      </trkpt>
      <trkpt lat="47.21391" lon="4.72381">
        <ele>310</ele>
        <time>2014-04-23T14:07:37Z</time>
      </trkpt>
      <trkpt lat="47.21386" lon="4.72385">
        <ele>310</ele>
        <time>2014-04-23T14:07:42Z</time>
      </trkpt>
      <trkpt lat="47.21384" lon="4.72391">
        <ele>310</ele>
        <time>2014-04-23T14:07:46Z</time>
      </trkpt>
      <trkpt lat="47.21382" lon="4.72398">
        <ele>310</ele>
        <time>2014-04-23T14:07:51Z</time>
      </trkpt>
      <trkpt lat="47.2138" lon="4.72404">
        <ele>310</ele>
        <time>2014-04-23T14:07:56Z</time>
      </trkpt>
      <trkpt lat="47.21376" lon="4.72407">
        <ele>310</ele>
        <time>2014-04-23T14:08:01Z</time>
      </trkpt>
      <trkpt lat="47.21372" lon="4.7241">
        <ele>311</ele>
        <time>2014-04-23T14:08:05Z</time>
      </trkpt>
      <trkpt lat="47.21367" lon="4.72413">
        <ele>311</ele>
        <time>2014-04-23T14:08:09Z</time>
      </trkpt>
      <trkpt lat="47.21363" lon="4.72416">
        <ele>311</ele>
        <time>2014-04-23T14:08:15Z</time>
      </trkpt>
      <trkpt lat="47.21359" lon="4.7242">
        <ele>312</ele>
        <time>2014-04-23T14:08:19Z</time>
      </trkpt>
      <trkpt lat="47.21354" lon="4.72425">
        <ele>312</ele>
        <time>2014-04-23T14:08:22Z</time>
      </trkpt>
      <trkpt lat="47.21349" lon="4.72429">
        <ele>312</ele>
        <time>2014-04-23T14:08:25Z</time>
      </trkpt>
      <trkpt lat="47.21343" lon="4.72427">
        <ele>312</ele>
        <time>2014-04-23T14:08:36Z</time>
      </trkpt>
      <trkpt lat="47.21338" lon="4.72428">
        <ele>312</ele>
        <time>2014-04-23T14:08:40Z</time>
      </trkpt>
      <trkpt lat="47.21333" lon="4.72429">
        <ele>314</ele>
        <time>2014-04-23T14:08:44Z</time>
      </trkpt>
      <trkpt lat="47.2133" lon="4.72434">
        <ele>315</ele>
        <time>2014-04-23T14:08:55Z</time>
      </trkpt>
      <trkpt lat="47.21324" lon="4.72437">
        <ele>315</ele>
        <time>2014-04-23T14:08:59Z</time>
      </trkpt>
      <trkpt lat="47.21319" lon="4.72438">
        <ele>315</ele>
        <time>2014-04-23T14:09:03Z</time>
      </trkpt>
      <trkpt lat="47.21314" lon="4.72439">
        <ele>316</ele>
        <time>2014-04-23T14:09:08Z</time>
      </trkpt>
      <trkpt lat="47.2131" lon="4.72436">
        <ele>316</ele>
        <time>2014-04-23T14:09:14Z</time>
      </trkpt>
      <trkpt lat="47.21304" lon="4.72436">
        <ele>316</ele>
        <time>2014-04-23T14:09:18Z</time>
      </trkpt>
      <trkpt lat="47.213" lon="4.72437">
        <ele>316</ele>
        <time>2014-04-23T14:09:21Z</time>
      </trkpt>
      <trkpt lat="47.21295" lon="4.72437">
        <ele>317</ele>
        <time>2014-04-23T14:09:25Z</time>
      </trkpt>
      <trkpt lat="47.2129" lon="4.72437">
        <ele>317</ele>
        <time>2014-04-23T14:09:30Z</time>
      </trkpt>
      <trkpt lat="47.21285" lon="4.72437">
        <ele>317</ele>
        <time>2014-04-23T14:09:34Z</time>
      </trkpt>
      <trkpt lat="47.21279" lon="4.72442">
        <ele>317</ele>
        <time>2014-04-23T14:09:39Z</time>
      </trkpt>
      <trkpt lat="47.21275" lon="4.72447">
        <ele>317</ele>
        <time>2014-04-23T14:09:42Z</time>
      </trkpt>
      <trkpt lat="47.2127" lon="4.72448">
        <ele>318</ele>
        <time>2014-04-23T14:09:46Z</time>
      </trkpt>
      <trkpt lat="47.21265" lon="4.72451">
        <ele>318</ele>
        <time>2014-04-23T14:09:50Z</time>
      </trkpt>
      <trkpt lat="47.2126" lon="4.72452">
        <ele>318</ele>
        <time>2014-04-23T14:09:54Z</time>
      </trkpt>
      <trkpt lat="47.21254" lon="4.72452">
        <ele>318</ele>
        <time>2014-04-23T14:09:58Z</time>
      </trkpt>
      <trkpt lat="47.21249" lon="4.72455">
        <ele>319</ele>
        <time>2014-04-23T14:10:01Z</time>
      </trkpt>
      <trkpt lat="47.21244" lon="4.72459">
        <ele>320</ele>
        <time>2014-04-23T14:10:04Z</time>
      </trkpt>
      <trkpt lat="47.2124" lon="4.72462">
        <ele>320</ele>
        <time>2014-04-23T14:10:07Z</time>
      </trkpt>
      <trkpt lat="47.21236" lon="4.72465">
        <ele>320</ele>
        <time>2014-04-23T14:10:11Z</time>
      </trkpt>
      <trkpt lat="47.21231" lon="4.72469">
        <ele>320</ele>
        <time>2014-04-23T14:10:17Z</time>
      </trkpt>
      <trkpt lat="47.21226" lon="4.72469">
        <ele>320</ele>
        <time>2014-04-23T14:10:21Z</time>
      </trkpt>
      <trkpt lat="47.21223" lon="4.72473">
        <ele>320</ele>
        <time>2014-04-23T14:10:26Z</time>
      </trkpt>
      <trkpt lat="47.21218" lon="4.72474">
        <ele>320</ele>
        <time>2014-04-23T14:10:30Z</time>
      </trkpt>
      <trkpt lat="47.21214" lon="4.72479">
        <ele>320</ele>
        <time>2014-04-23T14:10:34Z</time>
      </trkpt>
      <trkpt lat="47.21211" lon="4.72484">
        <ele>320</ele>
        <time>2014-04-23T14:10:38Z</time>
      </trkpt>
      <trkpt lat="47.21207" lon="4.72488">
        <ele>320</ele>
        <time>2014-04-23T14:10:42Z</time>
      </trkpt>
      <trkpt lat="47.21202" lon="4.72492">
        <ele>320</ele>
        <time>2014-04-23T14:10:48Z</time>
      </trkpt>
      <trkpt lat="47.21198" lon="4.72496">
        <ele>320</ele>
        <time>2014-04-23T14:10:52Z</time>
      </trkpt>
      <trkpt lat="47.21195" lon="4.725">
        <ele>320</ele>
        <time>2014-04-23T14:10:55Z</time>
      </trkpt>
      <trkpt lat="47.21191" lon="4.72504">
        <ele>321</ele>
        <time>2014-04-23T14:10:59Z</time>
      </trkpt>
      <trkpt lat="47.21187" lon="4.72508">
        <ele>321</ele>
        <time>2014-04-23T14:11:04Z</time>
      </trkpt>
      <trkpt lat="47.21182" lon="4.72513">
        <ele>321</ele>
        <time>2014-04-23T14:11:08Z</time>
      </trkpt>
      <trkpt lat="47.2118" lon="4.7252">
        <ele>321</ele>
        <time>2014-04-23T14:11:12Z</time>
      </trkpt>
      <trkpt lat="47.21177" lon="4.72526">
        <ele>321</ele>
        <time>2014-04-23T14:11:17Z</time>
      </trkpt>
      <trkpt lat="47.21177" lon="4.72533">
        <ele>321</ele>
        <time>2014-04-23T14:11:21Z</time>
      </trkpt>
      <trkpt lat="47.21175" lon="4.72539">
        <ele>321</ele>
        <time>2014-04-23T14:11:26Z</time>
      </trkpt>
      <trkpt lat="47.21173" lon="4.72545">
        <ele>321</ele>
        <time>2014-04-23T14:11:32Z</time>
      </trkpt>
      <trkpt lat="47.2117" lon="4.72551">
        <ele>321</ele>
        <time>2014-04-23T14:11:38Z</time>
      </trkpt>
      <trkpt lat="47.21166" lon="4.72557">
        <ele>319</ele>
        <time>2014-04-23T14:11:42Z</time>
      </trkpt>
      <trkpt lat="47.21164" lon="4.72564">
        <ele>319</ele>
        <time>2014-04-23T14:11:46Z</time>
      </trkpt>
      <trkpt lat="47.21162" lon="4.72571">
        <ele>320</ele>
        <time>2014-04-23T14:11:50Z</time>
      </trkpt>
      <trkpt lat="47.21158" lon="4.72577">
        <ele>320</ele>
        <time>2014-04-23T14:11:54Z</time>
      </trkpt>
      <trkpt lat="47.21155" lon="4.72582">
        <ele>320</ele>
        <time>2014-04-23T14:11:58Z</time>
      </trkpt>
      <trkpt lat="47.21151" lon="4.72588">
        <ele>320</ele>
        <time>2014-04-23T14:12:03Z</time>
      </trkpt>
      <trkpt lat="47.21149" lon="4.72595">
        <ele>319</ele>
        <time>2014-04-23T14:12:08Z</time>
      </trkpt>
      <trkpt lat="47.21146" lon="4.72598">
        <ele>319</ele>
        <time>2014-04-23T14:12:15Z</time>
      </trkpt>
      <trkpt lat="47.21151" lon="4.72603">
        <ele>319</ele>
        <time>2014-04-23T14:12:32Z</time>
      </trkpt>
      <trkpt lat="47.2115" lon="4.72594">
        <ele>319</ele>
        <time>2014-04-23T14:12:40Z</time>
      </trkpt>
      <trkpt lat="47.21149" lon="4.7259">
        <ele>319</ele>
        <time>2014-04-23T14:12:47Z</time>
      </trkpt>
      <trkpt lat="47.21144" lon="4.72589">
        <ele>319</ele>
        <time>2014-04-23T14:12:54Z</time>
      </trkpt>
      <trkpt lat="47.21139" lon="4.72591">
        <ele>319</ele>
        <time>2014-04-23T14:13:24Z</time>
      </trkpt>
      <trkpt lat="47.21143" lon="4.72599">
        <ele>319</ele>
        <time>2014-04-23T14:15:38Z</time>
      </trkpt>
      <trkpt lat="47.21148" lon="4.72599">
        <ele>319</ele>
        <time>2014-04-23T14:15:54Z</time>
      </trkpt>
      <trkpt lat="47.2115" lon="4.72605">
        <ele>319</ele>
        <time>2014-04-23T14:16:02Z</time>
      </trkpt>
      <trkpt lat="47.2115" lon="4.72605">
        <ele>319</ele>
        <time>2014-04-23T14:16:23Z</time>
      </trkpt>
      <trkpt lat="47.21155" lon="4.72606">
        <ele>319</ele>
        <time>2014-04-23T14:16:31Z</time>
      </trkpt>
      <trkpt lat="47.2116" lon="4.72607">
        <ele>320</ele>
        <time>2014-04-23T14:16:34Z</time>
      </trkpt>
      <trkpt lat="47.2116" lon="4.72605">
        <ele>320</ele>
        <time>2014-04-23T14:16:41Z</time>
      </trkpt>
      <trkpt lat="47.21154" lon="4.72603">
        <ele>319</ele>
        <time>2014-04-23T14:17:10Z</time>
      </trkpt>
      <trkpt lat="47.21151" lon="4.726">
        <ele>319</ele>
        <time>2014-04-23T14:17:51Z</time>
      </trkpt>
      <trkpt lat="47.21154" lon="4.72596">
        <ele>320</ele>
        <time>2014-04-23T14:18:02Z</time>
      </trkpt>
      <trkpt lat="47.21155" lon="4.72591">
        <ele>320</ele>
        <time>2014-04-23T14:18:10Z</time>
      </trkpt>
      <trkpt lat="47.21149" lon="4.72594">
        <ele>319</ele>
        <time>2014-04-23T14:18:23Z</time>
      </trkpt>
      <trkpt lat="47.21146" lon="4.72599">
        <ele>319</ele>
        <time>2014-04-23T14:18:31Z</time>
      </trkpt>
      <trkpt lat="47.21148" lon="4.72594">
        <ele>319</ele>
        <time>2014-04-23T14:22:34Z</time>
      </trkpt>
      <trkpt lat="47.21152" lon="4.72598">
        <ele>319</ele>
        <time>2014-04-23T14:22:36Z</time>
      </trkpt>
      <trkpt lat="47.21157" lon="4.726">
        <ele>320</ele>
        <time>2014-04-23T14:22:38Z</time>
      </trkpt>
      <trkpt lat="47.21158" lon="4.72593">
        <ele>320</ele>
        <time>2014-04-23T14:22:57Z</time>
      </trkpt>
      <trkpt lat="47.21161" lon="4.72587">
        <ele>320</ele>
        <time>2014-04-23T14:23:05Z</time>
      </trkpt>
      <trkpt lat="47.21164" lon="4.7258">
        <ele>321</ele>
        <time>2014-04-23T14:23:10Z</time>
      </trkpt>
      <trkpt lat="47.21164" lon="4.72573">
        <ele>320</ele>
        <time>2014-04-23T14:23:14Z</time>
      </trkpt>
      <trkpt lat="47.21166" lon="4.72566">
        <ele>320</ele>
        <time>2014-04-23T14:23:19Z</time>
      </trkpt>
      <trkpt lat="47.21168" lon="4.72558">
        <ele>321</ele>
        <time>2014-04-23T14:23:23Z</time>
      </trkpt>
      <trkpt lat="47.21169" lon="4.72551">
        <ele>321</ele>
        <time>2014-04-23T14:23:27Z</time>
      </trkpt>
      <trkpt lat="47.21172" lon="4.72545">
        <ele>321</ele>
        <time>2014-04-23T14:23:32Z</time>
      </trkpt>
      <trkpt lat="47.21175" lon="4.72539">
        <ele>321</ele>
        <time>2014-04-23T14:23:37Z</time>
      </trkpt>
      <trkpt lat="47.21179" lon="4.72533">
        <ele>321</ele>
        <time>2014-04-23T14:23:41Z</time>
      </trkpt>
      <trkpt lat="47.21183" lon="4.72528">
        <ele>321</ele>
        <time>2014-04-23T14:23:47Z</time>
      </trkpt>
      <trkpt lat="47.21187" lon="4.72525">
        <ele>321</ele>
        <time>2014-04-23T14:23:50Z</time>
      </trkpt>
      <trkpt lat="47.21192" lon="4.72522">
        <ele>321</ele>
        <time>2014-04-23T14:23:55Z</time>
      </trkpt>
      <trkpt lat="47.21196" lon="4.7252">
        <ele>321</ele>
        <time>2014-04-23T14:23:58Z</time>
      </trkpt>
      <trkpt lat="47.212" lon="4.72517">
        <ele>321</ele>
        <time>2014-04-23T14:24:02Z</time>
      </trkpt>
      <trkpt lat="47.21201" lon="4.72509">
        <ele>321</ele>
        <time>2014-04-23T14:24:06Z</time>
      </trkpt>
      <trkpt lat="47.21203" lon="4.72502">
        <ele>321</ele>
        <time>2014-04-23T14:24:09Z</time>
      </trkpt>
      <trkpt lat="47.21206" lon="4.72496">
        <ele>320</ele>
        <time>2014-04-23T14:24:14Z</time>
      </trkpt>
      <trkpt lat="47.21208" lon="4.7249">
        <ele>320</ele>
        <time>2014-04-23T14:24:19Z</time>
      </trkpt>
      <trkpt lat="47.21211" lon="4.72485">
        <ele>320</ele>
        <time>2014-04-23T14:24:26Z</time>
      </trkpt>
      <trkpt lat="47.21215" lon="4.7248">
        <ele>320</ele>
        <time>2014-04-23T14:24:30Z</time>
      </trkpt>
      <trkpt lat="47.21221" lon="4.72491">
        <ele>320</ele>
        <time>2014-04-23T14:24:43Z</time>
      </trkpt>
      <trkpt lat="47.21227" lon="4.7249">
        <ele>320</ele>
        <time>2014-04-23T14:25:08Z</time>
      </trkpt>
      <trkpt lat="47.21225" lon="4.72482">
        <ele>320</ele>
        <time>2014-04-23T14:25:10Z</time>
      </trkpt>
      <trkpt lat="47.21224" lon="4.72473">
        <ele>320</ele>
        <time>2014-04-23T14:25:13Z</time>
      </trkpt>
      <trkpt lat="47.21226" lon="4.72466">
        <ele>320</ele>
        <time>2014-04-23T14:25:16Z</time>
      </trkpt>
      <trkpt lat="47.21229" lon="4.72462">
        <ele>320</ele>
        <time>2014-04-23T14:25:19Z</time>
      </trkpt>
      <trkpt lat="47.21234" lon="4.72462">
        <ele>320</ele>
        <time>2014-04-23T14:25:22Z</time>
      </trkpt>
      <trkpt lat="47.21239" lon="4.72463">
        <ele>320</ele>
        <time>2014-04-23T14:25:26Z</time>
      </trkpt>
      <trkpt lat="47.21243" lon="4.72458">
        <ele>319</ele>
        <time>2014-04-23T14:25:31Z</time>
      </trkpt>
      <trkpt lat="47.21248" lon="4.72455">
        <ele>319</ele>
        <time>2014-04-23T14:25:35Z</time>
      </trkpt>
      <trkpt lat="47.21253" lon="4.72453">
        <ele>318</ele>
        <time>2014-04-23T14:25:40Z</time>
      </trkpt>
      <trkpt lat="47.21258" lon="4.72452">
        <ele>318</ele>
        <time>2014-04-23T14:25:44Z</time>
      </trkpt>
      <trkpt lat="47.21262" lon="4.72451">
        <ele>318</ele>
        <time>2014-04-23T14:25:49Z</time>
      </trkpt>
      <trkpt lat="47.21267" lon="4.72449">
        <ele>318</ele>
        <time>2014-04-23T14:25:53Z</time>
      </trkpt>
      <trkpt lat="47.21271" lon="4.72446">
        <ele>317</ele>
        <time>2014-04-23T14:25:57Z</time>
      </trkpt>
      <trkpt lat="47.21276" lon="4.72443">
        <ele>317</ele>
        <time>2014-04-23T14:26:01Z</time>
      </trkpt>
      <trkpt lat="47.2128" lon="4.72442">
        <ele>317</ele>
        <time>2014-04-23T14:26:07Z</time>
      </trkpt>
      <trkpt lat="47.21286" lon="4.72442">
        <ele>317</ele>
        <time>2014-04-23T14:26:11Z</time>
      </trkpt>
      <trkpt lat="47.21291" lon="4.72441">
        <ele>317</ele>
        <time>2014-04-23T14:26:14Z</time>
      </trkpt>
      <trkpt lat="47.21295" lon="4.72439">
        <ele>317</ele>
        <time>2014-04-23T14:26:17Z</time>
      </trkpt>
      <trkpt lat="47.213" lon="4.72437">
        <ele>316</ele>
        <time>2014-04-23T14:26:21Z</time>
      </trkpt>
      <trkpt lat="47.21306" lon="4.72436">
        <ele>316</ele>
        <time>2014-04-23T14:26:26Z</time>
      </trkpt>
      <trkpt lat="47.21311" lon="4.72435">
        <ele>316</ele>
        <time>2014-04-23T14:26:30Z</time>
      </trkpt>
      <trkpt lat="47.21316" lon="4.72432">
        <ele>315</ele>
        <time>2014-04-23T14:26:35Z</time>
      </trkpt>
      <trkpt lat="47.21321" lon="4.72431">
        <ele>315</ele>
        <time>2014-04-23T14:26:40Z</time>
      </trkpt>
      <trkpt lat="47.21325" lon="4.72429">
        <ele>314</ele>
        <time>2014-04-23T14:26:44Z</time>
      </trkpt>
      <trkpt lat="47.2133" lon="4.72427">
        <ele>314</ele>
        <time>2014-04-23T14:26:49Z</time>
      </trkpt>
      <trkpt lat="47.21335" lon="4.72427">
        <ele>312</ele>
        <time>2014-04-23T14:26:52Z</time>
      </trkpt>
      <trkpt lat="47.2134" lon="4.72427">
        <ele>312</ele>
        <time>2014-04-23T14:26:56Z</time>
      </trkpt>
      <trkpt lat="47.21345" lon="4.72424">
        <ele>312</ele>
        <time>2014-04-23T14:27:01Z</time>
      </trkpt>
      <trkpt lat="47.21349" lon="4.72423">
        <ele>312</ele>
        <time>2014-04-23T14:27:06Z</time>
      </trkpt>
      <trkpt lat="47.21354" lon="4.72419">
        <ele>312</ele>
        <time>2014-04-23T14:27:10Z</time>
      </trkpt>
      <trkpt lat="47.21355" lon="4.72429">
        <ele>312</ele>
        <time>2014-04-23T14:27:21Z</time>
      </trkpt>
      <trkpt lat="47.21358" lon="4.72434">
        <ele>312</ele>
        <time>2014-04-23T14:27:25Z</time>
      </trkpt>
      <trkpt lat="47.21363" lon="4.72438">
        <ele>312</ele>
        <time>2014-04-23T14:27:29Z</time>
      </trkpt>
      <trkpt lat="47.21367" lon="4.72442">
        <ele>312</ele>
        <time>2014-04-23T14:27:32Z</time>
      </trkpt>
      <trkpt lat="47.21371" lon="4.72447">
        <ele>312</ele>
        <time>2014-04-23T14:27:37Z</time>
      </trkpt>
      <trkpt lat="47.21376" lon="4.72452">
        <ele>312</ele>
        <time>2014-04-23T14:27:42Z</time>
      </trkpt>
      <trkpt lat="47.21377" lon="4.72459">
        <ele>312</ele>
        <time>2014-04-23T14:27:46Z</time>
      </trkpt>
      <trkpt lat="47.2138" lon="4.72465">
        <ele>312</ele>
        <time>2014-04-23T14:27:49Z</time>
      </trkpt>
      <trkpt lat="47.21382" lon="4.72472">
        <ele>312</ele>
        <time>2014-04-23T14:27:53Z</time>
      </trkpt>
      <trkpt lat="47.21384" lon="4.72478">
        <ele>312</ele>
        <time>2014-04-23T14:27:57Z</time>
      </trkpt>
      <trkpt lat="47.21386" lon="4.72485">
        <ele>312</ele>
        <time>2014-04-23T14:28:01Z</time>
      </trkpt>
      <trkpt lat="47.2139" lon="4.7249">
        <ele>312</ele>
        <time>2014-04-23T14:28:05Z</time>
      </trkpt>
      <trkpt lat="47.21392" lon="4.72497">
        <ele>312</ele>
        <time>2014-04-23T14:28:11Z</time>
      </trkpt>
      <trkpt lat="47.21392" lon="4.72504">
        <ele>314</ele>
        <time>2014-04-23T14:28:15Z</time>
      </trkpt>
      <trkpt lat="47.21395" lon="4.72511">
        <ele>314</ele>
        <time>2014-04-23T14:28:20Z</time>
      </trkpt>
      <trkpt lat="47.21397" lon="4.72518">
        <ele>315</ele>
        <time>2014-04-23T14:28:24Z</time>
      </trkpt>
      <trkpt lat="47.21401" lon="4.72523">
        <ele>315</ele>
        <time>2014-04-23T14:28:28Z</time>
      </trkpt>
      <trkpt lat="47.21404" lon="4.72527">
        <ele>315</ele>
        <time>2014-04-23T14:28:31Z</time>
      </trkpt>
      <trkpt lat="47.21407" lon="4.72533">
        <ele>315</ele>
        <time>2014-04-23T14:28:35Z</time>
      </trkpt>
      <trkpt lat="47.21411" lon="4.72537">
        <ele>315</ele>
        <time>2014-04-23T14:28:38Z</time>
      </trkpt>
      <trkpt lat="47.21415" lon="4.72543">
        <ele>315</ele>
        <time>2014-04-23T14:28:42Z</time>
      </trkpt>
      <trkpt lat="47.21419" lon="4.72547">
        <ele>311</ele>
        <time>2014-04-23T14:28:45Z</time>
      </trkpt>
      <trkpt lat="47.21423" lon="4.72548">
        <ele>311</ele>
        <time>2014-04-23T14:28:50Z</time>
      </trkpt>
      <trkpt lat="47.21428" lon="4.72545">
        <ele>311</ele>
        <time>2014-04-23T14:28:53Z</time>
      </trkpt>
      <trkpt lat="47.21431" lon="4.72544">
        <ele>311</ele>
        <time>2014-04-23T14:29:01Z</time>
      </trkpt>
      <trkpt lat="47.21436" lon="4.72547">
        <ele>311</ele>
        <time>2014-04-23T14:29:03Z</time>
      </trkpt>
      <trkpt lat="47.21434" lon="4.72555">
        <ele>311</ele>
        <time>2014-04-23T14:29:09Z</time>
      </trkpt>
      <trkpt lat="47.21431" lon="4.7256">
        <ele>312</ele>
        <time>2014-04-23T14:29:13Z</time>
      </trkpt>
      <trkpt lat="47.21426" lon="4.72562">
        <ele>312</ele>
        <time>2014-04-23T14:29:19Z</time>
      </trkpt>
      <trkpt lat="47.21421" lon="4.72559">
        <ele>312</ele>
        <time>2014-04-23T14:29:23Z</time>
      </trkpt>
      <trkpt lat="47.21418" lon="4.72553">
        <ele>311</ele>
        <time>2014-04-23T14:29:26Z</time>
      </trkpt>
      <trkpt lat="47.21416" lon="4.72546">
        <ele>316</ele>
        <time>2014-04-23T14:29:30Z</time>
      </trkpt>
      <trkpt lat="47.21412" lon="4.72541">
        <ele>315</ele>
        <time>2014-04-23T14:29:34Z</time>
      </trkpt>
      <trkpt lat="47.2141" lon="4.72535">
        <ele>315</ele>
        <time>2014-04-23T14:29:39Z</time>
      </trkpt>
      <trkpt lat="47.21406" lon="4.7253">
        <ele>315</ele>
        <time>2014-04-23T14:29:44Z</time>
      </trkpt>
      <trkpt lat="47.21402" lon="4.72525">
        <ele>315</ele>
        <time>2014-04-23T14:29:50Z</time>
      </trkpt>
      <trkpt lat="47.21398" lon="4.72521">
        <ele>315</ele>
        <time>2014-04-23T14:29:55Z</time>
      </trkpt>
      <trkpt lat="47.21395" lon="4.72516">
        <ele>315</ele>
        <time>2014-04-23T14:29:59Z</time>
      </trkpt>
      <trkpt lat="47.21393" lon="4.72509">
        <ele>314</ele>
        <time>2014-04-23T14:30:03Z</time>
      </trkpt>
      <trkpt lat="47.21389" lon="4.72504">
        <ele>315</ele>
        <time>2014-04-23T14:30:08Z</time>
      </trkpt>
      <trkpt lat="47.21385" lon="4.72501">
        <ele>315</ele>
        <time>2014-04-23T14:30:15Z</time>
      </trkpt>
      <trkpt lat="47.21436" lon="4.7253">
        <ele>310</ele>
        <time>2014-04-23T15:21:42Z</time>
      </trkpt>
      <trkpt lat="47.21441" lon="4.72533">
        <ele>310</ele>
        <time>2014-04-23T15:21:49Z</time>
      </trkpt>
      <trkpt lat="47.21446" lon="4.72538">
        <ele>310</ele>
        <time>2014-04-23T15:21:52Z</time>
      </trkpt>
      <trkpt lat="47.21447" lon="4.72544">
        <ele>310</ele>
        <time>2014-04-23T15:21:59Z</time>
      </trkpt>
      <trkpt lat="47.21449" lon="4.72551">
        <ele>310</ele>
        <time>2014-04-23T15:22:04Z</time>
      </trkpt>
      <trkpt lat="47.21451" lon="4.72557">
        <ele>310</ele>
        <time>2014-04-23T15:22:08Z</time>
      </trkpt>
      <trkpt lat="47.21453" lon="4.72563">
        <ele>310</ele>
        <time>2014-04-23T15:22:12Z</time>
      </trkpt>
      <trkpt lat="47.21458" lon="4.72565">
        <ele>310</ele>
        <time>2014-04-23T15:22:16Z</time>
      </trkpt>
      <trkpt lat="47.2146" lon="4.72571">
        <ele>310</ele>
        <time>2014-04-23T15:22:19Z</time>
      </trkpt>
      <trkpt lat="47.21462" lon="4.72578">
        <ele>310</ele>
        <time>2014-04-23T15:22:22Z</time>
      </trkpt>
      <trkpt lat="47.21463" lon="4.72586">
        <ele>312</ele>
        <time>2014-04-23T15:22:26Z</time>
      </trkpt>
      <trkpt lat="47.21465" lon="4.72592">
        <ele>312</ele>
        <time>2014-04-23T15:22:29Z</time>
      </trkpt>
      <trkpt lat="47.21469" lon="4.72605">
        <ele>312</ele>
        <time>2014-04-23T15:22:36Z</time>
      </trkpt>
      <trkpt lat="47.21472" lon="4.72618">
        <ele>312</ele>
        <time>2014-04-23T15:22:44Z</time>
      </trkpt>
      <trkpt lat="47.21477" lon="4.72631">
        <ele>313</ele>
        <time>2014-04-23T15:22:50Z</time>
      </trkpt>
      <trkpt lat="47.21479" lon="4.72637">
        <ele>312</ele>
        <time>2014-04-23T15:22:54Z</time>
      </trkpt>
      <trkpt lat="47.21483" lon="4.72643">
        <ele>312</ele>
        <time>2014-04-23T15:22:58Z</time>
      </trkpt>
      <trkpt lat="47.21485" lon="4.72649">
        <ele>312</ele>
        <time>2014-04-23T15:23:02Z</time>
      </trkpt>
      <trkpt lat="47.21488" lon="4.72655">
        <ele>311</ele>
        <time>2014-04-23T15:23:07Z</time>
      </trkpt>
      <trkpt lat="47.2149" lon="4.72663">
        <ele>311</ele>
        <time>2014-04-23T15:23:12Z</time>
      </trkpt>
      <trkpt lat="47.21494" lon="4.72669">
        <ele>312</ele>
        <time>2014-04-23T15:23:16Z</time>
      </trkpt>
      <trkpt lat="47.21499" lon="4.72674">
        <ele>313</ele>
        <time>2014-04-23T15:23:19Z</time>
      </trkpt>
      <trkpt lat="47.21503" lon="4.72679">
        <ele>310</ele>
        <time>2014-04-23T15:23:22Z</time>
      </trkpt>
      <trkpt lat="47.21505" lon="4.72685">
        <ele>311</ele>
        <time>2014-04-23T15:23:26Z</time>
      </trkpt>
      <trkpt lat="47.21507" lon="4.72693">
        <ele>312</ele>
        <time>2014-04-23T15:23:31Z</time>
      </trkpt>
      <trkpt lat="47.21511" lon="4.72698">
        <ele>312</ele>
        <time>2014-04-23T15:23:35Z</time>
      </trkpt>
      <trkpt lat="47.21517" lon="4.72703">
        <ele>313</ele>
        <time>2014-04-23T15:23:39Z</time>
      </trkpt>
      <trkpt lat="47.21521" lon="4.72707">
        <ele>313</ele>
        <time>2014-04-23T15:23:43Z</time>
      </trkpt>
      <trkpt lat="47.21524" lon="4.72712">
        <ele>313</ele>
        <time>2014-04-23T15:23:47Z</time>
      </trkpt>
      <trkpt lat="47.21529" lon="4.72716">
        <ele>313</ele>
        <time>2014-04-23T15:23:51Z</time>
      </trkpt>
      <trkpt lat="47.21533" lon="4.72717">
        <ele>313</ele>
        <time>2014-04-23T15:23:54Z</time>
      </trkpt>
      <trkpt lat="47.21539" lon="4.72719">
        <ele>313</ele>
        <time>2014-04-23T15:23:57Z</time>
      </trkpt>
      <trkpt lat="47.21543" lon="4.72724">
        <ele>312</ele>
        <time>2014-04-23T15:24:01Z</time>
      </trkpt>
      <trkpt lat="47.21547" lon="4.72729">
        <ele>312</ele>
        <time>2014-04-23T15:24:05Z</time>
      </trkpt>
      <trkpt lat="47.21552" lon="4.72733">
        <ele>312</ele>
        <time>2014-04-23T15:24:08Z</time>
      </trkpt>
      <trkpt lat="47.21556" lon="4.72738">
        <ele>312</ele>
        <time>2014-04-23T15:24:12Z</time>
      </trkpt>
      <trkpt lat="47.21559" lon="4.72743">
        <ele>312</ele>
        <time>2014-04-23T15:24:16Z</time>
      </trkpt>
      <trkpt lat="47.21563" lon="4.72749">
        <ele>311</ele>
        <time>2014-04-23T15:24:20Z</time>
      </trkpt>
      <trkpt lat="47.21567" lon="4.72752">
        <ele>317</ele>
        <time>2014-04-23T15:24:24Z</time>
      </trkpt>
      <trkpt lat="47.21571" lon="4.72755">
        <ele>316</ele>
        <time>2014-04-23T15:24:28Z</time>
      </trkpt>
      <trkpt lat="47.21576" lon="4.72758">
        <ele>315</ele>
        <time>2014-04-23T15:24:31Z</time>
      </trkpt>
      <trkpt lat="47.2158" lon="4.72763">
        <ele>316</ele>
        <time>2014-04-23T15:24:36Z</time>
      </trkpt>
      <trkpt lat="47.21584" lon="4.72768">
        <ele>312</ele>
        <time>2014-04-23T15:24:40Z</time>
      </trkpt>
      <trkpt lat="47.21588" lon="4.72771">
        <ele>312</ele>
        <time>2014-04-23T15:24:44Z</time>
      </trkpt>
      <trkpt lat="47.21593" lon="4.72774">
        <ele>312</ele>
        <time>2014-04-23T15:24:48Z</time>
      </trkpt>
      <trkpt lat="47.21597" lon="4.72777">
        <ele>313</ele>
        <time>2014-04-23T15:24:52Z</time>
      </trkpt>
      <trkpt lat="47.21601" lon="4.72781">
        <ele>313</ele>
        <time>2014-04-23T15:24:56Z</time>
      </trkpt>
      <trkpt lat="47.21607" lon="4.72784">
        <ele>313</ele>
        <time>2014-04-23T15:25:00Z</time>
      </trkpt>
      <trkpt lat="47.21612" lon="4.72787">
        <ele>313</ele>
        <time>2014-04-23T15:25:04Z</time>
      </trkpt>
      <trkpt lat="47.21616" lon="4.72789">
        <ele>313</ele>
        <time>2014-04-23T15:25:08Z</time>
      </trkpt>
      <trkpt lat="47.21622" lon="4.72792">
        <ele>313</ele>
        <time>2014-04-23T15:25:13Z</time>
      </trkpt>
      <trkpt lat="47.21627" lon="4.72795">
        <ele>313</ele>
        <time>2014-04-23T15:25:18Z</time>
      </trkpt>
      <trkpt lat="47.21632" lon="4.72797">
        <ele>313</ele>
        <time>2014-04-23T15:25:22Z</time>
      </trkpt>
      <trkpt lat="47.21637" lon="4.728">
        <ele>313</ele>
        <time>2014-04-23T15:25:26Z</time>
      </trkpt>
      <trkpt lat="47.21643" lon="4.728">
        <ele>313</ele>
        <time>2014-04-23T15:25:32Z</time>
      </trkpt>
      <trkpt lat="47.21647" lon="4.72802">
        <ele>313</ele>
        <time>2014-04-23T15:25:37Z</time>
      </trkpt>
      <trkpt lat="47.21652" lon="4.72804">
        <ele>312</ele>
        <time>2014-04-23T15:25:42Z</time>
      </trkpt>
      <trkpt lat="47.21656" lon="4.72805">
        <ele>312</ele>
        <time>2014-04-23T15:25:48Z</time>
      </trkpt>
      <trkpt lat="47.21662" lon="4.72807">
        <ele>312</ele>
        <time>2014-04-23T15:25:53Z</time>
      </trkpt>
      <trkpt lat="47.21667" lon="4.72809">
        <ele>309</ele>
        <time>2014-04-23T15:25:57Z</time>
      </trkpt>
      <trkpt lat="47.21673" lon="4.72811">
        <ele>309</ele>
        <time>2014-04-23T15:26:01Z</time>
      </trkpt>
      <trkpt lat="47.21678" lon="4.72811">
        <ele>309</ele>
        <time>2014-04-23T15:26:04Z</time>
      </trkpt>
      <trkpt lat="47.21683" lon="4.72811">
        <ele>309</ele>
        <time>2014-04-23T15:26:08Z</time>
      </trkpt>
      <trkpt lat="47.21688" lon="4.72812">
        <ele>309</ele>
        <time>2014-04-23T15:26:12Z</time>
      </trkpt>
      <trkpt lat="47.21692" lon="4.72814">
        <ele>309</ele>
        <time>2014-04-23T15:26:16Z</time>
      </trkpt>
      <trkpt lat="47.21696" lon="4.72816">
        <ele>309</ele>
        <time>2014-04-23T15:26:20Z</time>
      </trkpt>
      <trkpt lat="47.21701" lon="4.72817">
        <ele>309</ele>
        <time>2014-04-23T15:26:24Z</time>
      </trkpt>
      <trkpt lat="47.21706" lon="4.72817">
        <ele>308</ele>
        <time>2014-04-23T15:26:28Z</time>
      </trkpt>
      <trkpt lat="47.21711" lon="4.72817">
        <ele>308</ele>
        <time>2014-04-23T15:26:32Z</time>
      </trkpt>
      <trkpt lat="47.21716" lon="4.72817">
        <ele>308</ele>
        <time>2014-04-23T15:26:36Z</time>
      </trkpt>
      <trkpt lat="47.21721" lon="4.72816">
        <ele>308</ele>
        <time>2014-04-23T15:26:39Z</time>
      </trkpt>
      <trkpt lat="47.21726" lon="4.72816">
        <ele>308</ele>
        <time>2014-04-23T15:26:42Z</time>
      </trkpt>
      <trkpt lat="47.21731" lon="4.72818">
        <ele>308</ele>
        <time>2014-04-23T15:26:46Z</time>
      </trkpt>
      <trkpt lat="47.21736" lon="4.7282">
        <ele>308</ele>
        <time>2014-04-23T15:26:51Z</time>
      </trkpt>
      <trkpt lat="47.21741" lon="4.72822">
        <ele>308</ele>
        <time>2014-04-23T15:26:55Z</time>
      </trkpt>
      <trkpt lat="47.21745" lon="4.72827">
        <ele>308</ele>
        <time>2014-04-23T15:26:59Z</time>
      </trkpt>
      <trkpt lat="47.2175" lon="4.72829">
        <ele>308</ele>
        <time>2014-04-23T15:27:03Z</time>
      </trkpt>
      <trkpt lat="47.21755" lon="4.72828">
        <ele>307</ele>
        <time>2014-04-23T15:27:07Z</time>
      </trkpt>
      <trkpt lat="47.2176" lon="4.72827">
        <ele>307</ele>
        <time>2014-04-23T15:27:11Z</time>
      </trkpt>
      <trkpt lat="47.21765" lon="4.72828">
        <ele>307</ele>
        <time>2014-04-23T15:27:14Z</time>
      </trkpt>
      <trkpt lat="47.2177" lon="4.72828">
        <ele>306</ele>
        <time>2014-04-23T15:27:17Z</time>
      </trkpt>
      <trkpt lat="47.21775" lon="4.72827">
        <ele>306</ele>
        <time>2014-04-23T15:27:21Z</time>
      </trkpt>
      <trkpt lat="47.2178" lon="4.72828">
        <ele>306</ele>
        <time>2014-04-23T15:27:25Z</time>
      </trkpt>
      <trkpt lat="47.21783" lon="4.72832">
        <ele>306</ele>
        <time>2014-04-23T15:27:29Z</time>
      </trkpt>
      <trkpt lat="47.21788" lon="4.72833">
        <ele>306</ele>
        <time>2014-04-23T15:27:33Z</time>
      </trkpt>
      <trkpt lat="47.21793" lon="4.72834">
        <ele>309</ele>
        <time>2014-04-23T15:27:38Z</time>
      </trkpt>
      <trkpt lat="47.21797" lon="4.72835">
        <ele>309</ele>
        <time>2014-04-23T15:27:42Z</time>
      </trkpt>
      <trkpt lat="47.21802" lon="4.72836">
        <ele>309</ele>
        <time>2014-04-23T15:27:46Z</time>
      </trkpt>
      <trkpt lat="47.21807" lon="4.72837">
        <ele>308</ele>
        <time>2014-04-23T15:27:50Z</time>
      </trkpt>
      <trkpt lat="47.21812" lon="4.72836">
        <ele>308</ele>
        <time>2014-04-23T15:27:54Z</time>
      </trkpt>
      <trkpt lat="47.21817" lon="4.72836">
        <ele>307</ele>
        <time>2014-04-23T15:27:57Z</time>
      </trkpt>
      <trkpt lat="47.21823" lon="4.72835">
        <ele>306</ele>
        <time>2014-04-23T15:28:01Z</time>
      </trkpt>
      <trkpt lat="47.21828" lon="4.72837">
        <ele>306</ele>
        <time>2014-04-23T15:28:05Z</time>
      </trkpt>
      <trkpt lat="47.21833" lon="4.72841">
        <ele>306</ele>
        <time>2014-04-23T15:28:08Z</time>
      </trkpt>
      <trkpt lat="47.21838" lon="4.72842">
        <ele>306</ele>
        <time>2014-04-23T15:28:12Z</time>
      </trkpt>
      <trkpt lat="47.21843" lon="4.72841">
        <ele>306</ele>
        <time>2014-04-23T15:28:18Z</time>
      </trkpt>
      <trkpt lat="47.21848" lon="4.72841">
        <ele>306</ele>
        <time>2014-04-23T15:28:22Z</time>
      </trkpt>
      <trkpt lat="47.21854" lon="4.72842">
        <ele>307</ele>
        <time>2014-04-23T15:28:26Z</time>
      </trkpt>
      <trkpt lat="47.21859" lon="4.72842">
        <ele>307</ele>
        <time>2014-04-23T15:28:30Z</time>
      </trkpt>
      <trkpt lat="47.21864" lon="4.72844">
        <ele>307</ele>
        <time>2014-04-23T15:28:34Z</time>
      </trkpt>
      <trkpt lat="47.21869" lon="4.72845">
        <ele>307</ele>
        <time>2014-04-23T15:28:38Z</time>
      </trkpt>
      <trkpt lat="47.21874" lon="4.72846">
        <ele>308</ele>
        <time>2014-04-23T15:28:42Z</time>
      </trkpt>
      <trkpt lat="47.21878" lon="4.72844">
        <ele>308</ele>
        <time>2014-04-23T15:28:47Z</time>
      </trkpt>
      <trkpt lat="47.21882" lon="4.72841">
        <ele>308</ele>
        <time>2014-04-23T15:29:02Z</time>
      </trkpt>
      <trkpt lat="47.21887" lon="4.72845">
        <ele>308</ele>
        <time>2014-04-23T15:29:06Z</time>
      </trkpt>
      <trkpt lat="47.21892" lon="4.72847">
        <ele>308</ele>
        <time>2014-04-23T15:29:10Z</time>
      </trkpt>
      <trkpt lat="47.21897" lon="4.72849">
        <ele>308</ele>
        <time>2014-04-23T15:29:14Z</time>
      </trkpt>
      <trkpt lat="47.21902" lon="4.7285">
        <ele>308</ele>
        <time>2014-04-23T15:29:18Z</time>
      </trkpt>
      <trkpt lat="47.21906" lon="4.72852">
        <ele>308</ele>
        <time>2014-04-23T15:29:21Z</time>
      </trkpt>
      <trkpt lat="47.21912" lon="4.72852">
        <ele>308</ele>
        <time>2014-04-23T15:29:25Z</time>
      </trkpt>
      <trkpt lat="47.21917" lon="4.72855">
        <ele>307</ele>
        <time>2014-04-23T15:29:29Z</time>
      </trkpt>
      <trkpt lat="47.21923" lon="4.72857">
        <ele>307</ele>
        <time>2014-04-23T15:29:33Z</time>
      </trkpt>
      <trkpt lat="47.21928" lon="4.72858">
        <ele>308</ele>
        <time>2014-04-23T15:29:38Z</time>
      </trkpt>
      <trkpt lat="47.21933" lon="4.7286">
        <ele>308</ele>
        <time>2014-04-23T15:29:42Z</time>
      </trkpt>
      <trkpt lat="47.21936" lon="4.72864">
        <ele>308</ele>
        <time>2014-04-23T15:29:47Z</time>
      </trkpt>
      <trkpt lat="47.2194" lon="4.7287">
        <ele>308</ele>
        <time>2014-04-23T15:29:51Z</time>
      </trkpt>
      <trkpt lat="47.21945" lon="4.72874">
        <ele>308</ele>
        <time>2014-04-23T15:29:55Z</time>
      </trkpt>
      <trkpt lat="47.2195" lon="4.72879">
        <ele>308</ele>
        <time>2014-04-23T15:29:59Z</time>
      </trkpt>
      <trkpt lat="47.21954" lon="4.72884">
        <ele>308</ele>
        <time>2014-04-23T15:30:03Z</time>
      </trkpt>
      <trkpt lat="47.21958" lon="4.72889">
        <ele>308</ele>
        <time>2014-04-23T15:30:07Z</time>
      </trkpt>
      <trkpt lat="47.21963" lon="4.72893">
        <ele>308</ele>
        <time>2014-04-23T15:30:10Z</time>
      </trkpt>
      <trkpt lat="47.21968" lon="4.72895">
        <ele>308</ele>
        <time>2014-04-23T15:30:13Z</time>
      </trkpt>
      <trkpt lat="47.21972" lon="4.72898">
        <ele>308</ele>
        <time>2014-04-23T15:30:17Z</time>
      </trkpt>
      <trkpt lat="47.21976" lon="4.72901">
        <ele>307</ele>
        <time>2014-04-23T15:30:21Z</time>
      </trkpt>
      <trkpt lat="47.21981" lon="4.72904">
        <ele>307</ele>
        <time>2014-04-23T15:30:26Z</time>
      </trkpt>
      <trkpt lat="47.21983" lon="4.72911">
        <ele>307</ele>
        <time>2014-04-23T15:30:35Z</time>
      </trkpt>
      <trkpt lat="47.21988" lon="4.72913">
        <ele>307</ele>
        <time>2014-04-23T15:30:40Z</time>
      </trkpt>
      <trkpt lat="47.21992" lon="4.72917">
        <ele>308</ele>
        <time>2014-04-23T15:30:44Z</time>
      </trkpt>
      <trkpt lat="47.21996" lon="4.72921">
        <ele>308</ele>
        <time>2014-04-23T15:30:48Z</time>
      </trkpt>
      <trkpt lat="47.22" lon="4.72926">
        <ele>307</ele>
        <time>2014-04-23T15:30:52Z</time>
      </trkpt>
      <trkpt lat="47.22005" lon="4.7293">
        <ele>307</ele>
        <time>2014-04-23T15:30:56Z</time>
      </trkpt>
      <trkpt lat="47.22009" lon="4.72933">
        <ele>307</ele>
        <time>2014-04-23T15:31:00Z</time>
      </trkpt>
      <trkpt lat="47.22013" lon="4.72937">
        <ele>307</ele>
        <time>2014-04-23T15:31:04Z</time>
      </trkpt>
      <trkpt lat="47.22017" lon="4.7294">
        <ele>308</ele>
        <time>2014-04-23T15:31:08Z</time>
      </trkpt>
      <trkpt lat="47.22021" lon="4.72944">
        <ele>308</ele>
        <time>2014-04-23T15:31:12Z</time>
      </trkpt>
      <trkpt lat="47.22025" lon="4.72948">
        <ele>308</ele>
        <time>2014-04-23T15:31:16Z</time>
      </trkpt>
      <trkpt lat="47.22029" lon="4.72952">
        <ele>308</ele>
        <time>2014-04-23T15:31:20Z</time>
      </trkpt>
      <trkpt lat="47.22034" lon="4.72956">
        <ele>308</ele>
        <time>2014-04-23T15:31:24Z</time>
      </trkpt>
      <trkpt lat="47.22038" lon="4.7296">
        <ele>308</ele>
        <time>2014-04-23T15:31:28Z</time>
      </trkpt>
      <trkpt lat="47.22043" lon="4.72963">
        <ele>308</ele>
        <time>2014-04-23T15:31:32Z</time>
      </trkpt>
      <trkpt lat="47.22047" lon="4.72967">
        <ele>308</ele>
        <time>2014-04-23T15:31:36Z</time>
      </trkpt>
      <trkpt lat="47.22052" lon="4.72972">
        <ele>308</ele>
        <time>2014-04-23T15:31:40Z</time>
      </trkpt>
      <trkpt lat="47.22057" lon="4.72976">
        <ele>308</ele>
        <time>2014-04-23T15:31:44Z</time>
      </trkpt>
      <trkpt lat="47.22061" lon="4.72979">
        <ele>308</ele>
        <time>2014-04-23T15:31:48Z</time>
      </trkpt>
      <trkpt lat="47.22065" lon="4.72984">
        <ele>308</ele>
        <time>2014-04-23T15:31:52Z</time>
      </trkpt>
      <trkpt lat="47.22069" lon="4.72988">
        <ele>308</ele>
        <time>2014-04-23T15:31:56Z</time>
      </trkpt>
      <trkpt lat="47.22073" lon="4.72992">
        <ele>308</ele>
        <time>2014-04-23T15:32:00Z</time>
      </trkpt>
      <trkpt lat="47.22077" lon="4.72995">
        <ele>307</ele>
        <time>2014-04-23T15:32:02Z</time>
      </trkpt>
      <trkpt lat="47.2208" lon="4.72992">
        <ele>307</ele>
        <time>2014-04-23T15:32:11Z</time>
      </trkpt>
      <trkpt lat="47.22082" lon="4.72988">
        <ele>307</ele>
        <time>2014-04-23T15:32:23Z</time>
      </trkpt>
      <trkpt lat="47.22085" lon="4.72996">
        <ele>307</ele>
        <time>2014-04-23T15:32:26Z</time>
      </trkpt>
      <trkpt lat="47.22087" lon="4.73002">
        <ele>307</ele>
        <time>2014-04-23T15:32:29Z</time>
      </trkpt>
      <trkpt lat="47.22091" lon="4.73007">
        <ele>308</ele>
        <time>2014-04-23T15:32:33Z</time>
      </trkpt>
      <trkpt lat="47.22096" lon="4.73011">
        <ele>308</ele>
        <time>2014-04-23T15:32:37Z</time>
      </trkpt>
      <trkpt lat="47.22101" lon="4.73014">
        <ele>308</ele>
        <time>2014-04-23T15:32:41Z</time>
      </trkpt>
      <trkpt lat="47.22105" lon="4.73018">
        <ele>308</ele>
        <time>2014-04-23T15:32:45Z</time>
      </trkpt>
      <trkpt lat="47.22109" lon="4.73021">
        <ele>308</ele>
        <time>2014-04-23T15:32:49Z</time>
      </trkpt>
      <trkpt lat="47.22114" lon="4.73025">
        <ele>309</ele>
        <time>2014-04-23T15:32:53Z</time>
      </trkpt>
      <trkpt lat="47.22118" lon="4.73028">
        <ele>309</ele>
        <time>2014-04-23T15:32:57Z</time>
      </trkpt>
      <trkpt lat="47.22123" lon="4.73032">
        <ele>309</ele>
        <time>2014-04-23T15:33:01Z</time>
      </trkpt>
      <trkpt lat="47.22128" lon="4.73035">
        <ele>309</ele>
        <time>2014-04-23T15:33:05Z</time>
      </trkpt>
      <trkpt lat="47.22132" lon="4.73038">
        <ele>309</ele>
        <time>2014-04-23T15:33:09Z</time>
      </trkpt>
      <trkpt lat="47.22136" lon="4.73042">
        <ele>309</ele>
        <time>2014-04-23T15:33:13Z</time>
      </trkpt>
      <trkpt lat="47.2214" lon="4.73045">
        <ele>309</ele>
        <time>2014-04-23T15:33:17Z</time>
      </trkpt>
      <trkpt lat="47.22145" lon="4.73048">
        <ele>309</ele>
        <time>2014-04-23T15:33:21Z</time>
      </trkpt>
      <trkpt lat="47.22149" lon="4.73051">
        <ele>309</ele>
        <time>2014-04-23T15:33:25Z</time>
      </trkpt>
      <trkpt lat="47.22154" lon="4.73055">
        <ele>309</ele>
        <time>2014-04-23T15:33:30Z</time>
      </trkpt>
      <trkpt lat="47.22159" lon="4.73059">
        <ele>309</ele>
        <time>2014-04-23T15:33:34Z</time>
      </trkpt>
      <trkpt lat="47.22164" lon="4.73063">
        <ele>309</ele>
        <time>2014-04-23T15:33:38Z</time>
      </trkpt>
      <trkpt lat="47.22168" lon="4.73066">
        <ele>308</ele>
        <time>2014-04-23T15:33:43Z</time>
      </trkpt>
      <trkpt lat="47.22173" lon="4.73069">
        <ele>308</ele>
        <time>2014-04-23T15:33:47Z</time>
      </trkpt>
      <trkpt lat="47.22178" lon="4.73072">
        <ele>308</ele>
        <time>2014-04-23T15:33:51Z</time>
      </trkpt>
      <trkpt lat="47.22183" lon="4.73075">
        <ele>308</ele>
        <time>2014-04-23T15:33:55Z</time>
      </trkpt>
      <trkpt lat="47.22187" lon="4.73079">
        <ele>308</ele>
        <time>2014-04-23T15:33:59Z</time>
      </trkpt>
      <trkpt lat="47.22191" lon="4.73081">
        <ele>307</ele>
        <time>2014-04-23T15:34:03Z</time>
      </trkpt>
      <trkpt lat="47.22196" lon="4.73086">
        <ele>310</ele>
        <time>2014-04-23T15:34:07Z</time>
      </trkpt>
      <trkpt lat="47.22201" lon="4.73091">
        <ele>310</ele>
        <time>2014-04-23T15:34:11Z</time>
      </trkpt>
      <trkpt lat="47.22205" lon="4.73092">
        <ele>310</ele>
        <time>2014-04-23T15:34:38Z</time>
      </trkpt>
      <trkpt lat="47.22209" lon="4.73099">
        <ele>310</ele>
        <time>2014-04-23T15:34:53Z</time>
      </trkpt>
      <trkpt lat="47.22214" lon="4.73101">
        <ele>310</ele>
        <time>2014-04-23T15:34:57Z</time>
      </trkpt>
      <trkpt lat="47.22218" lon="4.73104">
        <ele>310</ele>
        <time>2014-04-23T15:35:02Z</time>
      </trkpt>
      <trkpt lat="47.22222" lon="4.73108">
        <ele>310</ele>
        <time>2014-04-23T15:35:06Z</time>
      </trkpt>
      <trkpt lat="47.22226" lon="4.73112">
        <ele>310</ele>
        <time>2014-04-23T15:35:09Z</time>
      </trkpt>
      <trkpt lat="47.22231" lon="4.73116">
        <ele>310</ele>
        <time>2014-04-23T15:35:13Z</time>
      </trkpt>
      <trkpt lat="47.22235" lon="4.7312">
        <ele>310</ele>
        <time>2014-04-23T15:35:17Z</time>
      </trkpt>
      <trkpt lat="47.22241" lon="4.73122">
        <ele>310</ele>
        <time>2014-04-23T15:35:21Z</time>
      </trkpt>
      <trkpt lat="47.22246" lon="4.73121">
        <ele>310</ele>
        <time>2014-04-23T15:35:24Z</time>
      </trkpt>
      <trkpt lat="47.22251" lon="4.73124">
        <ele>307</ele>
        <time>2014-04-23T15:35:28Z</time>
      </trkpt>
      <trkpt lat="47.22254" lon="4.73129">
        <ele>307</ele>
        <time>2014-04-23T15:35:32Z</time>
      </trkpt>
      <trkpt lat="47.22258" lon="4.73132">
        <ele>307</ele>
        <time>2014-04-23T15:35:36Z</time>
      </trkpt>
      <trkpt lat="47.22262" lon="4.73136">
        <ele>307</ele>
        <time>2014-04-23T15:35:40Z</time>
      </trkpt>
      <trkpt lat="47.22266" lon="4.7314">
        <ele>307</ele>
        <time>2014-04-23T15:35:44Z</time>
      </trkpt>
      <trkpt lat="47.22271" lon="4.73142">
        <ele>307</ele>
        <time>2014-04-23T15:35:48Z</time>
      </trkpt>
      <trkpt lat="47.22275" lon="4.73146">
        <ele>307</ele>
        <time>2014-04-23T15:35:52Z</time>
      </trkpt>
      <trkpt lat="47.22279" lon="4.7315">
        <ele>307</ele>
        <time>2014-04-23T15:35:56Z</time>
      </trkpt>
      <trkpt lat="47.22283" lon="4.73154">
        <ele>307</ele>
        <time>2014-04-23T15:36:00Z</time>
      </trkpt>
      <trkpt lat="47.22288" lon="4.73157">
        <ele>307</ele>
        <time>2014-04-23T15:36:05Z</time>
      </trkpt>
      <trkpt lat="47.22292" lon="4.7316">
        <ele>307</ele>
        <time>2014-04-23T15:36:09Z</time>
      </trkpt>
      <trkpt lat="47.22296" lon="4.73164">
        <ele>307</ele>
        <time>2014-04-23T15:36:13Z</time>
      </trkpt>
      <trkpt lat="47.223" lon="4.73167">
        <ele>306</ele>
        <time>2014-04-23T15:36:17Z</time>
      </trkpt>
      <trkpt lat="47.22305" lon="4.73173">
        <ele>310</ele>
        <time>2014-04-23T15:36:22Z</time>
      </trkpt>
      <trkpt lat="47.22308" lon="4.73179">
        <ele>310</ele>
        <time>2014-04-23T15:36:25Z</time>
      </trkpt>
      <trkpt lat="47.22313" lon="4.73185">
        <ele>310</ele>
        <time>2014-04-23T15:36:28Z</time>
      </trkpt>
      <trkpt lat="47.22319" lon="4.73186">
        <ele>310</ele>
        <time>2014-04-23T15:36:31Z</time>
      </trkpt>
      <trkpt lat="47.22323" lon="4.73184">
        <ele>309</ele>
        <time>2014-04-23T15:36:37Z</time>
      </trkpt>
      <trkpt lat="47.22328" lon="4.73186">
        <ele>309</ele>
        <time>2014-04-23T15:36:41Z</time>
      </trkpt>
      <trkpt lat="47.22333" lon="4.7319">
        <ele>310</ele>
        <time>2014-04-23T15:36:46Z</time>
      </trkpt>
      <trkpt lat="47.22338" lon="4.73194">
        <ele>307</ele>
        <time>2014-04-23T15:36:50Z</time>
      </trkpt>
      <trkpt lat="47.22343" lon="4.73198">
        <ele>307</ele>
        <time>2014-04-23T15:36:54Z</time>
      </trkpt>
      <trkpt lat="47.22347" lon="4.73201">
        <ele>307</ele>
        <time>2014-04-23T15:36:58Z</time>
      </trkpt>
      <trkpt lat="47.22352" lon="4.73205">
        <ele>308</ele>
        <time>2014-04-23T15:37:02Z</time>
      </trkpt>
      <trkpt lat="47.22357" lon="4.73208">
        <ele>308</ele>
        <time>2014-04-23T15:37:06Z</time>
      </trkpt>
      <trkpt lat="47.22362" lon="4.73211">
        <ele>308</ele>
        <time>2014-04-23T15:37:10Z</time>
      </trkpt>
      <trkpt lat="47.22366" lon="4.73214">
        <ele>308</ele>
        <time>2014-04-23T15:37:14Z</time>
      </trkpt>
      <trkpt lat="47.22371" lon="4.73218">
        <ele>308</ele>
        <time>2014-04-23T15:37:18Z</time>
      </trkpt>
      <trkpt lat="47.22375" lon="4.73221">
        <ele>308</ele>
        <time>2014-04-23T15:37:22Z</time>
      </trkpt>
      <trkpt lat="47.22379" lon="4.73226">
        <ele>308</ele>
        <time>2014-04-23T15:37:26Z</time>
      </trkpt>
      <trkpt lat="47.22383" lon="4.73229">
        <ele>308</ele>
        <time>2014-04-23T15:37:29Z</time>
      </trkpt>
      <trkpt lat="47.22387" lon="4.73233">
        <ele>307</ele>
        <time>2014-04-23T15:37:33Z</time>
      </trkpt>
      <trkpt lat="47.22391" lon="4.73239">
        <ele>307</ele>
        <time>2014-04-23T15:37:37Z</time>
      </trkpt>
      <trkpt lat="47.22396" lon="4.73243">
        <ele>307</ele>
        <time>2014-04-23T15:37:41Z</time>
      </trkpt>
      <trkpt lat="47.224" lon="4.73248">
        <ele>307</ele>
        <time>2014-04-23T15:37:45Z</time>
      </trkpt>
      <trkpt lat="47.22405" lon="4.73251">
        <ele>310</ele>
        <time>2014-04-23T15:37:49Z</time>
      </trkpt>
      <trkpt lat="47.2241" lon="4.73253">
        <ele>309</ele>
        <time>2014-04-23T15:37:54Z</time>
      </trkpt>
      <trkpt lat="47.22415" lon="4.73256">
        <ele>308</ele>
        <time>2014-04-23T15:37:58Z</time>
      </trkpt>
      <trkpt lat="47.2242" lon="4.73259">
        <ele>308</ele>
        <time>2014-04-23T15:38:03Z</time>
      </trkpt>
      <trkpt lat="47.22423" lon="4.7326">
        <ele>308</ele>
        <time>2014-04-23T15:38:10Z</time>
      </trkpt>
      <trkpt lat="47.22427" lon="4.73265">
        <ele>309</ele>
        <time>2014-04-23T15:38:24Z</time>
      </trkpt>
      <trkpt lat="47.22431" lon="4.73269">
        <ele>309</ele>
        <time>2014-04-23T15:38:28Z</time>
      </trkpt>
      <trkpt lat="47.22435" lon="4.73272">
        <ele>310</ele>
        <time>2014-04-23T15:38:32Z</time>
      </trkpt>
      <trkpt lat="47.2244" lon="4.7327">
        <ele>310</ele>
        <time>2014-04-23T15:38:36Z</time>
      </trkpt>
      <trkpt lat="47.22445" lon="4.73269">
        <ele>310</ele>
        <time>2014-04-23T15:38:43Z</time>
      </trkpt>
      <trkpt lat="47.2245" lon="4.7327">
        <ele>310</ele>
        <time>2014-04-23T15:38:49Z</time>
      </trkpt>
      <trkpt lat="47.22454" lon="4.73272">
        <ele>310</ele>
        <time>2014-04-23T15:38:53Z</time>
      </trkpt>
      <trkpt lat="47.22459" lon="4.73273">
        <ele>310</ele>
        <time>2014-04-23T15:38:57Z</time>
      </trkpt>
      <trkpt lat="47.22463" lon="4.73275">
        <ele>310</ele>
        <time>2014-04-23T15:39:01Z</time>
      </trkpt>
      <trkpt lat="47.22468" lon="4.73279">
        <ele>310</ele>
        <time>2014-04-23T15:39:05Z</time>
      </trkpt>
      <trkpt lat="47.22472" lon="4.73282">
        <ele>310</ele>
        <time>2014-04-23T15:39:09Z</time>
      </trkpt>
      <trkpt lat="47.22477" lon="4.73286">
        <ele>310</ele>
        <time>2014-04-23T15:39:13Z</time>
      </trkpt>
      <trkpt lat="47.22481" lon="4.7329">
        <ele>310</ele>
        <time>2014-04-23T15:39:17Z</time>
      </trkpt>
      <trkpt lat="47.22485" lon="4.73293">
        <ele>310</ele>
        <time>2014-04-23T15:39:21Z</time>
      </trkpt>
      <trkpt lat="47.2249" lon="4.73296">
        <ele>310</ele>
        <time>2014-04-23T15:39:26Z</time>
      </trkpt>
      <trkpt lat="47.22496" lon="4.733">
        <ele>310</ele>
        <time>2014-04-23T15:39:31Z</time>
      </trkpt>
      <trkpt lat="47.225" lon="4.73303">
        <ele>307</ele>
        <time>2014-04-23T15:39:35Z</time>
      </trkpt>
      <trkpt lat="47.22505" lon="4.73304">
        <ele>307</ele>
        <time>2014-04-23T15:39:39Z</time>
      </trkpt>
      <trkpt lat="47.22511" lon="4.73307">
        <ele>307</ele>
        <time>2014-04-23T15:39:43Z</time>
      </trkpt>
      <trkpt lat="47.22516" lon="4.73311">
        <ele>308</ele>
        <time>2014-04-23T15:39:47Z</time>
      </trkpt>
      <trkpt lat="47.2252" lon="4.73315">
        <ele>308</ele>
        <time>2014-04-23T15:39:51Z</time>
      </trkpt>
      <trkpt lat="47.22525" lon="4.73318">
        <ele>307</ele>
        <time>2014-04-23T15:39:56Z</time>
      </trkpt>
      <trkpt lat="47.22529" lon="4.73319">
        <ele>307</ele>
        <time>2014-04-23T15:39:59Z</time>
      </trkpt>
      <trkpt lat="47.22533" lon="4.73323">
        <ele>307</ele>
        <time>2014-04-23T15:40:02Z</time>
      </trkpt>
      <trkpt lat="47.22537" lon="4.7333">
        <ele>307</ele>
        <time>2014-04-23T15:40:06Z</time>
      </trkpt>
      <trkpt lat="47.22541" lon="4.73334">
        <ele>310</ele>
        <time>2014-04-23T15:40:10Z</time>
      </trkpt>
      <trkpt lat="47.22546" lon="4.73333">
        <ele>307</ele>
        <time>2014-04-23T15:40:15Z</time>
      </trkpt>
      <trkpt lat="47.22552" lon="4.73335">
        <ele>309</ele>
        <time>2014-04-23T15:40:20Z</time>
      </trkpt>
      <trkpt lat="47.22557" lon="4.73337">
        <ele>309</ele>
        <time>2014-04-23T15:40:24Z</time>
      </trkpt>
      <trkpt lat="47.22561" lon="4.73342">
        <ele>309</ele>
        <time>2014-04-23T15:40:28Z</time>
      </trkpt>
      <trkpt lat="47.22566" lon="4.73346">
        <ele>308</ele>
        <time>2014-04-23T15:40:32Z</time>
      </trkpt>
      <trkpt lat="47.22571" lon="4.73347">
        <ele>308</ele>
        <time>2014-04-23T15:40:36Z</time>
      </trkpt>
      <trkpt lat="47.22576" lon="4.73349">
        <ele>308</ele>
        <time>2014-04-23T15:40:41Z</time>
      </trkpt>
      <trkpt lat="47.22581" lon="4.73351">
        <ele>308</ele>
        <time>2014-04-23T15:40:45Z</time>
      </trkpt>
      <trkpt lat="47.22586" lon="4.73356">
        <ele>305</ele>
        <time>2014-04-23T15:40:49Z</time>
      </trkpt>
      <trkpt lat="47.2259" lon="4.73359">
        <ele>305</ele>
        <time>2014-04-23T15:40:53Z</time>
      </trkpt>
      <trkpt lat="47.22595" lon="4.73359">
        <ele>305</ele>
        <time>2014-04-23T15:40:58Z</time>
      </trkpt>
      <trkpt lat="47.22599" lon="4.73361">
        <ele>305</ele>
        <time>2014-04-23T15:41:01Z</time>
      </trkpt>
      <trkpt lat="47.22604" lon="4.73365">
        <ele>305</ele>
        <time>2014-04-23T15:41:05Z</time>
      </trkpt>
      <trkpt lat="47.22605" lon="4.73372">
        <ele>305</ele>
        <time>2014-04-23T15:41:13Z</time>
      </trkpt>
      <trkpt lat="47.22604" lon="4.73379">
        <ele>306</ele>
        <time>2014-04-23T15:41:23Z</time>
      </trkpt>
      <trkpt lat="47.22598" lon="4.73378">
        <ele>306</ele>
        <time>2014-04-23T15:41:32Z</time>
      </trkpt>
      <trkpt lat="47.22593" lon="4.73375">
        <ele>306</ele>
        <time>2014-04-23T15:41:35Z</time>
      </trkpt>
      <trkpt lat="47.22588" lon="4.73374">
        <ele>306</ele>
        <time>2014-04-23T15:41:38Z</time>
      </trkpt>
      <trkpt lat="47.22584" lon="4.73372">
        <ele>306</ele>
        <time>2014-04-23T15:41:41Z</time>
      </trkpt>
      <trkpt lat="47.22579" lon="4.7337">
        <ele>310</ele>
        <time>2014-04-23T15:41:45Z</time>
      </trkpt>
      <trkpt lat="47.22573" lon="4.73368">
        <ele>310</ele>
        <time>2014-04-23T15:41:50Z</time>
      </trkpt>
      <trkpt lat="47.22568" lon="4.73368">
        <ele>310</ele>
        <time>2014-04-23T15:41:55Z</time>
      </trkpt>
      <trkpt lat="47.22562" lon="4.7337">
        <ele>310</ele>
        <time>2014-04-23T15:42:00Z</time>
      </trkpt>
      <trkpt lat="47.22558" lon="4.7337">
        <ele>310</ele>
        <time>2014-04-23T15:42:03Z</time>
      </trkpt>
      <trkpt lat="47.22554" lon="4.73376">
        <ele>311</ele>
        <time>2014-04-23T15:42:07Z</time>
      </trkpt>
      <trkpt lat="47.22554" lon="4.73383">
        <ele>311</ele>
        <time>2014-04-23T15:42:11Z</time>
      </trkpt>
      <trkpt lat="47.22559" lon="4.73385">
        <ele>311</ele>
        <time>2014-04-23T15:42:15Z</time>
      </trkpt>
      <trkpt lat="47.22565" lon="4.73387">
        <ele>310</ele>
        <time>2014-04-23T15:42:20Z</time>
      </trkpt>
      <trkpt lat="47.2257" lon="4.7339">
        <ele>310</ele>
        <time>2014-04-23T15:42:24Z</time>
      </trkpt>
      <trkpt lat="47.22574" lon="4.73394">
        <ele>310</ele>
        <time>2014-04-23T15:42:28Z</time>
      </trkpt>
      <trkpt lat="47.22579" lon="4.73397">
        <ele>310</ele>
        <time>2014-04-23T15:42:32Z</time>
      </trkpt>
      <trkpt lat="47.22583" lon="4.73401">
        <ele>310</ele>
        <time>2014-04-23T15:42:36Z</time>
      </trkpt>
      <trkpt lat="47.22587" lon="4.73404">
        <ele>307</ele>
        <time>2014-04-23T15:42:41Z</time>
      </trkpt>
      <trkpt lat="47.22591" lon="4.73407">
        <ele>307</ele>
        <time>2014-04-23T15:42:46Z</time>
      </trkpt>
      <trkpt lat="47.22596" lon="4.73411">
        <ele>307</ele>
        <time>2014-04-23T15:42:51Z</time>
      </trkpt>
      <trkpt lat="47.22601" lon="4.73414">
        <ele>307</ele>
        <time>2014-04-23T15:42:56Z</time>
      </trkpt>
      <trkpt lat="47.22606" lon="4.73418">
        <ele>310</ele>
        <time>2014-04-23T15:42:59Z</time>
      </trkpt>
      <trkpt lat="47.22611" lon="4.7342">
        <ele>309</ele>
        <time>2014-04-23T15:43:02Z</time>
      </trkpt>
      <trkpt lat="47.22616" lon="4.73421">
        <ele>309</ele>
        <time>2014-04-23T15:43:06Z</time>
      </trkpt>
      <trkpt lat="47.22621" lon="4.73422">
        <ele>309</ele>
        <time>2014-04-23T15:43:10Z</time>
      </trkpt>
      <trkpt lat="47.22626" lon="4.73424">
        <ele>309</ele>
        <time>2014-04-23T15:43:14Z</time>
      </trkpt>
      <trkpt lat="47.2263" lon="4.73425">
        <ele>309</ele>
        <time>2014-04-23T15:43:18Z</time>
      </trkpt>
      <trkpt lat="47.22634" lon="4.73429">
        <ele>308</ele>
        <time>2014-04-23T15:43:22Z</time>
      </trkpt>
      <trkpt lat="47.22639" lon="4.73432">
        <ele>308</ele>
        <time>2014-04-23T15:43:26Z</time>
      </trkpt>
      <trkpt lat="47.22644" lon="4.73434">
        <ele>308</ele>
        <time>2014-04-23T15:43:31Z</time>
      </trkpt>
      <trkpt lat="47.22649" lon="4.73436">
        <ele>308</ele>
        <time>2014-04-23T15:43:36Z</time>
      </trkpt>
      <trkpt lat="47.22653" lon="4.73438">
        <ele>308</ele>
        <time>2014-04-23T15:43:40Z</time>
      </trkpt>
      <trkpt lat="47.22659" lon="4.73439">
        <ele>307</ele>
        <time>2014-04-23T15:43:45Z</time>
      </trkpt>
      <trkpt lat="47.22664" lon="4.7344">
        <ele>307</ele>
        <time>2014-04-23T15:43:49Z</time>
      </trkpt>
      <trkpt lat="47.22668" lon="4.73441">
        <ele>304</ele>
        <time>2014-04-23T15:43:53Z</time>
      </trkpt>
      <trkpt lat="47.22673" lon="4.73445">
        <ele>304</ele>
        <time>2014-04-23T15:43:57Z</time>
      </trkpt>
      <trkpt lat="47.22677" lon="4.73448">
        <ele>305</ele>
        <time>2014-04-23T15:44:01Z</time>
      </trkpt>
      <trkpt lat="47.2268" lon="4.73446">
        <ele>305</ele>
        <time>2014-04-23T15:44:07Z</time>
      </trkpt>
      <trkpt lat="47.22683" lon="4.73447">
        <ele>305</ele>
        <time>2014-04-23T15:44:24Z</time>
      </trkpt>
      <trkpt lat="47.22686" lon="4.73452">
        <ele>305</ele>
        <time>2014-04-23T15:44:30Z</time>
      </trkpt>
      <trkpt lat="47.2269" lon="4.73457">
        <ele>305</ele>
        <time>2014-04-23T15:44:37Z</time>
      </trkpt>
      <trkpt lat="47.22695" lon="4.7346">
        <ele>305</ele>
        <time>2014-04-23T15:44:42Z</time>
      </trkpt>
      <trkpt lat="47.22701" lon="4.73464">
        <ele>305</ele>
        <time>2014-04-23T15:44:46Z</time>
      </trkpt>
      <trkpt lat="47.22707" lon="4.73466">
        <ele>305</ele>
        <time>2014-04-23T15:44:49Z</time>
      </trkpt>
      <trkpt lat="47.22712" lon="4.73469">
        <ele>305</ele>
        <time>2014-04-23T15:44:53Z</time>
      </trkpt>
      <trkpt lat="47.22716" lon="4.73473">
        <ele>305</ele>
        <time>2014-04-23T15:44:58Z</time>
      </trkpt>
      <trkpt lat="47.22719" lon="4.73478">
        <ele>305</ele>
        <time>2014-04-23T15:45:02Z</time>
      </trkpt>
      <trkpt lat="47.22724" lon="4.73482">
        <ele>305</ele>
        <time>2014-04-23T15:45:06Z</time>
      </trkpt>
      <trkpt lat="47.2273" lon="4.73483">
        <ele>305</ele>
        <time>2014-04-23T15:45:10Z</time>
      </trkpt>
      <trkpt lat="47.22734" lon="4.73486">
        <ele>305</ele>
        <time>2014-04-23T15:45:14Z</time>
      </trkpt>
      <trkpt lat="47.22739" lon="4.7349">
        <ele>305</ele>
        <time>2014-04-23T15:45:18Z</time>
      </trkpt>
      <trkpt lat="47.22744" lon="4.73494">
        <ele>305</ele>
        <time>2014-04-23T15:45:22Z</time>
      </trkpt>
      <trkpt lat="47.22749" lon="4.73497">
        <ele>305</ele>
        <time>2014-04-23T15:45:26Z</time>
      </trkpt>
      <trkpt lat="47.22754" lon="4.73496">
        <ele>305</ele>
        <time>2014-04-23T15:45:31Z</time>
      </trkpt>
      <trkpt lat="47.22759" lon="4.73498">
        <ele>304</ele>
        <time>2014-04-23T15:45:37Z</time>
      </trkpt>
      <trkpt lat="47.22764" lon="4.735">
        <ele>305</ele>
        <time>2014-04-23T15:45:41Z</time>
      </trkpt>
      <trkpt lat="47.22767" lon="4.73505">
        <ele>305</ele>
        <time>2014-04-23T15:45:44Z</time>
      </trkpt>
      <trkpt lat="47.22773" lon="4.73508">
        <ele>305</ele>
        <time>2014-04-23T15:45:48Z</time>
      </trkpt>
      <trkpt lat="47.22778" lon="4.7351">
        <ele>305</ele>
        <time>2014-04-23T15:45:51Z</time>
      </trkpt>
      <trkpt lat="47.22783" lon="4.73513">
        <ele>305</ele>
        <time>2014-04-23T15:45:54Z</time>
      </trkpt>
      <trkpt lat="47.22788" lon="4.73518">
        <ele>305</ele>
        <time>2014-04-23T15:45:58Z</time>
      </trkpt>
      <trkpt lat="47.22792" lon="4.73523">
        <ele>305</ele>
        <time>2014-04-23T15:46:02Z</time>
      </trkpt>
      <trkpt lat="47.22795" lon="4.73528">
        <ele>306</ele>
        <time>2014-04-23T15:46:07Z</time>
      </trkpt>
      <trkpt lat="47.22798" lon="4.73534">
        <ele>306</ele>
        <time>2014-04-23T15:46:10Z</time>
      </trkpt>
      <trkpt lat="47.22802" lon="4.7354">
        <ele>306</ele>
        <time>2014-04-23T15:46:14Z</time>
      </trkpt>
      <trkpt lat="47.22806" lon="4.73544">
        <ele>306</ele>
        <time>2014-04-23T15:46:18Z</time>
      </trkpt>
      <trkpt lat="47.22811" lon="4.7355">
        <ele>306</ele>
        <time>2014-04-23T15:46:22Z</time>
      </trkpt>
      <trkpt lat="47.22814" lon="4.73554">
        <ele>306</ele>
        <time>2014-04-23T15:46:25Z</time>
      </trkpt>
      <trkpt lat="47.22818" lon="4.73559">
        <ele>306</ele>
        <time>2014-04-23T15:46:29Z</time>
      </trkpt>
      <trkpt lat="47.22822" lon="4.73561">
        <ele>306</ele>
        <time>2014-04-23T15:46:38Z</time>
      </trkpt>
      <trkpt lat="47.22825" lon="4.73556">
        <ele>306</ele>
        <time>2014-04-23T15:46:50Z</time>
      </trkpt>
      <trkpt lat="47.2283" lon="4.7356">
        <ele>306</ele>
        <time>2014-04-23T15:46:56Z</time>
      </trkpt>
      <trkpt lat="47.22833" lon="4.73565">
        <ele>306</ele>
        <time>2014-04-23T15:46:59Z</time>
      </trkpt>
      <trkpt lat="47.22837" lon="4.73569">
        <ele>305</ele>
        <time>2014-04-23T15:47:03Z</time>
      </trkpt>
      <trkpt lat="47.22841" lon="4.73573">
        <ele>305</ele>
        <time>2014-04-23T15:47:08Z</time>
      </trkpt>
      <trkpt lat="47.22846" lon="4.73576">
        <ele>305</ele>
        <time>2014-04-23T15:47:14Z</time>
      </trkpt>
      <trkpt lat="47.22849" lon="4.7358">
        <ele>305</ele>
        <time>2014-04-23T15:47:17Z</time>
      </trkpt>
      <trkpt lat="47.22854" lon="4.73586">
        <ele>306</ele>
        <time>2014-04-23T15:47:21Z</time>
      </trkpt>
      <trkpt lat="47.22857" lon="4.73592">
        <ele>307</ele>
        <time>2014-04-23T15:47:24Z</time>
      </trkpt>
      <trkpt lat="47.2286" lon="4.73598">
        <ele>307</ele>
        <time>2014-04-23T15:47:27Z</time>
      </trkpt>
      <trkpt lat="47.22864" lon="4.73603">
        <ele>307</ele>
        <time>2014-04-23T15:47:32Z</time>
      </trkpt>
      <trkpt lat="47.22866" lon="4.73609">
        <ele>307</ele>
        <time>2014-04-23T15:47:37Z</time>
      </trkpt>
      <trkpt lat="47.2287" lon="4.73615">
        <ele>307</ele>
        <time>2014-04-23T15:47:41Z</time>
      </trkpt>
      <trkpt lat="47.22872" lon="4.73622">
        <ele>307</ele>
        <time>2014-04-23T15:47:45Z</time>
      </trkpt>
      <trkpt lat="47.22876" lon="4.73628">
        <ele>307</ele>
        <time>2014-04-23T15:47:50Z</time>
      </trkpt>
      <trkpt lat="47.2288" lon="4.73632">
        <ele>307</ele>
        <time>2014-04-23T15:47:54Z</time>
      </trkpt>
      <trkpt lat="47.22883" lon="4.73639">
        <ele>307</ele>
        <time>2014-04-23T15:47:58Z</time>
      </trkpt>
      <trkpt lat="47.22886" lon="4.73647">
        <ele>307</ele>
        <time>2014-04-23T15:48:02Z</time>
      </trkpt>
      <trkpt lat="47.22889" lon="4.73652">
        <ele>307</ele>
        <time>2014-04-23T15:48:05Z</time>
      </trkpt>
      <trkpt lat="47.22894" lon="4.73657">
        <ele>307</ele>
        <time>2014-04-23T15:48:10Z</time>
      </trkpt>
      <trkpt lat="47.22899" lon="4.73661">
        <ele>307</ele>
        <time>2014-04-23T15:48:14Z</time>
      </trkpt>
      <trkpt lat="47.22904" lon="4.73667">
        <ele>307</ele>
        <time>2014-04-23T15:48:18Z</time>
      </trkpt>
      <trkpt lat="47.22909" lon="4.73669">
        <ele>308</ele>
        <time>2014-04-23T15:48:21Z</time>
      </trkpt>
      <trkpt lat="47.22914" lon="4.73674">
        <ele>308</ele>
        <time>2014-04-23T15:48:25Z</time>
      </trkpt>
      <trkpt lat="47.22916" lon="4.73681">
        <ele>309</ele>
        <time>2014-04-23T15:48:30Z</time>
      </trkpt>
      <trkpt lat="47.22919" lon="4.73686">
        <ele>306</ele>
        <time>2014-04-23T15:48:34Z</time>
      </trkpt>
      <trkpt lat="47.22922" lon="4.73692">
        <ele>306</ele>
        <time>2014-04-23T15:48:37Z</time>
      </trkpt>
      <trkpt lat="47.22925" lon="4.73698">
        <ele>306</ele>
        <time>2014-04-23T15:48:40Z</time>
      </trkpt>
      <trkpt lat="47.22929" lon="4.73702">
        <ele>306</ele>
        <time>2014-04-23T15:48:43Z</time>
      </trkpt>
      <trkpt lat="47.22934" lon="4.73707">
        <ele>306</ele>
        <time>2014-04-23T15:48:47Z</time>
      </trkpt>
      <trkpt lat="47.22937" lon="4.73711">
        <ele>306</ele>
        <time>2014-04-23T15:48:51Z</time>
      </trkpt>
      <trkpt lat="47.22941" lon="4.73715">
        <ele>306</ele>
        <time>2014-04-23T15:48:55Z</time>
      </trkpt>
      <trkpt lat="47.22945" lon="4.7372">
        <ele>306</ele>
        <time>2014-04-23T15:48:59Z</time>
      </trkpt>
      <trkpt lat="47.22949" lon="4.73725">
        <ele>306</ele>
        <time>2014-04-23T15:49:03Z</time>
      </trkpt>
      <trkpt lat="47.22952" lon="4.7373">
        <ele>306</ele>
        <time>2014-04-23T15:49:07Z</time>
      </trkpt>
      <trkpt lat="47.22956" lon="4.73735">
        <ele>306</ele>
        <time>2014-04-23T15:49:11Z</time>
      </trkpt>
      <trkpt lat="47.22959" lon="4.7374">
        <ele>306</ele>
        <time>2014-04-23T15:49:16Z</time>
      </trkpt>
      <trkpt lat="47.22964" lon="4.73746">
        <ele>305</ele>
        <time>2014-04-23T15:49:28Z</time>
      </trkpt>
      <trkpt lat="47.22968" lon="4.73751">
        <ele>307</ele>
        <time>2014-04-23T15:49:32Z</time>
      </trkpt>
      <trkpt lat="47.22971" lon="4.73756">
        <ele>307</ele>
        <time>2014-04-23T15:49:36Z</time>
      </trkpt>
      <trkpt lat="47.22975" lon="4.73761">
        <ele>307</ele>
        <time>2014-04-23T15:49:41Z</time>
      </trkpt>
      <trkpt lat="47.22978" lon="4.73767">
        <ele>307</ele>
        <time>2014-04-23T15:49:45Z</time>
      </trkpt>
      <trkpt lat="47.22982" lon="4.73771">
        <ele>307</ele>
        <time>2014-04-23T15:49:49Z</time>
      </trkpt>
      <trkpt lat="47.22987" lon="4.73776">
        <ele>307</ele>
        <time>2014-04-23T15:49:54Z</time>
      </trkpt>
      <trkpt lat="47.22991" lon="4.7378">
        <ele>307</ele>
        <time>2014-04-23T15:49:59Z</time>
      </trkpt>
      <trkpt lat="47.22996" lon="4.73785">
        <ele>307</ele>
        <time>2014-04-23T15:50:04Z</time>
      </trkpt>
      <trkpt lat="47.22999" lon="4.73789">
        <ele>307</ele>
        <time>2014-04-23T15:50:07Z</time>
      </trkpt>
      <trkpt lat="47.23004" lon="4.73794">
        <ele>304</ele>
        <time>2014-04-23T15:50:13Z</time>
      </trkpt>
      <trkpt lat="47.23008" lon="4.73797">
        <ele>304</ele>
        <time>2014-04-23T15:50:17Z</time>
      </trkpt>
      <trkpt lat="47.23012" lon="4.73804">
        <ele>304</ele>
        <time>2014-04-23T15:50:21Z</time>
      </trkpt>
      <trkpt lat="47.23014" lon="4.7381">
        <ele>304</ele>
        <time>2014-04-23T15:50:24Z</time>
      </trkpt>
      <trkpt lat="47.23017" lon="4.73816">
        <ele>304</ele>
        <time>2014-04-23T15:50:29Z</time>
      </trkpt>
      <trkpt lat="47.23021" lon="4.73821">
        <ele>304</ele>
        <time>2014-04-23T15:50:34Z</time>
      </trkpt>
      <trkpt lat="47.23024" lon="4.73828">
        <ele>304</ele>
        <time>2014-04-23T15:50:38Z</time>
      </trkpt>
      <trkpt lat="47.23028" lon="4.73834">
        <ele>305</ele>
        <time>2014-04-23T15:50:42Z</time>
      </trkpt>
      <trkpt lat="47.23031" lon="4.73838">
        <ele>305</ele>
        <time>2014-04-23T15:50:46Z</time>
      </trkpt>
      <trkpt lat="47.23035" lon="4.73842">
        <ele>305</ele>
        <time>2014-04-23T15:50:50Z</time>
      </trkpt>
      <trkpt lat="47.23039" lon="4.73846">
        <ele>305</ele>
        <time>2014-04-23T15:50:54Z</time>
      </trkpt>
      <trkpt lat="47.23043" lon="4.73851">
        <ele>305</ele>
        <time>2014-04-23T15:50:57Z</time>
      </trkpt>
      <trkpt lat="47.23046" lon="4.73856">
        <ele>305</ele>
        <time>2014-04-23T15:51:01Z</time>
      </trkpt>
      <trkpt lat="47.2305" lon="4.73862">
        <ele>305</ele>
        <time>2014-04-23T15:51:05Z</time>
      </trkpt>
      <trkpt lat="47.23053" lon="4.73867">
        <ele>305</ele>
        <time>2014-04-23T15:51:09Z</time>
      </trkpt>
      <trkpt lat="47.23056" lon="4.73873">
        <ele>305</ele>
        <time>2014-04-23T15:51:13Z</time>
      </trkpt>
      <trkpt lat="47.2306" lon="4.73878">
        <ele>305</ele>
        <time>2014-04-23T15:51:17Z</time>
      </trkpt>
      <trkpt lat="47.23064" lon="4.73884">
        <ele>305</ele>
        <time>2014-04-23T15:51:21Z</time>
      </trkpt>
      <trkpt lat="47.23067" lon="4.73889">
        <ele>305</ele>
        <time>2014-04-23T15:51:25Z</time>
      </trkpt>
      <trkpt lat="47.23071" lon="4.73895">
        <ele>305</ele>
        <time>2014-04-23T15:51:29Z</time>
      </trkpt>
      <trkpt lat="47.23075" lon="4.739">
        <ele>305</ele>
        <time>2014-04-23T15:51:32Z</time>
      </trkpt>
      <trkpt lat="47.23078" lon="4.73906">
        <ele>304</ele>
        <time>2014-04-23T15:51:36Z</time>
      </trkpt>
      <trkpt lat="47.23081" lon="4.73912">
        <ele>304</ele>
        <time>2014-04-23T15:51:40Z</time>
      </trkpt>
      <trkpt lat="47.23084" lon="4.73918">
        <ele>304</ele>
        <time>2014-04-23T15:51:44Z</time>
      </trkpt>
      <trkpt lat="47.23088" lon="4.73924">
        <ele>304</ele>
        <time>2014-04-23T15:51:49Z</time>
      </trkpt>
      <trkpt lat="47.23092" lon="4.73928">
        <ele>304</ele>
        <time>2014-04-23T15:51:54Z</time>
      </trkpt>
      <trkpt lat="47.23095" lon="4.73933">
        <ele>305</ele>
        <time>2014-04-23T15:51:58Z</time>
      </trkpt>
      <trkpt lat="47.231" lon="4.73938">
        <ele>305</ele>
        <time>2014-04-23T15:52:02Z</time>
      </trkpt>
      <trkpt lat="47.23102" lon="4.73946">
        <ele>305</ele>
        <time>2014-04-23T15:52:06Z</time>
      </trkpt>
      <trkpt lat="47.23105" lon="4.73951">
        <ele>305</ele>
        <time>2014-04-23T15:52:09Z</time>
      </trkpt>
      <trkpt lat="47.23107" lon="4.73958">
        <ele>305</ele>
        <time>2014-04-23T15:52:13Z</time>
      </trkpt>
      <trkpt lat="47.2311" lon="4.73965">
        <ele>305</ele>
        <time>2014-04-23T15:52:17Z</time>
      </trkpt>
      <trkpt lat="47.23112" lon="4.73972">
        <ele>305</ele>
        <time>2014-04-23T15:52:21Z</time>
      </trkpt>
      <trkpt lat="47.23116" lon="4.73976">
        <ele>305</ele>
        <time>2014-04-23T15:52:25Z</time>
      </trkpt>
      <trkpt lat="47.23117" lon="4.73982">
        <ele>306</ele>
        <time>2014-04-23T15:52:36Z</time>
      </trkpt>
      <trkpt lat="47.23117" lon="4.73989">
        <ele>306</ele>
        <time>2014-04-23T15:52:44Z</time>
      </trkpt>
      <trkpt lat="47.23119" lon="4.73996">
        <ele>306</ele>
        <time>2014-04-23T15:52:49Z</time>
      </trkpt>
      <trkpt lat="47.23122" lon="4.74003">
        <ele>308</ele>
        <time>2014-04-23T15:52:53Z</time>
      </trkpt>
      <trkpt lat="47.23126" lon="4.74008">
        <ele>308</ele>
        <time>2014-04-23T15:52:56Z</time>
      </trkpt>
      <trkpt lat="47.23131" lon="4.74011">
        <ele>308</ele>
        <time>2014-04-23T15:53:00Z</time>
      </trkpt>
      <trkpt lat="47.23136" lon="4.74014">
        <ele>308</ele>
        <time>2014-04-23T15:53:04Z</time>
      </trkpt>
      <trkpt lat="47.23139" lon="4.74021">
        <ele>308</ele>
        <time>2014-04-23T15:53:09Z</time>
      </trkpt>
      <trkpt lat="47.23141" lon="4.74027">
        <ele>308</ele>
        <time>2014-04-23T15:53:12Z</time>
      </trkpt>
      <trkpt lat="47.23144" lon="4.74033">
        <ele>309</ele>
        <time>2014-04-23T15:53:16Z</time>
      </trkpt>
      <trkpt lat="47.23147" lon="4.74039">
        <ele>309</ele>
        <time>2014-04-23T15:53:20Z</time>
      </trkpt>
      <trkpt lat="47.23151" lon="4.74046">
        <ele>309</ele>
        <time>2014-04-23T15:53:25Z</time>
      </trkpt>
      <trkpt lat="47.23153" lon="4.74054">
        <ele>309</ele>
        <time>2014-04-23T15:53:29Z</time>
      </trkpt>
      <trkpt lat="47.23153" lon="4.74061">
        <ele>309</ele>
        <time>2014-04-23T15:53:33Z</time>
      </trkpt>
      <trkpt lat="47.23155" lon="4.74067">
        <ele>309</ele>
        <time>2014-04-23T15:53:38Z</time>
      </trkpt>
      <trkpt lat="47.23156" lon="4.74074">
        <ele>309</ele>
        <time>2014-04-23T15:53:43Z</time>
      </trkpt>
      <trkpt lat="47.23155" lon="4.74081">
        <ele>309</ele>
        <time>2014-04-23T15:53:51Z</time>
      </trkpt>
      <trkpt lat="47.23157" lon="4.74087">
        <ele>310</ele>
        <time>2014-04-23T15:53:55Z</time>
      </trkpt>
      <trkpt lat="47.23159" lon="4.74093">
        <ele>311</ele>
        <time>2014-04-23T15:53:59Z</time>
      </trkpt>
      <trkpt lat="47.2316" lon="4.74101">
        <ele>311</ele>
        <time>2014-04-23T15:54:03Z</time>
      </trkpt>
      <trkpt lat="47.23162" lon="4.74109">
        <ele>311</ele>
        <time>2014-04-23T15:54:07Z</time>
      </trkpt>
      <trkpt lat="47.23163" lon="4.74116">
        <ele>312</ele>
        <time>2014-04-23T15:54:11Z</time>
      </trkpt>
      <trkpt lat="47.23165" lon="4.74123">
        <ele>312</ele>
        <time>2014-04-23T15:54:16Z</time>
      </trkpt>
      <trkpt lat="47.23169" lon="4.74129">
        <ele>309</ele>
        <time>2014-04-23T15:54:20Z</time>
      </trkpt>
      <trkpt lat="47.23169" lon="4.74136">
        <ele>309</ele>
        <time>2014-04-23T15:54:26Z</time>
      </trkpt>
      <trkpt lat="47.2317" lon="4.74144">
        <ele>309</ele>
        <time>2014-04-23T15:54:30Z</time>
      </trkpt>
      <trkpt lat="47.23172" lon="4.74152">
        <ele>309</ele>
        <time>2014-04-23T15:54:34Z</time>
      </trkpt>
      <trkpt lat="47.23173" lon="4.7416">
        <ele>309</ele>
        <time>2014-04-23T15:54:38Z</time>
      </trkpt>
      <trkpt lat="47.23175" lon="4.74166">
        <ele>310</ele>
        <time>2014-04-23T15:54:42Z</time>
      </trkpt>
      <trkpt lat="47.23176" lon="4.74173">
        <ele>310</ele>
        <time>2014-04-23T15:54:46Z</time>
      </trkpt>
      <trkpt lat="47.23178" lon="4.74179">
        <ele>310</ele>
        <time>2014-04-23T15:54:50Z</time>
      </trkpt>
      <trkpt lat="47.23178" lon="4.74186">
        <ele>310</ele>
        <time>2014-04-23T15:54:54Z</time>
      </trkpt>
      <trkpt lat="47.23179" lon="4.74193">
        <ele>309</ele>
        <time>2014-04-23T15:54:58Z</time>
      </trkpt>
      <trkpt lat="47.23179" lon="4.742">
        <ele>310</ele>
        <time>2014-04-23T15:55:03Z</time>
      </trkpt>
      <trkpt lat="47.23179" lon="4.74208">
        <ele>310</ele>
        <time>2014-04-23T15:55:07Z</time>
      </trkpt>
      <trkpt lat="47.2318" lon="4.74215">
        <ele>310</ele>
        <time>2014-04-23T15:55:12Z</time>
      </trkpt>
      <trkpt lat="47.2318" lon="4.74222">
        <ele>310</ele>
        <time>2014-04-23T15:55:16Z</time>
      </trkpt>
      <trkpt lat="47.23181" lon="4.74229">
        <ele>310</ele>
        <time>2014-04-23T15:55:20Z</time>
      </trkpt>
      <trkpt lat="47.23182" lon="4.74236">
        <ele>310</ele>
        <time>2014-04-23T15:55:23Z</time>
      </trkpt>
      <trkpt lat="47.23185" lon="4.74244">
        <ele>310</ele>
        <time>2014-04-23T15:55:27Z</time>
      </trkpt>
      <trkpt lat="47.23184" lon="4.74251">
        <ele>311</ele>
        <time>2014-04-23T15:55:31Z</time>
      </trkpt>
      <trkpt lat="47.23184" lon="4.74258">
        <ele>311</ele>
        <time>2014-04-23T15:55:35Z</time>
      </trkpt>
      <trkpt lat="47.23185" lon="4.74265">
        <ele>311</ele>
        <time>2014-04-23T15:55:39Z</time>
      </trkpt>
      <trkpt lat="47.23188" lon="4.74272">
        <ele>311</ele>
        <time>2014-04-23T15:55:43Z</time>
      </trkpt>
      <trkpt lat="47.2319" lon="4.7428">
        <ele>311</ele>
        <time>2014-04-23T15:55:47Z</time>
      </trkpt>
      <trkpt lat="47.23191" lon="4.74287">
        <ele>310</ele>
        <time>2014-04-23T15:55:51Z</time>
      </trkpt>
      <trkpt lat="47.23193" lon="4.74294">
        <ele>310</ele>
        <time>2014-04-23T15:55:55Z</time>
      </trkpt>
      <trkpt lat="47.23194" lon="4.74301">
        <ele>310</ele>
        <time>2014-04-23T15:55:59Z</time>
      </trkpt>
      <trkpt lat="47.23196" lon="4.74308">
        <ele>311</ele>
        <time>2014-04-23T15:56:03Z</time>
      </trkpt>
      <trkpt lat="47.23197" lon="4.74314">
        <ele>311</ele>
        <time>2014-04-23T15:56:07Z</time>
      </trkpt>
      <trkpt lat="47.23198" lon="4.7432">
        <ele>311</ele>
        <time>2014-04-23T15:56:11Z</time>
      </trkpt>
      <trkpt lat="47.232" lon="4.74329">
        <ele>311</ele>
        <time>2014-04-23T15:56:16Z</time>
      </trkpt>
      <trkpt lat="47.23202" lon="4.74336">
        <ele>311</ele>
        <time>2014-04-23T15:56:20Z</time>
      </trkpt>
      <trkpt lat="47.23204" lon="4.74343">
        <ele>311</ele>
        <time>2014-04-23T15:56:24Z</time>
      </trkpt>
      <trkpt lat="47.23206" lon="4.7435">
        <ele>311</ele>
        <time>2014-04-23T15:56:28Z</time>
      </trkpt>
      <trkpt lat="47.23209" lon="4.74356">
        <ele>310</ele>
        <time>2014-04-23T15:56:32Z</time>
      </trkpt>
      <trkpt lat="47.23212" lon="4.74363">
        <ele>310</ele>
        <time>2014-04-23T15:56:36Z</time>
      </trkpt>
      <trkpt lat="47.23214" lon="4.74369">
        <ele>310</ele>
        <time>2014-04-23T15:56:40Z</time>
      </trkpt>
      <trkpt lat="47.23217" lon="4.74376">
        <ele>310</ele>
        <time>2014-04-23T15:56:44Z</time>
      </trkpt>
      <trkpt lat="47.2322" lon="4.74382">
        <ele>310</ele>
        <time>2014-04-23T15:56:48Z</time>
      </trkpt>
      <trkpt lat="47.23223" lon="4.74388">
        <ele>310</ele>
        <time>2014-04-23T15:56:52Z</time>
      </trkpt>
      <trkpt lat="47.23225" lon="4.74394">
        <ele>310</ele>
        <time>2014-04-23T15:56:56Z</time>
      </trkpt>
      <trkpt lat="47.23228" lon="4.744">
        <ele>309</ele>
        <time>2014-04-23T15:57:00Z</time>
      </trkpt>
      <trkpt lat="47.23231" lon="4.74406">
        <ele>309</ele>
        <time>2014-04-23T15:57:05Z</time>
      </trkpt>
      <trkpt lat="47.23233" lon="4.74412">
        <ele>309</ele>
        <time>2014-04-23T15:57:09Z</time>
      </trkpt>
      <trkpt lat="47.23237" lon="4.74418">
        <ele>310</ele>
        <time>2014-04-23T15:57:14Z</time>
      </trkpt>
      <trkpt lat="47.2324" lon="4.74424">
        <ele>309</ele>
        <time>2014-04-23T15:57:19Z</time>
      </trkpt>
      <trkpt lat="47.2324" lon="4.74428">
        <ele>310</ele>
        <time>2014-04-23T15:57:25Z</time>
      </trkpt>
      <trkpt lat="47.23239" lon="4.74434">
        <ele>310</ele>
        <time>2014-04-23T15:57:35Z</time>
      </trkpt>
      <trkpt lat="47.2324" lon="4.74443">
        <ele>311</ele>
        <time>2014-04-23T15:57:39Z</time>
      </trkpt>
      <trkpt lat="47.23241" lon="4.7445">
        <ele>312</ele>
        <time>2014-04-23T15:57:44Z</time>
      </trkpt>
      <trkpt lat="47.23242" lon="4.74457">
        <ele>312</ele>
        <time>2014-04-23T15:57:49Z</time>
      </trkpt>
      <trkpt lat="47.23245" lon="4.74464">
        <ele>312</ele>
        <time>2014-04-23T15:57:52Z</time>
      </trkpt>
      <trkpt lat="47.23248" lon="4.74469">
        <ele>312</ele>
        <time>2014-04-23T15:57:55Z</time>
      </trkpt>
      <trkpt lat="47.23251" lon="4.74476">
        <ele>308</ele>
        <time>2014-04-23T15:58:00Z</time>
      </trkpt>
      <trkpt lat="47.23252" lon="4.74482">
        <ele>309</ele>
        <time>2014-04-23T15:58:06Z</time>
      </trkpt>
      <trkpt lat="47.23248" lon="4.74487">
        <ele>312</ele>
        <time>2014-04-23T15:58:11Z</time>
      </trkpt>
      <trkpt lat="47.23243" lon="4.74491">
        <ele>312</ele>
        <time>2014-04-23T15:58:14Z</time>
      </trkpt>
      <trkpt lat="47.23243" lon="4.74499">
        <ele>312</ele>
        <time>2014-04-23T15:58:21Z</time>
      </trkpt>
      <trkpt lat="47.23247" lon="4.74503">
        <ele>314</ele>
        <time>2014-04-23T15:58:26Z</time>
      </trkpt>
      <trkpt lat="47.23252" lon="4.74507">
        <ele>312</ele>
        <time>2014-04-23T15:58:31Z</time>
      </trkpt>
      <trkpt lat="47.23255" lon="4.74513">
        <ele>312</ele>
        <time>2014-04-23T15:58:34Z</time>
      </trkpt>
      <trkpt lat="47.23257" lon="4.7452">
        <ele>313</ele>
        <time>2014-04-23T15:58:37Z</time>
      </trkpt>
      <trkpt lat="47.23261" lon="4.74524">
        <ele>313</ele>
        <time>2014-04-23T15:58:40Z</time>
      </trkpt>
      <trkpt lat="47.23264" lon="4.74531">
        <ele>313</ele>
        <time>2014-04-23T15:58:45Z</time>
      </trkpt>
      <trkpt lat="47.23266" lon="4.74537">
        <ele>313</ele>
        <time>2014-04-23T15:58:49Z</time>
      </trkpt>
      <trkpt lat="47.23269" lon="4.74544">
        <ele>314</ele>
        <time>2014-04-23T15:58:54Z</time>
      </trkpt>
      <trkpt lat="47.23271" lon="4.7455">
        <ele>314</ele>
        <time>2014-04-23T15:58:59Z</time>
      </trkpt>
      <trkpt lat="47.23272" lon="4.74556">
        <ele>315</ele>
        <time>2014-04-23T15:59:09Z</time>
      </trkpt>
      <trkpt lat="47.23274" lon="4.74558">
        <ele>315</ele>
        <time>2014-04-23T15:59:22Z</time>
      </trkpt>
      <trkpt lat="47.23275" lon="4.74561">
        <ele>315</ele>
        <time>2014-04-23T16:00:37Z</time>
      </trkpt>
      <trkpt lat="47.23278" lon="4.74566">
        <ele>315</ele>
        <time>2014-04-23T16:00:54Z</time>
      </trkpt>
      <trkpt lat="47.23278" lon="4.74571">
        <ele>315</ele>
        <time>2014-04-23T16:01:06Z</time>
      </trkpt>
      <trkpt lat="47.23278" lon="4.74574">
        <ele>316</ele>
        <time>2014-04-23T16:01:20Z</time>
      </trkpt>
      <trkpt lat="47.23279" lon="4.74581">
        <ele>316</ele>
        <time>2014-04-23T16:01:31Z</time>
      </trkpt>
      <trkpt lat="47.23278" lon="4.74588">
        <ele>322</ele>
        <time>2014-04-23T16:01:38Z</time>
      </trkpt>
      <trkpt lat="47.23274" lon="4.74592">
        <ele>323</ele>
        <time>2014-04-23T16:01:44Z</time>
      </trkpt>
      <trkpt lat="47.2327" lon="4.74597">
        <ele>323</ele>
        <time>2014-04-23T16:01:50Z</time>
      </trkpt>
      <trkpt lat="47.23265" lon="4.74594">
        <ele>324</ele>
        <time>2014-04-23T16:01:56Z</time>
      </trkpt>
      <trkpt lat="47.23261" lon="4.74589">
        <ele>324</ele>
        <time>2014-04-23T16:02:01Z</time>
      </trkpt>
      <trkpt lat="47.2326" lon="4.74583">
        <ele>321</ele>
        <time>2014-04-23T16:02:05Z</time>
      </trkpt>
      <trkpt lat="47.2326" lon="4.74576">
        <ele>320</ele>
        <time>2014-04-23T16:02:11Z</time>
      </trkpt>
      <trkpt lat="47.23262" lon="4.7457">
        <ele>318</ele>
        <time>2014-04-23T16:02:17Z</time>
      </trkpt>
      <trkpt lat="47.23267" lon="4.74568">
        <ele>317</ele>
        <time>2014-04-23T16:02:22Z</time>
      </trkpt>
    </trkseg>
  </trk>
</gpx>